<?xml version="1.0" encoding="UTF-8" standalone="no" ?>
<gpx xmlns="http://www.topografix.com/GPX/1/1" xmlns:xsi="http://www.w3.org/2001/XMLSchema-instance" xsi:schemaLocation="http://www.topografix.com/GPX/1/1 http://www.topografix.com/GPX/1/1/gpx.xsd" version="1.1" creator="VisuGPX - https://www.visugpx.com">
  <metadata>
    <name>2013-08-04-VTT_RANDO FIJAGUET(12)</name>
    <desc><![CDATA[2013-08-04-VTT_RANDO FIJAGUET(12)]]></desc>
  </metadata>
  <trk>
    <name><![CDATA[2013-08-04-VTT_RANDO FIJAGUET(12)]]></name>
    <trkseg>
      <trkpt lat="44.43973" lon="2.45725">
        <ele>458.7</ele>
        <time>2013-08-04T07:13:37Z</time>
      </trkpt>
      <trkpt lat="44.43959" lon="2.45718">
        <ele>459.8</ele>
        <time>2013-08-04T07:13:45Z</time>
      </trkpt>
      <trkpt lat="44.43952" lon="2.45715">
        <ele>458.6</ele>
        <time>2013-08-04T07:13:48Z</time>
      </trkpt>
      <trkpt lat="44.43944" lon="2.45714">
        <ele>458.9</ele>
        <time>2013-08-04T07:13:51Z</time>
      </trkpt>
      <trkpt lat="44.43938" lon="2.45714">
        <ele>458.9</ele>
        <time>2013-08-04T07:13:53Z</time>
      </trkpt>
      <trkpt lat="44.43929" lon="2.45716">
        <ele>459.6</ele>
        <time>2013-08-04T07:13:56Z</time>
      </trkpt>
      <trkpt lat="44.43924" lon="2.4572">
        <ele>459.4</ele>
        <time>2013-08-04T07:13:58Z</time>
      </trkpt>
      <trkpt lat="44.43918" lon="2.45722">
        <ele>458.9</ele>
        <time>2013-08-04T07:14:00Z</time>
      </trkpt>
      <trkpt lat="44.43912" lon="2.45724">
        <ele>458.6</ele>
        <time>2013-08-04T07:14:02Z</time>
      </trkpt>
      <trkpt lat="44.43905" lon="2.45726">
        <ele>458.5</ele>
        <time>2013-08-04T07:14:04Z</time>
      </trkpt>
      <trkpt lat="44.43897" lon="2.45728">
        <ele>458.4</ele>
        <time>2013-08-04T07:14:06Z</time>
      </trkpt>
      <trkpt lat="44.43892" lon="2.45728">
        <ele>458.4</ele>
        <time>2013-08-04T07:14:07Z</time>
      </trkpt>
      <trkpt lat="44.43887" lon="2.45728">
        <ele>458.3</ele>
        <time>2013-08-04T07:14:08Z</time>
      </trkpt>
      <trkpt lat="44.43882" lon="2.45728">
        <ele>458.2</ele>
        <time>2013-08-04T07:14:09Z</time>
      </trkpt>
      <trkpt lat="44.43877" lon="2.45728">
        <ele>458.1</ele>
        <time>2013-08-04T07:14:10Z</time>
      </trkpt>
      <trkpt lat="44.43872" lon="2.45728">
        <ele>457.8</ele>
        <time>2013-08-04T07:14:11Z</time>
      </trkpt>
      <trkpt lat="44.43867" lon="2.45729">
        <ele>457.5</ele>
        <time>2013-08-04T07:14:12Z</time>
      </trkpt>
      <trkpt lat="44.43858" lon="2.45729">
        <ele>457.3</ele>
        <time>2013-08-04T07:14:14Z</time>
      </trkpt>
      <trkpt lat="44.4385" lon="2.45729">
        <ele>457.4</ele>
        <time>2013-08-04T07:14:16Z</time>
      </trkpt>
      <trkpt lat="44.43842" lon="2.45729">
        <ele>457.3</ele>
        <time>2013-08-04T07:14:18Z</time>
      </trkpt>
      <trkpt lat="44.43836" lon="2.45728">
        <ele>457.1</ele>
        <time>2013-08-04T07:14:20Z</time>
      </trkpt>
      <trkpt lat="44.43829" lon="2.45728">
        <ele>456.5</ele>
        <time>2013-08-04T07:14:23Z</time>
      </trkpt>
      <trkpt lat="44.4382" lon="2.45729">
        <ele>455.5</ele>
        <time>2013-08-04T07:14:27Z</time>
      </trkpt>
      <trkpt lat="44.43814" lon="2.45727">
        <ele>454.2</ele>
        <time>2013-08-04T07:14:30Z</time>
      </trkpt>
      <trkpt lat="44.43806" lon="2.45725">
        <ele>452.9</ele>
        <time>2013-08-04T07:14:33Z</time>
      </trkpt>
      <trkpt lat="44.43799" lon="2.45726">
        <ele>453.1</ele>
        <time>2013-08-04T07:14:35Z</time>
      </trkpt>
      <trkpt lat="44.43792" lon="2.4572">
        <ele>452.8</ele>
        <time>2013-08-04T07:14:37Z</time>
      </trkpt>
      <trkpt lat="44.43787" lon="2.45718">
        <ele>452.6</ele>
        <time>2013-08-04T07:14:38Z</time>
      </trkpt>
      <trkpt lat="44.43782" lon="2.45716">
        <ele>452.4</ele>
        <time>2013-08-04T07:14:39Z</time>
      </trkpt>
      <trkpt lat="44.43777" lon="2.45713">
        <ele>452.2</ele>
        <time>2013-08-04T07:14:40Z</time>
      </trkpt>
      <trkpt lat="44.43772" lon="2.45711">
        <ele>452.1</ele>
        <time>2013-08-04T07:14:41Z</time>
      </trkpt>
      <trkpt lat="44.43766" lon="2.45708">
        <ele>452</ele>
        <time>2013-08-04T07:14:42Z</time>
      </trkpt>
      <trkpt lat="44.4376" lon="2.45705">
        <ele>451.4</ele>
        <time>2013-08-04T07:14:43Z</time>
      </trkpt>
      <trkpt lat="44.43754" lon="2.45702">
        <ele>451</ele>
        <time>2013-08-04T07:14:44Z</time>
      </trkpt>
      <trkpt lat="44.43748" lon="2.45701">
        <ele>450.7</ele>
        <time>2013-08-04T07:14:45Z</time>
      </trkpt>
      <trkpt lat="44.43742" lon="2.457">
        <ele>450.1</ele>
        <time>2013-08-04T07:14:46Z</time>
      </trkpt>
      <trkpt lat="44.43736" lon="2.457">
        <ele>449.6</ele>
        <time>2013-08-04T07:14:47Z</time>
      </trkpt>
      <trkpt lat="44.43731" lon="2.45701">
        <ele>449.3</ele>
        <time>2013-08-04T07:14:48Z</time>
      </trkpt>
      <trkpt lat="44.43725" lon="2.45705">
        <ele>448.3</ele>
        <time>2013-08-04T07:14:49Z</time>
      </trkpt>
      <trkpt lat="44.43718" lon="2.45709">
        <ele>447.6</ele>
        <time>2013-08-04T07:14:50Z</time>
      </trkpt>
      <trkpt lat="44.43711" lon="2.45713">
        <ele>447.1</ele>
        <time>2013-08-04T07:14:51Z</time>
      </trkpt>
      <trkpt lat="44.43705" lon="2.45719">
        <ele>446.7</ele>
        <time>2013-08-04T07:14:52Z</time>
      </trkpt>
      <trkpt lat="44.437" lon="2.45725">
        <ele>445.5</ele>
        <time>2013-08-04T07:14:53Z</time>
      </trkpt>
      <trkpt lat="44.43695" lon="2.45731">
        <ele>444.7</ele>
        <time>2013-08-04T07:14:54Z</time>
      </trkpt>
      <trkpt lat="44.43692" lon="2.45739">
        <ele>444</ele>
        <time>2013-08-04T07:14:55Z</time>
      </trkpt>
      <trkpt lat="44.43692" lon="2.45749">
        <ele>443.2</ele>
        <time>2013-08-04T07:14:56Z</time>
      </trkpt>
      <trkpt lat="44.43693" lon="2.4576">
        <ele>442.5</ele>
        <time>2013-08-04T07:14:57Z</time>
      </trkpt>
      <trkpt lat="44.43696" lon="2.45769">
        <ele>442</ele>
        <time>2013-08-04T07:14:58Z</time>
      </trkpt>
      <trkpt lat="44.43699" lon="2.45778">
        <ele>441.7</ele>
        <time>2013-08-04T07:14:59Z</time>
      </trkpt>
      <trkpt lat="44.43703" lon="2.45787">
        <ele>441.4</ele>
        <time>2013-08-04T07:15:00Z</time>
      </trkpt>
      <trkpt lat="44.43707" lon="2.45794">
        <ele>441.2</ele>
        <time>2013-08-04T07:15:01Z</time>
      </trkpt>
      <trkpt lat="44.43711" lon="2.45801">
        <ele>440.9</ele>
        <time>2013-08-04T07:15:02Z</time>
      </trkpt>
      <trkpt lat="44.43715" lon="2.45808">
        <ele>440.7</ele>
        <time>2013-08-04T07:15:03Z</time>
      </trkpt>
      <trkpt lat="44.43718" lon="2.45815">
        <ele>440.6</ele>
        <time>2013-08-04T07:15:04Z</time>
      </trkpt>
      <trkpt lat="44.43721" lon="2.45822">
        <ele>440.7</ele>
        <time>2013-08-04T07:15:05Z</time>
      </trkpt>
      <trkpt lat="44.43725" lon="2.45828">
        <ele>440.8</ele>
        <time>2013-08-04T07:15:06Z</time>
      </trkpt>
      <trkpt lat="44.43729" lon="2.45835">
        <ele>440.9</ele>
        <time>2013-08-04T07:15:07Z</time>
      </trkpt>
      <trkpt lat="44.43732" lon="2.45841">
        <ele>440.9</ele>
        <time>2013-08-04T07:15:08Z</time>
      </trkpt>
      <trkpt lat="44.43736" lon="2.45847">
        <ele>441.4</ele>
        <time>2013-08-04T07:15:09Z</time>
      </trkpt>
      <trkpt lat="44.4374" lon="2.45854">
        <ele>441.8</ele>
        <time>2013-08-04T07:15:10Z</time>
      </trkpt>
      <trkpt lat="44.43743" lon="2.4586">
        <ele>442.1</ele>
        <time>2013-08-04T07:15:11Z</time>
      </trkpt>
      <trkpt lat="44.43746" lon="2.45865">
        <ele>442.1</ele>
        <time>2013-08-04T07:15:12Z</time>
      </trkpt>
      <trkpt lat="44.43749" lon="2.45871">
        <ele>442.1</ele>
        <time>2013-08-04T07:15:13Z</time>
      </trkpt>
      <trkpt lat="44.43753" lon="2.45881">
        <ele>442.3</ele>
        <time>2013-08-04T07:15:15Z</time>
      </trkpt>
      <trkpt lat="44.43757" lon="2.4589">
        <ele>442.5</ele>
        <time>2013-08-04T07:15:17Z</time>
      </trkpt>
      <trkpt lat="44.43761" lon="2.459">
        <ele>443.3</ele>
        <time>2013-08-04T07:15:19Z</time>
      </trkpt>
      <trkpt lat="44.43765" lon="2.45911">
        <ele>443.7</ele>
        <time>2013-08-04T07:15:21Z</time>
      </trkpt>
      <trkpt lat="44.43768" lon="2.4592">
        <ele>443.8</ele>
        <time>2013-08-04T07:15:23Z</time>
      </trkpt>
      <trkpt lat="44.43771" lon="2.45931">
        <ele>444.6</ele>
        <time>2013-08-04T07:15:25Z</time>
      </trkpt>
      <trkpt lat="44.43773" lon="2.4594">
        <ele>445.5</ele>
        <time>2013-08-04T07:15:27Z</time>
      </trkpt>
      <trkpt lat="44.43775" lon="2.45948">
        <ele>445.6</ele>
        <time>2013-08-04T07:15:29Z</time>
      </trkpt>
      <trkpt lat="44.43777" lon="2.45956">
        <ele>445.9</ele>
        <time>2013-08-04T07:15:31Z</time>
      </trkpt>
      <trkpt lat="44.43779" lon="2.45965">
        <ele>446.2</ele>
        <time>2013-08-04T07:15:33Z</time>
      </trkpt>
      <trkpt lat="44.4378" lon="2.45973">
        <ele>446.3</ele>
        <time>2013-08-04T07:15:35Z</time>
      </trkpt>
      <trkpt lat="44.43781" lon="2.45985">
        <ele>446.6</ele>
        <time>2013-08-04T07:15:37Z</time>
      </trkpt>
      <trkpt lat="44.43782" lon="2.45991">
        <ele>446.7</ele>
        <time>2013-08-04T07:15:38Z</time>
      </trkpt>
      <trkpt lat="44.43782" lon="2.45998">
        <ele>446.9</ele>
        <time>2013-08-04T07:15:39Z</time>
      </trkpt>
      <trkpt lat="44.43782" lon="2.46004">
        <ele>447</ele>
        <time>2013-08-04T07:15:40Z</time>
      </trkpt>
      <trkpt lat="44.43782" lon="2.46017">
        <ele>446.3</ele>
        <time>2013-08-04T07:15:42Z</time>
      </trkpt>
      <trkpt lat="44.43782" lon="2.46023">
        <ele>446.1</ele>
        <time>2013-08-04T07:15:43Z</time>
      </trkpt>
      <trkpt lat="44.43782" lon="2.46029">
        <ele>446.6</ele>
        <time>2013-08-04T07:15:44Z</time>
      </trkpt>
      <trkpt lat="44.43783" lon="2.46036">
        <ele>447</ele>
        <time>2013-08-04T07:15:45Z</time>
      </trkpt>
      <trkpt lat="44.43783" lon="2.46042">
        <ele>447.2</ele>
        <time>2013-08-04T07:15:46Z</time>
      </trkpt>
      <trkpt lat="44.43784" lon="2.46048">
        <ele>447.2</ele>
        <time>2013-08-04T07:15:47Z</time>
      </trkpt>
      <trkpt lat="44.43785" lon="2.46054">
        <ele>447.2</ele>
        <time>2013-08-04T07:15:48Z</time>
      </trkpt>
      <trkpt lat="44.43786" lon="2.46061">
        <ele>447.2</ele>
        <time>2013-08-04T07:15:49Z</time>
      </trkpt>
      <trkpt lat="44.43787" lon="2.46067">
        <ele>447.3</ele>
        <time>2013-08-04T07:15:50Z</time>
      </trkpt>
      <trkpt lat="44.43789" lon="2.46079">
        <ele>447.5</ele>
        <time>2013-08-04T07:15:52Z</time>
      </trkpt>
      <trkpt lat="44.43791" lon="2.46085">
        <ele>447.5</ele>
        <time>2013-08-04T07:15:53Z</time>
      </trkpt>
      <trkpt lat="44.43792" lon="2.46091">
        <ele>447.4</ele>
        <time>2013-08-04T07:15:54Z</time>
      </trkpt>
      <trkpt lat="44.43795" lon="2.46102">
        <ele>447.4</ele>
        <time>2013-08-04T07:15:56Z</time>
      </trkpt>
      <trkpt lat="44.43798" lon="2.46114">
        <ele>447.9</ele>
        <time>2013-08-04T07:15:58Z</time>
      </trkpt>
      <trkpt lat="44.43801" lon="2.46125">
        <ele>448</ele>
        <time>2013-08-04T07:16:00Z</time>
      </trkpt>
      <trkpt lat="44.43804" lon="2.46136">
        <ele>447.9</ele>
        <time>2013-08-04T07:16:02Z</time>
      </trkpt>
      <trkpt lat="44.43807" lon="2.46146">
        <ele>448.5</ele>
        <time>2013-08-04T07:16:04Z</time>
      </trkpt>
      <trkpt lat="44.43809" lon="2.46157">
        <ele>449.2</ele>
        <time>2013-08-04T07:16:06Z</time>
      </trkpt>
      <trkpt lat="44.43812" lon="2.46167">
        <ele>449.8</ele>
        <time>2013-08-04T07:16:08Z</time>
      </trkpt>
      <trkpt lat="44.43813" lon="2.46177">
        <ele>450</ele>
        <time>2013-08-04T07:16:10Z</time>
      </trkpt>
      <trkpt lat="44.43815" lon="2.46188">
        <ele>450.2</ele>
        <time>2013-08-04T07:16:12Z</time>
      </trkpt>
      <trkpt lat="44.43818" lon="2.46198">
        <ele>450.3</ele>
        <time>2013-08-04T07:16:14Z</time>
      </trkpt>
      <trkpt lat="44.4382" lon="2.46209">
        <ele>450.7</ele>
        <time>2013-08-04T07:16:16Z</time>
      </trkpt>
      <trkpt lat="44.43822" lon="2.46218">
        <ele>451.1</ele>
        <time>2013-08-04T07:16:18Z</time>
      </trkpt>
      <trkpt lat="44.43824" lon="2.46227">
        <ele>451.2</ele>
        <time>2013-08-04T07:16:20Z</time>
      </trkpt>
      <trkpt lat="44.43826" lon="2.46237">
        <ele>451.1</ele>
        <time>2013-08-04T07:16:22Z</time>
      </trkpt>
      <trkpt lat="44.43829" lon="2.46246">
        <ele>451</ele>
        <time>2013-08-04T07:16:24Z</time>
      </trkpt>
      <trkpt lat="44.43831" lon="2.46256">
        <ele>451.8</ele>
        <time>2013-08-04T07:16:26Z</time>
      </trkpt>
      <trkpt lat="44.43834" lon="2.46265">
        <ele>452.2</ele>
        <time>2013-08-04T07:16:28Z</time>
      </trkpt>
      <trkpt lat="44.43835" lon="2.46275">
        <ele>452.5</ele>
        <time>2013-08-04T07:16:30Z</time>
      </trkpt>
      <trkpt lat="44.43836" lon="2.46284">
        <ele>452.8</ele>
        <time>2013-08-04T07:16:32Z</time>
      </trkpt>
      <trkpt lat="44.43839" lon="2.46293">
        <ele>453.1</ele>
        <time>2013-08-04T07:16:34Z</time>
      </trkpt>
      <trkpt lat="44.4384" lon="2.46303">
        <ele>452.6</ele>
        <time>2013-08-04T07:16:36Z</time>
      </trkpt>
      <trkpt lat="44.43841" lon="2.46313">
        <ele>452.9</ele>
        <time>2013-08-04T07:16:38Z</time>
      </trkpt>
      <trkpt lat="44.43842" lon="2.46324">
        <ele>453.4</ele>
        <time>2013-08-04T07:16:40Z</time>
      </trkpt>
      <trkpt lat="44.43842" lon="2.46329">
        <ele>453.6</ele>
        <time>2013-08-04T07:16:41Z</time>
      </trkpt>
      <trkpt lat="44.43842" lon="2.46346">
        <ele>453.6</ele>
        <time>2013-08-04T07:16:44Z</time>
      </trkpt>
      <trkpt lat="44.43842" lon="2.46358">
        <ele>453.3</ele>
        <time>2013-08-04T07:16:46Z</time>
      </trkpt>
      <trkpt lat="44.43843" lon="2.4637">
        <ele>452.9</ele>
        <time>2013-08-04T07:16:48Z</time>
      </trkpt>
      <trkpt lat="44.43842" lon="2.46383">
        <ele>452.5</ele>
        <time>2013-08-04T07:16:50Z</time>
      </trkpt>
      <trkpt lat="44.43842" lon="2.4639">
        <ele>452.6</ele>
        <time>2013-08-04T07:16:51Z</time>
      </trkpt>
      <trkpt lat="44.43841" lon="2.46396">
        <ele>452.7</ele>
        <time>2013-08-04T07:16:52Z</time>
      </trkpt>
      <trkpt lat="44.43841" lon="2.46403">
        <ele>452.8</ele>
        <time>2013-08-04T07:16:53Z</time>
      </trkpt>
      <trkpt lat="44.4384" lon="2.4641">
        <ele>452.9</ele>
        <time>2013-08-04T07:16:54Z</time>
      </trkpt>
      <trkpt lat="44.4384" lon="2.46417">
        <ele>452.9</ele>
        <time>2013-08-04T07:16:55Z</time>
      </trkpt>
      <trkpt lat="44.43839" lon="2.46424">
        <ele>453</ele>
        <time>2013-08-04T07:16:56Z</time>
      </trkpt>
      <trkpt lat="44.43838" lon="2.4643">
        <ele>452.9</ele>
        <time>2013-08-04T07:16:57Z</time>
      </trkpt>
      <trkpt lat="44.43837" lon="2.46437">
        <ele>452.8</ele>
        <time>2013-08-04T07:16:58Z</time>
      </trkpt>
      <trkpt lat="44.43837" lon="2.46445">
        <ele>452.8</ele>
        <time>2013-08-04T07:16:59Z</time>
      </trkpt>
      <trkpt lat="44.43835" lon="2.46452">
        <ele>452.5</ele>
        <time>2013-08-04T07:17:00Z</time>
      </trkpt>
      <trkpt lat="44.43834" lon="2.46459">
        <ele>452.3</ele>
        <time>2013-08-04T07:17:01Z</time>
      </trkpt>
      <trkpt lat="44.43834" lon="2.46467">
        <ele>452.1</ele>
        <time>2013-08-04T07:17:02Z</time>
      </trkpt>
      <trkpt lat="44.43833" lon="2.46475">
        <ele>452</ele>
        <time>2013-08-04T07:17:03Z</time>
      </trkpt>
      <trkpt lat="44.43832" lon="2.46483">
        <ele>451.4</ele>
        <time>2013-08-04T07:17:04Z</time>
      </trkpt>
      <trkpt lat="44.43832" lon="2.46491">
        <ele>450.9</ele>
        <time>2013-08-04T07:17:05Z</time>
      </trkpt>
      <trkpt lat="44.43832" lon="2.46499">
        <ele>450.5</ele>
        <time>2013-08-04T07:17:06Z</time>
      </trkpt>
      <trkpt lat="44.43831" lon="2.46507">
        <ele>450</ele>
        <time>2013-08-04T07:17:07Z</time>
      </trkpt>
      <trkpt lat="44.43831" lon="2.46516">
        <ele>449.6</ele>
        <time>2013-08-04T07:17:08Z</time>
      </trkpt>
      <trkpt lat="44.4383" lon="2.46525">
        <ele>449.4</ele>
        <time>2013-08-04T07:17:09Z</time>
      </trkpt>
      <trkpt lat="44.4383" lon="2.46533">
        <ele>449.3</ele>
        <time>2013-08-04T07:17:10Z</time>
      </trkpt>
      <trkpt lat="44.43829" lon="2.46541">
        <ele>449.2</ele>
        <time>2013-08-04T07:17:11Z</time>
      </trkpt>
      <trkpt lat="44.43829" lon="2.4655">
        <ele>449.2</ele>
        <time>2013-08-04T07:17:12Z</time>
      </trkpt>
      <trkpt lat="44.43829" lon="2.46559">
        <ele>448.9</ele>
        <time>2013-08-04T07:17:13Z</time>
      </trkpt>
      <trkpt lat="44.43829" lon="2.46568">
        <ele>448.7</ele>
        <time>2013-08-04T07:17:14Z</time>
      </trkpt>
      <trkpt lat="44.43829" lon="2.46578">
        <ele>448.6</ele>
        <time>2013-08-04T07:17:15Z</time>
      </trkpt>
      <trkpt lat="44.43829" lon="2.46587">
        <ele>447.6</ele>
        <time>2013-08-04T07:17:16Z</time>
      </trkpt>
      <trkpt lat="44.4383" lon="2.46598">
        <ele>446.8</ele>
        <time>2013-08-04T07:17:17Z</time>
      </trkpt>
      <trkpt lat="44.4383" lon="2.46608">
        <ele>446.2</ele>
        <time>2013-08-04T07:17:18Z</time>
      </trkpt>
      <trkpt lat="44.43831" lon="2.46619">
        <ele>445.8</ele>
        <time>2013-08-04T07:17:19Z</time>
      </trkpt>
      <trkpt lat="44.43831" lon="2.4663">
        <ele>445.6</ele>
        <time>2013-08-04T07:17:20Z</time>
      </trkpt>
      <trkpt lat="44.43831" lon="2.46641">
        <ele>445.5</ele>
        <time>2013-08-04T07:17:21Z</time>
      </trkpt>
      <trkpt lat="44.4383" lon="2.46653">
        <ele>445.4</ele>
        <time>2013-08-04T07:17:22Z</time>
      </trkpt>
      <trkpt lat="44.43828" lon="2.46664">
        <ele>444.9</ele>
        <time>2013-08-04T07:17:23Z</time>
      </trkpt>
      <trkpt lat="44.43827" lon="2.46676">
        <ele>444.4</ele>
        <time>2013-08-04T07:17:24Z</time>
      </trkpt>
      <trkpt lat="44.43825" lon="2.46688">
        <ele>444.1</ele>
        <time>2013-08-04T07:17:25Z</time>
      </trkpt>
      <trkpt lat="44.43824" lon="2.467">
        <ele>443.4</ele>
        <time>2013-08-04T07:17:26Z</time>
      </trkpt>
      <trkpt lat="44.43823" lon="2.46712">
        <ele>442.9</ele>
        <time>2013-08-04T07:17:27Z</time>
      </trkpt>
      <trkpt lat="44.43823" lon="2.46724">
        <ele>442.5</ele>
        <time>2013-08-04T07:17:28Z</time>
      </trkpt>
      <trkpt lat="44.43823" lon="2.46736">
        <ele>441.7</ele>
        <time>2013-08-04T07:17:29Z</time>
      </trkpt>
      <trkpt lat="44.43824" lon="2.46748">
        <ele>441.2</ele>
        <time>2013-08-04T07:17:30Z</time>
      </trkpt>
      <trkpt lat="44.43827" lon="2.46758">
        <ele>440.8</ele>
        <time>2013-08-04T07:17:31Z</time>
      </trkpt>
      <trkpt lat="44.4383" lon="2.46766">
        <ele>440.5</ele>
        <time>2013-08-04T07:17:32Z</time>
      </trkpt>
      <trkpt lat="44.43833" lon="2.46775">
        <ele>440.3</ele>
        <time>2013-08-04T07:17:33Z</time>
      </trkpt>
      <trkpt lat="44.43836" lon="2.46784">
        <ele>440.1</ele>
        <time>2013-08-04T07:17:34Z</time>
      </trkpt>
      <trkpt lat="44.43839" lon="2.46792">
        <ele>440.1</ele>
        <time>2013-08-04T07:17:35Z</time>
      </trkpt>
      <trkpt lat="44.43842" lon="2.468">
        <ele>440.1</ele>
        <time>2013-08-04T07:17:36Z</time>
      </trkpt>
      <trkpt lat="44.43845" lon="2.46808">
        <ele>440.1</ele>
        <time>2013-08-04T07:17:37Z</time>
      </trkpt>
      <trkpt lat="44.43849" lon="2.46818">
        <ele>440.2</ele>
        <time>2013-08-04T07:17:39Z</time>
      </trkpt>
      <trkpt lat="44.43852" lon="2.46827">
        <ele>440.3</ele>
        <time>2013-08-04T07:17:41Z</time>
      </trkpt>
      <trkpt lat="44.43853" lon="2.46833">
        <ele>440.5</ele>
        <time>2013-08-04T07:17:42Z</time>
      </trkpt>
      <trkpt lat="44.43856" lon="2.46849">
        <ele>441</ele>
        <time>2013-08-04T07:17:45Z</time>
      </trkpt>
      <trkpt lat="44.43856" lon="2.4686">
        <ele>441.3</ele>
        <time>2013-08-04T07:17:47Z</time>
      </trkpt>
      <trkpt lat="44.43855" lon="2.46869">
        <ele>442</ele>
        <time>2013-08-04T07:17:49Z</time>
      </trkpt>
      <trkpt lat="44.4385" lon="2.4688">
        <ele>441.5</ele>
        <time>2013-08-04T07:17:53Z</time>
      </trkpt>
      <trkpt lat="44.43846" lon="2.4689">
        <ele>442.5</ele>
        <time>2013-08-04T07:17:58Z</time>
      </trkpt>
      <trkpt lat="44.4384" lon="2.46899">
        <ele>444.2</ele>
        <time>2013-08-04T07:18:03Z</time>
      </trkpt>
      <trkpt lat="44.43832" lon="2.46905">
        <ele>445.9</ele>
        <time>2013-08-04T07:18:07Z</time>
      </trkpt>
      <trkpt lat="44.43826" lon="2.46912">
        <ele>446.6</ele>
        <time>2013-08-04T07:18:11Z</time>
      </trkpt>
      <trkpt lat="44.43819" lon="2.46919">
        <ele>447.6</ele>
        <time>2013-08-04T07:18:15Z</time>
      </trkpt>
      <trkpt lat="44.43814" lon="2.46926">
        <ele>449</ele>
        <time>2013-08-04T07:18:19Z</time>
      </trkpt>
      <trkpt lat="44.43807" lon="2.46932">
        <ele>450.4</ele>
        <time>2013-08-04T07:18:24Z</time>
      </trkpt>
      <trkpt lat="44.43801" lon="2.4694">
        <ele>451.2</ele>
        <time>2013-08-04T07:18:30Z</time>
      </trkpt>
      <trkpt lat="44.43794" lon="2.46947">
        <ele>451.5</ele>
        <time>2013-08-04T07:18:35Z</time>
      </trkpt>
      <trkpt lat="44.43787" lon="2.46952">
        <ele>453.5</ele>
        <time>2013-08-04T07:18:39Z</time>
      </trkpt>
      <trkpt lat="44.4378" lon="2.46956">
        <ele>454.5</ele>
        <time>2013-08-04T07:18:43Z</time>
      </trkpt>
      <trkpt lat="44.43778" lon="2.46957">
        <ele>454.6</ele>
        <time>2013-08-04T07:18:44Z</time>
      </trkpt>
      <trkpt lat="44.43765" lon="2.46965">
        <ele>457.1</ele>
        <time>2013-08-04T07:18:53Z</time>
      </trkpt>
      <trkpt lat="44.43757" lon="2.46968">
        <ele>458.5</ele>
        <time>2013-08-04T07:18:57Z</time>
      </trkpt>
      <trkpt lat="44.43749" lon="2.46971">
        <ele>459.1</ele>
        <time>2013-08-04T07:19:04Z</time>
      </trkpt>
      <trkpt lat="44.43742" lon="2.46977">
        <ele>459.4</ele>
        <time>2013-08-04T07:19:09Z</time>
      </trkpt>
      <trkpt lat="44.43734" lon="2.46982">
        <ele>460.4</ele>
        <time>2013-08-04T07:19:14Z</time>
      </trkpt>
      <trkpt lat="44.43727" lon="2.46988">
        <ele>461.8</ele>
        <time>2013-08-04T07:19:19Z</time>
      </trkpt>
      <trkpt lat="44.43721" lon="2.46994">
        <ele>464.1</ele>
        <time>2013-08-04T07:19:24Z</time>
      </trkpt>
      <trkpt lat="44.43714" lon="2.47001">
        <ele>465</ele>
        <time>2013-08-04T07:19:30Z</time>
      </trkpt>
      <trkpt lat="44.43707" lon="2.47007">
        <ele>465.8</ele>
        <time>2013-08-04T07:19:35Z</time>
      </trkpt>
      <trkpt lat="44.437" lon="2.47014">
        <ele>467.1</ele>
        <time>2013-08-04T07:19:41Z</time>
      </trkpt>
      <trkpt lat="44.43693" lon="2.4702">
        <ele>468</ele>
        <time>2013-08-04T07:19:47Z</time>
      </trkpt>
      <trkpt lat="44.43691" lon="2.4702">
        <ele>468.1</ele>
        <time>2013-08-04T07:19:48Z</time>
      </trkpt>
      <trkpt lat="44.43678" lon="2.47028">
        <ele>470.6</ele>
        <time>2013-08-04T07:19:59Z</time>
      </trkpt>
      <trkpt lat="44.43669" lon="2.47033">
        <ele>470.6</ele>
        <time>2013-08-04T07:20:05Z</time>
      </trkpt>
      <trkpt lat="44.43661" lon="2.47035">
        <ele>472.5</ele>
        <time>2013-08-04T07:20:10Z</time>
      </trkpt>
      <trkpt lat="44.43653" lon="2.47039">
        <ele>473.1</ele>
        <time>2013-08-04T07:20:15Z</time>
      </trkpt>
      <trkpt lat="44.43645" lon="2.47045">
        <ele>474.6</ele>
        <time>2013-08-04T07:20:20Z</time>
      </trkpt>
      <trkpt lat="44.43638" lon="2.47051">
        <ele>475.4</ele>
        <time>2013-08-04T07:20:25Z</time>
      </trkpt>
      <trkpt lat="44.43631" lon="2.47054">
        <ele>476</ele>
        <time>2013-08-04T07:20:30Z</time>
      </trkpt>
      <trkpt lat="44.43623" lon="2.47057">
        <ele>477.8</ele>
        <time>2013-08-04T07:20:35Z</time>
      </trkpt>
      <trkpt lat="44.43616" lon="2.47064">
        <ele>479.4</ele>
        <time>2013-08-04T07:20:41Z</time>
      </trkpt>
      <trkpt lat="44.43609" lon="2.47071">
        <ele>479.8</ele>
        <time>2013-08-04T07:20:48Z</time>
      </trkpt>
      <trkpt lat="44.43607" lon="2.47072">
        <ele>479.9</ele>
        <time>2013-08-04T07:20:49Z</time>
      </trkpt>
      <trkpt lat="44.43597" lon="2.47086">
        <ele>482</ele>
        <time>2013-08-04T07:21:00Z</time>
      </trkpt>
      <trkpt lat="44.43591" lon="2.47095">
        <ele>483.1</ele>
        <time>2013-08-04T07:21:06Z</time>
      </trkpt>
      <trkpt lat="44.43586" lon="2.47104">
        <ele>483.7</ele>
        <time>2013-08-04T07:21:12Z</time>
      </trkpt>
      <trkpt lat="44.43581" lon="2.47113">
        <ele>484.8</ele>
        <time>2013-08-04T07:21:18Z</time>
      </trkpt>
      <trkpt lat="44.43576" lon="2.47122">
        <ele>486.2</ele>
        <time>2013-08-04T07:21:24Z</time>
      </trkpt>
      <trkpt lat="44.4357" lon="2.4713">
        <ele>487.8</ele>
        <time>2013-08-04T07:21:29Z</time>
      </trkpt>
      <trkpt lat="44.43565" lon="2.47139">
        <ele>489.5</ele>
        <time>2013-08-04T07:21:35Z</time>
      </trkpt>
      <trkpt lat="44.43558" lon="2.47147">
        <ele>489.2</ele>
        <time>2013-08-04T07:21:41Z</time>
      </trkpt>
      <trkpt lat="44.43552" lon="2.47156">
        <ele>489.8</ele>
        <time>2013-08-04T07:21:47Z</time>
      </trkpt>
      <trkpt lat="44.43547" lon="2.47164">
        <ele>492</ele>
        <time>2013-08-04T07:21:53Z</time>
      </trkpt>
      <trkpt lat="44.43546" lon="2.47165">
        <ele>492.3</ele>
        <time>2013-08-04T07:21:54Z</time>
      </trkpt>
      <trkpt lat="44.43535" lon="2.47179">
        <ele>494.4</ele>
        <time>2013-08-04T07:22:06Z</time>
      </trkpt>
      <trkpt lat="44.43528" lon="2.47187">
        <ele>496.3</ele>
        <time>2013-08-04T07:22:12Z</time>
      </trkpt>
      <trkpt lat="44.43522" lon="2.47195">
        <ele>497.6</ele>
        <time>2013-08-04T07:22:19Z</time>
      </trkpt>
      <trkpt lat="44.43514" lon="2.47195">
        <ele>498.1</ele>
        <time>2013-08-04T07:22:25Z</time>
      </trkpt>
      <trkpt lat="44.43505" lon="2.47195">
        <ele>500.4</ele>
        <time>2013-08-04T07:22:31Z</time>
      </trkpt>
      <trkpt lat="44.43497" lon="2.47194">
        <ele>501.9</ele>
        <time>2013-08-04T07:22:37Z</time>
      </trkpt>
      <trkpt lat="44.43489" lon="2.47192">
        <ele>503.2</ele>
        <time>2013-08-04T07:22:43Z</time>
      </trkpt>
      <trkpt lat="44.43481" lon="2.4719">
        <ele>504.5</ele>
        <time>2013-08-04T07:22:50Z</time>
      </trkpt>
      <trkpt lat="44.43472" lon="2.47189">
        <ele>505.2</ele>
        <time>2013-08-04T07:22:57Z</time>
      </trkpt>
      <trkpt lat="44.43471" lon="2.47189">
        <ele>505.8</ele>
        <time>2013-08-04T07:22:58Z</time>
      </trkpt>
      <trkpt lat="44.43458" lon="2.47181">
        <ele>507.2</ele>
        <time>2013-08-04T07:23:09Z</time>
      </trkpt>
      <trkpt lat="44.4345" lon="2.47176">
        <ele>508.1</ele>
        <time>2013-08-04T07:23:15Z</time>
      </trkpt>
      <trkpt lat="44.43442" lon="2.47174">
        <ele>508.9</ele>
        <time>2013-08-04T07:23:21Z</time>
      </trkpt>
      <trkpt lat="44.43435" lon="2.4718">
        <ele>511.1</ele>
        <time>2013-08-04T07:23:30Z</time>
      </trkpt>
      <trkpt lat="44.4343" lon="2.4719">
        <ele>512.7</ele>
        <time>2013-08-04T07:23:39Z</time>
      </trkpt>
      <trkpt lat="44.43422" lon="2.47197">
        <ele>516.3</ele>
        <time>2013-08-04T07:23:48Z</time>
      </trkpt>
      <trkpt lat="44.43416" lon="2.47204">
        <ele>518</ele>
        <time>2013-08-04T07:23:56Z</time>
      </trkpt>
      <trkpt lat="44.4341" lon="2.47212">
        <ele>520.7</ele>
        <time>2013-08-04T07:24:04Z</time>
      </trkpt>
      <trkpt lat="44.43409" lon="2.47213">
        <ele>520.7</ele>
        <time>2013-08-04T07:24:05Z</time>
      </trkpt>
      <trkpt lat="44.43396" lon="2.47224">
        <ele>521.8</ele>
        <time>2013-08-04T07:24:17Z</time>
      </trkpt>
      <trkpt lat="44.43388" lon="2.47229">
        <ele>524.3</ele>
        <time>2013-08-04T07:24:23Z</time>
      </trkpt>
      <trkpt lat="44.43381" lon="2.47234">
        <ele>523.9</ele>
        <time>2013-08-04T07:24:28Z</time>
      </trkpt>
      <trkpt lat="44.43373" lon="2.47238">
        <ele>522.8</ele>
        <time>2013-08-04T07:24:33Z</time>
      </trkpt>
      <trkpt lat="44.43365" lon="2.47236">
        <ele>522.8</ele>
        <time>2013-08-04T07:24:38Z</time>
      </trkpt>
      <trkpt lat="44.43356" lon="2.47234">
        <ele>523.7</ele>
        <time>2013-08-04T07:24:43Z</time>
      </trkpt>
      <trkpt lat="44.4335" lon="2.47232">
        <ele>524.3</ele>
        <time>2013-08-04T07:24:46Z</time>
      </trkpt>
      <trkpt lat="44.43343" lon="2.4723">
        <ele>524.9</ele>
        <time>2013-08-04T07:24:49Z</time>
      </trkpt>
      <trkpt lat="44.43336" lon="2.47229">
        <ele>524.7</ele>
        <time>2013-08-04T07:24:52Z</time>
      </trkpt>
      <trkpt lat="44.43328" lon="2.4723">
        <ele>524.3</ele>
        <time>2013-08-04T07:24:55Z</time>
      </trkpt>
      <trkpt lat="44.43321" lon="2.4723">
        <ele>524.7</ele>
        <time>2013-08-04T07:24:58Z</time>
      </trkpt>
      <trkpt lat="44.43314" lon="2.4723">
        <ele>525.7</ele>
        <time>2013-08-04T07:25:01Z</time>
      </trkpt>
      <trkpt lat="44.43305" lon="2.47229">
        <ele>525.1</ele>
        <time>2013-08-04T07:25:04Z</time>
      </trkpt>
      <trkpt lat="44.43297" lon="2.47229">
        <ele>524.7</ele>
        <time>2013-08-04T07:25:07Z</time>
      </trkpt>
      <trkpt lat="44.43295" lon="2.47228">
        <ele>524.6</ele>
        <time>2013-08-04T07:25:08Z</time>
      </trkpt>
      <trkpt lat="44.4328" lon="2.47228">
        <ele>524.7</ele>
        <time>2013-08-04T07:25:13Z</time>
      </trkpt>
      <trkpt lat="44.43272" lon="2.47229">
        <ele>524</ele>
        <time>2013-08-04T07:25:16Z</time>
      </trkpt>
      <trkpt lat="44.43263" lon="2.47231">
        <ele>524.2</ele>
        <time>2013-08-04T07:25:27Z</time>
      </trkpt>
      <trkpt lat="44.43256" lon="2.47237">
        <ele>523.7</ele>
        <time>2013-08-04T07:25:34Z</time>
      </trkpt>
      <trkpt lat="44.43249" lon="2.47244">
        <ele>522.3</ele>
        <time>2013-08-04T07:25:39Z</time>
      </trkpt>
      <trkpt lat="44.43243" lon="2.47249">
        <ele>522.3</ele>
        <time>2013-08-04T07:25:41Z</time>
      </trkpt>
      <trkpt lat="44.43237" lon="2.47255">
        <ele>522.3</ele>
        <time>2013-08-04T07:25:43Z</time>
      </trkpt>
      <trkpt lat="44.43228" lon="2.47259">
        <ele>521.8</ele>
        <time>2013-08-04T07:25:45Z</time>
      </trkpt>
      <trkpt lat="44.43223" lon="2.47258">
        <ele>521.6</ele>
        <time>2013-08-04T07:25:46Z</time>
      </trkpt>
      <trkpt lat="44.43217" lon="2.47258">
        <ele>521.3</ele>
        <time>2013-08-04T07:25:47Z</time>
      </trkpt>
      <trkpt lat="44.43211" lon="2.47259">
        <ele>521</ele>
        <time>2013-08-04T07:25:48Z</time>
      </trkpt>
      <trkpt lat="44.43205" lon="2.47261">
        <ele>520.8</ele>
        <time>2013-08-04T07:25:49Z</time>
      </trkpt>
      <trkpt lat="44.432" lon="2.47262">
        <ele>519.9</ele>
        <time>2013-08-04T07:25:50Z</time>
      </trkpt>
      <trkpt lat="44.43193" lon="2.47265">
        <ele>518.7</ele>
        <time>2013-08-04T07:25:52Z</time>
      </trkpt>
      <trkpt lat="44.43198" lon="2.47274">
        <ele>514.6</ele>
        <time>2013-08-04T07:26:04Z</time>
      </trkpt>
      <trkpt lat="44.43196" lon="2.47285">
        <ele>514.2</ele>
        <time>2013-08-04T07:26:07Z</time>
      </trkpt>
      <trkpt lat="44.4319" lon="2.47293">
        <ele>513.8</ele>
        <time>2013-08-04T07:26:10Z</time>
      </trkpt>
      <trkpt lat="44.43189" lon="2.47296">
        <ele>513.7</ele>
        <time>2013-08-04T07:26:11Z</time>
      </trkpt>
      <trkpt lat="44.43188" lon="2.47318">
        <ele>514.9</ele>
        <time>2013-08-04T07:27:16Z</time>
      </trkpt>
      <trkpt lat="44.43189" lon="2.47319">
        <ele>515.4</ele>
        <time>2013-08-04T07:27:17Z</time>
      </trkpt>
      <trkpt lat="44.43196" lon="2.47339">
        <ele>518.8</ele>
        <time>2013-08-04T07:27:38Z</time>
      </trkpt>
      <trkpt lat="44.43201" lon="2.47349">
        <ele>519</ele>
        <time>2013-08-04T07:27:53Z</time>
      </trkpt>
      <trkpt lat="44.43207" lon="2.47359">
        <ele>519.9</ele>
        <time>2013-08-04T07:28:03Z</time>
      </trkpt>
      <trkpt lat="44.43213" lon="2.47368">
        <ele>521.2</ele>
        <time>2013-08-04T07:28:11Z</time>
      </trkpt>
      <trkpt lat="44.43218" lon="2.47376">
        <ele>522.5</ele>
        <time>2013-08-04T07:28:17Z</time>
      </trkpt>
      <trkpt lat="44.43218" lon="2.47378">
        <ele>522.8</ele>
        <time>2013-08-04T07:28:18Z</time>
      </trkpt>
      <trkpt lat="44.43222" lon="2.47397">
        <ele>523.8</ele>
        <time>2013-08-04T07:28:26Z</time>
      </trkpt>
      <trkpt lat="44.43223" lon="2.47407">
        <ele>523.2</ele>
        <time>2013-08-04T07:28:29Z</time>
      </trkpt>
      <trkpt lat="44.43224" lon="2.47416">
        <ele>522.5</ele>
        <time>2013-08-04T07:28:31Z</time>
      </trkpt>
      <trkpt lat="44.43226" lon="2.47427">
        <ele>522.9</ele>
        <time>2013-08-04T07:28:34Z</time>
      </trkpt>
      <trkpt lat="44.43229" lon="2.47437">
        <ele>522.4</ele>
        <time>2013-08-04T07:28:38Z</time>
      </trkpt>
      <trkpt lat="44.43232" lon="2.47449">
        <ele>523.8</ele>
        <time>2013-08-04T07:28:48Z</time>
      </trkpt>
      <trkpt lat="44.43233" lon="2.4746">
        <ele>522.9</ele>
        <time>2013-08-04T07:28:53Z</time>
      </trkpt>
      <trkpt lat="44.43233" lon="2.47472">
        <ele>523.1</ele>
        <time>2013-08-04T07:28:57Z</time>
      </trkpt>
      <trkpt lat="44.43236" lon="2.47483">
        <ele>522.9</ele>
        <time>2013-08-04T07:29:00Z</time>
      </trkpt>
      <trkpt lat="44.43235" lon="2.47495">
        <ele>522.4</ele>
        <time>2013-08-04T07:29:03Z</time>
      </trkpt>
      <trkpt lat="44.43234" lon="2.47505">
        <ele>522.1</ele>
        <time>2013-08-04T07:29:06Z</time>
      </trkpt>
      <trkpt lat="44.43235" lon="2.47517">
        <ele>522.6</ele>
        <time>2013-08-04T07:29:11Z</time>
      </trkpt>
      <trkpt lat="44.43237" lon="2.47529">
        <ele>522</ele>
        <time>2013-08-04T07:29:39Z</time>
      </trkpt>
      <trkpt lat="44.43237" lon="2.47529">
        <ele>522.1</ele>
        <time>2013-08-04T07:29:40Z</time>
      </trkpt>
      <trkpt lat="44.43234" lon="2.47552">
        <ele>523.6</ele>
        <time>2013-08-04T07:30:05Z</time>
      </trkpt>
      <trkpt lat="44.43233" lon="2.47564">
        <ele>524.2</ele>
        <time>2013-08-04T07:30:09Z</time>
      </trkpt>
      <trkpt lat="44.43225" lon="2.4757">
        <ele>523.9</ele>
        <time>2013-08-04T07:30:26Z</time>
      </trkpt>
      <trkpt lat="44.43218" lon="2.47567">
        <ele>525.1</ele>
        <time>2013-08-04T07:30:31Z</time>
      </trkpt>
      <trkpt lat="44.43211" lon="2.47561">
        <ele>526.5</ele>
        <time>2013-08-04T07:30:37Z</time>
      </trkpt>
      <trkpt lat="44.43204" lon="2.47555">
        <ele>526.8</ele>
        <time>2013-08-04T07:30:42Z</time>
      </trkpt>
      <trkpt lat="44.43203" lon="2.47554">
        <ele>527</ele>
        <time>2013-08-04T07:30:43Z</time>
      </trkpt>
      <trkpt lat="44.43189" lon="2.47546">
        <ele>527.6</ele>
        <time>2013-08-04T07:30:55Z</time>
      </trkpt>
      <trkpt lat="44.43181" lon="2.47541">
        <ele>528.5</ele>
        <time>2013-08-04T07:31:03Z</time>
      </trkpt>
      <trkpt lat="44.43174" lon="2.47536">
        <ele>529</ele>
        <time>2013-08-04T07:31:08Z</time>
      </trkpt>
      <trkpt lat="44.43167" lon="2.47529">
        <ele>530.2</ele>
        <time>2013-08-04T07:31:13Z</time>
      </trkpt>
      <trkpt lat="44.43161" lon="2.47523">
        <ele>530.6</ele>
        <time>2013-08-04T07:31:18Z</time>
      </trkpt>
      <trkpt lat="44.43152" lon="2.47518">
        <ele>532.1</ele>
        <time>2013-08-04T07:31:24Z</time>
      </trkpt>
      <trkpt lat="44.43145" lon="2.47513">
        <ele>531.8</ele>
        <time>2013-08-04T07:31:28Z</time>
      </trkpt>
      <trkpt lat="44.43139" lon="2.47509">
        <ele>531.3</ele>
        <time>2013-08-04T07:31:31Z</time>
      </trkpt>
      <trkpt lat="44.43132" lon="2.47503">
        <ele>532.3</ele>
        <time>2013-08-04T07:31:35Z</time>
      </trkpt>
      <trkpt lat="44.43125" lon="2.47496">
        <ele>532.9</ele>
        <time>2013-08-04T07:31:39Z</time>
      </trkpt>
      <trkpt lat="44.43117" lon="2.47492">
        <ele>532.5</ele>
        <time>2013-08-04T07:31:43Z</time>
      </trkpt>
      <trkpt lat="44.43115" lon="2.47492">
        <ele>532.4</ele>
        <time>2013-08-04T07:31:44Z</time>
      </trkpt>
      <trkpt lat="44.431" lon="2.47495">
        <ele>532.5</ele>
        <time>2013-08-04T07:31:51Z</time>
      </trkpt>
      <trkpt lat="44.43092" lon="2.47495">
        <ele>534.1</ele>
        <time>2013-08-04T07:31:55Z</time>
      </trkpt>
      <trkpt lat="44.43083" lon="2.47493">
        <ele>534.8</ele>
        <time>2013-08-04T07:31:59Z</time>
      </trkpt>
      <trkpt lat="44.43075" lon="2.47494">
        <ele>535.3</ele>
        <time>2013-08-04T07:32:02Z</time>
      </trkpt>
      <trkpt lat="44.43068" lon="2.47502">
        <ele>536.3</ele>
        <time>2013-08-04T07:32:06Z</time>
      </trkpt>
      <trkpt lat="44.43062" lon="2.4751">
        <ele>537.1</ele>
        <time>2013-08-04T07:32:10Z</time>
      </trkpt>
      <trkpt lat="44.43056" lon="2.47519">
        <ele>538.2</ele>
        <time>2013-08-04T07:32:14Z</time>
      </trkpt>
      <trkpt lat="44.4305" lon="2.47522">
        <ele>539</ele>
        <time>2013-08-04T07:32:17Z</time>
      </trkpt>
      <trkpt lat="44.43047" lon="2.47533">
        <ele>539.7</ele>
        <time>2013-08-04T07:32:23Z</time>
      </trkpt>
      <trkpt lat="44.4305" lon="2.47544">
        <ele>540.2</ele>
        <time>2013-08-04T07:32:27Z</time>
      </trkpt>
      <trkpt lat="44.43051" lon="2.47553">
        <ele>541.1</ele>
        <time>2013-08-04T07:32:30Z</time>
      </trkpt>
      <trkpt lat="44.43054" lon="2.47563">
        <ele>540.9</ele>
        <time>2013-08-04T07:32:33Z</time>
      </trkpt>
      <trkpt lat="44.43056" lon="2.47575">
        <ele>540.6</ele>
        <time>2013-08-04T07:32:36Z</time>
      </trkpt>
      <trkpt lat="44.43058" lon="2.47586">
        <ele>540.7</ele>
        <time>2013-08-04T07:32:39Z</time>
      </trkpt>
      <trkpt lat="44.4306" lon="2.47596">
        <ele>541.2</ele>
        <time>2013-08-04T07:32:42Z</time>
      </trkpt>
      <trkpt lat="44.4306" lon="2.47608">
        <ele>541.6</ele>
        <time>2013-08-04T07:32:46Z</time>
      </trkpt>
      <trkpt lat="44.4306" lon="2.47612">
        <ele>541.6</ele>
        <time>2013-08-04T07:32:47Z</time>
      </trkpt>
      <trkpt lat="44.43056" lon="2.47629">
        <ele>542.4</ele>
        <time>2013-08-04T07:32:52Z</time>
      </trkpt>
      <trkpt lat="44.43053" lon="2.47639">
        <ele>543.3</ele>
        <time>2013-08-04T07:32:55Z</time>
      </trkpt>
      <trkpt lat="44.43048" lon="2.47648">
        <ele>544</ele>
        <time>2013-08-04T07:32:58Z</time>
      </trkpt>
      <trkpt lat="44.43044" lon="2.47658">
        <ele>544</ele>
        <time>2013-08-04T07:33:01Z</time>
      </trkpt>
      <trkpt lat="44.43041" lon="2.47668">
        <ele>544.1</ele>
        <time>2013-08-04T07:33:04Z</time>
      </trkpt>
      <trkpt lat="44.43039" lon="2.47679">
        <ele>544.5</ele>
        <time>2013-08-04T07:33:07Z</time>
      </trkpt>
      <trkpt lat="44.43038" lon="2.4769">
        <ele>544.9</ele>
        <time>2013-08-04T07:33:10Z</time>
      </trkpt>
      <trkpt lat="44.43037" lon="2.47701">
        <ele>545.5</ele>
        <time>2013-08-04T07:33:13Z</time>
      </trkpt>
      <trkpt lat="44.43037" lon="2.47712">
        <ele>545.6</ele>
        <time>2013-08-04T07:33:16Z</time>
      </trkpt>
      <trkpt lat="44.43038" lon="2.47724">
        <ele>547.1</ele>
        <time>2013-08-04T07:33:19Z</time>
      </trkpt>
      <trkpt lat="44.43039" lon="2.47734">
        <ele>547.3</ele>
        <time>2013-08-04T07:33:22Z</time>
      </trkpt>
      <trkpt lat="44.4304" lon="2.47746">
        <ele>547.2</ele>
        <time>2013-08-04T07:33:26Z</time>
      </trkpt>
      <trkpt lat="44.43042" lon="2.47756">
        <ele>547.6</ele>
        <time>2013-08-04T07:33:29Z</time>
      </trkpt>
      <trkpt lat="44.43044" lon="2.47766">
        <ele>548</ele>
        <time>2013-08-04T07:33:32Z</time>
      </trkpt>
      <trkpt lat="44.43046" lon="2.47777">
        <ele>548.1</ele>
        <time>2013-08-04T07:33:35Z</time>
      </trkpt>
      <trkpt lat="44.43047" lon="2.47788">
        <ele>548.9</ele>
        <time>2013-08-04T07:33:38Z</time>
      </trkpt>
      <trkpt lat="44.43049" lon="2.47799">
        <ele>548.4</ele>
        <time>2013-08-04T07:33:41Z</time>
      </trkpt>
      <trkpt lat="44.43051" lon="2.4781">
        <ele>548.2</ele>
        <time>2013-08-04T07:33:44Z</time>
      </trkpt>
      <trkpt lat="44.43052" lon="2.47822">
        <ele>548.5</ele>
        <time>2013-08-04T07:33:47Z</time>
      </trkpt>
      <trkpt lat="44.43053" lon="2.47826">
        <ele>548.6</ele>
        <time>2013-08-04T07:33:48Z</time>
      </trkpt>
      <trkpt lat="44.43055" lon="2.47841">
        <ele>548.4</ele>
        <time>2013-08-04T07:33:51Z</time>
      </trkpt>
      <trkpt lat="44.43057" lon="2.47852">
        <ele>548</ele>
        <time>2013-08-04T07:33:53Z</time>
      </trkpt>
      <trkpt lat="44.43059" lon="2.47864">
        <ele>547.4</ele>
        <time>2013-08-04T07:33:55Z</time>
      </trkpt>
      <trkpt lat="44.4306" lon="2.4787">
        <ele>547</ele>
        <time>2013-08-04T07:33:56Z</time>
      </trkpt>
      <trkpt lat="44.43062" lon="2.47882">
        <ele>546.6</ele>
        <time>2013-08-04T07:33:58Z</time>
      </trkpt>
      <trkpt lat="44.43064" lon="2.47894">
        <ele>546</ele>
        <time>2013-08-04T07:34:00Z</time>
      </trkpt>
      <trkpt lat="44.43066" lon="2.47906">
        <ele>546</ele>
        <time>2013-08-04T07:34:02Z</time>
      </trkpt>
      <trkpt lat="44.43067" lon="2.47918">
        <ele>546.2</ele>
        <time>2013-08-04T07:34:04Z</time>
      </trkpt>
      <trkpt lat="44.43069" lon="2.47929">
        <ele>546.1</ele>
        <time>2013-08-04T07:34:06Z</time>
      </trkpt>
      <trkpt lat="44.43069" lon="2.47936">
        <ele>546.1</ele>
        <time>2013-08-04T07:34:07Z</time>
      </trkpt>
      <trkpt lat="44.4307" lon="2.47943">
        <ele>545.8</ele>
        <time>2013-08-04T07:34:08Z</time>
      </trkpt>
      <trkpt lat="44.4307" lon="2.47949">
        <ele>545.6</ele>
        <time>2013-08-04T07:34:09Z</time>
      </trkpt>
      <trkpt lat="44.4307" lon="2.47957">
        <ele>545.4</ele>
        <time>2013-08-04T07:34:10Z</time>
      </trkpt>
      <trkpt lat="44.4307" lon="2.47964">
        <ele>545.1</ele>
        <time>2013-08-04T07:34:11Z</time>
      </trkpt>
      <trkpt lat="44.43071" lon="2.47973">
        <ele>544.9</ele>
        <time>2013-08-04T07:34:12Z</time>
      </trkpt>
      <trkpt lat="44.43073" lon="2.47982">
        <ele>544.8</ele>
        <time>2013-08-04T07:34:13Z</time>
      </trkpt>
      <trkpt lat="44.43075" lon="2.47991">
        <ele>544.7</ele>
        <time>2013-08-04T07:34:14Z</time>
      </trkpt>
      <trkpt lat="44.43076" lon="2.48002">
        <ele>543.9</ele>
        <time>2013-08-04T07:34:15Z</time>
      </trkpt>
      <trkpt lat="44.43077" lon="2.48013">
        <ele>543.2</ele>
        <time>2013-08-04T07:34:16Z</time>
      </trkpt>
      <trkpt lat="44.43077" lon="2.48025">
        <ele>542.8</ele>
        <time>2013-08-04T07:34:17Z</time>
      </trkpt>
      <trkpt lat="44.43076" lon="2.48036">
        <ele>541.8</ele>
        <time>2013-08-04T07:34:18Z</time>
      </trkpt>
      <trkpt lat="44.43074" lon="2.48047">
        <ele>541.1</ele>
        <time>2013-08-04T07:34:19Z</time>
      </trkpt>
      <trkpt lat="44.43072" lon="2.48059">
        <ele>540.6</ele>
        <time>2013-08-04T07:34:20Z</time>
      </trkpt>
      <trkpt lat="44.43071" lon="2.4807">
        <ele>540.1</ele>
        <time>2013-08-04T07:34:21Z</time>
      </trkpt>
      <trkpt lat="44.4307" lon="2.4808">
        <ele>539.8</ele>
        <time>2013-08-04T07:34:22Z</time>
      </trkpt>
      <trkpt lat="44.43069" lon="2.4809">
        <ele>539.5</ele>
        <time>2013-08-04T07:34:23Z</time>
      </trkpt>
      <trkpt lat="44.4307" lon="2.48102">
        <ele>539.7</ele>
        <time>2013-08-04T07:34:24Z</time>
      </trkpt>
      <trkpt lat="44.4307" lon="2.48113">
        <ele>539.8</ele>
        <time>2013-08-04T07:34:25Z</time>
      </trkpt>
      <trkpt lat="44.43071" lon="2.48123">
        <ele>539.9</ele>
        <time>2013-08-04T07:34:26Z</time>
      </trkpt>
      <trkpt lat="44.43072" lon="2.48132">
        <ele>539.3</ele>
        <time>2013-08-04T07:34:27Z</time>
      </trkpt>
      <trkpt lat="44.43073" lon="2.48141">
        <ele>538.8</ele>
        <time>2013-08-04T07:34:28Z</time>
      </trkpt>
      <trkpt lat="44.43073" lon="2.4815">
        <ele>538.4</ele>
        <time>2013-08-04T07:34:29Z</time>
      </trkpt>
      <trkpt lat="44.43073" lon="2.48158">
        <ele>538.1</ele>
        <time>2013-08-04T07:34:30Z</time>
      </trkpt>
      <trkpt lat="44.43073" lon="2.48165">
        <ele>538.4</ele>
        <time>2013-08-04T07:34:31Z</time>
      </trkpt>
      <trkpt lat="44.43073" lon="2.48173">
        <ele>538.7</ele>
        <time>2013-08-04T07:34:32Z</time>
      </trkpt>
      <trkpt lat="44.43073" lon="2.4818">
        <ele>538.9</ele>
        <time>2013-08-04T07:34:33Z</time>
      </trkpt>
      <trkpt lat="44.43073" lon="2.48187">
        <ele>538.6</ele>
        <time>2013-08-04T07:34:34Z</time>
      </trkpt>
      <trkpt lat="44.43073" lon="2.48195">
        <ele>538.3</ele>
        <time>2013-08-04T07:34:35Z</time>
      </trkpt>
      <trkpt lat="44.43073" lon="2.48202">
        <ele>538.2</ele>
        <time>2013-08-04T07:34:36Z</time>
      </trkpt>
      <trkpt lat="44.43072" lon="2.48209">
        <ele>538.5</ele>
        <time>2013-08-04T07:34:37Z</time>
      </trkpt>
      <trkpt lat="44.43072" lon="2.48216">
        <ele>538.8</ele>
        <time>2013-08-04T07:34:38Z</time>
      </trkpt>
      <trkpt lat="44.43072" lon="2.48223">
        <ele>539</ele>
        <time>2013-08-04T07:34:39Z</time>
      </trkpt>
      <trkpt lat="44.43072" lon="2.48231">
        <ele>538.8</ele>
        <time>2013-08-04T07:34:40Z</time>
      </trkpt>
      <trkpt lat="44.43073" lon="2.48238">
        <ele>538.7</ele>
        <time>2013-08-04T07:34:41Z</time>
      </trkpt>
      <trkpt lat="44.43073" lon="2.48245">
        <ele>538.7</ele>
        <time>2013-08-04T07:34:42Z</time>
      </trkpt>
      <trkpt lat="44.43072" lon="2.48253">
        <ele>538.7</ele>
        <time>2013-08-04T07:34:43Z</time>
      </trkpt>
      <trkpt lat="44.43072" lon="2.4826">
        <ele>538.8</ele>
        <time>2013-08-04T07:34:44Z</time>
      </trkpt>
      <trkpt lat="44.43072" lon="2.48267">
        <ele>538.8</ele>
        <time>2013-08-04T07:34:45Z</time>
      </trkpt>
      <trkpt lat="44.43073" lon="2.48274">
        <ele>538.9</ele>
        <time>2013-08-04T07:34:46Z</time>
      </trkpt>
      <trkpt lat="44.4307" lon="2.48285">
        <ele>539.2</ele>
        <time>2013-08-04T07:34:48Z</time>
      </trkpt>
      <trkpt lat="44.43068" lon="2.48288">
        <ele>539.3</ele>
        <time>2013-08-04T07:34:49Z</time>
      </trkpt>
      <trkpt lat="44.43053" lon="2.48287">
        <ele>538.3</ele>
        <time>2013-08-04T07:35:00Z</time>
      </trkpt>
      <trkpt lat="44.43045" lon="2.48285">
        <ele>539.9</ele>
        <time>2013-08-04T07:35:04Z</time>
      </trkpt>
      <trkpt lat="44.43038" lon="2.48284">
        <ele>540.5</ele>
        <time>2013-08-04T07:35:08Z</time>
      </trkpt>
      <trkpt lat="44.43029" lon="2.48282">
        <ele>541</ele>
        <time>2013-08-04T07:35:12Z</time>
      </trkpt>
      <trkpt lat="44.43022" lon="2.4828">
        <ele>541.4</ele>
        <time>2013-08-04T07:35:16Z</time>
      </trkpt>
      <trkpt lat="44.43014" lon="2.48278">
        <ele>541.5</ele>
        <time>2013-08-04T07:35:20Z</time>
      </trkpt>
      <trkpt lat="44.43006" lon="2.48277">
        <ele>542.5</ele>
        <time>2013-08-04T07:35:24Z</time>
      </trkpt>
      <trkpt lat="44.42999" lon="2.48274">
        <ele>542.9</ele>
        <time>2013-08-04T07:35:28Z</time>
      </trkpt>
      <trkpt lat="44.42991" lon="2.48271">
        <ele>543.5</ele>
        <time>2013-08-04T07:35:33Z</time>
      </trkpt>
      <trkpt lat="44.42983" lon="2.48268">
        <ele>545.4</ele>
        <time>2013-08-04T07:35:40Z</time>
      </trkpt>
      <trkpt lat="44.42975" lon="2.48261">
        <ele>547.7</ele>
        <time>2013-08-04T07:35:46Z</time>
      </trkpt>
      <trkpt lat="44.4297" lon="2.48254">
        <ele>547.7</ele>
        <time>2013-08-04T07:35:50Z</time>
      </trkpt>
      <trkpt lat="44.42969" lon="2.48252">
        <ele>547.6</ele>
        <time>2013-08-04T07:35:51Z</time>
      </trkpt>
      <trkpt lat="44.42959" lon="2.48237">
        <ele>548.9</ele>
        <time>2013-08-04T07:35:59Z</time>
      </trkpt>
      <trkpt lat="44.42954" lon="2.48228">
        <ele>549.9</ele>
        <time>2013-08-04T07:36:03Z</time>
      </trkpt>
      <trkpt lat="44.42948" lon="2.48219">
        <ele>550.2</ele>
        <time>2013-08-04T07:36:08Z</time>
      </trkpt>
      <trkpt lat="44.42944" lon="2.48211">
        <ele>551</ele>
        <time>2013-08-04T07:36:12Z</time>
      </trkpt>
      <trkpt lat="44.42939" lon="2.48203">
        <ele>551.8</ele>
        <time>2013-08-04T07:36:16Z</time>
      </trkpt>
      <trkpt lat="44.42933" lon="2.48194">
        <ele>553.7</ele>
        <time>2013-08-04T07:36:21Z</time>
      </trkpt>
      <trkpt lat="44.42928" lon="2.48185">
        <ele>554.6</ele>
        <time>2013-08-04T07:36:26Z</time>
      </trkpt>
      <trkpt lat="44.42923" lon="2.48177">
        <ele>554.8</ele>
        <time>2013-08-04T07:36:30Z</time>
      </trkpt>
      <trkpt lat="44.42918" lon="2.48169">
        <ele>555.4</ele>
        <time>2013-08-04T07:36:34Z</time>
      </trkpt>
      <trkpt lat="44.42913" lon="2.48162">
        <ele>556.7</ele>
        <time>2013-08-04T07:36:38Z</time>
      </trkpt>
      <trkpt lat="44.42906" lon="2.48155">
        <ele>557.4</ele>
        <time>2013-08-04T07:36:43Z</time>
      </trkpt>
      <trkpt lat="44.429" lon="2.48149">
        <ele>559.2</ele>
        <time>2013-08-04T07:36:48Z</time>
      </trkpt>
      <trkpt lat="44.42894" lon="2.48142">
        <ele>559.8</ele>
        <time>2013-08-04T07:36:53Z</time>
      </trkpt>
      <trkpt lat="44.42892" lon="2.48141">
        <ele>559.9</ele>
        <time>2013-08-04T07:36:54Z</time>
      </trkpt>
      <trkpt lat="44.42882" lon="2.48128">
        <ele>561.3</ele>
        <time>2013-08-04T07:37:03Z</time>
      </trkpt>
      <trkpt lat="44.42874" lon="2.48124">
        <ele>562.4</ele>
        <time>2013-08-04T07:37:08Z</time>
      </trkpt>
      <trkpt lat="44.42867" lon="2.4812">
        <ele>563.7</ele>
        <time>2013-08-04T07:37:13Z</time>
      </trkpt>
      <trkpt lat="44.42859" lon="2.48116">
        <ele>563.4</ele>
        <time>2013-08-04T07:37:18Z</time>
      </trkpt>
      <trkpt lat="44.42851" lon="2.48111">
        <ele>565.5</ele>
        <time>2013-08-04T07:37:24Z</time>
      </trkpt>
      <trkpt lat="44.42843" lon="2.48109">
        <ele>566</ele>
        <time>2013-08-04T07:37:29Z</time>
      </trkpt>
      <trkpt lat="44.42834" lon="2.48107">
        <ele>566.1</ele>
        <time>2013-08-04T07:37:34Z</time>
      </trkpt>
      <trkpt lat="44.42827" lon="2.48107">
        <ele>567.6</ele>
        <time>2013-08-04T07:37:39Z</time>
      </trkpt>
      <trkpt lat="44.42819" lon="2.48107">
        <ele>567.4</ele>
        <time>2013-08-04T07:37:44Z</time>
      </trkpt>
      <trkpt lat="44.42811" lon="2.48111">
        <ele>568.2</ele>
        <time>2013-08-04T07:37:49Z</time>
      </trkpt>
      <trkpt lat="44.42803" lon="2.48115">
        <ele>569.5</ele>
        <time>2013-08-04T07:37:57Z</time>
      </trkpt>
      <trkpt lat="44.42802" lon="2.48117">
        <ele>569.7</ele>
        <time>2013-08-04T07:37:58Z</time>
      </trkpt>
      <trkpt lat="44.42788" lon="2.48124">
        <ele>572</ele>
        <time>2013-08-04T07:38:08Z</time>
      </trkpt>
      <trkpt lat="44.42779" lon="2.48124">
        <ele>572.9</ele>
        <time>2013-08-04T07:38:13Z</time>
      </trkpt>
      <trkpt lat="44.42772" lon="2.48125">
        <ele>574</ele>
        <time>2013-08-04T07:38:17Z</time>
      </trkpt>
      <trkpt lat="44.42765" lon="2.48126">
        <ele>575.3</ele>
        <time>2013-08-04T07:38:21Z</time>
      </trkpt>
      <trkpt lat="44.42757" lon="2.48126">
        <ele>576</ele>
        <time>2013-08-04T07:38:25Z</time>
      </trkpt>
      <trkpt lat="44.42749" lon="2.48124">
        <ele>576.7</ele>
        <time>2013-08-04T07:38:29Z</time>
      </trkpt>
      <trkpt lat="44.42742" lon="2.48123">
        <ele>577</ele>
        <time>2013-08-04T07:38:32Z</time>
      </trkpt>
      <trkpt lat="44.42733" lon="2.48122">
        <ele>576.8</ele>
        <time>2013-08-04T07:38:36Z</time>
      </trkpt>
      <trkpt lat="44.42726" lon="2.4812">
        <ele>576.8</ele>
        <time>2013-08-04T07:38:40Z</time>
      </trkpt>
      <trkpt lat="44.42718" lon="2.48118">
        <ele>576.9</ele>
        <time>2013-08-04T07:38:45Z</time>
      </trkpt>
      <trkpt lat="44.4271" lon="2.48116">
        <ele>577.5</ele>
        <time>2013-08-04T07:38:49Z</time>
      </trkpt>
      <trkpt lat="44.42702" lon="2.48114">
        <ele>577.8</ele>
        <time>2013-08-04T07:38:53Z</time>
      </trkpt>
      <trkpt lat="44.42695" lon="2.48113">
        <ele>578.2</ele>
        <time>2013-08-04T07:38:57Z</time>
      </trkpt>
      <trkpt lat="44.42687" lon="2.48115">
        <ele>579.4</ele>
        <time>2013-08-04T07:39:02Z</time>
      </trkpt>
      <trkpt lat="44.42685" lon="2.48116">
        <ele>579.6</ele>
        <time>2013-08-04T07:39:03Z</time>
      </trkpt>
      <trkpt lat="44.42673" lon="2.48124">
        <ele>578.3</ele>
        <time>2013-08-04T07:39:09Z</time>
      </trkpt>
      <trkpt lat="44.42666" lon="2.48128">
        <ele>578.4</ele>
        <time>2013-08-04T07:39:12Z</time>
      </trkpt>
      <trkpt lat="44.42659" lon="2.48134">
        <ele>578.9</ele>
        <time>2013-08-04T07:39:15Z</time>
      </trkpt>
      <trkpt lat="44.42653" lon="2.4814">
        <ele>579.1</ele>
        <time>2013-08-04T07:39:18Z</time>
      </trkpt>
      <trkpt lat="44.42646" lon="2.48147">
        <ele>579.5</ele>
        <time>2013-08-04T07:39:21Z</time>
      </trkpt>
      <trkpt lat="44.42641" lon="2.48154">
        <ele>579</ele>
        <time>2013-08-04T07:39:25Z</time>
      </trkpt>
      <trkpt lat="44.42636" lon="2.48163">
        <ele>578.3</ele>
        <time>2013-08-04T07:39:30Z</time>
      </trkpt>
      <trkpt lat="44.42628" lon="2.48166">
        <ele>579.5</ele>
        <time>2013-08-04T07:39:34Z</time>
      </trkpt>
      <trkpt lat="44.42621" lon="2.48168">
        <ele>580.3</ele>
        <time>2013-08-04T07:39:37Z</time>
      </trkpt>
      <trkpt lat="44.42614" lon="2.48168">
        <ele>580.8</ele>
        <time>2013-08-04T07:39:40Z</time>
      </trkpt>
      <trkpt lat="44.42606" lon="2.48169">
        <ele>581.2</ele>
        <time>2013-08-04T07:39:43Z</time>
      </trkpt>
      <trkpt lat="44.42598" lon="2.48169">
        <ele>581.9</ele>
        <time>2013-08-04T07:39:47Z</time>
      </trkpt>
      <trkpt lat="44.42591" lon="2.48168">
        <ele>582.5</ele>
        <time>2013-08-04T07:39:51Z</time>
      </trkpt>
      <trkpt lat="44.42583" lon="2.48168">
        <ele>582.7</ele>
        <time>2013-08-04T07:39:55Z</time>
      </trkpt>
      <trkpt lat="44.42575" lon="2.48168">
        <ele>584.1</ele>
        <time>2013-08-04T07:40:00Z</time>
      </trkpt>
      <trkpt lat="44.42567" lon="2.48167">
        <ele>585.7</ele>
        <time>2013-08-04T07:40:05Z</time>
      </trkpt>
      <trkpt lat="44.42565" lon="2.48166">
        <ele>585.5</ele>
        <time>2013-08-04T07:40:06Z</time>
      </trkpt>
      <trkpt lat="44.4255" lon="2.48165">
        <ele>587.3</ele>
        <time>2013-08-04T07:40:15Z</time>
      </trkpt>
      <trkpt lat="44.42543" lon="2.48169">
        <ele>587.7</ele>
        <time>2013-08-04T07:40:20Z</time>
      </trkpt>
      <trkpt lat="44.42535" lon="2.48171">
        <ele>588</ele>
        <time>2013-08-04T07:40:25Z</time>
      </trkpt>
      <trkpt lat="44.42527" lon="2.4817">
        <ele>588.8</ele>
        <time>2013-08-04T07:40:30Z</time>
      </trkpt>
      <trkpt lat="44.42519" lon="2.48171">
        <ele>588.6</ele>
        <time>2013-08-04T07:40:35Z</time>
      </trkpt>
      <trkpt lat="44.42512" lon="2.48175">
        <ele>589.7</ele>
        <time>2013-08-04T07:40:40Z</time>
      </trkpt>
      <trkpt lat="44.42508" lon="2.48182">
        <ele>589.3</ele>
        <time>2013-08-04T07:40:43Z</time>
      </trkpt>
      <trkpt lat="44.42507" lon="2.48194">
        <ele>589</ele>
        <time>2013-08-04T07:40:46Z</time>
      </trkpt>
      <trkpt lat="44.42506" lon="2.48203">
        <ele>588.2</ele>
        <time>2013-08-04T07:40:48Z</time>
      </trkpt>
      <trkpt lat="44.42505" lon="2.48214">
        <ele>587.5</ele>
        <time>2013-08-04T07:40:50Z</time>
      </trkpt>
      <trkpt lat="44.42501" lon="2.48224">
        <ele>586.9</ele>
        <time>2013-08-04T07:40:52Z</time>
      </trkpt>
      <trkpt lat="44.42496" lon="2.48234">
        <ele>586</ele>
        <time>2013-08-04T07:40:54Z</time>
      </trkpt>
      <trkpt lat="44.4249" lon="2.48243">
        <ele>585.1</ele>
        <time>2013-08-04T07:40:56Z</time>
      </trkpt>
      <trkpt lat="44.42486" lon="2.48247">
        <ele>584.1</ele>
        <time>2013-08-04T07:40:57Z</time>
      </trkpt>
      <trkpt lat="44.42483" lon="2.48252">
        <ele>583.4</ele>
        <time>2013-08-04T07:40:58Z</time>
      </trkpt>
      <trkpt lat="44.42478" lon="2.48262">
        <ele>581.6</ele>
        <time>2013-08-04T07:41:00Z</time>
      </trkpt>
      <trkpt lat="44.42475" lon="2.48268">
        <ele>580.7</ele>
        <time>2013-08-04T07:41:01Z</time>
      </trkpt>
      <trkpt lat="44.4247" lon="2.48274">
        <ele>580</ele>
        <time>2013-08-04T07:41:02Z</time>
      </trkpt>
      <trkpt lat="44.42466" lon="2.48278">
        <ele>578.9</ele>
        <time>2013-08-04T07:41:03Z</time>
      </trkpt>
      <trkpt lat="44.42457" lon="2.48281">
        <ele>577.6</ele>
        <time>2013-08-04T07:41:05Z</time>
      </trkpt>
      <trkpt lat="44.42452" lon="2.4829">
        <ele>576.5</ele>
        <time>2013-08-04T07:41:08Z</time>
      </trkpt>
      <trkpt lat="44.4245" lon="2.48293">
        <ele>576.3</ele>
        <time>2013-08-04T07:41:09Z</time>
      </trkpt>
      <trkpt lat="44.42443" lon="2.48303">
        <ele>574.6</ele>
        <time>2013-08-04T07:41:11Z</time>
      </trkpt>
      <trkpt lat="44.42439" lon="2.48309">
        <ele>574.1</ele>
        <time>2013-08-04T07:41:12Z</time>
      </trkpt>
      <trkpt lat="44.42435" lon="2.48316">
        <ele>573.7</ele>
        <time>2013-08-04T07:41:13Z</time>
      </trkpt>
      <trkpt lat="44.42431" lon="2.48325">
        <ele>573.4</ele>
        <time>2013-08-04T07:41:14Z</time>
      </trkpt>
      <trkpt lat="44.42427" lon="2.48335">
        <ele>573.2</ele>
        <time>2013-08-04T07:41:15Z</time>
      </trkpt>
      <trkpt lat="44.42423" lon="2.48346">
        <ele>572.1</ele>
        <time>2013-08-04T07:41:16Z</time>
      </trkpt>
      <trkpt lat="44.42417" lon="2.48358">
        <ele>571.3</ele>
        <time>2013-08-04T07:41:17Z</time>
      </trkpt>
      <trkpt lat="44.42412" lon="2.4837">
        <ele>570.8</ele>
        <time>2013-08-04T07:41:18Z</time>
      </trkpt>
      <trkpt lat="44.42406" lon="2.48382">
        <ele>569</ele>
        <time>2013-08-04T07:41:19Z</time>
      </trkpt>
      <trkpt lat="44.42401" lon="2.48394">
        <ele>567.7</ele>
        <time>2013-08-04T07:41:20Z</time>
      </trkpt>
      <trkpt lat="44.42395" lon="2.48406">
        <ele>566.8</ele>
        <time>2013-08-04T07:41:21Z</time>
      </trkpt>
      <trkpt lat="44.42389" lon="2.48417">
        <ele>564.6</ele>
        <time>2013-08-04T07:41:22Z</time>
      </trkpt>
      <trkpt lat="44.42385" lon="2.48429">
        <ele>562.9</ele>
        <time>2013-08-04T07:41:23Z</time>
      </trkpt>
      <trkpt lat="44.42381" lon="2.48441">
        <ele>561.7</ele>
        <time>2013-08-04T07:41:24Z</time>
      </trkpt>
      <trkpt lat="44.42377" lon="2.48452">
        <ele>560.8</ele>
        <time>2013-08-04T07:41:25Z</time>
      </trkpt>
      <trkpt lat="44.42374" lon="2.48465">
        <ele>559</ele>
        <time>2013-08-04T07:41:26Z</time>
      </trkpt>
      <trkpt lat="44.4237" lon="2.48478">
        <ele>557.6</ele>
        <time>2013-08-04T07:41:27Z</time>
      </trkpt>
      <trkpt lat="44.42366" lon="2.4849">
        <ele>556.6</ele>
        <time>2013-08-04T07:41:28Z</time>
      </trkpt>
      <trkpt lat="44.42363" lon="2.48504">
        <ele>555.3</ele>
        <time>2013-08-04T07:41:29Z</time>
      </trkpt>
      <trkpt lat="44.4236" lon="2.48517">
        <ele>554.2</ele>
        <time>2013-08-04T07:41:30Z</time>
      </trkpt>
      <trkpt lat="44.42356" lon="2.48532">
        <ele>553.5</ele>
        <time>2013-08-04T07:41:31Z</time>
      </trkpt>
      <trkpt lat="44.42353" lon="2.48547">
        <ele>552.1</ele>
        <time>2013-08-04T07:41:32Z</time>
      </trkpt>
      <trkpt lat="44.42351" lon="2.4856">
        <ele>551.1</ele>
        <time>2013-08-04T07:41:33Z</time>
      </trkpt>
      <trkpt lat="44.42348" lon="2.48572">
        <ele>550.3</ele>
        <time>2013-08-04T07:41:34Z</time>
      </trkpt>
      <trkpt lat="44.42344" lon="2.48585">
        <ele>548.7</ele>
        <time>2013-08-04T07:41:35Z</time>
      </trkpt>
      <trkpt lat="44.42341" lon="2.48598">
        <ele>547.4</ele>
        <time>2013-08-04T07:41:36Z</time>
      </trkpt>
      <trkpt lat="44.4234" lon="2.48611">
        <ele>546.5</ele>
        <time>2013-08-04T07:41:37Z</time>
      </trkpt>
      <trkpt lat="44.42339" lon="2.48624">
        <ele>545.3</ele>
        <time>2013-08-04T07:41:38Z</time>
      </trkpt>
      <trkpt lat="44.42338" lon="2.48637">
        <ele>544.4</ele>
        <time>2013-08-04T07:41:39Z</time>
      </trkpt>
      <trkpt lat="44.42338" lon="2.48648">
        <ele>543.7</ele>
        <time>2013-08-04T07:41:40Z</time>
      </trkpt>
      <trkpt lat="44.42338" lon="2.48658">
        <ele>543.1</ele>
        <time>2013-08-04T07:41:41Z</time>
      </trkpt>
      <trkpt lat="44.42338" lon="2.48668">
        <ele>542</ele>
        <time>2013-08-04T07:41:42Z</time>
      </trkpt>
      <trkpt lat="44.42339" lon="2.48679">
        <ele>541.1</ele>
        <time>2013-08-04T07:41:43Z</time>
      </trkpt>
      <trkpt lat="44.42339" lon="2.4869">
        <ele>540.5</ele>
        <time>2013-08-04T07:41:44Z</time>
      </trkpt>
      <trkpt lat="44.4234" lon="2.48701">
        <ele>539.7</ele>
        <time>2013-08-04T07:41:45Z</time>
      </trkpt>
      <trkpt lat="44.42342" lon="2.48713">
        <ele>539.1</ele>
        <time>2013-08-04T07:41:46Z</time>
      </trkpt>
      <trkpt lat="44.42343" lon="2.48724">
        <ele>538.7</ele>
        <time>2013-08-04T07:41:47Z</time>
      </trkpt>
      <trkpt lat="44.42346" lon="2.48735">
        <ele>537.5</ele>
        <time>2013-08-04T07:41:48Z</time>
      </trkpt>
      <trkpt lat="44.42348" lon="2.48746">
        <ele>536.6</ele>
        <time>2013-08-04T07:41:49Z</time>
      </trkpt>
      <trkpt lat="44.42351" lon="2.48756">
        <ele>535.9</ele>
        <time>2013-08-04T07:41:50Z</time>
      </trkpt>
      <trkpt lat="44.42355" lon="2.48766">
        <ele>534.1</ele>
        <time>2013-08-04T07:41:52Z</time>
      </trkpt>
      <trkpt lat="44.42359" lon="2.48777">
        <ele>531.9</ele>
        <time>2013-08-04T07:41:55Z</time>
      </trkpt>
      <trkpt lat="44.42362" lon="2.48789">
        <ele>530.7</ele>
        <time>2013-08-04T07:42:02Z</time>
      </trkpt>
      <trkpt lat="44.42369" lon="2.48797">
        <ele>532.1</ele>
        <time>2013-08-04T07:42:11Z</time>
      </trkpt>
      <trkpt lat="44.42369" lon="2.48798">
        <ele>532.4</ele>
        <time>2013-08-04T07:42:12Z</time>
      </trkpt>
      <trkpt lat="44.42386" lon="2.488">
        <ele>536.3</ele>
        <time>2013-08-04T07:42:25Z</time>
      </trkpt>
      <trkpt lat="44.42394" lon="2.488">
        <ele>537.1</ele>
        <time>2013-08-04T07:42:29Z</time>
      </trkpt>
      <trkpt lat="44.42401" lon="2.488">
        <ele>538.1</ele>
        <time>2013-08-04T07:42:34Z</time>
      </trkpt>
      <trkpt lat="44.42408" lon="2.48803">
        <ele>539.2</ele>
        <time>2013-08-04T07:42:39Z</time>
      </trkpt>
      <trkpt lat="44.42415" lon="2.48807">
        <ele>540.2</ele>
        <time>2013-08-04T07:42:44Z</time>
      </trkpt>
      <trkpt lat="44.42423" lon="2.4881">
        <ele>541.8</ele>
        <time>2013-08-04T07:42:49Z</time>
      </trkpt>
      <trkpt lat="44.42431" lon="2.48815">
        <ele>543.2</ele>
        <time>2013-08-04T07:42:54Z</time>
      </trkpt>
      <trkpt lat="44.42438" lon="2.4882">
        <ele>543.8</ele>
        <time>2013-08-04T07:43:00Z</time>
      </trkpt>
      <trkpt lat="44.42444" lon="2.48829">
        <ele>544.5</ele>
        <time>2013-08-04T07:43:06Z</time>
      </trkpt>
      <trkpt lat="44.42449" lon="2.48837">
        <ele>546.3</ele>
        <time>2013-08-04T07:43:12Z</time>
      </trkpt>
      <trkpt lat="44.42456" lon="2.48845">
        <ele>546.3</ele>
        <time>2013-08-04T07:43:17Z</time>
      </trkpt>
      <trkpt lat="44.42457" lon="2.48847">
        <ele>546.2</ele>
        <time>2013-08-04T07:43:18Z</time>
      </trkpt>
      <trkpt lat="44.42471" lon="2.48858">
        <ele>546.3</ele>
        <time>2013-08-04T07:43:28Z</time>
      </trkpt>
      <trkpt lat="44.42477" lon="2.48861">
        <ele>547.6</ele>
        <time>2013-08-04T07:43:32Z</time>
      </trkpt>
      <trkpt lat="44.42485" lon="2.48865">
        <ele>547.6</ele>
        <time>2013-08-04T07:43:36Z</time>
      </trkpt>
      <trkpt lat="44.42493" lon="2.48868">
        <ele>547.9</ele>
        <time>2013-08-04T07:43:40Z</time>
      </trkpt>
      <trkpt lat="44.42501" lon="2.48873">
        <ele>548.4</ele>
        <time>2013-08-04T07:43:45Z</time>
      </trkpt>
      <trkpt lat="44.42505" lon="2.48884">
        <ele>549.1</ele>
        <time>2013-08-04T07:43:50Z</time>
      </trkpt>
      <trkpt lat="44.42505" lon="2.48895">
        <ele>549.6</ele>
        <time>2013-08-04T07:43:54Z</time>
      </trkpt>
      <trkpt lat="44.42506" lon="2.48906">
        <ele>549.9</ele>
        <time>2013-08-04T07:43:58Z</time>
      </trkpt>
      <trkpt lat="44.42507" lon="2.48917">
        <ele>550.6</ele>
        <time>2013-08-04T07:44:02Z</time>
      </trkpt>
      <trkpt lat="44.42508" lon="2.48928">
        <ele>551</ele>
        <time>2013-08-04T07:44:06Z</time>
      </trkpt>
      <trkpt lat="44.4251" lon="2.48938">
        <ele>550.5</ele>
        <time>2013-08-04T07:44:10Z</time>
      </trkpt>
      <trkpt lat="44.42512" lon="2.48949">
        <ele>551</ele>
        <time>2013-08-04T07:44:14Z</time>
      </trkpt>
      <trkpt lat="44.42518" lon="2.48956">
        <ele>551.5</ele>
        <time>2013-08-04T07:44:19Z</time>
      </trkpt>
      <trkpt lat="44.42519" lon="2.48957">
        <ele>551.6</ele>
        <time>2013-08-04T07:44:20Z</time>
      </trkpt>
      <trkpt lat="44.42531" lon="2.48963">
        <ele>551.6</ele>
        <time>2013-08-04T07:44:26Z</time>
      </trkpt>
      <trkpt lat="44.42536" lon="2.48971">
        <ele>551.9</ele>
        <time>2013-08-04T07:44:29Z</time>
      </trkpt>
      <trkpt lat="44.42539" lon="2.48981">
        <ele>551.6</ele>
        <time>2013-08-04T07:44:32Z</time>
      </trkpt>
      <trkpt lat="44.42541" lon="2.4899">
        <ele>552.1</ele>
        <time>2013-08-04T07:44:35Z</time>
      </trkpt>
      <trkpt lat="44.42546" lon="2.49">
        <ele>552.7</ele>
        <time>2013-08-04T07:44:38Z</time>
      </trkpt>
      <trkpt lat="44.42553" lon="2.49005">
        <ele>553.2</ele>
        <time>2013-08-04T07:44:41Z</time>
      </trkpt>
      <trkpt lat="44.42558" lon="2.49012">
        <ele>553.6</ele>
        <time>2013-08-04T07:44:43Z</time>
      </trkpt>
      <trkpt lat="44.42562" lon="2.49019">
        <ele>553.9</ele>
        <time>2013-08-04T07:44:45Z</time>
      </trkpt>
      <trkpt lat="44.42569" lon="2.49027">
        <ele>553.7</ele>
        <time>2013-08-04T07:44:48Z</time>
      </trkpt>
      <trkpt lat="44.42576" lon="2.49033">
        <ele>554.7</ele>
        <time>2013-08-04T07:44:51Z</time>
      </trkpt>
      <trkpt lat="44.4258" lon="2.49042">
        <ele>554.9</ele>
        <time>2013-08-04T07:44:54Z</time>
      </trkpt>
      <trkpt lat="44.42581" lon="2.49051">
        <ele>555.2</ele>
        <time>2013-08-04T07:44:57Z</time>
      </trkpt>
      <trkpt lat="44.42582" lon="2.49062">
        <ele>555.1</ele>
        <time>2013-08-04T07:45:00Z</time>
      </trkpt>
      <trkpt lat="44.42581" lon="2.49073">
        <ele>555.3</ele>
        <time>2013-08-04T07:45:03Z</time>
      </trkpt>
      <trkpt lat="44.4258" lon="2.49085">
        <ele>555.6</ele>
        <time>2013-08-04T07:45:06Z</time>
      </trkpt>
      <trkpt lat="44.42579" lon="2.49096">
        <ele>555.5</ele>
        <time>2013-08-04T07:45:09Z</time>
      </trkpt>
      <trkpt lat="44.42577" lon="2.49108">
        <ele>555.6</ele>
        <time>2013-08-04T07:45:12Z</time>
      </trkpt>
      <trkpt lat="44.42573" lon="2.49119">
        <ele>555.9</ele>
        <time>2013-08-04T07:45:15Z</time>
      </trkpt>
      <trkpt lat="44.42569" lon="2.49128">
        <ele>555.6</ele>
        <time>2013-08-04T07:45:18Z</time>
      </trkpt>
      <trkpt lat="44.42567" lon="2.49139">
        <ele>556.7</ele>
        <time>2013-08-04T07:45:21Z</time>
      </trkpt>
      <trkpt lat="44.42566" lon="2.49142">
        <ele>556.6</ele>
        <time>2013-08-04T07:45:22Z</time>
      </trkpt>
      <trkpt lat="44.42565" lon="2.49159">
        <ele>557</ele>
        <time>2013-08-04T07:45:28Z</time>
      </trkpt>
      <trkpt lat="44.42565" lon="2.49169">
        <ele>556.6</ele>
        <time>2013-08-04T07:45:31Z</time>
      </trkpt>
      <trkpt lat="44.42563" lon="2.49178">
        <ele>556.8</ele>
        <time>2013-08-04T07:45:34Z</time>
      </trkpt>
      <trkpt lat="44.42562" lon="2.49188">
        <ele>557.3</ele>
        <time>2013-08-04T07:45:37Z</time>
      </trkpt>
      <trkpt lat="44.42562" lon="2.49198">
        <ele>558</ele>
        <time>2013-08-04T07:45:40Z</time>
      </trkpt>
      <trkpt lat="44.42562" lon="2.4921">
        <ele>559</ele>
        <time>2013-08-04T07:45:44Z</time>
      </trkpt>
      <trkpt lat="44.42562" lon="2.49222">
        <ele>559.7</ele>
        <time>2013-08-04T07:45:48Z</time>
      </trkpt>
      <trkpt lat="44.42561" lon="2.49231">
        <ele>560.1</ele>
        <time>2013-08-04T07:45:51Z</time>
      </trkpt>
      <trkpt lat="44.42557" lon="2.49242">
        <ele>561.1</ele>
        <time>2013-08-04T07:45:55Z</time>
      </trkpt>
      <trkpt lat="44.42553" lon="2.4925">
        <ele>561.8</ele>
        <time>2013-08-04T07:45:58Z</time>
      </trkpt>
      <trkpt lat="44.42548" lon="2.49258">
        <ele>562.5</ele>
        <time>2013-08-04T07:46:01Z</time>
      </trkpt>
      <trkpt lat="44.42544" lon="2.49268">
        <ele>562.8</ele>
        <time>2013-08-04T07:46:05Z</time>
      </trkpt>
      <trkpt lat="44.4254" lon="2.49278">
        <ele>562.7</ele>
        <time>2013-08-04T07:46:09Z</time>
      </trkpt>
      <trkpt lat="44.42535" lon="2.49287">
        <ele>563.8</ele>
        <time>2013-08-04T07:46:13Z</time>
      </trkpt>
      <trkpt lat="44.42528" lon="2.49295">
        <ele>564.8</ele>
        <time>2013-08-04T07:46:17Z</time>
      </trkpt>
      <trkpt lat="44.42523" lon="2.49303">
        <ele>565.3</ele>
        <time>2013-08-04T07:46:21Z</time>
      </trkpt>
      <trkpt lat="44.42516" lon="2.49311">
        <ele>566.1</ele>
        <time>2013-08-04T07:46:25Z</time>
      </trkpt>
      <trkpt lat="44.42515" lon="2.49313">
        <ele>566.2</ele>
        <time>2013-08-04T07:46:26Z</time>
      </trkpt>
      <trkpt lat="44.42504" lon="2.49326">
        <ele>567.3</ele>
        <time>2013-08-04T07:46:32Z</time>
      </trkpt>
      <trkpt lat="44.42499" lon="2.49333">
        <ele>567.6</ele>
        <time>2013-08-04T07:46:35Z</time>
      </trkpt>
      <trkpt lat="44.42495" lon="2.49342">
        <ele>567.2</ele>
        <time>2013-08-04T07:46:38Z</time>
      </trkpt>
      <trkpt lat="44.42491" lon="2.4935">
        <ele>568.6</ele>
        <time>2013-08-04T07:46:41Z</time>
      </trkpt>
      <trkpt lat="44.42486" lon="2.49357">
        <ele>568.1</ele>
        <time>2013-08-04T07:46:44Z</time>
      </trkpt>
      <trkpt lat="44.42479" lon="2.49364">
        <ele>567.7</ele>
        <time>2013-08-04T07:46:47Z</time>
      </trkpt>
      <trkpt lat="44.42473" lon="2.49369">
        <ele>567.8</ele>
        <time>2013-08-04T07:46:50Z</time>
      </trkpt>
      <trkpt lat="44.42465" lon="2.49374">
        <ele>568.4</ele>
        <time>2013-08-04T07:46:53Z</time>
      </trkpt>
      <trkpt lat="44.4246" lon="2.49378">
        <ele>568.8</ele>
        <time>2013-08-04T07:46:55Z</time>
      </trkpt>
      <trkpt lat="44.42454" lon="2.49382">
        <ele>568.9</ele>
        <time>2013-08-04T07:46:57Z</time>
      </trkpt>
      <trkpt lat="44.42447" lon="2.49387">
        <ele>569.4</ele>
        <time>2013-08-04T07:46:59Z</time>
      </trkpt>
      <trkpt lat="44.4244" lon="2.49393">
        <ele>569.1</ele>
        <time>2013-08-04T07:47:01Z</time>
      </trkpt>
      <trkpt lat="44.42432" lon="2.49398">
        <ele>568.6</ele>
        <time>2013-08-04T07:47:03Z</time>
      </trkpt>
      <trkpt lat="44.42428" lon="2.494">
        <ele>568.7</ele>
        <time>2013-08-04T07:47:04Z</time>
      </trkpt>
      <trkpt lat="44.4242" lon="2.49405">
        <ele>568.8</ele>
        <time>2013-08-04T07:47:06Z</time>
      </trkpt>
      <trkpt lat="44.42413" lon="2.49411">
        <ele>568.8</ele>
        <time>2013-08-04T07:47:08Z</time>
      </trkpt>
      <trkpt lat="44.42406" lon="2.49416">
        <ele>569</ele>
        <time>2013-08-04T07:47:10Z</time>
      </trkpt>
      <trkpt lat="44.42399" lon="2.4942">
        <ele>569.3</ele>
        <time>2013-08-04T07:47:12Z</time>
      </trkpt>
      <trkpt lat="44.42392" lon="2.49423">
        <ele>568.5</ele>
        <time>2013-08-04T07:47:14Z</time>
      </trkpt>
      <trkpt lat="44.42385" lon="2.49428">
        <ele>568.1</ele>
        <time>2013-08-04T07:47:16Z</time>
      </trkpt>
      <trkpt lat="44.42378" lon="2.49433">
        <ele>568.1</ele>
        <time>2013-08-04T07:47:18Z</time>
      </trkpt>
      <trkpt lat="44.42371" lon="2.4944">
        <ele>567.9</ele>
        <time>2013-08-04T07:47:20Z</time>
      </trkpt>
      <trkpt lat="44.42364" lon="2.49447">
        <ele>567.7</ele>
        <time>2013-08-04T07:47:22Z</time>
      </trkpt>
      <trkpt lat="44.42356" lon="2.49453">
        <ele>567.9</ele>
        <time>2013-08-04T07:47:24Z</time>
      </trkpt>
      <trkpt lat="44.4235" lon="2.49456">
        <ele>568.3</ele>
        <time>2013-08-04T07:47:26Z</time>
      </trkpt>
      <trkpt lat="44.42347" lon="2.49457">
        <ele>568.5</ele>
        <time>2013-08-04T07:47:27Z</time>
      </trkpt>
      <trkpt lat="44.42336" lon="2.49458">
        <ele>569.4</ele>
        <time>2013-08-04T07:47:30Z</time>
      </trkpt>
      <trkpt lat="44.42328" lon="2.49458">
        <ele>569.7</ele>
        <time>2013-08-04T07:47:32Z</time>
      </trkpt>
      <trkpt lat="44.4232" lon="2.49457">
        <ele>569.6</ele>
        <time>2013-08-04T07:47:34Z</time>
      </trkpt>
      <trkpt lat="44.42313" lon="2.49455">
        <ele>569.4</ele>
        <time>2013-08-04T07:47:36Z</time>
      </trkpt>
      <trkpt lat="44.42306" lon="2.49453">
        <ele>569.3</ele>
        <time>2013-08-04T07:47:38Z</time>
      </trkpt>
      <trkpt lat="44.423" lon="2.49451">
        <ele>569.9</ele>
        <time>2013-08-04T07:47:40Z</time>
      </trkpt>
      <trkpt lat="44.42291" lon="2.49451">
        <ele>570.3</ele>
        <time>2013-08-04T07:47:43Z</time>
      </trkpt>
      <trkpt lat="44.42284" lon="2.49452">
        <ele>570.4</ele>
        <time>2013-08-04T07:47:45Z</time>
      </trkpt>
      <trkpt lat="44.42276" lon="2.49457">
        <ele>570</ele>
        <time>2013-08-04T07:47:48Z</time>
      </trkpt>
      <trkpt lat="44.42271" lon="2.49465">
        <ele>571.3</ele>
        <time>2013-08-04T07:47:51Z</time>
      </trkpt>
      <trkpt lat="44.42268" lon="2.49475">
        <ele>571.7</ele>
        <time>2013-08-04T07:47:54Z</time>
      </trkpt>
      <trkpt lat="44.42265" lon="2.49485">
        <ele>571.3</ele>
        <time>2013-08-04T07:47:57Z</time>
      </trkpt>
      <trkpt lat="44.42263" lon="2.49495">
        <ele>572.4</ele>
        <time>2013-08-04T07:48:00Z</time>
      </trkpt>
      <trkpt lat="44.42261" lon="2.49505">
        <ele>572.8</ele>
        <time>2013-08-04T07:48:03Z</time>
      </trkpt>
      <trkpt lat="44.42261" lon="2.49515">
        <ele>573.3</ele>
        <time>2013-08-04T07:48:06Z</time>
      </trkpt>
      <trkpt lat="44.42262" lon="2.49527">
        <ele>573.1</ele>
        <time>2013-08-04T07:48:09Z</time>
      </trkpt>
      <trkpt lat="44.42262" lon="2.49537">
        <ele>572.6</ele>
        <time>2013-08-04T07:48:12Z</time>
      </trkpt>
      <trkpt lat="44.42262" lon="2.49546">
        <ele>572.5</ele>
        <time>2013-08-04T07:48:14Z</time>
      </trkpt>
      <trkpt lat="44.42261" lon="2.49555">
        <ele>572.5</ele>
        <time>2013-08-04T07:48:16Z</time>
      </trkpt>
      <trkpt lat="44.4226" lon="2.49564">
        <ele>572.8</ele>
        <time>2013-08-04T07:48:18Z</time>
      </trkpt>
      <trkpt lat="44.42257" lon="2.49574">
        <ele>572.9</ele>
        <time>2013-08-04T07:48:20Z</time>
      </trkpt>
      <trkpt lat="44.42255" lon="2.49584">
        <ele>572.5</ele>
        <time>2013-08-04T07:48:22Z</time>
      </trkpt>
      <trkpt lat="44.42253" lon="2.49593">
        <ele>572.8</ele>
        <time>2013-08-04T07:48:24Z</time>
      </trkpt>
      <trkpt lat="44.42253" lon="2.49601">
        <ele>573.4</ele>
        <time>2013-08-04T07:48:26Z</time>
      </trkpt>
      <trkpt lat="44.42252" lon="2.4961">
        <ele>573.2</ele>
        <time>2013-08-04T07:48:28Z</time>
      </trkpt>
      <trkpt lat="44.42253" lon="2.49615">
        <ele>573.2</ele>
        <time>2013-08-04T07:48:29Z</time>
      </trkpt>
      <trkpt lat="44.42252" lon="2.49628">
        <ele>573.7</ele>
        <time>2013-08-04T07:48:32Z</time>
      </trkpt>
      <trkpt lat="44.42251" lon="2.49638">
        <ele>573.3</ele>
        <time>2013-08-04T07:48:34Z</time>
      </trkpt>
      <trkpt lat="44.42248" lon="2.49647">
        <ele>573</ele>
        <time>2013-08-04T07:48:36Z</time>
      </trkpt>
      <trkpt lat="44.42246" lon="2.49657">
        <ele>573</ele>
        <time>2013-08-04T07:48:38Z</time>
      </trkpt>
      <trkpt lat="44.42244" lon="2.49664">
        <ele>573</ele>
        <time>2013-08-04T07:48:39Z</time>
      </trkpt>
      <trkpt lat="44.42242" lon="2.49671">
        <ele>573</ele>
        <time>2013-08-04T07:48:40Z</time>
      </trkpt>
      <trkpt lat="44.42241" lon="2.49679">
        <ele>573.1</ele>
        <time>2013-08-04T07:48:41Z</time>
      </trkpt>
      <trkpt lat="44.42241" lon="2.49686">
        <ele>573.2</ele>
        <time>2013-08-04T07:48:42Z</time>
      </trkpt>
      <trkpt lat="44.4224" lon="2.49694">
        <ele>573.1</ele>
        <time>2013-08-04T07:48:43Z</time>
      </trkpt>
      <trkpt lat="44.4224" lon="2.49701">
        <ele>573</ele>
        <time>2013-08-04T07:48:44Z</time>
      </trkpt>
      <trkpt lat="44.4224" lon="2.49709">
        <ele>572.9</ele>
        <time>2013-08-04T07:48:45Z</time>
      </trkpt>
      <trkpt lat="44.4224" lon="2.49717">
        <ele>572.6</ele>
        <time>2013-08-04T07:48:46Z</time>
      </trkpt>
      <trkpt lat="44.4224" lon="2.49724">
        <ele>572.3</ele>
        <time>2013-08-04T07:48:47Z</time>
      </trkpt>
      <trkpt lat="44.4224" lon="2.49732">
        <ele>572.1</ele>
        <time>2013-08-04T07:48:48Z</time>
      </trkpt>
      <trkpt lat="44.42241" lon="2.49739">
        <ele>572.1</ele>
        <time>2013-08-04T07:48:49Z</time>
      </trkpt>
      <trkpt lat="44.42241" lon="2.49751">
        <ele>572.2</ele>
        <time>2013-08-04T07:48:51Z</time>
      </trkpt>
      <trkpt lat="44.42241" lon="2.49762">
        <ele>571.8</ele>
        <time>2013-08-04T07:48:53Z</time>
      </trkpt>
      <trkpt lat="44.4224" lon="2.49773">
        <ele>571.2</ele>
        <time>2013-08-04T07:48:56Z</time>
      </trkpt>
      <trkpt lat="44.4224" lon="2.49782">
        <ele>570.7</ele>
        <time>2013-08-04T07:48:58Z</time>
      </trkpt>
      <trkpt lat="44.4224" lon="2.49791">
        <ele>570.9</ele>
        <time>2013-08-04T07:49:00Z</time>
      </trkpt>
      <trkpt lat="44.4224" lon="2.498">
        <ele>571</ele>
        <time>2013-08-04T07:49:02Z</time>
      </trkpt>
      <trkpt lat="44.4224" lon="2.4981">
        <ele>571</ele>
        <time>2013-08-04T07:49:04Z</time>
      </trkpt>
      <trkpt lat="44.42241" lon="2.4982">
        <ele>571.1</ele>
        <time>2013-08-04T07:49:06Z</time>
      </trkpt>
      <trkpt lat="44.42241" lon="2.49829">
        <ele>571.5</ele>
        <time>2013-08-04T07:49:08Z</time>
      </trkpt>
      <trkpt lat="44.42242" lon="2.49839">
        <ele>572.1</ele>
        <time>2013-08-04T07:49:10Z</time>
      </trkpt>
      <trkpt lat="44.42243" lon="2.49848">
        <ele>571.8</ele>
        <time>2013-08-04T07:49:12Z</time>
      </trkpt>
      <trkpt lat="44.42246" lon="2.49858">
        <ele>571.3</ele>
        <time>2013-08-04T07:49:14Z</time>
      </trkpt>
      <trkpt lat="44.42248" lon="2.49867">
        <ele>571.8</ele>
        <time>2013-08-04T07:49:16Z</time>
      </trkpt>
      <trkpt lat="44.4225" lon="2.49876">
        <ele>571.9</ele>
        <time>2013-08-04T07:49:18Z</time>
      </trkpt>
      <trkpt lat="44.42251" lon="2.49884">
        <ele>571.8</ele>
        <time>2013-08-04T07:49:20Z</time>
      </trkpt>
      <trkpt lat="44.42252" lon="2.49894">
        <ele>571.3</ele>
        <time>2013-08-04T07:49:22Z</time>
      </trkpt>
      <trkpt lat="44.42252" lon="2.49904">
        <ele>571.2</ele>
        <time>2013-08-04T07:49:24Z</time>
      </trkpt>
      <trkpt lat="44.42253" lon="2.49913">
        <ele>571.2</ele>
        <time>2013-08-04T07:49:26Z</time>
      </trkpt>
      <trkpt lat="44.42255" lon="2.49924">
        <ele>571</ele>
        <time>2013-08-04T07:49:28Z</time>
      </trkpt>
      <trkpt lat="44.42257" lon="2.49935">
        <ele>570.7</ele>
        <time>2013-08-04T07:49:30Z</time>
      </trkpt>
      <trkpt lat="44.42258" lon="2.4994">
        <ele>570.7</ele>
        <time>2013-08-04T07:49:31Z</time>
      </trkpt>
      <trkpt lat="44.4226" lon="2.49952">
        <ele>570.7</ele>
        <time>2013-08-04T07:49:33Z</time>
      </trkpt>
      <trkpt lat="44.4226" lon="2.49958">
        <ele>570.6</ele>
        <time>2013-08-04T07:49:34Z</time>
      </trkpt>
      <trkpt lat="44.4226" lon="2.49971">
        <ele>570.3</ele>
        <time>2013-08-04T07:49:36Z</time>
      </trkpt>
      <trkpt lat="44.4226" lon="2.49977">
        <ele>569.7</ele>
        <time>2013-08-04T07:49:37Z</time>
      </trkpt>
      <trkpt lat="44.4226" lon="2.49984">
        <ele>569.3</ele>
        <time>2013-08-04T07:49:38Z</time>
      </trkpt>
      <trkpt lat="44.4226" lon="2.49991">
        <ele>569</ele>
        <time>2013-08-04T07:49:39Z</time>
      </trkpt>
      <trkpt lat="44.4226" lon="2.49997">
        <ele>568.8</ele>
        <time>2013-08-04T07:49:40Z</time>
      </trkpt>
      <trkpt lat="44.4226" lon="2.50004">
        <ele>568.7</ele>
        <time>2013-08-04T07:49:41Z</time>
      </trkpt>
      <trkpt lat="44.4226" lon="2.50011">
        <ele>568.6</ele>
        <time>2013-08-04T07:49:42Z</time>
      </trkpt>
      <trkpt lat="44.42259" lon="2.50017">
        <ele>568.6</ele>
        <time>2013-08-04T07:49:43Z</time>
      </trkpt>
      <trkpt lat="44.42259" lon="2.50024">
        <ele>568.2</ele>
        <time>2013-08-04T07:49:44Z</time>
      </trkpt>
      <trkpt lat="44.42259" lon="2.50031">
        <ele>567.9</ele>
        <time>2013-08-04T07:49:45Z</time>
      </trkpt>
      <trkpt lat="44.42258" lon="2.50038">
        <ele>567.7</ele>
        <time>2013-08-04T07:49:46Z</time>
      </trkpt>
      <trkpt lat="44.42258" lon="2.50044">
        <ele>567.7</ele>
        <time>2013-08-04T07:49:47Z</time>
      </trkpt>
      <trkpt lat="44.42258" lon="2.50051">
        <ele>567.7</ele>
        <time>2013-08-04T07:49:48Z</time>
      </trkpt>
      <trkpt lat="44.42259" lon="2.50059">
        <ele>567.7</ele>
        <time>2013-08-04T07:49:49Z</time>
      </trkpt>
      <trkpt lat="44.42259" lon="2.50066">
        <ele>567.6</ele>
        <time>2013-08-04T07:49:50Z</time>
      </trkpt>
      <trkpt lat="44.42259" lon="2.50074">
        <ele>567.6</ele>
        <time>2013-08-04T07:49:51Z</time>
      </trkpt>
      <trkpt lat="44.42259" lon="2.50082">
        <ele>567.5</ele>
        <time>2013-08-04T07:49:52Z</time>
      </trkpt>
      <trkpt lat="44.42258" lon="2.5009">
        <ele>567.2</ele>
        <time>2013-08-04T07:49:53Z</time>
      </trkpt>
      <trkpt lat="44.42256" lon="2.50097">
        <ele>567</ele>
        <time>2013-08-04T07:49:54Z</time>
      </trkpt>
      <trkpt lat="44.42253" lon="2.50103">
        <ele>566.8</ele>
        <time>2013-08-04T07:49:55Z</time>
      </trkpt>
      <trkpt lat="44.42249" lon="2.50108">
        <ele>566.2</ele>
        <time>2013-08-04T07:49:56Z</time>
      </trkpt>
      <trkpt lat="44.42244" lon="2.50112">
        <ele>565.7</ele>
        <time>2013-08-04T07:49:57Z</time>
      </trkpt>
      <trkpt lat="44.42239" lon="2.50116">
        <ele>565.3</ele>
        <time>2013-08-04T07:49:58Z</time>
      </trkpt>
      <trkpt lat="44.42234" lon="2.50119">
        <ele>565</ele>
        <time>2013-08-04T07:49:59Z</time>
      </trkpt>
      <trkpt lat="44.42229" lon="2.50121">
        <ele>564.5</ele>
        <time>2013-08-04T07:50:00Z</time>
      </trkpt>
      <trkpt lat="44.42224" lon="2.50124">
        <ele>564.1</ele>
        <time>2013-08-04T07:50:01Z</time>
      </trkpt>
      <trkpt lat="44.42219" lon="2.50126">
        <ele>563.9</ele>
        <time>2013-08-04T07:50:02Z</time>
      </trkpt>
      <trkpt lat="44.42214" lon="2.50128">
        <ele>563.6</ele>
        <time>2013-08-04T07:50:03Z</time>
      </trkpt>
      <trkpt lat="44.4221" lon="2.50129">
        <ele>563.3</ele>
        <time>2013-08-04T07:50:04Z</time>
      </trkpt>
      <trkpt lat="44.42205" lon="2.50131">
        <ele>563.2</ele>
        <time>2013-08-04T07:50:05Z</time>
      </trkpt>
      <trkpt lat="44.422" lon="2.50132">
        <ele>563.5</ele>
        <time>2013-08-04T07:50:06Z</time>
      </trkpt>
      <trkpt lat="44.42196" lon="2.50134">
        <ele>563.7</ele>
        <time>2013-08-04T07:50:07Z</time>
      </trkpt>
      <trkpt lat="44.42191" lon="2.50135">
        <ele>563.9</ele>
        <time>2013-08-04T07:50:08Z</time>
      </trkpt>
      <trkpt lat="44.42185" lon="2.50136">
        <ele>563.6</ele>
        <time>2013-08-04T07:50:09Z</time>
      </trkpt>
      <trkpt lat="44.4218" lon="2.50137">
        <ele>563.4</ele>
        <time>2013-08-04T07:50:10Z</time>
      </trkpt>
      <trkpt lat="44.42175" lon="2.50138">
        <ele>563.2</ele>
        <time>2013-08-04T07:50:11Z</time>
      </trkpt>
      <trkpt lat="44.4217" lon="2.50138">
        <ele>563.5</ele>
        <time>2013-08-04T07:50:12Z</time>
      </trkpt>
      <trkpt lat="44.42166" lon="2.50138">
        <ele>563.7</ele>
        <time>2013-08-04T07:50:13Z</time>
      </trkpt>
      <trkpt lat="44.42161" lon="2.50139">
        <ele>563.8</ele>
        <time>2013-08-04T07:50:14Z</time>
      </trkpt>
      <trkpt lat="44.42157" lon="2.5014">
        <ele>563.9</ele>
        <time>2013-08-04T07:50:15Z</time>
      </trkpt>
      <trkpt lat="44.42152" lon="2.5014">
        <ele>563.5</ele>
        <time>2013-08-04T07:50:16Z</time>
      </trkpt>
      <trkpt lat="44.42147" lon="2.50141">
        <ele>563.1</ele>
        <time>2013-08-04T07:50:17Z</time>
      </trkpt>
      <trkpt lat="44.42142" lon="2.50141">
        <ele>562.9</ele>
        <time>2013-08-04T07:50:18Z</time>
      </trkpt>
      <trkpt lat="44.42137" lon="2.50141">
        <ele>563.1</ele>
        <time>2013-08-04T07:50:19Z</time>
      </trkpt>
      <trkpt lat="44.42132" lon="2.50141">
        <ele>563.2</ele>
        <time>2013-08-04T07:50:20Z</time>
      </trkpt>
      <trkpt lat="44.42127" lon="2.50141">
        <ele>563.3</ele>
        <time>2013-08-04T07:50:21Z</time>
      </trkpt>
      <trkpt lat="44.42123" lon="2.50141">
        <ele>563.2</ele>
        <time>2013-08-04T07:50:22Z</time>
      </trkpt>
      <trkpt lat="44.42118" lon="2.50141">
        <ele>563.2</ele>
        <time>2013-08-04T07:50:23Z</time>
      </trkpt>
      <trkpt lat="44.4211" lon="2.5014">
        <ele>563.1</ele>
        <time>2013-08-04T07:50:25Z</time>
      </trkpt>
      <trkpt lat="44.42101" lon="2.50139">
        <ele>563</ele>
        <time>2013-08-04T07:50:27Z</time>
      </trkpt>
      <trkpt lat="44.42093" lon="2.50137">
        <ele>563.5</ele>
        <time>2013-08-04T07:50:29Z</time>
      </trkpt>
      <trkpt lat="44.42086" lon="2.50135">
        <ele>563.6</ele>
        <time>2013-08-04T07:50:31Z</time>
      </trkpt>
      <trkpt lat="44.42083" lon="2.50134">
        <ele>563.6</ele>
        <time>2013-08-04T07:50:32Z</time>
      </trkpt>
      <trkpt lat="44.4207" lon="2.50133">
        <ele>564.3</ele>
        <time>2013-08-04T07:50:36Z</time>
      </trkpt>
      <trkpt lat="44.42064" lon="2.50133">
        <ele>564.5</ele>
        <time>2013-08-04T07:50:38Z</time>
      </trkpt>
      <trkpt lat="44.42056" lon="2.50134">
        <ele>564.7</ele>
        <time>2013-08-04T07:50:41Z</time>
      </trkpt>
      <trkpt lat="44.42049" lon="2.50136">
        <ele>565.4</ele>
        <time>2013-08-04T07:50:44Z</time>
      </trkpt>
      <trkpt lat="44.4204" lon="2.50139">
        <ele>567.4</ele>
        <time>2013-08-04T07:50:49Z</time>
      </trkpt>
      <trkpt lat="44.42033" lon="2.50142">
        <ele>568.1</ele>
        <time>2013-08-04T07:50:54Z</time>
      </trkpt>
      <trkpt lat="44.42025" lon="2.50145">
        <ele>570.8</ele>
        <time>2013-08-04T07:50:59Z</time>
      </trkpt>
      <trkpt lat="44.42017" lon="2.50146">
        <ele>571.6</ele>
        <time>2013-08-04T07:51:04Z</time>
      </trkpt>
      <trkpt lat="44.42009" lon="2.50147">
        <ele>572.1</ele>
        <time>2013-08-04T07:51:08Z</time>
      </trkpt>
      <trkpt lat="44.42002" lon="2.50147">
        <ele>573.1</ele>
        <time>2013-08-04T07:51:11Z</time>
      </trkpt>
      <trkpt lat="44.41994" lon="2.50147">
        <ele>573.6</ele>
        <time>2013-08-04T07:51:15Z</time>
      </trkpt>
      <trkpt lat="44.41985" lon="2.50147">
        <ele>575</ele>
        <time>2013-08-04T07:51:20Z</time>
      </trkpt>
      <trkpt lat="44.41978" lon="2.50149">
        <ele>576.9</ele>
        <time>2013-08-04T07:51:24Z</time>
      </trkpt>
      <trkpt lat="44.4197" lon="2.50149">
        <ele>577.6</ele>
        <time>2013-08-04T07:51:28Z</time>
      </trkpt>
      <trkpt lat="44.41963" lon="2.50149">
        <ele>578.4</ele>
        <time>2013-08-04T07:51:31Z</time>
      </trkpt>
      <trkpt lat="44.41955" lon="2.50147">
        <ele>580.3</ele>
        <time>2013-08-04T07:51:35Z</time>
      </trkpt>
      <trkpt lat="44.41953" lon="2.50147">
        <ele>580.6</ele>
        <time>2013-08-04T07:51:36Z</time>
      </trkpt>
      <trkpt lat="44.41939" lon="2.50143">
        <ele>582.2</ele>
        <time>2013-08-04T07:51:45Z</time>
      </trkpt>
      <trkpt lat="44.41932" lon="2.50147">
        <ele>582.4</ele>
        <time>2013-08-04T07:51:51Z</time>
      </trkpt>
      <trkpt lat="44.41927" lon="2.50157">
        <ele>582.6</ele>
        <time>2013-08-04T07:51:56Z</time>
      </trkpt>
      <trkpt lat="44.41923" lon="2.50167">
        <ele>582.3</ele>
        <time>2013-08-04T07:52:01Z</time>
      </trkpt>
      <trkpt lat="44.41921" lon="2.50179">
        <ele>582</ele>
        <time>2013-08-04T07:52:07Z</time>
      </trkpt>
      <trkpt lat="44.41919" lon="2.50191">
        <ele>581.6</ele>
        <time>2013-08-04T07:52:13Z</time>
      </trkpt>
      <trkpt lat="44.41919" lon="2.50203">
        <ele>581.9</ele>
        <time>2013-08-04T07:52:19Z</time>
      </trkpt>
      <trkpt lat="44.41917" lon="2.50214">
        <ele>581.9</ele>
        <time>2013-08-04T07:52:24Z</time>
      </trkpt>
      <trkpt lat="44.41911" lon="2.50221">
        <ele>582.2</ele>
        <time>2013-08-04T07:52:28Z</time>
      </trkpt>
      <trkpt lat="44.41907" lon="2.50231">
        <ele>581.8</ele>
        <time>2013-08-04T07:52:32Z</time>
      </trkpt>
      <trkpt lat="44.41904" lon="2.5024">
        <ele>581.5</ele>
        <time>2013-08-04T07:52:35Z</time>
      </trkpt>
      <trkpt lat="44.419" lon="2.5025">
        <ele>581.4</ele>
        <time>2013-08-04T07:52:39Z</time>
      </trkpt>
      <trkpt lat="44.41899" lon="2.50254">
        <ele>581.3</ele>
        <time>2013-08-04T07:52:40Z</time>
      </trkpt>
      <trkpt lat="44.41891" lon="2.5027">
        <ele>580.9</ele>
        <time>2013-08-04T07:52:45Z</time>
      </trkpt>
      <trkpt lat="44.41887" lon="2.50276">
        <ele>580.6</ele>
        <time>2013-08-04T07:52:47Z</time>
      </trkpt>
      <trkpt lat="44.41881" lon="2.50283">
        <ele>580.6</ele>
        <time>2013-08-04T07:52:49Z</time>
      </trkpt>
      <trkpt lat="44.41874" lon="2.5029">
        <ele>580.7</ele>
        <time>2013-08-04T07:52:51Z</time>
      </trkpt>
      <trkpt lat="44.4187" lon="2.50293">
        <ele>580.5</ele>
        <time>2013-08-04T07:52:52Z</time>
      </trkpt>
      <trkpt lat="44.41865" lon="2.50296">
        <ele>580.4</ele>
        <time>2013-08-04T07:52:53Z</time>
      </trkpt>
      <trkpt lat="44.41861" lon="2.50299">
        <ele>580.3</ele>
        <time>2013-08-04T07:52:54Z</time>
      </trkpt>
      <trkpt lat="44.41857" lon="2.50303">
        <ele>579.6</ele>
        <time>2013-08-04T07:52:55Z</time>
      </trkpt>
      <trkpt lat="44.41853" lon="2.50307">
        <ele>579.2</ele>
        <time>2013-08-04T07:52:56Z</time>
      </trkpt>
      <trkpt lat="44.41848" lon="2.50312">
        <ele>578.8</ele>
        <time>2013-08-04T07:52:57Z</time>
      </trkpt>
      <trkpt lat="44.41844" lon="2.50316">
        <ele>578.3</ele>
        <time>2013-08-04T07:52:58Z</time>
      </trkpt>
      <trkpt lat="44.4184" lon="2.5032">
        <ele>578</ele>
        <time>2013-08-04T07:52:59Z</time>
      </trkpt>
      <trkpt lat="44.41836" lon="2.50325">
        <ele>577.7</ele>
        <time>2013-08-04T07:53:00Z</time>
      </trkpt>
      <trkpt lat="44.41832" lon="2.5033">
        <ele>577.5</ele>
        <time>2013-08-04T07:53:01Z</time>
      </trkpt>
      <trkpt lat="44.41828" lon="2.50335">
        <ele>577.5</ele>
        <time>2013-08-04T07:53:02Z</time>
      </trkpt>
      <trkpt lat="44.41824" lon="2.5034">
        <ele>577.5</ele>
        <time>2013-08-04T07:53:03Z</time>
      </trkpt>
      <trkpt lat="44.4182" lon="2.50345">
        <ele>577.5</ele>
        <time>2013-08-04T07:53:04Z</time>
      </trkpt>
      <trkpt lat="44.41815" lon="2.50349">
        <ele>577.2</ele>
        <time>2013-08-04T07:53:05Z</time>
      </trkpt>
      <trkpt lat="44.41811" lon="2.50354">
        <ele>576.9</ele>
        <time>2013-08-04T07:53:06Z</time>
      </trkpt>
      <trkpt lat="44.41807" lon="2.50359">
        <ele>576.7</ele>
        <time>2013-08-04T07:53:07Z</time>
      </trkpt>
      <trkpt lat="44.41803" lon="2.50364">
        <ele>576.5</ele>
        <time>2013-08-04T07:53:08Z</time>
      </trkpt>
      <trkpt lat="44.418" lon="2.5037">
        <ele>576.3</ele>
        <time>2013-08-04T07:53:09Z</time>
      </trkpt>
      <trkpt lat="44.41796" lon="2.50374">
        <ele>576.2</ele>
        <time>2013-08-04T07:53:10Z</time>
      </trkpt>
      <trkpt lat="44.41792" lon="2.50379">
        <ele>575.8</ele>
        <time>2013-08-04T07:53:11Z</time>
      </trkpt>
      <trkpt lat="44.41786" lon="2.50387">
        <ele>575.3</ele>
        <time>2013-08-04T07:53:13Z</time>
      </trkpt>
      <trkpt lat="44.4178" lon="2.50396">
        <ele>574.9</ele>
        <time>2013-08-04T07:53:15Z</time>
      </trkpt>
      <trkpt lat="44.41774" lon="2.50405">
        <ele>574.8</ele>
        <time>2013-08-04T07:53:17Z</time>
      </trkpt>
      <trkpt lat="44.41767" lon="2.50413">
        <ele>574.7</ele>
        <time>2013-08-04T07:53:19Z</time>
      </trkpt>
      <trkpt lat="44.41764" lon="2.50418">
        <ele>574.7</ele>
        <time>2013-08-04T07:53:20Z</time>
      </trkpt>
      <trkpt lat="44.41761" lon="2.50422">
        <ele>574.8</ele>
        <time>2013-08-04T07:53:21Z</time>
      </trkpt>
      <trkpt lat="44.41757" lon="2.50427">
        <ele>575</ele>
        <time>2013-08-04T07:53:22Z</time>
      </trkpt>
      <trkpt lat="44.41754" lon="2.50431">
        <ele>575.1</ele>
        <time>2013-08-04T07:53:23Z</time>
      </trkpt>
      <trkpt lat="44.4175" lon="2.50435">
        <ele>575.3</ele>
        <time>2013-08-04T07:53:24Z</time>
      </trkpt>
      <trkpt lat="44.41747" lon="2.5044">
        <ele>575.5</ele>
        <time>2013-08-04T07:53:25Z</time>
      </trkpt>
      <trkpt lat="44.41743" lon="2.50444">
        <ele>575.6</ele>
        <time>2013-08-04T07:53:26Z</time>
      </trkpt>
      <trkpt lat="44.41739" lon="2.50449">
        <ele>575</ele>
        <time>2013-08-04T07:53:27Z</time>
      </trkpt>
      <trkpt lat="44.41735" lon="2.50453">
        <ele>574.5</ele>
        <time>2013-08-04T07:53:28Z</time>
      </trkpt>
      <trkpt lat="44.41732" lon="2.50457">
        <ele>574.1</ele>
        <time>2013-08-04T07:53:29Z</time>
      </trkpt>
      <trkpt lat="44.41728" lon="2.50461">
        <ele>573.7</ele>
        <time>2013-08-04T07:53:30Z</time>
      </trkpt>
      <trkpt lat="44.41725" lon="2.50465">
        <ele>573.5</ele>
        <time>2013-08-04T07:53:31Z</time>
      </trkpt>
      <trkpt lat="44.41721" lon="2.5047">
        <ele>573.3</ele>
        <time>2013-08-04T07:53:32Z</time>
      </trkpt>
      <trkpt lat="44.41717" lon="2.50475">
        <ele>573.2</ele>
        <time>2013-08-04T07:53:33Z</time>
      </trkpt>
      <trkpt lat="44.41713" lon="2.50479">
        <ele>573.2</ele>
        <time>2013-08-04T07:53:34Z</time>
      </trkpt>
      <trkpt lat="44.41709" lon="2.50484">
        <ele>573.2</ele>
        <time>2013-08-04T07:53:35Z</time>
      </trkpt>
      <trkpt lat="44.41704" lon="2.50488">
        <ele>573.2</ele>
        <time>2013-08-04T07:53:36Z</time>
      </trkpt>
      <trkpt lat="44.417" lon="2.50493">
        <ele>573.4</ele>
        <time>2013-08-04T07:53:37Z</time>
      </trkpt>
      <trkpt lat="44.41696" lon="2.50497">
        <ele>573.5</ele>
        <time>2013-08-04T07:53:38Z</time>
      </trkpt>
      <trkpt lat="44.41691" lon="2.50502">
        <ele>573.6</ele>
        <time>2013-08-04T07:53:39Z</time>
      </trkpt>
      <trkpt lat="44.41687" lon="2.50506">
        <ele>573.8</ele>
        <time>2013-08-04T07:53:40Z</time>
      </trkpt>
      <trkpt lat="44.41682" lon="2.50511">
        <ele>574</ele>
        <time>2013-08-04T07:53:41Z</time>
      </trkpt>
      <trkpt lat="44.41678" lon="2.50515">
        <ele>574.1</ele>
        <time>2013-08-04T07:53:42Z</time>
      </trkpt>
      <trkpt lat="44.41674" lon="2.50519">
        <ele>573.8</ele>
        <time>2013-08-04T07:53:43Z</time>
      </trkpt>
      <trkpt lat="44.4167" lon="2.50524">
        <ele>573.6</ele>
        <time>2013-08-04T07:53:44Z</time>
      </trkpt>
      <trkpt lat="44.41666" lon="2.50529">
        <ele>573.4</ele>
        <time>2013-08-04T07:53:45Z</time>
      </trkpt>
      <trkpt lat="44.41662" lon="2.50534">
        <ele>572.8</ele>
        <time>2013-08-04T07:53:46Z</time>
      </trkpt>
      <trkpt lat="44.41659" lon="2.50539">
        <ele>572.4</ele>
        <time>2013-08-04T07:53:47Z</time>
      </trkpt>
      <trkpt lat="44.41655" lon="2.50544">
        <ele>572.1</ele>
        <time>2013-08-04T07:53:48Z</time>
      </trkpt>
      <trkpt lat="44.4165" lon="2.5055">
        <ele>572</ele>
        <time>2013-08-04T07:53:49Z</time>
      </trkpt>
      <trkpt lat="44.41646" lon="2.50556">
        <ele>571.9</ele>
        <time>2013-08-04T07:53:50Z</time>
      </trkpt>
      <trkpt lat="44.41642" lon="2.50562">
        <ele>571.8</ele>
        <time>2013-08-04T07:53:51Z</time>
      </trkpt>
      <trkpt lat="44.41637" lon="2.50568">
        <ele>571.7</ele>
        <time>2013-08-04T07:53:52Z</time>
      </trkpt>
      <trkpt lat="44.41633" lon="2.50575">
        <ele>571.4</ele>
        <time>2013-08-04T07:53:53Z</time>
      </trkpt>
      <trkpt lat="44.41629" lon="2.50581">
        <ele>571.2</ele>
        <time>2013-08-04T07:53:54Z</time>
      </trkpt>
      <trkpt lat="44.41624" lon="2.50588">
        <ele>571</ele>
        <time>2013-08-04T07:53:55Z</time>
      </trkpt>
      <trkpt lat="44.41619" lon="2.50595">
        <ele>570.3</ele>
        <time>2013-08-04T07:53:56Z</time>
      </trkpt>
      <trkpt lat="44.41615" lon="2.50602">
        <ele>569.8</ele>
        <time>2013-08-04T07:53:57Z</time>
      </trkpt>
      <trkpt lat="44.4161" lon="2.50609">
        <ele>569.4</ele>
        <time>2013-08-04T07:53:58Z</time>
      </trkpt>
      <trkpt lat="44.41604" lon="2.50616">
        <ele>569.5</ele>
        <time>2013-08-04T07:53:59Z</time>
      </trkpt>
      <trkpt lat="44.41598" lon="2.50621">
        <ele>569.6</ele>
        <time>2013-08-04T07:54:00Z</time>
      </trkpt>
      <trkpt lat="44.41591" lon="2.50628">
        <ele>569.6</ele>
        <time>2013-08-04T07:54:01Z</time>
      </trkpt>
      <trkpt lat="44.41584" lon="2.50635">
        <ele>568.6</ele>
        <time>2013-08-04T07:54:02Z</time>
      </trkpt>
      <trkpt lat="44.41576" lon="2.50641">
        <ele>567.8</ele>
        <time>2013-08-04T07:54:03Z</time>
      </trkpt>
      <trkpt lat="44.41569" lon="2.50647">
        <ele>567.2</ele>
        <time>2013-08-04T07:54:04Z</time>
      </trkpt>
      <trkpt lat="44.41562" lon="2.50653">
        <ele>566.7</ele>
        <time>2013-08-04T07:54:05Z</time>
      </trkpt>
      <trkpt lat="44.41555" lon="2.50658">
        <ele>566.3</ele>
        <time>2013-08-04T07:54:06Z</time>
      </trkpt>
      <trkpt lat="44.41548" lon="2.50663">
        <ele>566</ele>
        <time>2013-08-04T07:54:07Z</time>
      </trkpt>
      <trkpt lat="44.41542" lon="2.50668">
        <ele>565.8</ele>
        <time>2013-08-04T07:54:08Z</time>
      </trkpt>
      <trkpt lat="44.41537" lon="2.50673">
        <ele>565.5</ele>
        <time>2013-08-04T07:54:09Z</time>
      </trkpt>
      <trkpt lat="44.41533" lon="2.50677">
        <ele>565.4</ele>
        <time>2013-08-04T07:54:10Z</time>
      </trkpt>
      <trkpt lat="44.41527" lon="2.50686">
        <ele>564.8</ele>
        <time>2013-08-04T07:54:12Z</time>
      </trkpt>
      <trkpt lat="44.41519" lon="2.5069">
        <ele>564.2</ele>
        <time>2013-08-04T07:54:14Z</time>
      </trkpt>
      <trkpt lat="44.41512" lon="2.50685">
        <ele>563.5</ele>
        <time>2013-08-04T07:54:16Z</time>
      </trkpt>
      <trkpt lat="44.41506" lon="2.50679">
        <ele>563.7</ele>
        <time>2013-08-04T07:54:18Z</time>
      </trkpt>
      <trkpt lat="44.41499" lon="2.50678">
        <ele>564.3</ele>
        <time>2013-08-04T07:54:20Z</time>
      </trkpt>
      <trkpt lat="44.41495" lon="2.50685">
        <ele>563.6</ele>
        <time>2013-08-04T07:54:22Z</time>
      </trkpt>
      <trkpt lat="44.41495" lon="2.50695">
        <ele>563.6</ele>
        <time>2013-08-04T07:54:24Z</time>
      </trkpt>
      <trkpt lat="44.41495" lon="2.50706">
        <ele>563.9</ele>
        <time>2013-08-04T07:54:26Z</time>
      </trkpt>
      <trkpt lat="44.41494" lon="2.50717">
        <ele>563.7</ele>
        <time>2013-08-04T07:54:28Z</time>
      </trkpt>
      <trkpt lat="44.41492" lon="2.50723">
        <ele>563.4</ele>
        <time>2013-08-04T07:54:29Z</time>
      </trkpt>
      <trkpt lat="44.4149" lon="2.50729">
        <ele>563.2</ele>
        <time>2013-08-04T07:54:30Z</time>
      </trkpt>
      <trkpt lat="44.41488" lon="2.50735">
        <ele>563.5</ele>
        <time>2013-08-04T07:54:31Z</time>
      </trkpt>
      <trkpt lat="44.41486" lon="2.50741">
        <ele>563.6</ele>
        <time>2013-08-04T07:54:32Z</time>
      </trkpt>
      <trkpt lat="44.41483" lon="2.50747">
        <ele>563.8</ele>
        <time>2013-08-04T07:54:33Z</time>
      </trkpt>
      <trkpt lat="44.41481" lon="2.50753">
        <ele>563.6</ele>
        <time>2013-08-04T07:54:34Z</time>
      </trkpt>
      <trkpt lat="44.41479" lon="2.50759">
        <ele>563.5</ele>
        <time>2013-08-04T07:54:35Z</time>
      </trkpt>
      <trkpt lat="44.41476" lon="2.50765">
        <ele>563.4</ele>
        <time>2013-08-04T07:54:36Z</time>
      </trkpt>
      <trkpt lat="44.41474" lon="2.50771">
        <ele>563.2</ele>
        <time>2013-08-04T07:54:37Z</time>
      </trkpt>
      <trkpt lat="44.41472" lon="2.50777">
        <ele>563</ele>
        <time>2013-08-04T07:54:38Z</time>
      </trkpt>
      <trkpt lat="44.4147" lon="2.50782">
        <ele>562.8</ele>
        <time>2013-08-04T07:54:39Z</time>
      </trkpt>
      <trkpt lat="44.41468" lon="2.50788">
        <ele>562.7</ele>
        <time>2013-08-04T07:54:40Z</time>
      </trkpt>
      <trkpt lat="44.41465" lon="2.50794">
        <ele>562.6</ele>
        <time>2013-08-04T07:54:41Z</time>
      </trkpt>
      <trkpt lat="44.41463" lon="2.508">
        <ele>562.6</ele>
        <time>2013-08-04T07:54:42Z</time>
      </trkpt>
      <trkpt lat="44.4146" lon="2.50806">
        <ele>562.5</ele>
        <time>2013-08-04T07:54:43Z</time>
      </trkpt>
      <trkpt lat="44.41457" lon="2.50813">
        <ele>562.4</ele>
        <time>2013-08-04T07:54:44Z</time>
      </trkpt>
      <trkpt lat="44.41455" lon="2.50819">
        <ele>562.4</ele>
        <time>2013-08-04T07:54:45Z</time>
      </trkpt>
      <trkpt lat="44.41452" lon="2.50825">
        <ele>562.3</ele>
        <time>2013-08-04T07:54:46Z</time>
      </trkpt>
      <trkpt lat="44.4145" lon="2.50831">
        <ele>562.1</ele>
        <time>2013-08-04T07:54:47Z</time>
      </trkpt>
      <trkpt lat="44.41447" lon="2.50837">
        <ele>561.9</ele>
        <time>2013-08-04T07:54:48Z</time>
      </trkpt>
      <trkpt lat="44.41446" lon="2.50843">
        <ele>561.8</ele>
        <time>2013-08-04T07:54:49Z</time>
      </trkpt>
      <trkpt lat="44.41444" lon="2.5085">
        <ele>561.7</ele>
        <time>2013-08-04T07:54:50Z</time>
      </trkpt>
      <trkpt lat="44.41441" lon="2.50856">
        <ele>561.6</ele>
        <time>2013-08-04T07:54:51Z</time>
      </trkpt>
      <trkpt lat="44.41439" lon="2.50862">
        <ele>561.5</ele>
        <time>2013-08-04T07:54:52Z</time>
      </trkpt>
      <trkpt lat="44.41437" lon="2.50868">
        <ele>561.3</ele>
        <time>2013-08-04T07:54:53Z</time>
      </trkpt>
      <trkpt lat="44.41435" lon="2.50874">
        <ele>561.2</ele>
        <time>2013-08-04T07:54:54Z</time>
      </trkpt>
      <trkpt lat="44.41433" lon="2.5088">
        <ele>561.1</ele>
        <time>2013-08-04T07:54:55Z</time>
      </trkpt>
      <trkpt lat="44.4143" lon="2.50892">
        <ele>560.3</ele>
        <time>2013-08-04T07:54:57Z</time>
      </trkpt>
      <trkpt lat="44.41427" lon="2.50903">
        <ele>559.8</ele>
        <time>2013-08-04T07:54:59Z</time>
      </trkpt>
      <trkpt lat="44.41424" lon="2.50913">
        <ele>559.4</ele>
        <time>2013-08-04T07:55:01Z</time>
      </trkpt>
      <trkpt lat="44.41421" lon="2.50923">
        <ele>559.3</ele>
        <time>2013-08-04T07:55:03Z</time>
      </trkpt>
      <trkpt lat="44.41418" lon="2.50932">
        <ele>559.3</ele>
        <time>2013-08-04T07:55:05Z</time>
      </trkpt>
      <trkpt lat="44.41415" lon="2.50943">
        <ele>559.1</ele>
        <time>2013-08-04T07:55:07Z</time>
      </trkpt>
      <trkpt lat="44.41411" lon="2.50953">
        <ele>559</ele>
        <time>2013-08-04T07:55:09Z</time>
      </trkpt>
      <trkpt lat="44.41408" lon="2.50964">
        <ele>558.6</ele>
        <time>2013-08-04T07:55:12Z</time>
      </trkpt>
      <trkpt lat="44.41405" lon="2.50973">
        <ele>558</ele>
        <time>2013-08-04T07:55:38Z</time>
      </trkpt>
      <trkpt lat="44.41402" lon="2.50982">
        <ele>558.2</ele>
        <time>2013-08-04T07:55:41Z</time>
      </trkpt>
      <trkpt lat="44.414" lon="2.50989">
        <ele>558.2</ele>
        <time>2013-08-04T07:55:43Z</time>
      </trkpt>
      <trkpt lat="44.41396" lon="2.50998">
        <ele>557.6</ele>
        <time>2013-08-04T07:55:45Z</time>
      </trkpt>
      <trkpt lat="44.41395" lon="2.51004">
        <ele>557.4</ele>
        <time>2013-08-04T07:55:46Z</time>
      </trkpt>
      <trkpt lat="44.4139" lon="2.51015">
        <ele>557.2</ele>
        <time>2013-08-04T07:55:48Z</time>
      </trkpt>
      <trkpt lat="44.41388" lon="2.51021">
        <ele>557.2</ele>
        <time>2013-08-04T07:55:49Z</time>
      </trkpt>
      <trkpt lat="44.41384" lon="2.51031">
        <ele>557.3</ele>
        <time>2013-08-04T07:55:51Z</time>
      </trkpt>
      <trkpt lat="44.41383" lon="2.51037">
        <ele>557.3</ele>
        <time>2013-08-04T07:55:52Z</time>
      </trkpt>
      <trkpt lat="44.41381" lon="2.51043">
        <ele>557.4</ele>
        <time>2013-08-04T07:55:53Z</time>
      </trkpt>
      <trkpt lat="44.41379" lon="2.51049">
        <ele>557</ele>
        <time>2013-08-04T07:55:54Z</time>
      </trkpt>
      <trkpt lat="44.41377" lon="2.51056">
        <ele>556.8</ele>
        <time>2013-08-04T07:55:55Z</time>
      </trkpt>
      <trkpt lat="44.41376" lon="2.51063">
        <ele>556.6</ele>
        <time>2013-08-04T07:55:56Z</time>
      </trkpt>
      <trkpt lat="44.41374" lon="2.5107">
        <ele>556.2</ele>
        <time>2013-08-04T07:55:57Z</time>
      </trkpt>
      <trkpt lat="44.41372" lon="2.51078">
        <ele>556</ele>
        <time>2013-08-04T07:55:58Z</time>
      </trkpt>
      <trkpt lat="44.41371" lon="2.51086">
        <ele>555.7</ele>
        <time>2013-08-04T07:55:59Z</time>
      </trkpt>
      <trkpt lat="44.41369" lon="2.51094">
        <ele>555.3</ele>
        <time>2013-08-04T07:56:00Z</time>
      </trkpt>
      <trkpt lat="44.41368" lon="2.51102">
        <ele>555</ele>
        <time>2013-08-04T07:56:01Z</time>
      </trkpt>
      <trkpt lat="44.41367" lon="2.51109">
        <ele>554.8</ele>
        <time>2013-08-04T07:56:02Z</time>
      </trkpt>
      <trkpt lat="44.41365" lon="2.51116">
        <ele>554.4</ele>
        <time>2013-08-04T07:56:03Z</time>
      </trkpt>
      <trkpt lat="44.41365" lon="2.51123">
        <ele>554</ele>
        <time>2013-08-04T07:56:04Z</time>
      </trkpt>
      <trkpt lat="44.41363" lon="2.51135">
        <ele>553.6</ele>
        <time>2013-08-04T07:56:06Z</time>
      </trkpt>
      <trkpt lat="44.41361" lon="2.51147">
        <ele>553.1</ele>
        <time>2013-08-04T07:56:11Z</time>
      </trkpt>
      <trkpt lat="44.4136" lon="2.51159">
        <ele>552</ele>
        <time>2013-08-04T07:56:18Z</time>
      </trkpt>
      <trkpt lat="44.41358" lon="2.5117">
        <ele>551.8</ele>
        <time>2013-08-04T07:56:25Z</time>
      </trkpt>
      <trkpt lat="44.41357" lon="2.5118">
        <ele>551.7</ele>
        <time>2013-08-04T07:56:30Z</time>
      </trkpt>
      <trkpt lat="44.41356" lon="2.51191">
        <ele>552.1</ele>
        <time>2013-08-04T07:56:34Z</time>
      </trkpt>
      <trkpt lat="44.41353" lon="2.51201">
        <ele>553.1</ele>
        <time>2013-08-04T07:56:37Z</time>
      </trkpt>
      <trkpt lat="44.4135" lon="2.5121">
        <ele>552.8</ele>
        <time>2013-08-04T07:56:40Z</time>
      </trkpt>
      <trkpt lat="44.41347" lon="2.51219">
        <ele>553.8</ele>
        <time>2013-08-04T07:56:43Z</time>
      </trkpt>
      <trkpt lat="44.41345" lon="2.51228">
        <ele>553.5</ele>
        <time>2013-08-04T07:56:46Z</time>
      </trkpt>
      <trkpt lat="44.41345" lon="2.51232">
        <ele>553.3</ele>
        <time>2013-08-04T07:56:47Z</time>
      </trkpt>
      <trkpt lat="44.41341" lon="2.51246">
        <ele>553.2</ele>
        <time>2013-08-04T07:56:51Z</time>
      </trkpt>
      <trkpt lat="44.41339" lon="2.51255">
        <ele>552.8</ele>
        <time>2013-08-04T07:56:53Z</time>
      </trkpt>
      <trkpt lat="44.41337" lon="2.51264">
        <ele>552.8</ele>
        <time>2013-08-04T07:56:55Z</time>
      </trkpt>
      <trkpt lat="44.41337" lon="2.51275">
        <ele>553.1</ele>
        <time>2013-08-04T07:56:57Z</time>
      </trkpt>
      <trkpt lat="44.41337" lon="2.51287">
        <ele>552.7</ele>
        <time>2013-08-04T07:56:59Z</time>
      </trkpt>
      <trkpt lat="44.41338" lon="2.51294">
        <ele>552.6</ele>
        <time>2013-08-04T07:57:00Z</time>
      </trkpt>
      <trkpt lat="44.41338" lon="2.51301">
        <ele>552.6</ele>
        <time>2013-08-04T07:57:01Z</time>
      </trkpt>
      <trkpt lat="44.41338" lon="2.51309">
        <ele>552.7</ele>
        <time>2013-08-04T07:57:02Z</time>
      </trkpt>
      <trkpt lat="44.41338" lon="2.51317">
        <ele>552.7</ele>
        <time>2013-08-04T07:57:03Z</time>
      </trkpt>
      <trkpt lat="44.41338" lon="2.51324">
        <ele>552.5</ele>
        <time>2013-08-04T07:57:04Z</time>
      </trkpt>
      <trkpt lat="44.41338" lon="2.51332">
        <ele>552.3</ele>
        <time>2013-08-04T07:57:05Z</time>
      </trkpt>
      <trkpt lat="44.41338" lon="2.5134">
        <ele>552.2</ele>
        <time>2013-08-04T07:57:06Z</time>
      </trkpt>
      <trkpt lat="44.41338" lon="2.51348">
        <ele>551.6</ele>
        <time>2013-08-04T07:57:07Z</time>
      </trkpt>
      <trkpt lat="44.41337" lon="2.51356">
        <ele>551.3</ele>
        <time>2013-08-04T07:57:08Z</time>
      </trkpt>
      <trkpt lat="44.41336" lon="2.51364">
        <ele>551</ele>
        <time>2013-08-04T07:57:09Z</time>
      </trkpt>
      <trkpt lat="44.41336" lon="2.51372">
        <ele>550.8</ele>
        <time>2013-08-04T07:57:10Z</time>
      </trkpt>
      <trkpt lat="44.41334" lon="2.51381">
        <ele>550.1</ele>
        <time>2013-08-04T07:57:11Z</time>
      </trkpt>
      <trkpt lat="44.41333" lon="2.51389">
        <ele>549.6</ele>
        <time>2013-08-04T07:57:12Z</time>
      </trkpt>
      <trkpt lat="44.41332" lon="2.51397">
        <ele>549.3</ele>
        <time>2013-08-04T07:57:13Z</time>
      </trkpt>
      <trkpt lat="44.41331" lon="2.51405">
        <ele>549.1</ele>
        <time>2013-08-04T07:57:14Z</time>
      </trkpt>
      <trkpt lat="44.4133" lon="2.51413">
        <ele>549</ele>
        <time>2013-08-04T07:57:15Z</time>
      </trkpt>
      <trkpt lat="44.41329" lon="2.51421">
        <ele>548.9</ele>
        <time>2013-08-04T07:57:16Z</time>
      </trkpt>
      <trkpt lat="44.41328" lon="2.51429">
        <ele>549</ele>
        <time>2013-08-04T07:57:17Z</time>
      </trkpt>
      <trkpt lat="44.41326" lon="2.51437">
        <ele>549.2</ele>
        <time>2013-08-04T07:57:18Z</time>
      </trkpt>
      <trkpt lat="44.41325" lon="2.51444">
        <ele>549.3</ele>
        <time>2013-08-04T07:57:19Z</time>
      </trkpt>
      <trkpt lat="44.41324" lon="2.51452">
        <ele>549.1</ele>
        <time>2013-08-04T07:57:20Z</time>
      </trkpt>
      <trkpt lat="44.41322" lon="2.5146">
        <ele>549</ele>
        <time>2013-08-04T07:57:21Z</time>
      </trkpt>
      <trkpt lat="44.41321" lon="2.51468">
        <ele>548.9</ele>
        <time>2013-08-04T07:57:22Z</time>
      </trkpt>
      <trkpt lat="44.41319" lon="2.51475">
        <ele>548.9</ele>
        <time>2013-08-04T07:57:23Z</time>
      </trkpt>
      <trkpt lat="44.41316" lon="2.51483">
        <ele>548.9</ele>
        <time>2013-08-04T07:57:24Z</time>
      </trkpt>
      <trkpt lat="44.41314" lon="2.51491">
        <ele>548.8</ele>
        <time>2013-08-04T07:57:25Z</time>
      </trkpt>
      <trkpt lat="44.41312" lon="2.51498">
        <ele>548.8</ele>
        <time>2013-08-04T07:57:26Z</time>
      </trkpt>
      <trkpt lat="44.41309" lon="2.51505">
        <ele>548.8</ele>
        <time>2013-08-04T07:57:27Z</time>
      </trkpt>
      <trkpt lat="44.41306" lon="2.51512">
        <ele>548.8</ele>
        <time>2013-08-04T07:57:28Z</time>
      </trkpt>
      <trkpt lat="44.41303" lon="2.5152">
        <ele>548.7</ele>
        <time>2013-08-04T07:57:29Z</time>
      </trkpt>
      <trkpt lat="44.413" lon="2.51527">
        <ele>548.4</ele>
        <time>2013-08-04T07:57:30Z</time>
      </trkpt>
      <trkpt lat="44.41297" lon="2.51534">
        <ele>548.2</ele>
        <time>2013-08-04T07:57:31Z</time>
      </trkpt>
      <trkpt lat="44.41294" lon="2.51541">
        <ele>548</ele>
        <time>2013-08-04T07:57:32Z</time>
      </trkpt>
      <trkpt lat="44.41292" lon="2.51548">
        <ele>548.3</ele>
        <time>2013-08-04T07:57:33Z</time>
      </trkpt>
      <trkpt lat="44.41289" lon="2.51556">
        <ele>548.6</ele>
        <time>2013-08-04T07:57:34Z</time>
      </trkpt>
      <trkpt lat="44.41286" lon="2.51563">
        <ele>548.8</ele>
        <time>2013-08-04T07:57:35Z</time>
      </trkpt>
      <trkpt lat="44.41284" lon="2.51571">
        <ele>548.2</ele>
        <time>2013-08-04T07:57:36Z</time>
      </trkpt>
      <trkpt lat="44.41281" lon="2.51578">
        <ele>547.8</ele>
        <time>2013-08-04T07:57:37Z</time>
      </trkpt>
      <trkpt lat="44.41279" lon="2.51586">
        <ele>547.5</ele>
        <time>2013-08-04T07:57:38Z</time>
      </trkpt>
      <trkpt lat="44.41277" lon="2.51593">
        <ele>547.6</ele>
        <time>2013-08-04T07:57:39Z</time>
      </trkpt>
      <trkpt lat="44.41275" lon="2.516">
        <ele>547.7</ele>
        <time>2013-08-04T07:57:40Z</time>
      </trkpt>
      <trkpt lat="44.41274" lon="2.51607">
        <ele>547.7</ele>
        <time>2013-08-04T07:57:41Z</time>
      </trkpt>
      <trkpt lat="44.41272" lon="2.51614">
        <ele>548</ele>
        <time>2013-08-04T07:57:42Z</time>
      </trkpt>
      <trkpt lat="44.4127" lon="2.51621">
        <ele>548.2</ele>
        <time>2013-08-04T07:57:43Z</time>
      </trkpt>
      <trkpt lat="44.41269" lon="2.51628">
        <ele>548.3</ele>
        <time>2013-08-04T07:57:44Z</time>
      </trkpt>
      <trkpt lat="44.41268" lon="2.51635">
        <ele>548.5</ele>
        <time>2013-08-04T07:57:45Z</time>
      </trkpt>
      <trkpt lat="44.41266" lon="2.51642">
        <ele>548.4</ele>
        <time>2013-08-04T07:57:46Z</time>
      </trkpt>
      <trkpt lat="44.41264" lon="2.51649">
        <ele>548.4</ele>
        <time>2013-08-04T07:57:47Z</time>
      </trkpt>
      <trkpt lat="44.41262" lon="2.51656">
        <ele>548.4</ele>
        <time>2013-08-04T07:57:48Z</time>
      </trkpt>
      <trkpt lat="44.4126" lon="2.51664">
        <ele>547.7</ele>
        <time>2013-08-04T07:57:49Z</time>
      </trkpt>
      <trkpt lat="44.41257" lon="2.51671">
        <ele>547.2</ele>
        <time>2013-08-04T07:57:50Z</time>
      </trkpt>
      <trkpt lat="44.41254" lon="2.51677">
        <ele>546.8</ele>
        <time>2013-08-04T07:57:51Z</time>
      </trkpt>
      <trkpt lat="44.4125" lon="2.51683">
        <ele>546.7</ele>
        <time>2013-08-04T07:57:52Z</time>
      </trkpt>
      <trkpt lat="44.41245" lon="2.51688">
        <ele>546.6</ele>
        <time>2013-08-04T07:57:53Z</time>
      </trkpt>
      <trkpt lat="44.4124" lon="2.51693">
        <ele>546.6</ele>
        <time>2013-08-04T07:57:54Z</time>
      </trkpt>
      <trkpt lat="44.41235" lon="2.51698">
        <ele>546.4</ele>
        <time>2013-08-04T07:57:55Z</time>
      </trkpt>
      <trkpt lat="44.4123" lon="2.51703">
        <ele>546.2</ele>
        <time>2013-08-04T07:57:56Z</time>
      </trkpt>
      <trkpt lat="44.41226" lon="2.51708">
        <ele>546.1</ele>
        <time>2013-08-04T07:57:57Z</time>
      </trkpt>
      <trkpt lat="44.41221" lon="2.51712">
        <ele>546.1</ele>
        <time>2013-08-04T07:57:58Z</time>
      </trkpt>
      <trkpt lat="44.41217" lon="2.51716">
        <ele>546.1</ele>
        <time>2013-08-04T07:57:59Z</time>
      </trkpt>
      <trkpt lat="44.41214" lon="2.5172">
        <ele>546.1</ele>
        <time>2013-08-04T07:58:00Z</time>
      </trkpt>
      <trkpt lat="44.41208" lon="2.5173">
        <ele>546.3</ele>
        <time>2013-08-04T07:58:02Z</time>
      </trkpt>
      <trkpt lat="44.41205" lon="2.51736">
        <ele>546.4</ele>
        <time>2013-08-04T07:58:03Z</time>
      </trkpt>
      <trkpt lat="44.41202" lon="2.51741">
        <ele>546.5</ele>
        <time>2013-08-04T07:58:04Z</time>
      </trkpt>
      <trkpt lat="44.41199" lon="2.51746">
        <ele>546.6</ele>
        <time>2013-08-04T07:58:05Z</time>
      </trkpt>
      <trkpt lat="44.41194" lon="2.51755">
        <ele>546.8</ele>
        <time>2013-08-04T07:58:07Z</time>
      </trkpt>
      <trkpt lat="44.4119" lon="2.51766">
        <ele>547.3</ele>
        <time>2013-08-04T07:58:09Z</time>
      </trkpt>
      <trkpt lat="44.41185" lon="2.51776">
        <ele>547.7</ele>
        <time>2013-08-04T07:58:11Z</time>
      </trkpt>
      <trkpt lat="44.4118" lon="2.51786">
        <ele>547.9</ele>
        <time>2013-08-04T07:58:13Z</time>
      </trkpt>
      <trkpt lat="44.41176" lon="2.51796">
        <ele>548.5</ele>
        <time>2013-08-04T07:58:15Z</time>
      </trkpt>
      <trkpt lat="44.41171" lon="2.51806">
        <ele>548.9</ele>
        <time>2013-08-04T07:58:17Z</time>
      </trkpt>
      <trkpt lat="44.41167" lon="2.51816">
        <ele>548.5</ele>
        <time>2013-08-04T07:58:19Z</time>
      </trkpt>
      <trkpt lat="44.41162" lon="2.51826">
        <ele>548.7</ele>
        <time>2013-08-04T07:58:21Z</time>
      </trkpt>
      <trkpt lat="44.41157" lon="2.51834">
        <ele>549</ele>
        <time>2013-08-04T07:58:23Z</time>
      </trkpt>
      <trkpt lat="44.41151" lon="2.51843">
        <ele>549.2</ele>
        <time>2013-08-04T07:58:25Z</time>
      </trkpt>
      <trkpt lat="44.41145" lon="2.51852">
        <ele>549.6</ele>
        <time>2013-08-04T07:58:27Z</time>
      </trkpt>
      <trkpt lat="44.41141" lon="2.51863">
        <ele>550.1</ele>
        <time>2013-08-04T07:58:29Z</time>
      </trkpt>
      <trkpt lat="44.41143" lon="2.51872">
        <ele>550.1</ele>
        <time>2013-08-04T07:58:31Z</time>
      </trkpt>
      <trkpt lat="44.4115" lon="2.51877">
        <ele>550.1</ele>
        <time>2013-08-04T07:58:33Z</time>
      </trkpt>
      <trkpt lat="44.41158" lon="2.51877">
        <ele>549.6</ele>
        <time>2013-08-04T07:58:35Z</time>
      </trkpt>
      <trkpt lat="44.41166" lon="2.51877">
        <ele>549.7</ele>
        <time>2013-08-04T07:58:37Z</time>
      </trkpt>
      <trkpt lat="44.41175" lon="2.51876">
        <ele>550.1</ele>
        <time>2013-08-04T07:58:39Z</time>
      </trkpt>
      <trkpt lat="44.41183" lon="2.51874">
        <ele>549.7</ele>
        <time>2013-08-04T07:58:41Z</time>
      </trkpt>
      <trkpt lat="44.41191" lon="2.51873">
        <ele>549.2</ele>
        <time>2013-08-04T07:58:43Z</time>
      </trkpt>
      <trkpt lat="44.412" lon="2.51871">
        <ele>548.8</ele>
        <time>2013-08-04T07:58:45Z</time>
      </trkpt>
      <trkpt lat="44.41209" lon="2.51869">
        <ele>548.9</ele>
        <time>2013-08-04T07:58:47Z</time>
      </trkpt>
      <trkpt lat="44.41218" lon="2.51868">
        <ele>548.8</ele>
        <time>2013-08-04T07:58:49Z</time>
      </trkpt>
      <trkpt lat="44.41222" lon="2.51866">
        <ele>548.7</ele>
        <time>2013-08-04T07:58:50Z</time>
      </trkpt>
      <trkpt lat="44.41226" lon="2.51864">
        <ele>548.6</ele>
        <time>2013-08-04T07:58:51Z</time>
      </trkpt>
      <trkpt lat="44.41231" lon="2.51863">
        <ele>548.6</ele>
        <time>2013-08-04T07:58:52Z</time>
      </trkpt>
      <trkpt lat="44.41235" lon="2.5186">
        <ele>548.6</ele>
        <time>2013-08-04T07:58:53Z</time>
      </trkpt>
      <trkpt lat="44.4124" lon="2.51858">
        <ele>548.5</ele>
        <time>2013-08-04T07:58:54Z</time>
      </trkpt>
      <trkpt lat="44.41245" lon="2.51856">
        <ele>548.5</ele>
        <time>2013-08-04T07:58:55Z</time>
      </trkpt>
      <trkpt lat="44.41249" lon="2.51853">
        <ele>548.4</ele>
        <time>2013-08-04T07:58:56Z</time>
      </trkpt>
      <trkpt lat="44.41254" lon="2.5185">
        <ele>548.3</ele>
        <time>2013-08-04T07:58:57Z</time>
      </trkpt>
      <trkpt lat="44.41259" lon="2.51847">
        <ele>548.3</ele>
        <time>2013-08-04T07:58:58Z</time>
      </trkpt>
      <trkpt lat="44.41263" lon="2.51844">
        <ele>548</ele>
        <time>2013-08-04T07:58:59Z</time>
      </trkpt>
      <trkpt lat="44.41268" lon="2.5184">
        <ele>547.7</ele>
        <time>2013-08-04T07:59:00Z</time>
      </trkpt>
      <trkpt lat="44.41273" lon="2.51836">
        <ele>547.5</ele>
        <time>2013-08-04T07:59:01Z</time>
      </trkpt>
      <trkpt lat="44.41277" lon="2.51832">
        <ele>547.6</ele>
        <time>2013-08-04T07:59:02Z</time>
      </trkpt>
      <trkpt lat="44.41281" lon="2.51827">
        <ele>547.7</ele>
        <time>2013-08-04T07:59:03Z</time>
      </trkpt>
      <trkpt lat="44.41286" lon="2.51823">
        <ele>547.8</ele>
        <time>2013-08-04T07:59:04Z</time>
      </trkpt>
      <trkpt lat="44.4129" lon="2.51818">
        <ele>547.3</ele>
        <time>2013-08-04T07:59:05Z</time>
      </trkpt>
      <trkpt lat="44.41295" lon="2.51814">
        <ele>546.9</ele>
        <time>2013-08-04T07:59:06Z</time>
      </trkpt>
      <trkpt lat="44.41301" lon="2.51811">
        <ele>546.7</ele>
        <time>2013-08-04T07:59:07Z</time>
      </trkpt>
      <trkpt lat="44.41306" lon="2.51807">
        <ele>546.5</ele>
        <time>2013-08-04T07:59:08Z</time>
      </trkpt>
      <trkpt lat="44.41311" lon="2.51804">
        <ele>546.3</ele>
        <time>2013-08-04T07:59:09Z</time>
      </trkpt>
      <trkpt lat="44.41316" lon="2.518">
        <ele>546.3</ele>
        <time>2013-08-04T07:59:10Z</time>
      </trkpt>
      <trkpt lat="44.41321" lon="2.51797">
        <ele>546.2</ele>
        <time>2013-08-04T07:59:11Z</time>
      </trkpt>
      <trkpt lat="44.41327" lon="2.51794">
        <ele>546.2</ele>
        <time>2013-08-04T07:59:12Z</time>
      </trkpt>
      <trkpt lat="44.41333" lon="2.51791">
        <ele>546.2</ele>
        <time>2013-08-04T07:59:13Z</time>
      </trkpt>
      <trkpt lat="44.41338" lon="2.51787">
        <ele>546.2</ele>
        <time>2013-08-04T07:59:14Z</time>
      </trkpt>
      <trkpt lat="44.41343" lon="2.51784">
        <ele>545.6</ele>
        <time>2013-08-04T07:59:15Z</time>
      </trkpt>
      <trkpt lat="44.41349" lon="2.51781">
        <ele>545.1</ele>
        <time>2013-08-04T07:59:16Z</time>
      </trkpt>
      <trkpt lat="44.41354" lon="2.51779">
        <ele>544.7</ele>
        <time>2013-08-04T07:59:17Z</time>
      </trkpt>
      <trkpt lat="44.4136" lon="2.51777">
        <ele>544.5</ele>
        <time>2013-08-04T07:59:18Z</time>
      </trkpt>
      <trkpt lat="44.41365" lon="2.51775">
        <ele>544.3</ele>
        <time>2013-08-04T07:59:19Z</time>
      </trkpt>
      <trkpt lat="44.41371" lon="2.51774">
        <ele>544.1</ele>
        <time>2013-08-04T07:59:20Z</time>
      </trkpt>
      <trkpt lat="44.41376" lon="2.51772">
        <ele>543.8</ele>
        <time>2013-08-04T07:59:21Z</time>
      </trkpt>
      <trkpt lat="44.41381" lon="2.51769">
        <ele>543.6</ele>
        <time>2013-08-04T07:59:22Z</time>
      </trkpt>
      <trkpt lat="44.41386" lon="2.51767">
        <ele>543.4</ele>
        <time>2013-08-04T07:59:23Z</time>
      </trkpt>
      <trkpt lat="44.4139" lon="2.51764">
        <ele>542.9</ele>
        <time>2013-08-04T07:59:24Z</time>
      </trkpt>
      <trkpt lat="44.41395" lon="2.51761">
        <ele>542.5</ele>
        <time>2013-08-04T07:59:25Z</time>
      </trkpt>
      <trkpt lat="44.414" lon="2.5176">
        <ele>542.2</ele>
        <time>2013-08-04T07:59:26Z</time>
      </trkpt>
      <trkpt lat="44.41405" lon="2.51758">
        <ele>541.9</ele>
        <time>2013-08-04T07:59:27Z</time>
      </trkpt>
      <trkpt lat="44.4141" lon="2.51756">
        <ele>542</ele>
        <time>2013-08-04T07:59:28Z</time>
      </trkpt>
      <trkpt lat="44.41414" lon="2.51754">
        <ele>542.1</ele>
        <time>2013-08-04T07:59:29Z</time>
      </trkpt>
      <trkpt lat="44.41419" lon="2.51752">
        <ele>542.1</ele>
        <time>2013-08-04T07:59:30Z</time>
      </trkpt>
      <trkpt lat="44.41424" lon="2.5175">
        <ele>541.9</ele>
        <time>2013-08-04T07:59:31Z</time>
      </trkpt>
      <trkpt lat="44.41429" lon="2.51749">
        <ele>541.8</ele>
        <time>2013-08-04T07:59:32Z</time>
      </trkpt>
      <trkpt lat="44.41433" lon="2.51748">
        <ele>541.7</ele>
        <time>2013-08-04T07:59:33Z</time>
      </trkpt>
      <trkpt lat="44.41438" lon="2.51748">
        <ele>541.6</ele>
        <time>2013-08-04T07:59:34Z</time>
      </trkpt>
      <trkpt lat="44.41442" lon="2.51746">
        <ele>541.5</ele>
        <time>2013-08-04T07:59:35Z</time>
      </trkpt>
      <trkpt lat="44.41447" lon="2.51746">
        <ele>541.4</ele>
        <time>2013-08-04T07:59:36Z</time>
      </trkpt>
      <trkpt lat="44.41452" lon="2.51745">
        <ele>541.4</ele>
        <time>2013-08-04T07:59:37Z</time>
      </trkpt>
      <trkpt lat="44.41456" lon="2.51745">
        <ele>541.3</ele>
        <time>2013-08-04T07:59:38Z</time>
      </trkpt>
      <trkpt lat="44.41461" lon="2.51746">
        <ele>541.3</ele>
        <time>2013-08-04T07:59:39Z</time>
      </trkpt>
      <trkpt lat="44.41467" lon="2.51746">
        <ele>541.3</ele>
        <time>2013-08-04T07:59:40Z</time>
      </trkpt>
      <trkpt lat="44.41472" lon="2.51746">
        <ele>541.4</ele>
        <time>2013-08-04T07:59:41Z</time>
      </trkpt>
      <trkpt lat="44.41477" lon="2.51746">
        <ele>541.4</ele>
        <time>2013-08-04T07:59:42Z</time>
      </trkpt>
      <trkpt lat="44.41483" lon="2.51746">
        <ele>541.5</ele>
        <time>2013-08-04T07:59:43Z</time>
      </trkpt>
      <trkpt lat="44.41489" lon="2.51745">
        <ele>540.9</ele>
        <time>2013-08-04T07:59:44Z</time>
      </trkpt>
      <trkpt lat="44.41495" lon="2.51743">
        <ele>540.5</ele>
        <time>2013-08-04T07:59:45Z</time>
      </trkpt>
      <trkpt lat="44.41501" lon="2.51742">
        <ele>540.2</ele>
        <time>2013-08-04T07:59:46Z</time>
      </trkpt>
      <trkpt lat="44.41508" lon="2.51741">
        <ele>539.8</ele>
        <time>2013-08-04T07:59:47Z</time>
      </trkpt>
      <trkpt lat="44.41514" lon="2.5174">
        <ele>539.6</ele>
        <time>2013-08-04T07:59:48Z</time>
      </trkpt>
      <trkpt lat="44.41519" lon="2.51738">
        <ele>539.4</ele>
        <time>2013-08-04T07:59:49Z</time>
      </trkpt>
      <trkpt lat="44.41525" lon="2.51737">
        <ele>539.1</ele>
        <time>2013-08-04T07:59:50Z</time>
      </trkpt>
      <trkpt lat="44.4153" lon="2.51737">
        <ele>538.9</ele>
        <time>2013-08-04T07:59:51Z</time>
      </trkpt>
      <trkpt lat="44.41534" lon="2.51736">
        <ele>538.7</ele>
        <time>2013-08-04T07:59:52Z</time>
      </trkpt>
      <trkpt lat="44.41543" lon="2.51736">
        <ele>539</ele>
        <time>2013-08-04T07:59:54Z</time>
      </trkpt>
      <trkpt lat="44.4155" lon="2.51735">
        <ele>539.2</ele>
        <time>2013-08-04T07:59:56Z</time>
      </trkpt>
      <trkpt lat="44.41557" lon="2.51736">
        <ele>538.9</ele>
        <time>2013-08-04T07:59:58Z</time>
      </trkpt>
      <trkpt lat="44.41565" lon="2.51737">
        <ele>539.1</ele>
        <time>2013-08-04T08:00:01Z</time>
      </trkpt>
      <trkpt lat="44.41574" lon="2.51738">
        <ele>540.7</ele>
        <time>2013-08-04T08:00:04Z</time>
      </trkpt>
      <trkpt lat="44.41582" lon="2.5174">
        <ele>541.9</ele>
        <time>2013-08-04T08:00:07Z</time>
      </trkpt>
      <trkpt lat="44.4159" lon="2.51742">
        <ele>542.7</ele>
        <time>2013-08-04T08:00:10Z</time>
      </trkpt>
      <trkpt lat="44.41597" lon="2.51743">
        <ele>542.7</ele>
        <time>2013-08-04T08:00:13Z</time>
      </trkpt>
      <trkpt lat="44.41605" lon="2.51744">
        <ele>543</ele>
        <time>2013-08-04T08:00:16Z</time>
      </trkpt>
      <trkpt lat="44.41613" lon="2.51744">
        <ele>543.7</ele>
        <time>2013-08-04T08:00:19Z</time>
      </trkpt>
      <trkpt lat="44.41622" lon="2.51744">
        <ele>543.8</ele>
        <time>2013-08-04T08:00:22Z</time>
      </trkpt>
      <trkpt lat="44.4163" lon="2.51745">
        <ele>543.9</ele>
        <time>2013-08-04T08:00:25Z</time>
      </trkpt>
      <trkpt lat="44.41639" lon="2.51744">
        <ele>544.7</ele>
        <time>2013-08-04T08:00:28Z</time>
      </trkpt>
      <trkpt lat="44.41646" lon="2.51743">
        <ele>545.4</ele>
        <time>2013-08-04T08:00:31Z</time>
      </trkpt>
      <trkpt lat="44.41655" lon="2.5174">
        <ele>545.8</ele>
        <time>2013-08-04T08:00:34Z</time>
      </trkpt>
      <trkpt lat="44.41663" lon="2.51738">
        <ele>545.5</ele>
        <time>2013-08-04T08:00:37Z</time>
      </trkpt>
      <trkpt lat="44.41671" lon="2.51734">
        <ele>545.1</ele>
        <time>2013-08-04T08:00:40Z</time>
      </trkpt>
      <trkpt lat="44.41679" lon="2.51731">
        <ele>544.9</ele>
        <time>2013-08-04T08:00:43Z</time>
      </trkpt>
      <trkpt lat="44.41688" lon="2.51728">
        <ele>545.9</ele>
        <time>2013-08-04T08:00:46Z</time>
      </trkpt>
      <trkpt lat="44.41694" lon="2.51726">
        <ele>545.8</ele>
        <time>2013-08-04T08:00:48Z</time>
      </trkpt>
      <trkpt lat="44.41701" lon="2.51726">
        <ele>545.5</ele>
        <time>2013-08-04T08:00:50Z</time>
      </trkpt>
      <trkpt lat="44.41707" lon="2.51725">
        <ele>545.3</ele>
        <time>2013-08-04T08:00:52Z</time>
      </trkpt>
      <trkpt lat="44.41711" lon="2.51725">
        <ele>545.2</ele>
        <time>2013-08-04T08:00:53Z</time>
      </trkpt>
      <trkpt lat="44.41721" lon="2.51724">
        <ele>545.6</ele>
        <time>2013-08-04T08:00:56Z</time>
      </trkpt>
      <trkpt lat="44.41728" lon="2.51724">
        <ele>545.7</ele>
        <time>2013-08-04T08:00:58Z</time>
      </trkpt>
      <trkpt lat="44.41736" lon="2.51725">
        <ele>545.7</ele>
        <time>2013-08-04T08:01:00Z</time>
      </trkpt>
      <trkpt lat="44.41743" lon="2.51726">
        <ele>545.6</ele>
        <time>2013-08-04T08:01:02Z</time>
      </trkpt>
      <trkpt lat="44.41751" lon="2.51726">
        <ele>545.7</ele>
        <time>2013-08-04T08:01:04Z</time>
      </trkpt>
      <trkpt lat="44.41759" lon="2.51727">
        <ele>545.9</ele>
        <time>2013-08-04T08:01:06Z</time>
      </trkpt>
      <trkpt lat="44.41766" lon="2.51727">
        <ele>546.2</ele>
        <time>2013-08-04T08:01:08Z</time>
      </trkpt>
      <trkpt lat="44.41773" lon="2.51728">
        <ele>546.5</ele>
        <time>2013-08-04T08:01:10Z</time>
      </trkpt>
      <trkpt lat="44.4178" lon="2.51726">
        <ele>546.8</ele>
        <time>2013-08-04T08:01:12Z</time>
      </trkpt>
      <trkpt lat="44.41787" lon="2.51724">
        <ele>546.7</ele>
        <time>2013-08-04T08:01:14Z</time>
      </trkpt>
      <trkpt lat="44.41794" lon="2.51722">
        <ele>546.2</ele>
        <time>2013-08-04T08:01:16Z</time>
      </trkpt>
      <trkpt lat="44.41801" lon="2.51719">
        <ele>545.5</ele>
        <time>2013-08-04T08:01:18Z</time>
      </trkpt>
      <trkpt lat="44.41809" lon="2.51717">
        <ele>545.5</ele>
        <time>2013-08-04T08:01:20Z</time>
      </trkpt>
      <trkpt lat="44.41815" lon="2.51714">
        <ele>545.4</ele>
        <time>2013-08-04T08:01:22Z</time>
      </trkpt>
      <trkpt lat="44.41822" lon="2.51712">
        <ele>546.1</ele>
        <time>2013-08-04T08:01:24Z</time>
      </trkpt>
      <trkpt lat="44.41829" lon="2.51709">
        <ele>546.7</ele>
        <time>2013-08-04T08:01:26Z</time>
      </trkpt>
      <trkpt lat="44.41835" lon="2.51706">
        <ele>547.2</ele>
        <time>2013-08-04T08:01:28Z</time>
      </trkpt>
      <trkpt lat="44.41842" lon="2.51703">
        <ele>547</ele>
        <time>2013-08-04T08:01:30Z</time>
      </trkpt>
      <trkpt lat="44.41849" lon="2.517">
        <ele>546.8</ele>
        <time>2013-08-04T08:01:32Z</time>
      </trkpt>
      <trkpt lat="44.41855" lon="2.51696">
        <ele>546.6</ele>
        <time>2013-08-04T08:01:34Z</time>
      </trkpt>
      <trkpt lat="44.41861" lon="2.51694">
        <ele>546.7</ele>
        <time>2013-08-04T08:01:36Z</time>
      </trkpt>
      <trkpt lat="44.41869" lon="2.51691">
        <ele>547.1</ele>
        <time>2013-08-04T08:01:39Z</time>
      </trkpt>
      <trkpt lat="44.41876" lon="2.51689">
        <ele>547.6</ele>
        <time>2013-08-04T08:01:42Z</time>
      </trkpt>
      <trkpt lat="44.41884" lon="2.51687">
        <ele>548.3</ele>
        <time>2013-08-04T08:01:46Z</time>
      </trkpt>
      <trkpt lat="44.41893" lon="2.51685">
        <ele>549</ele>
        <time>2013-08-04T08:01:50Z</time>
      </trkpt>
      <trkpt lat="44.41901" lon="2.51683">
        <ele>550</ele>
        <time>2013-08-04T08:01:54Z</time>
      </trkpt>
      <trkpt lat="44.41904" lon="2.51682">
        <ele>550.1</ele>
        <time>2013-08-04T08:01:55Z</time>
      </trkpt>
      <trkpt lat="44.41918" lon="2.5168">
        <ele>552.1</ele>
        <time>2013-08-04T08:02:02Z</time>
      </trkpt>
      <trkpt lat="44.41926" lon="2.51678">
        <ele>552.8</ele>
        <time>2013-08-04T08:02:06Z</time>
      </trkpt>
      <trkpt lat="44.41934" lon="2.51676">
        <ele>553.5</ele>
        <time>2013-08-04T08:02:10Z</time>
      </trkpt>
      <trkpt lat="44.41942" lon="2.51674">
        <ele>554.3</ele>
        <time>2013-08-04T08:02:14Z</time>
      </trkpt>
      <trkpt lat="44.41951" lon="2.51671">
        <ele>554.5</ele>
        <time>2013-08-04T08:02:19Z</time>
      </trkpt>
      <trkpt lat="44.41958" lon="2.51669">
        <ele>555.5</ele>
        <time>2013-08-04T08:02:24Z</time>
      </trkpt>
      <trkpt lat="44.41965" lon="2.51668">
        <ele>556.1</ele>
        <time>2013-08-04T08:02:28Z</time>
      </trkpt>
      <trkpt lat="44.41973" lon="2.51668">
        <ele>556.6</ele>
        <time>2013-08-04T08:02:32Z</time>
      </trkpt>
      <trkpt lat="44.41981" lon="2.51667">
        <ele>557.3</ele>
        <time>2013-08-04T08:02:36Z</time>
      </trkpt>
      <trkpt lat="44.41989" lon="2.51667">
        <ele>557.1</ele>
        <time>2013-08-04T08:02:41Z</time>
      </trkpt>
      <trkpt lat="44.41998" lon="2.51667">
        <ele>558.3</ele>
        <time>2013-08-04T08:02:46Z</time>
      </trkpt>
      <trkpt lat="44.42006" lon="2.51667">
        <ele>559.3</ele>
        <time>2013-08-04T08:02:51Z</time>
      </trkpt>
      <trkpt lat="44.42014" lon="2.51667">
        <ele>560.3</ele>
        <time>2013-08-04T08:02:56Z</time>
      </trkpt>
      <trkpt lat="44.42016" lon="2.51666">
        <ele>560.4</ele>
        <time>2013-08-04T08:02:57Z</time>
      </trkpt>
      <trkpt lat="44.42031" lon="2.51668">
        <ele>561</ele>
        <time>2013-08-04T08:03:06Z</time>
      </trkpt>
      <trkpt lat="44.4204" lon="2.51668">
        <ele>562</ele>
        <time>2013-08-04T08:03:11Z</time>
      </trkpt>
      <trkpt lat="44.42048" lon="2.51669">
        <ele>564.5</ele>
        <time>2013-08-04T08:03:16Z</time>
      </trkpt>
      <trkpt lat="44.42056" lon="2.5167">
        <ele>565</ele>
        <time>2013-08-04T08:03:21Z</time>
      </trkpt>
      <trkpt lat="44.42064" lon="2.5167">
        <ele>564.6</ele>
        <time>2013-08-04T08:03:25Z</time>
      </trkpt>
      <trkpt lat="44.42072" lon="2.51671">
        <ele>564.5</ele>
        <time>2013-08-04T08:03:29Z</time>
      </trkpt>
      <trkpt lat="44.4208" lon="2.51672">
        <ele>565.5</ele>
        <time>2013-08-04T08:03:33Z</time>
      </trkpt>
      <trkpt lat="44.42088" lon="2.51671">
        <ele>566</ele>
        <time>2013-08-04T08:03:37Z</time>
      </trkpt>
      <trkpt lat="44.42096" lon="2.5167">
        <ele>566</ele>
        <time>2013-08-04T08:03:42Z</time>
      </trkpt>
      <trkpt lat="44.42104" lon="2.51671">
        <ele>567.1</ele>
        <time>2013-08-04T08:03:47Z</time>
      </trkpt>
      <trkpt lat="44.42112" lon="2.51668">
        <ele>567.2</ele>
        <time>2013-08-04T08:03:50Z</time>
      </trkpt>
      <trkpt lat="44.42118" lon="2.51666">
        <ele>567.1</ele>
        <time>2013-08-04T08:03:52Z</time>
      </trkpt>
      <trkpt lat="44.42124" lon="2.51666">
        <ele>567</ele>
        <time>2013-08-04T08:03:54Z</time>
      </trkpt>
      <trkpt lat="44.4213" lon="2.51664">
        <ele>567</ele>
        <time>2013-08-04T08:03:56Z</time>
      </trkpt>
      <trkpt lat="44.42136" lon="2.51663">
        <ele>567</ele>
        <time>2013-08-04T08:03:58Z</time>
      </trkpt>
      <trkpt lat="44.4214" lon="2.51662">
        <ele>566.6</ele>
        <time>2013-08-04T08:03:59Z</time>
      </trkpt>
      <trkpt lat="44.42149" lon="2.51658">
        <ele>565.9</ele>
        <time>2013-08-04T08:04:02Z</time>
      </trkpt>
      <trkpt lat="44.42156" lon="2.51655">
        <ele>565.6</ele>
        <time>2013-08-04T08:04:04Z</time>
      </trkpt>
      <trkpt lat="44.42163" lon="2.51653">
        <ele>565.4</ele>
        <time>2013-08-04T08:04:06Z</time>
      </trkpt>
      <trkpt lat="44.42171" lon="2.51648">
        <ele>565.2</ele>
        <time>2013-08-04T08:04:09Z</time>
      </trkpt>
      <trkpt lat="44.42176" lon="2.51644">
        <ele>565.3</ele>
        <time>2013-08-04T08:04:11Z</time>
      </trkpt>
      <trkpt lat="44.42183" lon="2.51643">
        <ele>564.6</ele>
        <time>2013-08-04T08:04:13Z</time>
      </trkpt>
      <trkpt lat="44.4219" lon="2.51644">
        <ele>564.6</ele>
        <time>2013-08-04T08:04:15Z</time>
      </trkpt>
      <trkpt lat="44.42197" lon="2.51645">
        <ele>564.9</ele>
        <time>2013-08-04T08:04:17Z</time>
      </trkpt>
      <trkpt lat="44.42205" lon="2.51647">
        <ele>565.4</ele>
        <time>2013-08-04T08:04:19Z</time>
      </trkpt>
      <trkpt lat="44.42209" lon="2.51648">
        <ele>565.5</ele>
        <time>2013-08-04T08:04:20Z</time>
      </trkpt>
      <trkpt lat="44.42214" lon="2.5165">
        <ele>565.2</ele>
        <time>2013-08-04T08:04:21Z</time>
      </trkpt>
      <trkpt lat="44.42219" lon="2.51653">
        <ele>565</ele>
        <time>2013-08-04T08:04:22Z</time>
      </trkpt>
      <trkpt lat="44.42224" lon="2.51656">
        <ele>564.8</ele>
        <time>2013-08-04T08:04:23Z</time>
      </trkpt>
      <trkpt lat="44.42229" lon="2.51659">
        <ele>564.7</ele>
        <time>2013-08-04T08:04:24Z</time>
      </trkpt>
      <trkpt lat="44.42235" lon="2.51662">
        <ele>564</ele>
        <time>2013-08-04T08:04:25Z</time>
      </trkpt>
      <trkpt lat="44.42242" lon="2.51664">
        <ele>563.5</ele>
        <time>2013-08-04T08:04:26Z</time>
      </trkpt>
      <trkpt lat="44.4225" lon="2.51666">
        <ele>563.1</ele>
        <time>2013-08-04T08:04:27Z</time>
      </trkpt>
      <trkpt lat="44.42257" lon="2.51666">
        <ele>562.3</ele>
        <time>2013-08-04T08:04:28Z</time>
      </trkpt>
      <trkpt lat="44.42265" lon="2.51665">
        <ele>561.6</ele>
        <time>2013-08-04T08:04:29Z</time>
      </trkpt>
      <trkpt lat="44.42273" lon="2.51663">
        <ele>561.2</ele>
        <time>2013-08-04T08:04:30Z</time>
      </trkpt>
      <trkpt lat="44.4228" lon="2.51662">
        <ele>560.5</ele>
        <time>2013-08-04T08:04:31Z</time>
      </trkpt>
      <trkpt lat="44.42289" lon="2.51659">
        <ele>560.1</ele>
        <time>2013-08-04T08:04:32Z</time>
      </trkpt>
      <trkpt lat="44.42297" lon="2.51656">
        <ele>559.7</ele>
        <time>2013-08-04T08:04:33Z</time>
      </trkpt>
      <trkpt lat="44.42306" lon="2.51653">
        <ele>559.4</ele>
        <time>2013-08-04T08:04:34Z</time>
      </trkpt>
      <trkpt lat="44.42315" lon="2.51652">
        <ele>559.2</ele>
        <time>2013-08-04T08:04:35Z</time>
      </trkpt>
      <trkpt lat="44.42324" lon="2.51654">
        <ele>559</ele>
        <time>2013-08-04T08:04:36Z</time>
      </trkpt>
      <trkpt lat="44.42333" lon="2.51657">
        <ele>558.1</ele>
        <time>2013-08-04T08:04:37Z</time>
      </trkpt>
      <trkpt lat="44.42342" lon="2.5166">
        <ele>557.4</ele>
        <time>2013-08-04T08:04:38Z</time>
      </trkpt>
      <trkpt lat="44.42351" lon="2.51663">
        <ele>556.9</ele>
        <time>2013-08-04T08:04:39Z</time>
      </trkpt>
      <trkpt lat="44.42359" lon="2.51667">
        <ele>556.6</ele>
        <time>2013-08-04T08:04:40Z</time>
      </trkpt>
      <trkpt lat="44.42365" lon="2.51673">
        <ele>555.8</ele>
        <time>2013-08-04T08:04:41Z</time>
      </trkpt>
      <trkpt lat="44.42371" lon="2.51679">
        <ele>555.3</ele>
        <time>2013-08-04T08:04:42Z</time>
      </trkpt>
      <trkpt lat="44.42378" lon="2.51683">
        <ele>554.9</ele>
        <time>2013-08-04T08:04:43Z</time>
      </trkpt>
      <trkpt lat="44.42384" lon="2.51685">
        <ele>554.8</ele>
        <time>2013-08-04T08:04:44Z</time>
      </trkpt>
      <trkpt lat="44.42391" lon="2.51686">
        <ele>554.7</ele>
        <time>2013-08-04T08:04:45Z</time>
      </trkpt>
      <trkpt lat="44.42397" lon="2.51687">
        <ele>554.7</ele>
        <time>2013-08-04T08:04:46Z</time>
      </trkpt>
      <trkpt lat="44.42402" lon="2.51688">
        <ele>554.4</ele>
        <time>2013-08-04T08:04:47Z</time>
      </trkpt>
      <trkpt lat="44.42407" lon="2.51688">
        <ele>554.2</ele>
        <time>2013-08-04T08:04:48Z</time>
      </trkpt>
      <trkpt lat="44.42412" lon="2.51689">
        <ele>554.1</ele>
        <time>2013-08-04T08:04:49Z</time>
      </trkpt>
      <trkpt lat="44.42417" lon="2.51689">
        <ele>553.9</ele>
        <time>2013-08-04T08:04:50Z</time>
      </trkpt>
      <trkpt lat="44.42422" lon="2.51688">
        <ele>553.8</ele>
        <time>2013-08-04T08:04:51Z</time>
      </trkpt>
      <trkpt lat="44.42427" lon="2.51688">
        <ele>553.7</ele>
        <time>2013-08-04T08:04:52Z</time>
      </trkpt>
      <trkpt lat="44.42432" lon="2.51688">
        <ele>553.7</ele>
        <time>2013-08-04T08:04:53Z</time>
      </trkpt>
      <trkpt lat="44.42437" lon="2.51688">
        <ele>553.7</ele>
        <time>2013-08-04T08:04:54Z</time>
      </trkpt>
      <trkpt lat="44.42443" lon="2.51688">
        <ele>553.8</ele>
        <time>2013-08-04T08:04:55Z</time>
      </trkpt>
      <trkpt lat="44.42449" lon="2.51689">
        <ele>553.8</ele>
        <time>2013-08-04T08:04:56Z</time>
      </trkpt>
      <trkpt lat="44.42455" lon="2.51691">
        <ele>553.6</ele>
        <time>2013-08-04T08:04:57Z</time>
      </trkpt>
      <trkpt lat="44.4246" lon="2.51695">
        <ele>553.4</ele>
        <time>2013-08-04T08:04:58Z</time>
      </trkpt>
      <trkpt lat="44.42466" lon="2.51699">
        <ele>553.3</ele>
        <time>2013-08-04T08:04:59Z</time>
      </trkpt>
      <trkpt lat="44.42471" lon="2.51703">
        <ele>553</ele>
        <time>2013-08-04T08:05:00Z</time>
      </trkpt>
      <trkpt lat="44.42476" lon="2.51707">
        <ele>552.7</ele>
        <time>2013-08-04T08:05:01Z</time>
      </trkpt>
      <trkpt lat="44.42481" lon="2.51712">
        <ele>552.5</ele>
        <time>2013-08-04T08:05:02Z</time>
      </trkpt>
      <trkpt lat="44.42484" lon="2.51717">
        <ele>552.5</ele>
        <time>2013-08-04T08:05:03Z</time>
      </trkpt>
      <trkpt lat="44.42486" lon="2.51724">
        <ele>552.5</ele>
        <time>2013-08-04T08:05:04Z</time>
      </trkpt>
      <trkpt lat="44.42486" lon="2.51732">
        <ele>552.5</ele>
        <time>2013-08-04T08:05:05Z</time>
      </trkpt>
      <trkpt lat="44.42484" lon="2.51739">
        <ele>552.2</ele>
        <time>2013-08-04T08:05:06Z</time>
      </trkpt>
      <trkpt lat="44.42483" lon="2.51747">
        <ele>551.9</ele>
        <time>2013-08-04T08:05:07Z</time>
      </trkpt>
      <trkpt lat="44.42483" lon="2.51756">
        <ele>551.8</ele>
        <time>2013-08-04T08:05:08Z</time>
      </trkpt>
      <trkpt lat="44.42485" lon="2.51765">
        <ele>551.2</ele>
        <time>2013-08-04T08:05:09Z</time>
      </trkpt>
      <trkpt lat="44.42487" lon="2.51775">
        <ele>550.8</ele>
        <time>2013-08-04T08:05:10Z</time>
      </trkpt>
      <trkpt lat="44.42491" lon="2.51785">
        <ele>550.5</ele>
        <time>2013-08-04T08:05:11Z</time>
      </trkpt>
      <trkpt lat="44.42495" lon="2.51795">
        <ele>550.3</ele>
        <time>2013-08-04T08:05:12Z</time>
      </trkpt>
      <trkpt lat="44.42498" lon="2.51806">
        <ele>550.2</ele>
        <time>2013-08-04T08:05:13Z</time>
      </trkpt>
      <trkpt lat="44.42499" lon="2.51815">
        <ele>550</ele>
        <time>2013-08-04T08:05:14Z</time>
      </trkpt>
      <trkpt lat="44.42499" lon="2.51823">
        <ele>550</ele>
        <time>2013-08-04T08:05:15Z</time>
      </trkpt>
      <trkpt lat="44.42495" lon="2.51831">
        <ele>548.1</ele>
        <time>2013-08-04T08:05:17Z</time>
      </trkpt>
      <trkpt lat="44.42489" lon="2.5184">
        <ele>545.7</ele>
        <time>2013-08-04T08:05:20Z</time>
      </trkpt>
      <trkpt lat="44.42488" lon="2.5185">
        <ele>544.5</ele>
        <time>2013-08-04T08:05:22Z</time>
      </trkpt>
      <trkpt lat="44.42489" lon="2.51859">
        <ele>543.7</ele>
        <time>2013-08-04T08:05:24Z</time>
      </trkpt>
      <trkpt lat="44.42489" lon="2.5187">
        <ele>542.4</ele>
        <time>2013-08-04T08:05:27Z</time>
      </trkpt>
      <trkpt lat="44.42496" lon="2.51877">
        <ele>542.9</ele>
        <time>2013-08-04T08:05:31Z</time>
      </trkpt>
      <trkpt lat="44.42502" lon="2.51878">
        <ele>543</ele>
        <time>2013-08-04T08:05:34Z</time>
      </trkpt>
      <trkpt lat="44.42511" lon="2.5188">
        <ele>543.4</ele>
        <time>2013-08-04T08:05:37Z</time>
      </trkpt>
      <trkpt lat="44.42519" lon="2.5188">
        <ele>544</ele>
        <time>2013-08-04T08:05:40Z</time>
      </trkpt>
      <trkpt lat="44.42528" lon="2.51878">
        <ele>543.8</ele>
        <time>2013-08-04T08:05:44Z</time>
      </trkpt>
      <trkpt lat="44.42536" lon="2.51877">
        <ele>543</ele>
        <time>2013-08-04T08:05:48Z</time>
      </trkpt>
      <trkpt lat="44.42544" lon="2.5188">
        <ele>543.1</ele>
        <time>2013-08-04T08:05:55Z</time>
      </trkpt>
      <trkpt lat="44.42548" lon="2.51889">
        <ele>543.1</ele>
        <time>2013-08-04T08:05:58Z</time>
      </trkpt>
      <trkpt lat="44.4255" lon="2.519">
        <ele>542.5</ele>
        <time>2013-08-04T08:06:02Z</time>
      </trkpt>
      <trkpt lat="44.4255" lon="2.51902">
        <ele>542.4</ele>
        <time>2013-08-04T08:06:03Z</time>
      </trkpt>
      <trkpt lat="44.42542" lon="2.51919">
        <ele>541.6</ele>
        <time>2013-08-04T08:06:14Z</time>
      </trkpt>
      <trkpt lat="44.42537" lon="2.51929">
        <ele>541.5</ele>
        <time>2013-08-04T08:06:19Z</time>
      </trkpt>
      <trkpt lat="44.4253" lon="2.5193">
        <ele>541.8</ele>
        <time>2013-08-04T08:06:22Z</time>
      </trkpt>
      <trkpt lat="44.42524" lon="2.51938">
        <ele>542.3</ele>
        <time>2013-08-04T08:06:27Z</time>
      </trkpt>
      <trkpt lat="44.42521" lon="2.5195">
        <ele>542.7</ele>
        <time>2013-08-04T08:06:30Z</time>
      </trkpt>
      <trkpt lat="44.42522" lon="2.51962">
        <ele>542.6</ele>
        <time>2013-08-04T08:06:36Z</time>
      </trkpt>
      <trkpt lat="44.42521" lon="2.51974">
        <ele>542.2</ele>
        <time>2013-08-04T08:06:44Z</time>
      </trkpt>
      <trkpt lat="44.42514" lon="2.51979">
        <ele>541.8</ele>
        <time>2013-08-04T08:07:13Z</time>
      </trkpt>
      <trkpt lat="44.42513" lon="2.5198">
        <ele>541.8</ele>
        <time>2013-08-04T08:07:14Z</time>
      </trkpt>
      <trkpt lat="44.42506" lon="2.51985">
        <ele>543.2</ele>
        <time>2013-08-04T08:10:18Z</time>
      </trkpt>
      <trkpt lat="44.42515" lon="2.51985">
        <ele>545.8</ele>
        <time>2013-08-04T08:12:07Z</time>
      </trkpt>
      <trkpt lat="44.42529" lon="2.51979">
        <ele>545.1</ele>
        <time>2013-08-04T08:12:13Z</time>
      </trkpt>
      <trkpt lat="44.42536" lon="2.51973">
        <ele>543.9</ele>
        <time>2013-08-04T08:12:15Z</time>
      </trkpt>
      <trkpt lat="44.4254" lon="2.51973">
        <ele>543.6</ele>
        <time>2013-08-04T08:12:16Z</time>
      </trkpt>
      <trkpt lat="44.42549" lon="2.51975">
        <ele>542.8</ele>
        <time>2013-08-04T08:12:18Z</time>
      </trkpt>
      <trkpt lat="44.42557" lon="2.51976">
        <ele>542.2</ele>
        <time>2013-08-04T08:12:20Z</time>
      </trkpt>
      <trkpt lat="44.42563" lon="2.51973">
        <ele>541.6</ele>
        <time>2013-08-04T08:12:22Z</time>
      </trkpt>
      <trkpt lat="44.42564" lon="2.51967">
        <ele>541.7</ele>
        <time>2013-08-04T08:12:23Z</time>
      </trkpt>
      <trkpt lat="44.42565" lon="2.51959">
        <ele>541.8</ele>
        <time>2013-08-04T08:12:24Z</time>
      </trkpt>
      <trkpt lat="44.42567" lon="2.51948">
        <ele>541.9</ele>
        <time>2013-08-04T08:12:26Z</time>
      </trkpt>
      <trkpt lat="44.42569" lon="2.51938">
        <ele>541.9</ele>
        <time>2013-08-04T08:12:29Z</time>
      </trkpt>
      <trkpt lat="44.42577" lon="2.51933">
        <ele>542.1</ele>
        <time>2013-08-04T08:12:32Z</time>
      </trkpt>
      <trkpt lat="44.42585" lon="2.5193">
        <ele>542.6</ele>
        <time>2013-08-04T08:12:34Z</time>
      </trkpt>
      <trkpt lat="44.42592" lon="2.51928">
        <ele>542.6</ele>
        <time>2013-08-04T08:12:36Z</time>
      </trkpt>
      <trkpt lat="44.42601" lon="2.51925">
        <ele>542.3</ele>
        <time>2013-08-04T08:12:38Z</time>
      </trkpt>
      <trkpt lat="44.42606" lon="2.51924">
        <ele>542.3</ele>
        <time>2013-08-04T08:12:39Z</time>
      </trkpt>
      <trkpt lat="44.42611" lon="2.51923">
        <ele>542.3</ele>
        <time>2013-08-04T08:12:40Z</time>
      </trkpt>
      <trkpt lat="44.42616" lon="2.51921">
        <ele>542.3</ele>
        <time>2013-08-04T08:12:41Z</time>
      </trkpt>
      <trkpt lat="44.42621" lon="2.51919">
        <ele>542.3</ele>
        <time>2013-08-04T08:12:42Z</time>
      </trkpt>
      <trkpt lat="44.42627" lon="2.51917">
        <ele>542</ele>
        <time>2013-08-04T08:12:43Z</time>
      </trkpt>
      <trkpt lat="44.42632" lon="2.51915">
        <ele>541.9</ele>
        <time>2013-08-04T08:12:44Z</time>
      </trkpt>
      <trkpt lat="44.42637" lon="2.51913">
        <ele>541.7</ele>
        <time>2013-08-04T08:12:45Z</time>
      </trkpt>
      <trkpt lat="44.42645" lon="2.51911">
        <ele>541.6</ele>
        <time>2013-08-04T08:12:47Z</time>
      </trkpt>
      <trkpt lat="44.42653" lon="2.5191">
        <ele>541.7</ele>
        <time>2013-08-04T08:12:49Z</time>
      </trkpt>
      <trkpt lat="44.42661" lon="2.51909">
        <ele>541.9</ele>
        <time>2013-08-04T08:12:51Z</time>
      </trkpt>
      <trkpt lat="44.42664" lon="2.51901">
        <ele>541.4</ele>
        <time>2013-08-04T08:12:53Z</time>
      </trkpt>
      <trkpt lat="44.42666" lon="2.5189">
        <ele>541.2</ele>
        <time>2013-08-04T08:12:55Z</time>
      </trkpt>
      <trkpt lat="44.42668" lon="2.51879">
        <ele>541.2</ele>
        <time>2013-08-04T08:12:57Z</time>
      </trkpt>
      <trkpt lat="44.4267" lon="2.51873">
        <ele>541.2</ele>
        <time>2013-08-04T08:12:58Z</time>
      </trkpt>
      <trkpt lat="44.42674" lon="2.51869">
        <ele>541.2</ele>
        <time>2013-08-04T08:12:59Z</time>
      </trkpt>
      <trkpt lat="44.42677" lon="2.51863">
        <ele>541.2</ele>
        <time>2013-08-04T08:13:00Z</time>
      </trkpt>
      <trkpt lat="44.4268" lon="2.51858">
        <ele>541.3</ele>
        <time>2013-08-04T08:13:01Z</time>
      </trkpt>
      <trkpt lat="44.42684" lon="2.51853">
        <ele>541.2</ele>
        <time>2013-08-04T08:13:02Z</time>
      </trkpt>
      <trkpt lat="44.42688" lon="2.51848">
        <ele>541.2</ele>
        <time>2013-08-04T08:13:03Z</time>
      </trkpt>
      <trkpt lat="44.42691" lon="2.51843">
        <ele>541.3</ele>
        <time>2013-08-04T08:13:04Z</time>
      </trkpt>
      <trkpt lat="44.42695" lon="2.5184">
        <ele>540.8</ele>
        <time>2013-08-04T08:13:05Z</time>
      </trkpt>
      <trkpt lat="44.427" lon="2.51837">
        <ele>540.4</ele>
        <time>2013-08-04T08:13:06Z</time>
      </trkpt>
      <trkpt lat="44.42706" lon="2.51835">
        <ele>540.2</ele>
        <time>2013-08-04T08:13:07Z</time>
      </trkpt>
      <trkpt lat="44.42711" lon="2.51833">
        <ele>539.6</ele>
        <time>2013-08-04T08:13:08Z</time>
      </trkpt>
      <trkpt lat="44.42716" lon="2.5183">
        <ele>539.1</ele>
        <time>2013-08-04T08:13:09Z</time>
      </trkpt>
      <trkpt lat="44.42721" lon="2.51827">
        <ele>538.8</ele>
        <time>2013-08-04T08:13:10Z</time>
      </trkpt>
      <trkpt lat="44.42729" lon="2.51825">
        <ele>539.1</ele>
        <time>2013-08-04T08:13:13Z</time>
      </trkpt>
      <trkpt lat="44.42738" lon="2.51828">
        <ele>538.1</ele>
        <time>2013-08-04T08:13:22Z</time>
      </trkpt>
      <trkpt lat="44.42747" lon="2.51829">
        <ele>537.5</ele>
        <time>2013-08-04T08:13:38Z</time>
      </trkpt>
      <trkpt lat="44.42754" lon="2.51835">
        <ele>538.5</ele>
        <time>2013-08-04T08:14:08Z</time>
      </trkpt>
      <trkpt lat="44.42755" lon="2.51835">
        <ele>538.3</ele>
        <time>2013-08-04T08:14:09Z</time>
      </trkpt>
      <trkpt lat="44.42745" lon="2.51835">
        <ele>539</ele>
        <time>2013-08-04T08:15:23Z</time>
      </trkpt>
      <trkpt lat="44.42744" lon="2.51821">
        <ele>538.4</ele>
        <time>2013-08-04T08:15:28Z</time>
      </trkpt>
      <trkpt lat="44.42746" lon="2.51814">
        <ele>538.3</ele>
        <time>2013-08-04T08:15:29Z</time>
      </trkpt>
      <trkpt lat="44.42747" lon="2.51807">
        <ele>538.2</ele>
        <time>2013-08-04T08:15:30Z</time>
      </trkpt>
      <trkpt lat="44.4275" lon="2.51801">
        <ele>538.1</ele>
        <time>2013-08-04T08:15:31Z</time>
      </trkpt>
      <trkpt lat="44.42754" lon="2.51794">
        <ele>537.1</ele>
        <time>2013-08-04T08:15:32Z</time>
      </trkpt>
      <trkpt lat="44.42758" lon="2.51789">
        <ele>536.4</ele>
        <time>2013-08-04T08:15:33Z</time>
      </trkpt>
      <trkpt lat="44.42761" lon="2.51784">
        <ele>535.9</ele>
        <time>2013-08-04T08:15:34Z</time>
      </trkpt>
      <trkpt lat="44.42765" lon="2.5178">
        <ele>534.3</ele>
        <time>2013-08-04T08:15:35Z</time>
      </trkpt>
      <trkpt lat="44.42771" lon="2.51773">
        <ele>532.2</ele>
        <time>2013-08-04T08:15:37Z</time>
      </trkpt>
      <trkpt lat="44.42777" lon="2.51766">
        <ele>529.3</ele>
        <time>2013-08-04T08:15:39Z</time>
      </trkpt>
      <trkpt lat="44.4278" lon="2.51762">
        <ele>528.4</ele>
        <time>2013-08-04T08:15:40Z</time>
      </trkpt>
      <trkpt lat="44.42786" lon="2.51757">
        <ele>526.7</ele>
        <time>2013-08-04T08:15:41Z</time>
      </trkpt>
      <trkpt lat="44.42789" lon="2.51754">
        <ele>525.4</ele>
        <time>2013-08-04T08:15:42Z</time>
      </trkpt>
      <trkpt lat="44.42792" lon="2.51749">
        <ele>524.5</ele>
        <time>2013-08-04T08:15:43Z</time>
      </trkpt>
      <trkpt lat="44.42796" lon="2.51744">
        <ele>523.7</ele>
        <time>2013-08-04T08:15:44Z</time>
      </trkpt>
      <trkpt lat="44.42799" lon="2.51739">
        <ele>522.2</ele>
        <time>2013-08-04T08:15:45Z</time>
      </trkpt>
      <trkpt lat="44.42802" lon="2.51733">
        <ele>521</ele>
        <time>2013-08-04T08:15:46Z</time>
      </trkpt>
      <trkpt lat="44.42804" lon="2.51726">
        <ele>520.1</ele>
        <time>2013-08-04T08:15:47Z</time>
      </trkpt>
      <trkpt lat="44.42807" lon="2.51718">
        <ele>518.1</ele>
        <time>2013-08-04T08:15:48Z</time>
      </trkpt>
      <trkpt lat="44.42811" lon="2.51709">
        <ele>516.5</ele>
        <time>2013-08-04T08:15:49Z</time>
      </trkpt>
      <trkpt lat="44.42814" lon="2.51699">
        <ele>515.4</ele>
        <time>2013-08-04T08:15:50Z</time>
      </trkpt>
      <trkpt lat="44.42818" lon="2.51691">
        <ele>513.6</ele>
        <time>2013-08-04T08:15:51Z</time>
      </trkpt>
      <trkpt lat="44.4282" lon="2.51683">
        <ele>512.4</ele>
        <time>2013-08-04T08:15:52Z</time>
      </trkpt>
      <trkpt lat="44.42822" lon="2.51673">
        <ele>509.8</ele>
        <time>2013-08-04T08:15:54Z</time>
      </trkpt>
      <trkpt lat="44.42825" lon="2.51664">
        <ele>506.3</ele>
        <time>2013-08-04T08:15:57Z</time>
      </trkpt>
      <trkpt lat="44.42828" lon="2.51656">
        <ele>504.5</ele>
        <time>2013-08-04T08:15:59Z</time>
      </trkpt>
      <trkpt lat="44.4283" lon="2.5165">
        <ele>503.9</ele>
        <time>2013-08-04T08:16:00Z</time>
      </trkpt>
      <trkpt lat="44.42832" lon="2.51643">
        <ele>503.4</ele>
        <time>2013-08-04T08:16:01Z</time>
      </trkpt>
      <trkpt lat="44.42833" lon="2.51637">
        <ele>503</ele>
        <time>2013-08-04T08:16:02Z</time>
      </trkpt>
      <trkpt lat="44.42836" lon="2.51628">
        <ele>502.7</ele>
        <time>2013-08-04T08:16:03Z</time>
      </trkpt>
      <trkpt lat="44.42839" lon="2.51621">
        <ele>501.7</ele>
        <time>2013-08-04T08:16:04Z</time>
      </trkpt>
      <trkpt lat="44.42842" lon="2.51613">
        <ele>500.9</ele>
        <time>2013-08-04T08:16:05Z</time>
      </trkpt>
      <trkpt lat="44.42846" lon="2.51605">
        <ele>500.3</ele>
        <time>2013-08-04T08:16:06Z</time>
      </trkpt>
      <trkpt lat="44.4285" lon="2.51595">
        <ele>497.5</ele>
        <time>2013-08-04T08:16:08Z</time>
      </trkpt>
      <trkpt lat="44.42857" lon="2.51599">
        <ele>494.3</ele>
        <time>2013-08-04T08:16:11Z</time>
      </trkpt>
      <trkpt lat="44.42863" lon="2.51596">
        <ele>492.3</ele>
        <time>2013-08-04T08:16:13Z</time>
      </trkpt>
      <trkpt lat="44.42867" lon="2.51591">
        <ele>491.4</ele>
        <time>2013-08-04T08:16:14Z</time>
      </trkpt>
      <trkpt lat="44.4287" lon="2.51584">
        <ele>490.8</ele>
        <time>2013-08-04T08:16:15Z</time>
      </trkpt>
      <trkpt lat="44.42874" lon="2.51577">
        <ele>489.5</ele>
        <time>2013-08-04T08:16:16Z</time>
      </trkpt>
      <trkpt lat="44.42878" lon="2.51568">
        <ele>488.6</ele>
        <time>2013-08-04T08:16:17Z</time>
      </trkpt>
      <trkpt lat="44.42883" lon="2.51559">
        <ele>487.9</ele>
        <time>2013-08-04T08:16:18Z</time>
      </trkpt>
      <trkpt lat="44.42887" lon="2.51549">
        <ele>487.3</ele>
        <time>2013-08-04T08:16:19Z</time>
      </trkpt>
      <trkpt lat="44.42891" lon="2.51542">
        <ele>485.6</ele>
        <time>2013-08-04T08:16:20Z</time>
      </trkpt>
      <trkpt lat="44.42895" lon="2.51536">
        <ele>484.4</ele>
        <time>2013-08-04T08:16:21Z</time>
      </trkpt>
      <trkpt lat="44.42897" lon="2.51529">
        <ele>483.4</ele>
        <time>2013-08-04T08:16:22Z</time>
      </trkpt>
      <trkpt lat="44.42899" lon="2.51523">
        <ele>482</ele>
        <time>2013-08-04T08:16:23Z</time>
      </trkpt>
      <trkpt lat="44.42901" lon="2.51517">
        <ele>480.9</ele>
        <time>2013-08-04T08:16:24Z</time>
      </trkpt>
      <trkpt lat="44.42903" lon="2.51511">
        <ele>480.1</ele>
        <time>2013-08-04T08:16:25Z</time>
      </trkpt>
      <trkpt lat="44.42905" lon="2.51499">
        <ele>478.9</ele>
        <time>2013-08-04T08:16:27Z</time>
      </trkpt>
      <trkpt lat="44.42906" lon="2.51488">
        <ele>478.5</ele>
        <time>2013-08-04T08:16:29Z</time>
      </trkpt>
      <trkpt lat="44.42908" lon="2.51479">
        <ele>478.4</ele>
        <time>2013-08-04T08:16:31Z</time>
      </trkpt>
      <trkpt lat="44.42913" lon="2.51469">
        <ele>477.5</ele>
        <time>2013-08-04T08:16:34Z</time>
      </trkpt>
      <trkpt lat="44.4291" lon="2.51457">
        <ele>477.4</ele>
        <time>2013-08-04T08:16:38Z</time>
      </trkpt>
      <trkpt lat="44.42911" lon="2.51445">
        <ele>478</ele>
        <time>2013-08-04T08:16:42Z</time>
      </trkpt>
      <trkpt lat="44.42914" lon="2.51436">
        <ele>478.5</ele>
        <time>2013-08-04T08:16:44Z</time>
      </trkpt>
      <trkpt lat="44.42917" lon="2.51431">
        <ele>478.1</ele>
        <time>2013-08-04T08:16:45Z</time>
      </trkpt>
      <trkpt lat="44.42921" lon="2.51427">
        <ele>477.8</ele>
        <time>2013-08-04T08:16:46Z</time>
      </trkpt>
      <trkpt lat="44.42926" lon="2.51422">
        <ele>477.6</ele>
        <time>2013-08-04T08:16:47Z</time>
      </trkpt>
      <trkpt lat="44.4293" lon="2.51415">
        <ele>477.4</ele>
        <time>2013-08-04T08:16:48Z</time>
      </trkpt>
      <trkpt lat="44.42932" lon="2.51407">
        <ele>477.2</ele>
        <time>2013-08-04T08:16:49Z</time>
      </trkpt>
      <trkpt lat="44.42934" lon="2.51398">
        <ele>477</ele>
        <time>2013-08-04T08:16:50Z</time>
      </trkpt>
      <trkpt lat="44.42936" lon="2.51389">
        <ele>476.9</ele>
        <time>2013-08-04T08:16:51Z</time>
      </trkpt>
      <trkpt lat="44.42939" lon="2.5138">
        <ele>476.6</ele>
        <time>2013-08-04T08:16:52Z</time>
      </trkpt>
      <trkpt lat="44.42941" lon="2.51372">
        <ele>476.3</ele>
        <time>2013-08-04T08:16:53Z</time>
      </trkpt>
      <trkpt lat="44.42943" lon="2.51364">
        <ele>476.1</ele>
        <time>2013-08-04T08:16:54Z</time>
      </trkpt>
      <trkpt lat="44.42943" lon="2.51356">
        <ele>475.8</ele>
        <time>2013-08-04T08:16:55Z</time>
      </trkpt>
      <trkpt lat="44.42944" lon="2.51347">
        <ele>475.5</ele>
        <time>2013-08-04T08:16:56Z</time>
      </trkpt>
      <trkpt lat="44.42944" lon="2.51339">
        <ele>475.4</ele>
        <time>2013-08-04T08:16:57Z</time>
      </trkpt>
      <trkpt lat="44.42944" lon="2.51332">
        <ele>475.3</ele>
        <time>2013-08-04T08:16:58Z</time>
      </trkpt>
      <trkpt lat="44.42945" lon="2.51325">
        <ele>475.2</ele>
        <time>2013-08-04T08:16:59Z</time>
      </trkpt>
      <trkpt lat="44.42947" lon="2.51318">
        <ele>475.1</ele>
        <time>2013-08-04T08:17:00Z</time>
      </trkpt>
      <trkpt lat="44.42951" lon="2.51312">
        <ele>475.3</ele>
        <time>2013-08-04T08:17:01Z</time>
      </trkpt>
      <trkpt lat="44.42956" lon="2.51308">
        <ele>475.3</ele>
        <time>2013-08-04T08:17:02Z</time>
      </trkpt>
      <trkpt lat="44.42961" lon="2.51303">
        <ele>475.4</ele>
        <time>2013-08-04T08:17:03Z</time>
      </trkpt>
      <trkpt lat="44.42967" lon="2.51294">
        <ele>475.4</ele>
        <time>2013-08-04T08:17:05Z</time>
      </trkpt>
      <trkpt lat="44.42973" lon="2.51286">
        <ele>475.4</ele>
        <time>2013-08-04T08:17:07Z</time>
      </trkpt>
      <trkpt lat="44.42977" lon="2.51282">
        <ele>475.5</ele>
        <time>2013-08-04T08:17:08Z</time>
      </trkpt>
      <trkpt lat="44.4298" lon="2.51279">
        <ele>475.6</ele>
        <time>2013-08-04T08:17:09Z</time>
      </trkpt>
      <trkpt lat="44.42985" lon="2.51275">
        <ele>475.6</ele>
        <time>2013-08-04T08:17:10Z</time>
      </trkpt>
      <trkpt lat="44.42988" lon="2.5127">
        <ele>475.3</ele>
        <time>2013-08-04T08:17:11Z</time>
      </trkpt>
      <trkpt lat="44.4299" lon="2.51263">
        <ele>475.1</ele>
        <time>2013-08-04T08:17:12Z</time>
      </trkpt>
      <trkpt lat="44.42992" lon="2.51255">
        <ele>474.9</ele>
        <time>2013-08-04T08:17:13Z</time>
      </trkpt>
      <trkpt lat="44.42991" lon="2.51248">
        <ele>474.4</ele>
        <time>2013-08-04T08:17:14Z</time>
      </trkpt>
      <trkpt lat="44.42989" lon="2.51242">
        <ele>474</ele>
        <time>2013-08-04T08:17:15Z</time>
      </trkpt>
      <trkpt lat="44.42985" lon="2.51231">
        <ele>473.8</ele>
        <time>2013-08-04T08:17:17Z</time>
      </trkpt>
      <trkpt lat="44.42979" lon="2.51223">
        <ele>473.7</ele>
        <time>2013-08-04T08:17:20Z</time>
      </trkpt>
      <trkpt lat="44.42978" lon="2.51213">
        <ele>473.6</ele>
        <time>2013-08-04T08:17:27Z</time>
      </trkpt>
      <trkpt lat="44.42978" lon="2.5121">
        <ele>474</ele>
        <time>2013-08-04T08:17:28Z</time>
      </trkpt>
      <trkpt lat="44.42987" lon="2.51194">
        <ele>473.6</ele>
        <time>2013-08-04T08:17:36Z</time>
      </trkpt>
      <trkpt lat="44.42996" lon="2.51192">
        <ele>472.7</ele>
        <time>2013-08-04T08:17:39Z</time>
      </trkpt>
      <trkpt lat="44.43" lon="2.51181">
        <ele>470.6</ele>
        <time>2013-08-04T08:17:56Z</time>
      </trkpt>
      <trkpt lat="44.43003" lon="2.51171">
        <ele>470.9</ele>
        <time>2013-08-04T08:18:13Z</time>
      </trkpt>
      <trkpt lat="44.43006" lon="2.51162">
        <ele>470.5</ele>
        <time>2013-08-04T08:18:15Z</time>
      </trkpt>
      <trkpt lat="44.43008" lon="2.51152">
        <ele>470</ele>
        <time>2013-08-04T08:18:18Z</time>
      </trkpt>
      <trkpt lat="44.43014" lon="2.51148">
        <ele>469.7</ele>
        <time>2013-08-04T08:18:20Z</time>
      </trkpt>
      <trkpt lat="44.4302" lon="2.51144">
        <ele>469</ele>
        <time>2013-08-04T08:18:22Z</time>
      </trkpt>
      <trkpt lat="44.43028" lon="2.51139">
        <ele>468.6</ele>
        <time>2013-08-04T08:18:24Z</time>
      </trkpt>
      <trkpt lat="44.43033" lon="2.51137">
        <ele>468.4</ele>
        <time>2013-08-04T08:18:25Z</time>
      </trkpt>
      <trkpt lat="44.43038" lon="2.51136">
        <ele>468.2</ele>
        <time>2013-08-04T08:18:26Z</time>
      </trkpt>
      <trkpt lat="44.43043" lon="2.51133">
        <ele>468.3</ele>
        <time>2013-08-04T08:18:27Z</time>
      </trkpt>
      <trkpt lat="44.4305" lon="2.51128">
        <ele>468.5</ele>
        <time>2013-08-04T08:18:29Z</time>
      </trkpt>
      <trkpt lat="44.43054" lon="2.51125">
        <ele>468.6</ele>
        <time>2013-08-04T08:18:30Z</time>
      </trkpt>
      <trkpt lat="44.43066" lon="2.51119">
        <ele>468.1</ele>
        <time>2013-08-04T08:18:43Z</time>
      </trkpt>
      <trkpt lat="44.43074" lon="2.51117">
        <ele>467.4</ele>
        <time>2013-08-04T08:19:10Z</time>
      </trkpt>
      <trkpt lat="44.43077" lon="2.51127">
        <ele>469</ele>
        <time>2013-08-04T08:19:58Z</time>
      </trkpt>
      <trkpt lat="44.43078" lon="2.51129">
        <ele>469</ele>
        <time>2013-08-04T08:19:59Z</time>
      </trkpt>
      <trkpt lat="44.43081" lon="2.51144">
        <ele>468.7</ele>
        <time>2013-08-04T08:20:02Z</time>
      </trkpt>
      <trkpt lat="44.43081" lon="2.51151">
        <ele>468.6</ele>
        <time>2013-08-04T08:20:03Z</time>
      </trkpt>
      <trkpt lat="44.4308" lon="2.51159">
        <ele>468.6</ele>
        <time>2013-08-04T08:20:04Z</time>
      </trkpt>
      <trkpt lat="44.43078" lon="2.51167">
        <ele>468.6</ele>
        <time>2013-08-04T08:20:05Z</time>
      </trkpt>
      <trkpt lat="44.43075" lon="2.51173">
        <ele>468.4</ele>
        <time>2013-08-04T08:20:06Z</time>
      </trkpt>
      <trkpt lat="44.43071" lon="2.51178">
        <ele>468.2</ele>
        <time>2013-08-04T08:20:07Z</time>
      </trkpt>
      <trkpt lat="44.43067" lon="2.51182">
        <ele>468.1</ele>
        <time>2013-08-04T08:20:08Z</time>
      </trkpt>
      <trkpt lat="44.43064" lon="2.51187">
        <ele>467.7</ele>
        <time>2013-08-04T08:20:09Z</time>
      </trkpt>
      <trkpt lat="44.43061" lon="2.51193">
        <ele>467.4</ele>
        <time>2013-08-04T08:20:10Z</time>
      </trkpt>
      <trkpt lat="44.43059" lon="2.512">
        <ele>467.2</ele>
        <time>2013-08-04T08:20:11Z</time>
      </trkpt>
      <trkpt lat="44.43057" lon="2.51207">
        <ele>467.1</ele>
        <time>2013-08-04T08:20:12Z</time>
      </trkpt>
      <trkpt lat="44.43057" lon="2.51215">
        <ele>467</ele>
        <time>2013-08-04T08:20:13Z</time>
      </trkpt>
      <trkpt lat="44.43057" lon="2.51223">
        <ele>467</ele>
        <time>2013-08-04T08:20:14Z</time>
      </trkpt>
      <trkpt lat="44.43058" lon="2.51232">
        <ele>467</ele>
        <time>2013-08-04T08:20:15Z</time>
      </trkpt>
      <trkpt lat="44.43059" lon="2.51239">
        <ele>466.6</ele>
        <time>2013-08-04T08:20:16Z</time>
      </trkpt>
      <trkpt lat="44.43059" lon="2.51247">
        <ele>466.3</ele>
        <time>2013-08-04T08:20:17Z</time>
      </trkpt>
      <trkpt lat="44.4306" lon="2.51254">
        <ele>466.1</ele>
        <time>2013-08-04T08:20:18Z</time>
      </trkpt>
      <trkpt lat="44.43061" lon="2.51261">
        <ele>466</ele>
        <time>2013-08-04T08:20:19Z</time>
      </trkpt>
      <trkpt lat="44.43061" lon="2.51268">
        <ele>465.8</ele>
        <time>2013-08-04T08:20:20Z</time>
      </trkpt>
      <trkpt lat="44.43061" lon="2.51274">
        <ele>465.8</ele>
        <time>2013-08-04T08:20:21Z</time>
      </trkpt>
      <trkpt lat="44.43061" lon="2.5128">
        <ele>465.7</ele>
        <time>2013-08-04T08:20:22Z</time>
      </trkpt>
      <trkpt lat="44.43061" lon="2.51287">
        <ele>465.7</ele>
        <time>2013-08-04T08:20:23Z</time>
      </trkpt>
      <trkpt lat="44.4306" lon="2.51299">
        <ele>465.5</ele>
        <time>2013-08-04T08:20:25Z</time>
      </trkpt>
      <trkpt lat="44.43058" lon="2.51311">
        <ele>465.3</ele>
        <time>2013-08-04T08:20:27Z</time>
      </trkpt>
      <trkpt lat="44.43056" lon="2.51322">
        <ele>465.3</ele>
        <time>2013-08-04T08:20:29Z</time>
      </trkpt>
      <trkpt lat="44.43053" lon="2.5133">
        <ele>465.4</ele>
        <time>2013-08-04T08:20:31Z</time>
      </trkpt>
      <trkpt lat="44.4305" lon="2.51339">
        <ele>465.4</ele>
        <time>2013-08-04T08:20:33Z</time>
      </trkpt>
      <trkpt lat="44.43047" lon="2.51348">
        <ele>465.1</ele>
        <time>2013-08-04T08:20:35Z</time>
      </trkpt>
      <trkpt lat="44.43044" lon="2.51356">
        <ele>464.8</ele>
        <time>2013-08-04T08:20:37Z</time>
      </trkpt>
      <trkpt lat="44.43041" lon="2.51364">
        <ele>464.5</ele>
        <time>2013-08-04T08:20:39Z</time>
      </trkpt>
      <trkpt lat="44.43039" lon="2.51375">
        <ele>465.1</ele>
        <time>2013-08-04T08:20:42Z</time>
      </trkpt>
      <trkpt lat="44.43037" lon="2.51387">
        <ele>465.5</ele>
        <time>2013-08-04T08:20:45Z</time>
      </trkpt>
      <trkpt lat="44.43034" lon="2.51398">
        <ele>465.4</ele>
        <time>2013-08-04T08:20:48Z</time>
      </trkpt>
      <trkpt lat="44.4303" lon="2.51409">
        <ele>465.4</ele>
        <time>2013-08-04T08:20:51Z</time>
      </trkpt>
      <trkpt lat="44.43032" lon="2.5142">
        <ele>465.6</ele>
        <time>2013-08-04T08:20:55Z</time>
      </trkpt>
      <trkpt lat="44.43039" lon="2.51419">
        <ele>465.7</ele>
        <time>2013-08-04T08:20:57Z</time>
      </trkpt>
      <trkpt lat="44.43044" lon="2.51418">
        <ele>465.6</ele>
        <time>2013-08-04T08:20:58Z</time>
      </trkpt>
      <trkpt lat="44.4305" lon="2.51416">
        <ele>465.6</ele>
        <time>2013-08-04T08:20:59Z</time>
      </trkpt>
      <trkpt lat="44.43056" lon="2.51412">
        <ele>465.6</ele>
        <time>2013-08-04T08:21:00Z</time>
      </trkpt>
      <trkpt lat="44.43062" lon="2.51409">
        <ele>464.6</ele>
        <time>2013-08-04T08:21:01Z</time>
      </trkpt>
      <trkpt lat="44.43068" lon="2.51405">
        <ele>463.8</ele>
        <time>2013-08-04T08:21:02Z</time>
      </trkpt>
      <trkpt lat="44.43074" lon="2.51403">
        <ele>463.2</ele>
        <time>2013-08-04T08:21:03Z</time>
      </trkpt>
      <trkpt lat="44.4308" lon="2.51401">
        <ele>462</ele>
        <time>2013-08-04T08:21:04Z</time>
      </trkpt>
      <trkpt lat="44.43086" lon="2.51398">
        <ele>461.1</ele>
        <time>2013-08-04T08:21:05Z</time>
      </trkpt>
      <trkpt lat="44.43092" lon="2.51396">
        <ele>460.4</ele>
        <time>2013-08-04T08:21:06Z</time>
      </trkpt>
      <trkpt lat="44.431" lon="2.51395">
        <ele>459</ele>
        <time>2013-08-04T08:21:07Z</time>
      </trkpt>
      <trkpt lat="44.43106" lon="2.51394">
        <ele>458</ele>
        <time>2013-08-04T08:21:08Z</time>
      </trkpt>
      <trkpt lat="44.43112" lon="2.51393">
        <ele>457.3</ele>
        <time>2013-08-04T08:21:09Z</time>
      </trkpt>
      <trkpt lat="44.43117" lon="2.51392">
        <ele>455.4</ele>
        <time>2013-08-04T08:21:10Z</time>
      </trkpt>
      <trkpt lat="44.43122" lon="2.51391">
        <ele>454</ele>
        <time>2013-08-04T08:21:11Z</time>
      </trkpt>
      <trkpt lat="44.43127" lon="2.51389">
        <ele>453</ele>
        <time>2013-08-04T08:21:12Z</time>
      </trkpt>
      <trkpt lat="44.43133" lon="2.51387">
        <ele>451.2</ele>
        <time>2013-08-04T08:21:13Z</time>
      </trkpt>
      <trkpt lat="44.43141" lon="2.51387">
        <ele>448.9</ele>
        <time>2013-08-04T08:21:15Z</time>
      </trkpt>
      <trkpt lat="44.43146" lon="2.51383">
        <ele>446.8</ele>
        <time>2013-08-04T08:21:17Z</time>
      </trkpt>
      <trkpt lat="44.43152" lon="2.51375">
        <ele>445.1</ele>
        <time>2013-08-04T08:21:19Z</time>
      </trkpt>
      <trkpt lat="44.43154" lon="2.51369">
        <ele>444.6</ele>
        <time>2013-08-04T08:21:20Z</time>
      </trkpt>
      <trkpt lat="44.43156" lon="2.51363">
        <ele>444.3</ele>
        <time>2013-08-04T08:21:21Z</time>
      </trkpt>
      <trkpt lat="44.43159" lon="2.51357">
        <ele>444.1</ele>
        <time>2013-08-04T08:21:22Z</time>
      </trkpt>
      <trkpt lat="44.43162" lon="2.51351">
        <ele>443.1</ele>
        <time>2013-08-04T08:21:23Z</time>
      </trkpt>
      <trkpt lat="44.43167" lon="2.51345">
        <ele>442.4</ele>
        <time>2013-08-04T08:21:24Z</time>
      </trkpt>
      <trkpt lat="44.43171" lon="2.51338">
        <ele>441.9</ele>
        <time>2013-08-04T08:21:25Z</time>
      </trkpt>
      <trkpt lat="44.43174" lon="2.5133">
        <ele>441.1</ele>
        <time>2013-08-04T08:21:26Z</time>
      </trkpt>
      <trkpt lat="44.43177" lon="2.51324">
        <ele>440.4</ele>
        <time>2013-08-04T08:21:27Z</time>
      </trkpt>
      <trkpt lat="44.43182" lon="2.51319">
        <ele>440</ele>
        <time>2013-08-04T08:21:28Z</time>
      </trkpt>
      <trkpt lat="44.43188" lon="2.51314">
        <ele>438.7</ele>
        <time>2013-08-04T08:21:29Z</time>
      </trkpt>
      <trkpt lat="44.43192" lon="2.51307">
        <ele>437.8</ele>
        <time>2013-08-04T08:21:30Z</time>
      </trkpt>
      <trkpt lat="44.43192" lon="2.51301">
        <ele>437.1</ele>
        <time>2013-08-04T08:21:31Z</time>
      </trkpt>
      <trkpt lat="44.43193" lon="2.51293">
        <ele>436</ele>
        <time>2013-08-04T08:21:32Z</time>
      </trkpt>
      <trkpt lat="44.43196" lon="2.51284">
        <ele>435.1</ele>
        <time>2013-08-04T08:21:33Z</time>
      </trkpt>
      <trkpt lat="44.43199" lon="2.51275">
        <ele>434.5</ele>
        <time>2013-08-04T08:21:34Z</time>
      </trkpt>
      <trkpt lat="44.43203" lon="2.51264">
        <ele>434</ele>
        <time>2013-08-04T08:21:35Z</time>
      </trkpt>
      <trkpt lat="44.43207" lon="2.51255">
        <ele>433.1</ele>
        <time>2013-08-04T08:21:36Z</time>
      </trkpt>
      <trkpt lat="44.43212" lon="2.51247">
        <ele>432.5</ele>
        <time>2013-08-04T08:21:37Z</time>
      </trkpt>
      <trkpt lat="44.43218" lon="2.51242">
        <ele>432</ele>
        <time>2013-08-04T08:21:38Z</time>
      </trkpt>
      <trkpt lat="44.43223" lon="2.51235">
        <ele>430.8</ele>
        <time>2013-08-04T08:21:39Z</time>
      </trkpt>
      <trkpt lat="44.43228" lon="2.51226">
        <ele>429.9</ele>
        <time>2013-08-04T08:21:40Z</time>
      </trkpt>
      <trkpt lat="44.43232" lon="2.51216">
        <ele>429.2</ele>
        <time>2013-08-04T08:21:41Z</time>
      </trkpt>
      <trkpt lat="44.43235" lon="2.51206">
        <ele>428.1</ele>
        <time>2013-08-04T08:21:42Z</time>
      </trkpt>
      <trkpt lat="44.43238" lon="2.51197">
        <ele>427.3</ele>
        <time>2013-08-04T08:21:43Z</time>
      </trkpt>
      <trkpt lat="44.43241" lon="2.51187">
        <ele>426.8</ele>
        <time>2013-08-04T08:21:44Z</time>
      </trkpt>
      <trkpt lat="44.43246" lon="2.51178">
        <ele>425.3</ele>
        <time>2013-08-04T08:21:45Z</time>
      </trkpt>
      <trkpt lat="44.4325" lon="2.51169">
        <ele>424.2</ele>
        <time>2013-08-04T08:21:46Z</time>
      </trkpt>
      <trkpt lat="44.43255" lon="2.51163">
        <ele>423.4</ele>
        <time>2013-08-04T08:21:47Z</time>
      </trkpt>
      <trkpt lat="44.43261" lon="2.51159">
        <ele>422</ele>
        <time>2013-08-04T08:21:48Z</time>
      </trkpt>
      <trkpt lat="44.43269" lon="2.51156">
        <ele>420.9</ele>
        <time>2013-08-04T08:21:49Z</time>
      </trkpt>
      <trkpt lat="44.43276" lon="2.51156">
        <ele>420</ele>
        <time>2013-08-04T08:21:50Z</time>
      </trkpt>
      <trkpt lat="44.43282" lon="2.51157">
        <ele>419.4</ele>
        <time>2013-08-04T08:21:51Z</time>
      </trkpt>
      <trkpt lat="44.43287" lon="2.51159">
        <ele>418.3</ele>
        <time>2013-08-04T08:21:52Z</time>
      </trkpt>
      <trkpt lat="44.43293" lon="2.51163">
        <ele>417.4</ele>
        <time>2013-08-04T08:21:53Z</time>
      </trkpt>
      <trkpt lat="44.43299" lon="2.51167">
        <ele>416.7</ele>
        <time>2013-08-04T08:21:54Z</time>
      </trkpt>
      <trkpt lat="44.43304" lon="2.5117">
        <ele>415.7</ele>
        <time>2013-08-04T08:21:55Z</time>
      </trkpt>
      <trkpt lat="44.43311" lon="2.51175">
        <ele>414.3</ele>
        <time>2013-08-04T08:21:57Z</time>
      </trkpt>
      <trkpt lat="44.43316" lon="2.51184">
        <ele>410.7</ele>
        <time>2013-08-04T08:22:02Z</time>
      </trkpt>
      <trkpt lat="44.43316" lon="2.51187">
        <ele>410.4</ele>
        <time>2013-08-04T08:22:03Z</time>
      </trkpt>
      <trkpt lat="44.43323" lon="2.51205">
        <ele>408.9</ele>
        <time>2013-08-04T08:22:28Z</time>
      </trkpt>
      <trkpt lat="44.43325" lon="2.51211">
        <ele>408.9</ele>
        <time>2013-08-04T08:22:29Z</time>
      </trkpt>
      <trkpt lat="44.43327" lon="2.51217">
        <ele>408.2</ele>
        <time>2013-08-04T08:22:30Z</time>
      </trkpt>
      <trkpt lat="44.43331" lon="2.51221">
        <ele>407.7</ele>
        <time>2013-08-04T08:22:31Z</time>
      </trkpt>
      <trkpt lat="44.43335" lon="2.51227">
        <ele>407.4</ele>
        <time>2013-08-04T08:22:32Z</time>
      </trkpt>
      <trkpt lat="44.4334" lon="2.51234">
        <ele>406.3</ele>
        <time>2013-08-04T08:22:33Z</time>
      </trkpt>
      <trkpt lat="44.43345" lon="2.51242">
        <ele>405.5</ele>
        <time>2013-08-04T08:22:34Z</time>
      </trkpt>
      <trkpt lat="44.43348" lon="2.51252">
        <ele>404.9</ele>
        <time>2013-08-04T08:22:35Z</time>
      </trkpt>
      <trkpt lat="44.43353" lon="2.51262">
        <ele>403.8</ele>
        <time>2013-08-04T08:22:36Z</time>
      </trkpt>
      <trkpt lat="44.43355" lon="2.51273">
        <ele>403</ele>
        <time>2013-08-04T08:22:37Z</time>
      </trkpt>
      <trkpt lat="44.43358" lon="2.51283">
        <ele>402.4</ele>
        <time>2013-08-04T08:22:38Z</time>
      </trkpt>
      <trkpt lat="44.43361" lon="2.5129">
        <ele>401</ele>
        <time>2013-08-04T08:22:39Z</time>
      </trkpt>
      <trkpt lat="44.43369" lon="2.51292">
        <ele>399.1</ele>
        <time>2013-08-04T08:22:41Z</time>
      </trkpt>
      <trkpt lat="44.43374" lon="2.51289">
        <ele>398</ele>
        <time>2013-08-04T08:22:43Z</time>
      </trkpt>
      <trkpt lat="44.4338" lon="2.5128">
        <ele>397</ele>
        <time>2013-08-04T08:22:46Z</time>
      </trkpt>
      <trkpt lat="44.43386" lon="2.51272">
        <ele>396.9</ele>
        <time>2013-08-04T08:22:49Z</time>
      </trkpt>
      <trkpt lat="44.43393" lon="2.51267">
        <ele>397.7</ele>
        <time>2013-08-04T08:22:52Z</time>
      </trkpt>
      <trkpt lat="44.434" lon="2.51269">
        <ele>398.9</ele>
        <time>2013-08-04T08:22:55Z</time>
      </trkpt>
      <trkpt lat="44.43408" lon="2.51273">
        <ele>400</ele>
        <time>2013-08-04T08:22:59Z</time>
      </trkpt>
      <trkpt lat="44.43415" lon="2.51279">
        <ele>400.7</ele>
        <time>2013-08-04T08:23:04Z</time>
      </trkpt>
      <trkpt lat="44.43417" lon="2.5128">
        <ele>400.9</ele>
        <time>2013-08-04T08:23:05Z</time>
      </trkpt>
      <trkpt lat="44.43423" lon="2.5126">
        <ele>403.8</ele>
        <time>2013-08-04T08:23:13Z</time>
      </trkpt>
      <trkpt lat="44.43426" lon="2.51252">
        <ele>404.1</ele>
        <time>2013-08-04T08:23:16Z</time>
      </trkpt>
      <trkpt lat="44.43432" lon="2.51244">
        <ele>404.3</ele>
        <time>2013-08-04T08:23:19Z</time>
      </trkpt>
      <trkpt lat="44.4344" lon="2.51237">
        <ele>404.4</ele>
        <time>2013-08-04T08:23:22Z</time>
      </trkpt>
      <trkpt lat="44.43445" lon="2.51227">
        <ele>404.7</ele>
        <time>2013-08-04T08:23:25Z</time>
      </trkpt>
      <trkpt lat="44.43451" lon="2.51219">
        <ele>404.6</ele>
        <time>2013-08-04T08:23:28Z</time>
      </trkpt>
      <trkpt lat="44.43458" lon="2.51219">
        <ele>404.6</ele>
        <time>2013-08-04T08:23:30Z</time>
      </trkpt>
      <trkpt lat="44.43464" lon="2.5122">
        <ele>404.3</ele>
        <time>2013-08-04T08:23:32Z</time>
      </trkpt>
      <trkpt lat="44.43471" lon="2.51221">
        <ele>404.3</ele>
        <time>2013-08-04T08:23:34Z</time>
      </trkpt>
      <trkpt lat="44.43476" lon="2.51216">
        <ele>404.3</ele>
        <time>2013-08-04T08:23:36Z</time>
      </trkpt>
      <trkpt lat="44.43481" lon="2.5121">
        <ele>404.2</ele>
        <time>2013-08-04T08:23:38Z</time>
      </trkpt>
      <trkpt lat="44.43486" lon="2.51203">
        <ele>403.9</ele>
        <time>2013-08-04T08:23:40Z</time>
      </trkpt>
      <trkpt lat="44.43492" lon="2.51199">
        <ele>403.6</ele>
        <time>2013-08-04T08:23:42Z</time>
      </trkpt>
      <trkpt lat="44.43498" lon="2.51196">
        <ele>404.7</ele>
        <time>2013-08-04T08:23:44Z</time>
      </trkpt>
      <trkpt lat="44.43504" lon="2.51195">
        <ele>405.3</ele>
        <time>2013-08-04T08:23:46Z</time>
      </trkpt>
      <trkpt lat="44.43512" lon="2.51197">
        <ele>405</ele>
        <time>2013-08-04T08:23:49Z</time>
      </trkpt>
      <trkpt lat="44.43517" lon="2.51207">
        <ele>404.3</ele>
        <time>2013-08-04T08:23:53Z</time>
      </trkpt>
      <trkpt lat="44.43522" lon="2.51218">
        <ele>404.4</ele>
        <time>2013-08-04T08:23:57Z</time>
      </trkpt>
      <trkpt lat="44.43528" lon="2.51222">
        <ele>405.2</ele>
        <time>2013-08-04T08:24:00Z</time>
      </trkpt>
      <trkpt lat="44.43533" lon="2.51228">
        <ele>405.7</ele>
        <time>2013-08-04T08:24:03Z</time>
      </trkpt>
      <trkpt lat="44.43537" lon="2.51237">
        <ele>405.6</ele>
        <time>2013-08-04T08:24:06Z</time>
      </trkpt>
      <trkpt lat="44.43538" lon="2.51239">
        <ele>405.6</ele>
        <time>2013-08-04T08:24:07Z</time>
      </trkpt>
      <trkpt lat="44.43549" lon="2.51249">
        <ele>407.4</ele>
        <time>2013-08-04T08:24:16Z</time>
      </trkpt>
      <trkpt lat="44.43556" lon="2.51248">
        <ele>407.6</ele>
        <time>2013-08-04T08:24:18Z</time>
      </trkpt>
      <trkpt lat="44.43561" lon="2.51245">
        <ele>407.2</ele>
        <time>2013-08-04T08:24:19Z</time>
      </trkpt>
      <trkpt lat="44.43567" lon="2.51241">
        <ele>406.9</ele>
        <time>2013-08-04T08:24:20Z</time>
      </trkpt>
      <trkpt lat="44.43574" lon="2.51237">
        <ele>406.7</ele>
        <time>2013-08-04T08:24:21Z</time>
      </trkpt>
      <trkpt lat="44.43582" lon="2.51231">
        <ele>406.1</ele>
        <time>2013-08-04T08:24:22Z</time>
      </trkpt>
      <trkpt lat="44.4359" lon="2.51226">
        <ele>405.7</ele>
        <time>2013-08-04T08:24:23Z</time>
      </trkpt>
      <trkpt lat="44.43598" lon="2.51221">
        <ele>405.4</ele>
        <time>2013-08-04T08:24:24Z</time>
      </trkpt>
      <trkpt lat="44.43606" lon="2.51217">
        <ele>404.2</ele>
        <time>2013-08-04T08:24:25Z</time>
      </trkpt>
      <trkpt lat="44.43613" lon="2.51214">
        <ele>403.3</ele>
        <time>2013-08-04T08:24:26Z</time>
      </trkpt>
      <trkpt lat="44.43619" lon="2.51208">
        <ele>402.6</ele>
        <time>2013-08-04T08:24:27Z</time>
      </trkpt>
      <trkpt lat="44.43625" lon="2.51201">
        <ele>401.4</ele>
        <time>2013-08-04T08:24:28Z</time>
      </trkpt>
      <trkpt lat="44.4363" lon="2.51194">
        <ele>400.4</ele>
        <time>2013-08-04T08:24:29Z</time>
      </trkpt>
      <trkpt lat="44.43635" lon="2.51186">
        <ele>399.7</ele>
        <time>2013-08-04T08:24:30Z</time>
      </trkpt>
      <trkpt lat="44.43639" lon="2.51179">
        <ele>399.1</ele>
        <time>2013-08-04T08:24:31Z</time>
      </trkpt>
      <trkpt lat="44.43643" lon="2.51169">
        <ele>398.2</ele>
        <time>2013-08-04T08:24:33Z</time>
      </trkpt>
      <trkpt lat="44.43638" lon="2.51163">
        <ele>397.2</ele>
        <time>2013-08-04T08:24:37Z</time>
      </trkpt>
      <trkpt lat="44.43631" lon="2.5116">
        <ele>397.7</ele>
        <time>2013-08-04T08:24:40Z</time>
      </trkpt>
      <trkpt lat="44.43623" lon="2.5116">
        <ele>396.7</ele>
        <time>2013-08-04T08:24:44Z</time>
      </trkpt>
      <trkpt lat="44.43615" lon="2.5116">
        <ele>397.4</ele>
        <time>2013-08-04T08:24:47Z</time>
      </trkpt>
      <trkpt lat="44.43606" lon="2.51159">
        <ele>398</ele>
        <time>2013-08-04T08:24:50Z</time>
      </trkpt>
      <trkpt lat="44.43599" lon="2.51154">
        <ele>398.6</ele>
        <time>2013-08-04T08:24:53Z</time>
      </trkpt>
      <trkpt lat="44.43591" lon="2.5115">
        <ele>399</ele>
        <time>2013-08-04T08:24:56Z</time>
      </trkpt>
      <trkpt lat="44.43583" lon="2.51144">
        <ele>400.6</ele>
        <time>2013-08-04T08:24:59Z</time>
      </trkpt>
      <trkpt lat="44.43576" lon="2.5114">
        <ele>400.5</ele>
        <time>2013-08-04T08:25:02Z</time>
      </trkpt>
      <trkpt lat="44.43568" lon="2.51137">
        <ele>401.8</ele>
        <time>2013-08-04T08:25:06Z</time>
      </trkpt>
      <trkpt lat="44.43561" lon="2.51135">
        <ele>402.3</ele>
        <time>2013-08-04T08:25:10Z</time>
      </trkpt>
      <trkpt lat="44.43558" lon="2.51135">
        <ele>402.1</ele>
        <time>2013-08-04T08:25:11Z</time>
      </trkpt>
      <trkpt lat="44.43548" lon="2.51146">
        <ele>402.2</ele>
        <time>2013-08-04T08:25:16Z</time>
      </trkpt>
      <trkpt lat="44.43541" lon="2.51154">
        <ele>402.8</ele>
        <time>2013-08-04T08:25:20Z</time>
      </trkpt>
      <trkpt lat="44.43535" lon="2.5116">
        <ele>402.7</ele>
        <time>2013-08-04T08:25:23Z</time>
      </trkpt>
      <trkpt lat="44.43528" lon="2.51155">
        <ele>402.6</ele>
        <time>2013-08-04T08:25:26Z</time>
      </trkpt>
      <trkpt lat="44.43524" lon="2.51144">
        <ele>402.6</ele>
        <time>2013-08-04T08:25:28Z</time>
      </trkpt>
      <trkpt lat="44.43522" lon="2.51138">
        <ele>402.4</ele>
        <time>2013-08-04T08:25:29Z</time>
      </trkpt>
      <trkpt lat="44.43519" lon="2.51127">
        <ele>402.2</ele>
        <time>2013-08-04T08:25:31Z</time>
      </trkpt>
      <trkpt lat="44.43525" lon="2.51119">
        <ele>400.4</ele>
        <time>2013-08-04T08:25:33Z</time>
      </trkpt>
      <trkpt lat="44.43533" lon="2.51113">
        <ele>397.3</ele>
        <time>2013-08-04T08:25:36Z</time>
      </trkpt>
      <trkpt lat="44.4353" lon="2.51105">
        <ele>395.1</ele>
        <time>2013-08-04T08:25:38Z</time>
      </trkpt>
      <trkpt lat="44.43532" lon="2.51097">
        <ele>393.3</ele>
        <time>2013-08-04T08:25:40Z</time>
      </trkpt>
      <trkpt lat="44.43538" lon="2.5109">
        <ele>391.5</ele>
        <time>2013-08-04T08:25:42Z</time>
      </trkpt>
      <trkpt lat="44.43546" lon="2.51086">
        <ele>389.2</ele>
        <time>2013-08-04T08:25:45Z</time>
      </trkpt>
      <trkpt lat="44.43553" lon="2.51077">
        <ele>387.6</ele>
        <time>2013-08-04T08:25:47Z</time>
      </trkpt>
      <trkpt lat="44.43556" lon="2.51072">
        <ele>386.4</ele>
        <time>2013-08-04T08:25:48Z</time>
      </trkpt>
      <trkpt lat="44.43561" lon="2.51067">
        <ele>385.4</ele>
        <time>2013-08-04T08:25:49Z</time>
      </trkpt>
      <trkpt lat="44.43566" lon="2.51062">
        <ele>384.7</ele>
        <time>2013-08-04T08:25:50Z</time>
      </trkpt>
      <trkpt lat="44.43571" lon="2.51057">
        <ele>383.3</ele>
        <time>2013-08-04T08:25:51Z</time>
      </trkpt>
      <trkpt lat="44.43576" lon="2.51052">
        <ele>382.2</ele>
        <time>2013-08-04T08:25:52Z</time>
      </trkpt>
      <trkpt lat="44.43581" lon="2.51046">
        <ele>381.4</ele>
        <time>2013-08-04T08:25:53Z</time>
      </trkpt>
      <trkpt lat="44.43585" lon="2.51041">
        <ele>379.8</ele>
        <time>2013-08-04T08:25:54Z</time>
      </trkpt>
      <trkpt lat="44.43589" lon="2.51033">
        <ele>377.7</ele>
        <time>2013-08-04T08:25:56Z</time>
      </trkpt>
      <trkpt lat="44.43588" lon="2.51027">
        <ele>375.9</ele>
        <time>2013-08-04T08:25:57Z</time>
      </trkpt>
      <trkpt lat="44.43585" lon="2.51019">
        <ele>374.6</ele>
        <time>2013-08-04T08:25:58Z</time>
      </trkpt>
      <trkpt lat="44.43583" lon="2.51007">
        <ele>372.8</ele>
        <time>2013-08-04T08:26:00Z</time>
      </trkpt>
      <trkpt lat="44.4359" lon="2.51001">
        <ele>368.5</ele>
        <time>2013-08-04T08:26:05Z</time>
      </trkpt>
      <trkpt lat="44.43597" lon="2.50994">
        <ele>367.6</ele>
        <time>2013-08-04T08:26:07Z</time>
      </trkpt>
      <trkpt lat="44.43601" lon="2.50984">
        <ele>366.5</ele>
        <time>2013-08-04T08:26:10Z</time>
      </trkpt>
      <trkpt lat="44.43604" lon="2.50972">
        <ele>365.9</ele>
        <time>2013-08-04T08:26:13Z</time>
      </trkpt>
      <trkpt lat="44.43605" lon="2.50968">
        <ele>365.9</ele>
        <time>2013-08-04T08:26:14Z</time>
      </trkpt>
      <trkpt lat="44.43608" lon="2.50956">
        <ele>365.5</ele>
        <time>2013-08-04T08:26:17Z</time>
      </trkpt>
      <trkpt lat="44.43609" lon="2.50946">
        <ele>365.1</ele>
        <time>2013-08-04T08:26:19Z</time>
      </trkpt>
      <trkpt lat="44.43609" lon="2.50936">
        <ele>365.1</ele>
        <time>2013-08-04T08:26:21Z</time>
      </trkpt>
      <trkpt lat="44.43609" lon="2.50924">
        <ele>364.9</ele>
        <time>2013-08-04T08:26:24Z</time>
      </trkpt>
      <trkpt lat="44.43608" lon="2.50913">
        <ele>364.9</ele>
        <time>2013-08-04T08:26:27Z</time>
      </trkpt>
      <trkpt lat="44.43608" lon="2.50903">
        <ele>364.4</ele>
        <time>2013-08-04T08:26:30Z</time>
      </trkpt>
      <trkpt lat="44.4361" lon="2.50895">
        <ele>364</ele>
        <time>2013-08-04T08:26:32Z</time>
      </trkpt>
      <trkpt lat="44.43612" lon="2.50885">
        <ele>363.3</ele>
        <time>2013-08-04T08:26:34Z</time>
      </trkpt>
      <trkpt lat="44.43613" lon="2.50878">
        <ele>363.1</ele>
        <time>2013-08-04T08:26:35Z</time>
      </trkpt>
      <trkpt lat="44.43616" lon="2.50871">
        <ele>363.2</ele>
        <time>2013-08-04T08:26:36Z</time>
      </trkpt>
      <trkpt lat="44.43617" lon="2.50864">
        <ele>363.2</ele>
        <time>2013-08-04T08:26:37Z</time>
      </trkpt>
      <trkpt lat="44.43619" lon="2.50857">
        <ele>363.2</ele>
        <time>2013-08-04T08:26:38Z</time>
      </trkpt>
      <trkpt lat="44.43619" lon="2.50852">
        <ele>363.3</ele>
        <time>2013-08-04T08:26:39Z</time>
      </trkpt>
      <trkpt lat="44.4362" lon="2.50844">
        <ele>363.3</ele>
        <time>2013-08-04T08:26:40Z</time>
      </trkpt>
      <trkpt lat="44.43622" lon="2.50837">
        <ele>363.3</ele>
        <time>2013-08-04T08:26:41Z</time>
      </trkpt>
      <trkpt lat="44.43625" lon="2.5083">
        <ele>363.1</ele>
        <time>2013-08-04T08:26:42Z</time>
      </trkpt>
      <trkpt lat="44.43629" lon="2.50824">
        <ele>363</ele>
        <time>2013-08-04T08:26:43Z</time>
      </trkpt>
      <trkpt lat="44.43633" lon="2.50818">
        <ele>362.9</ele>
        <time>2013-08-04T08:26:44Z</time>
      </trkpt>
      <trkpt lat="44.43637" lon="2.50813">
        <ele>362.6</ele>
        <time>2013-08-04T08:26:45Z</time>
      </trkpt>
      <trkpt lat="44.43641" lon="2.50808">
        <ele>362.5</ele>
        <time>2013-08-04T08:26:46Z</time>
      </trkpt>
      <trkpt lat="44.43644" lon="2.50803">
        <ele>362.4</ele>
        <time>2013-08-04T08:26:47Z</time>
      </trkpt>
      <trkpt lat="44.43647" lon="2.50797">
        <ele>362.3</ele>
        <time>2013-08-04T08:26:48Z</time>
      </trkpt>
      <trkpt lat="44.43651" lon="2.50791">
        <ele>362</ele>
        <time>2013-08-04T08:26:49Z</time>
      </trkpt>
      <trkpt lat="44.43655" lon="2.50781">
        <ele>361.7</ele>
        <time>2013-08-04T08:26:51Z</time>
      </trkpt>
      <trkpt lat="44.43656" lon="2.50774">
        <ele>361.8</ele>
        <time>2013-08-04T08:26:52Z</time>
      </trkpt>
      <trkpt lat="44.43656" lon="2.50767">
        <ele>361.8</ele>
        <time>2013-08-04T08:26:53Z</time>
      </trkpt>
      <trkpt lat="44.43656" lon="2.5076">
        <ele>361.9</ele>
        <time>2013-08-04T08:26:54Z</time>
      </trkpt>
      <trkpt lat="44.43656" lon="2.50752">
        <ele>361.6</ele>
        <time>2013-08-04T08:26:55Z</time>
      </trkpt>
      <trkpt lat="44.43656" lon="2.50745">
        <ele>361.4</ele>
        <time>2013-08-04T08:26:56Z</time>
      </trkpt>
      <trkpt lat="44.43656" lon="2.50737">
        <ele>361.2</ele>
        <time>2013-08-04T08:26:57Z</time>
      </trkpt>
      <trkpt lat="44.43657" lon="2.50729">
        <ele>360.7</ele>
        <time>2013-08-04T08:26:58Z</time>
      </trkpt>
      <trkpt lat="44.43657" lon="2.50722">
        <ele>360.2</ele>
        <time>2013-08-04T08:26:59Z</time>
      </trkpt>
      <trkpt lat="44.43657" lon="2.50714">
        <ele>359.9</ele>
        <time>2013-08-04T08:27:00Z</time>
      </trkpt>
      <trkpt lat="44.43657" lon="2.50706">
        <ele>359.5</ele>
        <time>2013-08-04T08:27:01Z</time>
      </trkpt>
      <trkpt lat="44.43657" lon="2.50698">
        <ele>359.2</ele>
        <time>2013-08-04T08:27:02Z</time>
      </trkpt>
      <trkpt lat="44.43658" lon="2.5069">
        <ele>359</ele>
        <time>2013-08-04T08:27:03Z</time>
      </trkpt>
      <trkpt lat="44.43657" lon="2.50683">
        <ele>359.2</ele>
        <time>2013-08-04T08:27:04Z</time>
      </trkpt>
      <trkpt lat="44.43656" lon="2.50671">
        <ele>359.5</ele>
        <time>2013-08-04T08:27:06Z</time>
      </trkpt>
      <trkpt lat="44.43653" lon="2.50662">
        <ele>359.2</ele>
        <time>2013-08-04T08:27:08Z</time>
      </trkpt>
      <trkpt lat="44.43649" lon="2.50655">
        <ele>358.9</ele>
        <time>2013-08-04T08:27:10Z</time>
      </trkpt>
      <trkpt lat="44.43646" lon="2.50647">
        <ele>359.4</ele>
        <time>2013-08-04T08:27:12Z</time>
      </trkpt>
      <trkpt lat="44.43646" lon="2.50637">
        <ele>359.5</ele>
        <time>2013-08-04T08:27:14Z</time>
      </trkpt>
      <trkpt lat="44.43646" lon="2.50627">
        <ele>359.4</ele>
        <time>2013-08-04T08:27:16Z</time>
      </trkpt>
      <trkpt lat="44.43646" lon="2.50623">
        <ele>359.9</ele>
        <time>2013-08-04T08:27:17Z</time>
      </trkpt>
      <trkpt lat="44.4365" lon="2.50603">
        <ele>360</ele>
        <time>2013-08-04T08:27:22Z</time>
      </trkpt>
      <trkpt lat="44.43653" lon="2.50592">
        <ele>360.1</ele>
        <time>2013-08-04T08:27:25Z</time>
      </trkpt>
      <trkpt lat="44.43655" lon="2.50581">
        <ele>361</ele>
        <time>2013-08-04T08:27:28Z</time>
      </trkpt>
      <trkpt lat="44.43658" lon="2.50572">
        <ele>360.9</ele>
        <time>2013-08-04T08:27:30Z</time>
      </trkpt>
      <trkpt lat="44.4366" lon="2.50563">
        <ele>360.4</ele>
        <time>2013-08-04T08:27:32Z</time>
      </trkpt>
      <trkpt lat="44.43662" lon="2.50554">
        <ele>361</ele>
        <time>2013-08-04T08:27:34Z</time>
      </trkpt>
      <trkpt lat="44.43664" lon="2.50542">
        <ele>360.9</ele>
        <time>2013-08-04T08:27:36Z</time>
      </trkpt>
      <trkpt lat="44.43666" lon="2.50532">
        <ele>360.5</ele>
        <time>2013-08-04T08:27:38Z</time>
      </trkpt>
      <trkpt lat="44.43669" lon="2.50521">
        <ele>360.8</ele>
        <time>2013-08-04T08:27:40Z</time>
      </trkpt>
      <trkpt lat="44.43671" lon="2.50515">
        <ele>361.1</ele>
        <time>2013-08-04T08:27:41Z</time>
      </trkpt>
      <trkpt lat="44.43672" lon="2.50508">
        <ele>361.3</ele>
        <time>2013-08-04T08:27:42Z</time>
      </trkpt>
      <trkpt lat="44.43675" lon="2.50497">
        <ele>361.9</ele>
        <time>2013-08-04T08:27:44Z</time>
      </trkpt>
      <trkpt lat="44.43677" lon="2.50486">
        <ele>362.4</ele>
        <time>2013-08-04T08:27:46Z</time>
      </trkpt>
      <trkpt lat="44.4368" lon="2.50475">
        <ele>363</ele>
        <time>2013-08-04T08:27:48Z</time>
      </trkpt>
      <trkpt lat="44.43683" lon="2.50464">
        <ele>363.2</ele>
        <time>2013-08-04T08:27:50Z</time>
      </trkpt>
      <trkpt lat="44.43686" lon="2.50453">
        <ele>363.4</ele>
        <time>2013-08-04T08:27:52Z</time>
      </trkpt>
      <trkpt lat="44.43688" lon="2.50442">
        <ele>363.5</ele>
        <time>2013-08-04T08:27:54Z</time>
      </trkpt>
      <trkpt lat="44.43689" lon="2.50433">
        <ele>363.2</ele>
        <time>2013-08-04T08:27:56Z</time>
      </trkpt>
      <trkpt lat="44.43691" lon="2.50424">
        <ele>362.6</ele>
        <time>2013-08-04T08:27:58Z</time>
      </trkpt>
      <trkpt lat="44.43692" lon="2.50417">
        <ele>362.6</ele>
        <time>2013-08-04T08:27:59Z</time>
      </trkpt>
      <trkpt lat="44.43694" lon="2.50409">
        <ele>362.6</ele>
        <time>2013-08-04T08:28:00Z</time>
      </trkpt>
      <trkpt lat="44.43695" lon="2.50402">
        <ele>362.5</ele>
        <time>2013-08-04T08:28:01Z</time>
      </trkpt>
      <trkpt lat="44.43697" lon="2.50394">
        <ele>362.5</ele>
        <time>2013-08-04T08:28:02Z</time>
      </trkpt>
      <trkpt lat="44.43699" lon="2.50386">
        <ele>362.5</ele>
        <time>2013-08-04T08:28:03Z</time>
      </trkpt>
      <trkpt lat="44.43702" lon="2.50378">
        <ele>362.5</ele>
        <time>2013-08-04T08:28:04Z</time>
      </trkpt>
      <trkpt lat="44.43705" lon="2.50369">
        <ele>362</ele>
        <time>2013-08-04T08:28:05Z</time>
      </trkpt>
      <trkpt lat="44.43708" lon="2.5036">
        <ele>361.7</ele>
        <time>2013-08-04T08:28:06Z</time>
      </trkpt>
      <trkpt lat="44.43711" lon="2.50352">
        <ele>361.4</ele>
        <time>2013-08-04T08:28:07Z</time>
      </trkpt>
      <trkpt lat="44.43713" lon="2.50344">
        <ele>361</ele>
        <time>2013-08-04T08:28:08Z</time>
      </trkpt>
      <trkpt lat="44.43716" lon="2.50336">
        <ele>360.8</ele>
        <time>2013-08-04T08:28:09Z</time>
      </trkpt>
      <trkpt lat="44.43719" lon="2.50326">
        <ele>360.6</ele>
        <time>2013-08-04T08:28:10Z</time>
      </trkpt>
      <trkpt lat="44.43722" lon="2.50316">
        <ele>360.4</ele>
        <time>2013-08-04T08:28:11Z</time>
      </trkpt>
      <trkpt lat="44.43724" lon="2.50306">
        <ele>360.2</ele>
        <time>2013-08-04T08:28:12Z</time>
      </trkpt>
      <trkpt lat="44.43726" lon="2.50296">
        <ele>360</ele>
        <time>2013-08-04T08:28:13Z</time>
      </trkpt>
      <trkpt lat="44.43728" lon="2.50287">
        <ele>359.9</ele>
        <time>2013-08-04T08:28:14Z</time>
      </trkpt>
      <trkpt lat="44.43729" lon="2.50278">
        <ele>359.3</ele>
        <time>2013-08-04T08:28:15Z</time>
      </trkpt>
      <trkpt lat="44.43731" lon="2.5027">
        <ele>358.8</ele>
        <time>2013-08-04T08:28:16Z</time>
      </trkpt>
      <trkpt lat="44.43735" lon="2.50261">
        <ele>358.5</ele>
        <time>2013-08-04T08:28:17Z</time>
      </trkpt>
      <trkpt lat="44.43739" lon="2.50253">
        <ele>358.1</ele>
        <time>2013-08-04T08:28:18Z</time>
      </trkpt>
      <trkpt lat="44.43744" lon="2.50246">
        <ele>357.7</ele>
        <time>2013-08-04T08:28:19Z</time>
      </trkpt>
      <trkpt lat="44.43752" lon="2.5024">
        <ele>357.5</ele>
        <time>2013-08-04T08:28:20Z</time>
      </trkpt>
      <trkpt lat="44.43758" lon="2.50235">
        <ele>356.7</ele>
        <time>2013-08-04T08:28:21Z</time>
      </trkpt>
      <trkpt lat="44.43764" lon="2.5023">
        <ele>356</ele>
        <time>2013-08-04T08:28:22Z</time>
      </trkpt>
      <trkpt lat="44.4377" lon="2.50223">
        <ele>355.5</ele>
        <time>2013-08-04T08:28:23Z</time>
      </trkpt>
      <trkpt lat="44.43776" lon="2.50216">
        <ele>355.1</ele>
        <time>2013-08-04T08:28:24Z</time>
      </trkpt>
      <trkpt lat="44.43783" lon="2.50208">
        <ele>354.9</ele>
        <time>2013-08-04T08:28:25Z</time>
      </trkpt>
      <trkpt lat="44.43788" lon="2.50201">
        <ele>354.6</ele>
        <time>2013-08-04T08:28:26Z</time>
      </trkpt>
      <trkpt lat="44.43794" lon="2.50194">
        <ele>354.2</ele>
        <time>2013-08-04T08:28:27Z</time>
      </trkpt>
      <trkpt lat="44.43799" lon="2.50185">
        <ele>353.9</ele>
        <time>2013-08-04T08:28:28Z</time>
      </trkpt>
      <trkpt lat="44.43805" lon="2.50177">
        <ele>353.7</ele>
        <time>2013-08-04T08:28:29Z</time>
      </trkpt>
      <trkpt lat="44.4381" lon="2.50168">
        <ele>353.6</ele>
        <time>2013-08-04T08:28:30Z</time>
      </trkpt>
      <trkpt lat="44.43817" lon="2.50161">
        <ele>353.6</ele>
        <time>2013-08-04T08:28:31Z</time>
      </trkpt>
      <trkpt lat="44.43823" lon="2.50159">
        <ele>353.6</ele>
        <time>2013-08-04T08:28:32Z</time>
      </trkpt>
      <trkpt lat="44.43832" lon="2.50158">
        <ele>353.4</ele>
        <time>2013-08-04T08:28:34Z</time>
      </trkpt>
      <trkpt lat="44.43837" lon="2.50167">
        <ele>354</ele>
        <time>2013-08-04T08:28:43Z</time>
      </trkpt>
      <trkpt lat="44.43843" lon="2.50163">
        <ele>355.3</ele>
        <time>2013-08-04T08:28:48Z</time>
      </trkpt>
      <trkpt lat="44.4385" lon="2.50155">
        <ele>356.7</ele>
        <time>2013-08-04T08:28:51Z</time>
      </trkpt>
      <trkpt lat="44.43856" lon="2.50153">
        <ele>357.2</ele>
        <time>2013-08-04T08:28:53Z</time>
      </trkpt>
      <trkpt lat="44.43862" lon="2.50153">
        <ele>357.4</ele>
        <time>2013-08-04T08:28:55Z</time>
      </trkpt>
      <trkpt lat="44.4387" lon="2.50153">
        <ele>358</ele>
        <time>2013-08-04T08:28:58Z</time>
      </trkpt>
      <trkpt lat="44.43879" lon="2.50154">
        <ele>359.3</ele>
        <time>2013-08-04T08:29:01Z</time>
      </trkpt>
      <trkpt lat="44.43887" lon="2.50156">
        <ele>359.9</ele>
        <time>2013-08-04T08:29:04Z</time>
      </trkpt>
      <trkpt lat="44.43896" lon="2.50156">
        <ele>360.9</ele>
        <time>2013-08-04T08:29:07Z</time>
      </trkpt>
      <trkpt lat="44.43904" lon="2.50156">
        <ele>361.7</ele>
        <time>2013-08-04T08:29:10Z</time>
      </trkpt>
      <trkpt lat="44.43912" lon="2.50155">
        <ele>363</ele>
        <time>2013-08-04T08:29:13Z</time>
      </trkpt>
      <trkpt lat="44.4392" lon="2.50154">
        <ele>362.8</ele>
        <time>2013-08-04T08:29:16Z</time>
      </trkpt>
      <trkpt lat="44.43927" lon="2.50151">
        <ele>362.8</ele>
        <time>2013-08-04T08:29:19Z</time>
      </trkpt>
      <trkpt lat="44.43935" lon="2.50147">
        <ele>364</ele>
        <time>2013-08-04T08:29:23Z</time>
      </trkpt>
      <trkpt lat="44.43937" lon="2.50146">
        <ele>364.3</ele>
        <time>2013-08-04T08:29:24Z</time>
      </trkpt>
      <trkpt lat="44.43925" lon="2.50165">
        <ele>367.4</ele>
        <time>2013-08-04T08:29:45Z</time>
      </trkpt>
      <trkpt lat="44.4392" lon="2.50173">
        <ele>367.7</ele>
        <time>2013-08-04T08:29:49Z</time>
      </trkpt>
      <trkpt lat="44.43915" lon="2.50182">
        <ele>368.7</ele>
        <time>2013-08-04T08:29:53Z</time>
      </trkpt>
      <trkpt lat="44.43911" lon="2.50192">
        <ele>369.7</ele>
        <time>2013-08-04T08:29:57Z</time>
      </trkpt>
      <trkpt lat="44.43906" lon="2.50201">
        <ele>370.4</ele>
        <time>2013-08-04T08:30:01Z</time>
      </trkpt>
      <trkpt lat="44.43902" lon="2.5021">
        <ele>370.8</ele>
        <time>2013-08-04T08:30:04Z</time>
      </trkpt>
      <trkpt lat="44.43897" lon="2.50219">
        <ele>371.1</ele>
        <time>2013-08-04T08:30:08Z</time>
      </trkpt>
      <trkpt lat="44.43891" lon="2.50227">
        <ele>371</ele>
        <time>2013-08-04T08:30:12Z</time>
      </trkpt>
      <trkpt lat="44.43884" lon="2.50233">
        <ele>372.1</ele>
        <time>2013-08-04T08:30:16Z</time>
      </trkpt>
      <trkpt lat="44.43878" lon="2.50242">
        <ele>372.8</ele>
        <time>2013-08-04T08:30:20Z</time>
      </trkpt>
      <trkpt lat="44.43874" lon="2.50251">
        <ele>373.5</ele>
        <time>2013-08-04T08:30:23Z</time>
      </trkpt>
      <trkpt lat="44.4387" lon="2.5026">
        <ele>373.8</ele>
        <time>2013-08-04T08:30:26Z</time>
      </trkpt>
      <trkpt lat="44.43869" lon="2.50263">
        <ele>373.6</ele>
        <time>2013-08-04T08:30:27Z</time>
      </trkpt>
      <trkpt lat="44.43864" lon="2.5028">
        <ele>374.2</ele>
        <time>2013-08-04T08:30:32Z</time>
      </trkpt>
      <trkpt lat="44.4386" lon="2.50291">
        <ele>374.5</ele>
        <time>2013-08-04T08:30:35Z</time>
      </trkpt>
      <trkpt lat="44.43856" lon="2.50301">
        <ele>374.8</ele>
        <time>2013-08-04T08:30:38Z</time>
      </trkpt>
      <trkpt lat="44.43852" lon="2.50311">
        <ele>375</ele>
        <time>2013-08-04T08:30:41Z</time>
      </trkpt>
      <trkpt lat="44.4385" lon="2.5032">
        <ele>375.4</ele>
        <time>2013-08-04T08:30:44Z</time>
      </trkpt>
      <trkpt lat="44.43847" lon="2.5033">
        <ele>376.2</ele>
        <time>2013-08-04T08:30:47Z</time>
      </trkpt>
      <trkpt lat="44.43846" lon="2.5034">
        <ele>376.2</ele>
        <time>2013-08-04T08:30:50Z</time>
      </trkpt>
      <trkpt lat="44.43845" lon="2.50351">
        <ele>377</ele>
        <time>2013-08-04T08:30:53Z</time>
      </trkpt>
      <trkpt lat="44.43844" lon="2.50362">
        <ele>377.4</ele>
        <time>2013-08-04T08:30:57Z</time>
      </trkpt>
      <trkpt lat="44.43842" lon="2.50372">
        <ele>377.5</ele>
        <time>2013-08-04T08:31:00Z</time>
      </trkpt>
      <trkpt lat="44.43841" lon="2.50383">
        <ele>378</ele>
        <time>2013-08-04T08:31:03Z</time>
      </trkpt>
      <trkpt lat="44.4384" lon="2.50395">
        <ele>378.6</ele>
        <time>2013-08-04T08:31:07Z</time>
      </trkpt>
      <trkpt lat="44.43839" lon="2.50406">
        <ele>379</ele>
        <time>2013-08-04T08:31:10Z</time>
      </trkpt>
      <trkpt lat="44.43839" lon="2.50417">
        <ele>379</ele>
        <time>2013-08-04T08:31:13Z</time>
      </trkpt>
      <trkpt lat="44.43838" lon="2.50427">
        <ele>379.3</ele>
        <time>2013-08-04T08:31:16Z</time>
      </trkpt>
      <trkpt lat="44.43837" lon="2.50437">
        <ele>379</ele>
        <time>2013-08-04T08:31:19Z</time>
      </trkpt>
      <trkpt lat="44.43835" lon="2.50449">
        <ele>379.6</ele>
        <time>2013-08-04T08:31:23Z</time>
      </trkpt>
      <trkpt lat="44.43834" lon="2.5046">
        <ele>380.4</ele>
        <time>2013-08-04T08:31:26Z</time>
      </trkpt>
      <trkpt lat="44.43832" lon="2.50471">
        <ele>381</ele>
        <time>2013-08-04T08:31:29Z</time>
      </trkpt>
      <trkpt lat="44.43831" lon="2.50475">
        <ele>381</ele>
        <time>2013-08-04T08:31:30Z</time>
      </trkpt>
      <trkpt lat="44.43826" lon="2.50493">
        <ele>381.8</ele>
        <time>2013-08-04T08:31:35Z</time>
      </trkpt>
      <trkpt lat="44.43821" lon="2.50501">
        <ele>382</ele>
        <time>2013-08-04T08:31:38Z</time>
      </trkpt>
      <trkpt lat="44.43817" lon="2.5051">
        <ele>381.2</ele>
        <time>2013-08-04T08:31:41Z</time>
      </trkpt>
      <trkpt lat="44.43812" lon="2.5052">
        <ele>382</ele>
        <time>2013-08-04T08:31:44Z</time>
      </trkpt>
      <trkpt lat="44.43809" lon="2.50528">
        <ele>382.5</ele>
        <time>2013-08-04T08:31:46Z</time>
      </trkpt>
      <trkpt lat="44.43806" lon="2.50535">
        <ele>382.8</ele>
        <time>2013-08-04T08:31:48Z</time>
      </trkpt>
      <trkpt lat="44.43803" lon="2.50543">
        <ele>382.5</ele>
        <time>2013-08-04T08:31:50Z</time>
      </trkpt>
      <trkpt lat="44.43798" lon="2.50554">
        <ele>383.1</ele>
        <time>2013-08-04T08:31:53Z</time>
      </trkpt>
      <trkpt lat="44.43794" lon="2.50564">
        <ele>383.9</ele>
        <time>2013-08-04T08:31:56Z</time>
      </trkpt>
      <trkpt lat="44.43789" lon="2.50574">
        <ele>384.4</ele>
        <time>2013-08-04T08:31:59Z</time>
      </trkpt>
      <trkpt lat="44.43785" lon="2.50584">
        <ele>385.8</ele>
        <time>2013-08-04T08:32:02Z</time>
      </trkpt>
      <trkpt lat="44.43782" lon="2.50592">
        <ele>386.2</ele>
        <time>2013-08-04T08:32:04Z</time>
      </trkpt>
      <trkpt lat="44.43779" lon="2.50599">
        <ele>386.2</ele>
        <time>2013-08-04T08:32:06Z</time>
      </trkpt>
      <trkpt lat="44.43777" lon="2.50607">
        <ele>386.4</ele>
        <time>2013-08-04T08:32:08Z</time>
      </trkpt>
      <trkpt lat="44.43775" lon="2.50616">
        <ele>386.7</ele>
        <time>2013-08-04T08:32:10Z</time>
      </trkpt>
      <trkpt lat="44.43774" lon="2.50624">
        <ele>387.3</ele>
        <time>2013-08-04T08:32:12Z</time>
      </trkpt>
      <trkpt lat="44.43773" lon="2.50633">
        <ele>388</ele>
        <time>2013-08-04T08:32:14Z</time>
      </trkpt>
      <trkpt lat="44.43773" lon="2.50641">
        <ele>388.6</ele>
        <time>2013-08-04T08:32:16Z</time>
      </trkpt>
      <trkpt lat="44.43774" lon="2.50653">
        <ele>389.2</ele>
        <time>2013-08-04T08:32:19Z</time>
      </trkpt>
      <trkpt lat="44.43774" lon="2.50665">
        <ele>388.8</ele>
        <time>2013-08-04T08:32:22Z</time>
      </trkpt>
      <trkpt lat="44.43775" lon="2.50677">
        <ele>388.3</ele>
        <time>2013-08-04T08:32:25Z</time>
      </trkpt>
      <trkpt lat="44.43776" lon="2.50689">
        <ele>389.5</ele>
        <time>2013-08-04T08:32:28Z</time>
      </trkpt>
      <trkpt lat="44.43776" lon="2.507">
        <ele>389.9</ele>
        <time>2013-08-04T08:32:31Z</time>
      </trkpt>
      <trkpt lat="44.43777" lon="2.50704">
        <ele>389.9</ele>
        <time>2013-08-04T08:32:32Z</time>
      </trkpt>
      <trkpt lat="44.43777" lon="2.50722">
        <ele>391.1</ele>
        <time>2013-08-04T08:32:37Z</time>
      </trkpt>
      <trkpt lat="44.43777" lon="2.50734">
        <ele>391.7</ele>
        <time>2013-08-04T08:32:40Z</time>
      </trkpt>
      <trkpt lat="44.43777" lon="2.50746">
        <ele>392.6</ele>
        <time>2013-08-04T08:32:43Z</time>
      </trkpt>
      <trkpt lat="44.43777" lon="2.50756">
        <ele>393.2</ele>
        <time>2013-08-04T08:32:46Z</time>
      </trkpt>
      <trkpt lat="44.43777" lon="2.50767">
        <ele>393.8</ele>
        <time>2013-08-04T08:32:49Z</time>
      </trkpt>
      <trkpt lat="44.43776" lon="2.50778">
        <ele>394.6</ele>
        <time>2013-08-04T08:32:52Z</time>
      </trkpt>
      <trkpt lat="44.43777" lon="2.50787">
        <ele>395</ele>
        <time>2013-08-04T08:32:55Z</time>
      </trkpt>
      <trkpt lat="44.43776" lon="2.50798">
        <ele>395.9</ele>
        <time>2013-08-04T08:32:58Z</time>
      </trkpt>
      <trkpt lat="44.43777" lon="2.5081">
        <ele>396.7</ele>
        <time>2013-08-04T08:33:01Z</time>
      </trkpt>
      <trkpt lat="44.43776" lon="2.50821">
        <ele>396.3</ele>
        <time>2013-08-04T08:33:04Z</time>
      </trkpt>
      <trkpt lat="44.43775" lon="2.50831">
        <ele>397.1</ele>
        <time>2013-08-04T08:33:08Z</time>
      </trkpt>
      <trkpt lat="44.43771" lon="2.50842">
        <ele>397.5</ele>
        <time>2013-08-04T08:33:12Z</time>
      </trkpt>
      <trkpt lat="44.43767" lon="2.50851">
        <ele>397.8</ele>
        <time>2013-08-04T08:33:16Z</time>
      </trkpt>
      <trkpt lat="44.43763" lon="2.5086">
        <ele>398.3</ele>
        <time>2013-08-04T08:33:19Z</time>
      </trkpt>
      <trkpt lat="44.43761" lon="2.5087">
        <ele>398.8</ele>
        <time>2013-08-04T08:33:22Z</time>
      </trkpt>
      <trkpt lat="44.43759" lon="2.5088">
        <ele>399.6</ele>
        <time>2013-08-04T08:33:25Z</time>
      </trkpt>
      <trkpt lat="44.4376" lon="2.5089">
        <ele>400.2</ele>
        <time>2013-08-04T08:33:28Z</time>
      </trkpt>
      <trkpt lat="44.4376" lon="2.50901">
        <ele>400.7</ele>
        <time>2013-08-04T08:33:31Z</time>
      </trkpt>
      <trkpt lat="44.43759" lon="2.50914">
        <ele>402.2</ele>
        <time>2013-08-04T08:33:35Z</time>
      </trkpt>
      <trkpt lat="44.43759" lon="2.50917">
        <ele>402.6</ele>
        <time>2013-08-04T08:33:36Z</time>
      </trkpt>
      <trkpt lat="44.43756" lon="2.50935">
        <ele>404.3</ele>
        <time>2013-08-04T08:33:42Z</time>
      </trkpt>
      <trkpt lat="44.43755" lon="2.50946">
        <ele>404.4</ele>
        <time>2013-08-04T08:33:45Z</time>
      </trkpt>
      <trkpt lat="44.43754" lon="2.50956">
        <ele>405.4</ele>
        <time>2013-08-04T08:33:48Z</time>
      </trkpt>
      <trkpt lat="44.43754" lon="2.50966">
        <ele>406.1</ele>
        <time>2013-08-04T08:33:51Z</time>
      </trkpt>
      <trkpt lat="44.43753" lon="2.50977">
        <ele>406.5</ele>
        <time>2013-08-04T08:33:54Z</time>
      </trkpt>
      <trkpt lat="44.43753" lon="2.50987">
        <ele>406.7</ele>
        <time>2013-08-04T08:33:57Z</time>
      </trkpt>
      <trkpt lat="44.43752" lon="2.50997">
        <ele>407.1</ele>
        <time>2013-08-04T08:34:00Z</time>
      </trkpt>
      <trkpt lat="44.43753" lon="2.51007">
        <ele>407.6</ele>
        <time>2013-08-04T08:34:03Z</time>
      </trkpt>
      <trkpt lat="44.43754" lon="2.51017">
        <ele>408.4</ele>
        <time>2013-08-04T08:34:06Z</time>
      </trkpt>
      <trkpt lat="44.43755" lon="2.51027">
        <ele>409.8</ele>
        <time>2013-08-04T08:34:09Z</time>
      </trkpt>
      <trkpt lat="44.43755" lon="2.51037">
        <ele>411.1</ele>
        <time>2013-08-04T08:34:12Z</time>
      </trkpt>
      <trkpt lat="44.43755" lon="2.51047">
        <ele>411.3</ele>
        <time>2013-08-04T08:34:15Z</time>
      </trkpt>
      <trkpt lat="44.43755" lon="2.5106">
        <ele>411.2</ele>
        <time>2013-08-04T08:34:19Z</time>
      </trkpt>
      <trkpt lat="44.43756" lon="2.51071">
        <ele>412.2</ele>
        <time>2013-08-04T08:34:23Z</time>
      </trkpt>
      <trkpt lat="44.43757" lon="2.51082">
        <ele>413.4</ele>
        <time>2013-08-04T08:34:27Z</time>
      </trkpt>
      <trkpt lat="44.43758" lon="2.51093">
        <ele>414</ele>
        <time>2013-08-04T08:34:31Z</time>
      </trkpt>
      <trkpt lat="44.43758" lon="2.51105">
        <ele>413.8</ele>
        <time>2013-08-04T08:34:35Z</time>
      </trkpt>
      <trkpt lat="44.43756" lon="2.51116">
        <ele>413.8</ele>
        <time>2013-08-04T08:34:39Z</time>
      </trkpt>
      <trkpt lat="44.43756" lon="2.51119">
        <ele>413.9</ele>
        <time>2013-08-04T08:34:40Z</time>
      </trkpt>
      <trkpt lat="44.43753" lon="2.51138">
        <ele>414.9</ele>
        <time>2013-08-04T08:34:47Z</time>
      </trkpt>
      <trkpt lat="44.43751" lon="2.51149">
        <ele>415.1</ele>
        <time>2013-08-04T08:34:51Z</time>
      </trkpt>
      <trkpt lat="44.43748" lon="2.51158">
        <ele>416.4</ele>
        <time>2013-08-04T08:34:55Z</time>
      </trkpt>
      <trkpt lat="44.43744" lon="2.51168">
        <ele>416.4</ele>
        <time>2013-08-04T08:34:59Z</time>
      </trkpt>
      <trkpt lat="44.43741" lon="2.51177">
        <ele>416.7</ele>
        <time>2013-08-04T08:35:02Z</time>
      </trkpt>
      <trkpt lat="44.43738" lon="2.51187">
        <ele>417.1</ele>
        <time>2013-08-04T08:35:05Z</time>
      </trkpt>
      <trkpt lat="44.43735" lon="2.51197">
        <ele>418</ele>
        <time>2013-08-04T08:35:08Z</time>
      </trkpt>
      <trkpt lat="44.43732" lon="2.51208">
        <ele>418.7</ele>
        <time>2013-08-04T08:35:11Z</time>
      </trkpt>
      <trkpt lat="44.43729" lon="2.51219">
        <ele>418.7</ele>
        <time>2013-08-04T08:35:14Z</time>
      </trkpt>
      <trkpt lat="44.43726" lon="2.5123">
        <ele>418.7</ele>
        <time>2013-08-04T08:35:17Z</time>
      </trkpt>
      <trkpt lat="44.43723" lon="2.51241">
        <ele>418.9</ele>
        <time>2013-08-04T08:35:20Z</time>
      </trkpt>
      <trkpt lat="44.4372" lon="2.5125">
        <ele>419.1</ele>
        <time>2013-08-04T08:35:22Z</time>
      </trkpt>
      <trkpt lat="44.43717" lon="2.51258">
        <ele>419.2</ele>
        <time>2013-08-04T08:35:24Z</time>
      </trkpt>
      <trkpt lat="44.43714" lon="2.51268">
        <ele>420.1</ele>
        <time>2013-08-04T08:35:27Z</time>
      </trkpt>
      <trkpt lat="44.4371" lon="2.51278">
        <ele>420.5</ele>
        <time>2013-08-04T08:35:30Z</time>
      </trkpt>
      <trkpt lat="44.43706" lon="2.51288">
        <ele>420.6</ele>
        <time>2013-08-04T08:35:33Z</time>
      </trkpt>
      <trkpt lat="44.43703" lon="2.51298">
        <ele>421.2</ele>
        <time>2013-08-04T08:35:36Z</time>
      </trkpt>
      <trkpt lat="44.437" lon="2.51308">
        <ele>421.6</ele>
        <time>2013-08-04T08:35:39Z</time>
      </trkpt>
      <trkpt lat="44.43697" lon="2.51317">
        <ele>421.8</ele>
        <time>2013-08-04T08:35:42Z</time>
      </trkpt>
      <trkpt lat="44.43696" lon="2.5132">
        <ele>421.9</ele>
        <time>2013-08-04T08:35:43Z</time>
      </trkpt>
      <trkpt lat="44.4369" lon="2.51336">
        <ele>422.6</ele>
        <time>2013-08-04T08:35:48Z</time>
      </trkpt>
      <trkpt lat="44.43687" lon="2.51346">
        <ele>423.1</ele>
        <time>2013-08-04T08:35:51Z</time>
      </trkpt>
      <trkpt lat="44.43685" lon="2.51357">
        <ele>423.3</ele>
        <time>2013-08-04T08:35:54Z</time>
      </trkpt>
      <trkpt lat="44.43683" lon="2.51368">
        <ele>423.4</ele>
        <time>2013-08-04T08:35:57Z</time>
      </trkpt>
      <trkpt lat="44.43681" lon="2.51378">
        <ele>423.9</ele>
        <time>2013-08-04T08:36:00Z</time>
      </trkpt>
      <trkpt lat="44.43678" lon="2.51388">
        <ele>424.2</ele>
        <time>2013-08-04T08:36:03Z</time>
      </trkpt>
      <trkpt lat="44.43674" lon="2.51396">
        <ele>425.3</ele>
        <time>2013-08-04T08:36:07Z</time>
      </trkpt>
      <trkpt lat="44.43668" lon="2.51402">
        <ele>425.8</ele>
        <time>2013-08-04T08:36:11Z</time>
      </trkpt>
      <trkpt lat="44.4366" lon="2.51407">
        <ele>426.3</ele>
        <time>2013-08-04T08:36:15Z</time>
      </trkpt>
      <trkpt lat="44.43653" lon="2.51409">
        <ele>426.4</ele>
        <time>2013-08-04T08:36:18Z</time>
      </trkpt>
      <trkpt lat="44.43646" lon="2.5141">
        <ele>427.2</ele>
        <time>2013-08-04T08:36:21Z</time>
      </trkpt>
      <trkpt lat="44.4364" lon="2.51418">
        <ele>428.3</ele>
        <time>2013-08-04T08:36:25Z</time>
      </trkpt>
      <trkpt lat="44.43634" lon="2.51425">
        <ele>429</ele>
        <time>2013-08-04T08:36:29Z</time>
      </trkpt>
      <trkpt lat="44.43629" lon="2.51432">
        <ele>429.4</ele>
        <time>2013-08-04T08:36:33Z</time>
      </trkpt>
      <trkpt lat="44.43622" lon="2.51438">
        <ele>429.6</ele>
        <time>2013-08-04T08:36:36Z</time>
      </trkpt>
      <trkpt lat="44.43617" lon="2.51444">
        <ele>430.5</ele>
        <time>2013-08-04T08:36:40Z</time>
      </trkpt>
      <trkpt lat="44.43612" lon="2.51452">
        <ele>431.6</ele>
        <time>2013-08-04T08:36:45Z</time>
      </trkpt>
      <trkpt lat="44.4361" lon="2.51454">
        <ele>431.6</ele>
        <time>2013-08-04T08:36:46Z</time>
      </trkpt>
      <trkpt lat="44.43612" lon="2.51468">
        <ele>432.5</ele>
        <time>2013-08-04T08:36:55Z</time>
      </trkpt>
      <trkpt lat="44.4362" lon="2.51462">
        <ele>434.3</ele>
        <time>2013-08-04T08:37:03Z</time>
      </trkpt>
      <trkpt lat="44.43625" lon="2.51455">
        <ele>434.1</ele>
        <time>2013-08-04T08:37:08Z</time>
      </trkpt>
      <trkpt lat="44.43633" lon="2.5145">
        <ele>435.4</ele>
        <time>2013-08-04T08:37:13Z</time>
      </trkpt>
      <trkpt lat="44.43641" lon="2.51447">
        <ele>436.1</ele>
        <time>2013-08-04T08:37:17Z</time>
      </trkpt>
      <trkpt lat="44.4365" lon="2.51443">
        <ele>436.8</ele>
        <time>2013-08-04T08:37:22Z</time>
      </trkpt>
      <trkpt lat="44.43656" lon="2.51441">
        <ele>437.2</ele>
        <time>2013-08-04T08:37:25Z</time>
      </trkpt>
      <trkpt lat="44.43665" lon="2.51439">
        <ele>437.1</ele>
        <time>2013-08-04T08:37:29Z</time>
      </trkpt>
      <trkpt lat="44.43672" lon="2.51433">
        <ele>438.8</ele>
        <time>2013-08-04T08:37:33Z</time>
      </trkpt>
      <trkpt lat="44.43678" lon="2.51426">
        <ele>438.6</ele>
        <time>2013-08-04T08:37:37Z</time>
      </trkpt>
      <trkpt lat="44.43684" lon="2.51417">
        <ele>438.8</ele>
        <time>2013-08-04T08:37:43Z</time>
      </trkpt>
      <trkpt lat="44.43692" lon="2.51414">
        <ele>439.6</ele>
        <time>2013-08-04T08:37:51Z</time>
      </trkpt>
      <trkpt lat="44.43693" lon="2.51416">
        <ele>439.6</ele>
        <time>2013-08-04T08:37:52Z</time>
      </trkpt>
      <trkpt lat="44.43693" lon="2.51432">
        <ele>439.6</ele>
        <time>2013-08-04T08:38:21Z</time>
      </trkpt>
      <trkpt lat="44.4369" lon="2.51443">
        <ele>439.8</ele>
        <time>2013-08-04T08:38:26Z</time>
      </trkpt>
      <trkpt lat="44.43695" lon="2.51448">
        <ele>439</ele>
        <time>2013-08-04T08:38:29Z</time>
      </trkpt>
      <trkpt lat="44.43703" lon="2.51453">
        <ele>438.6</ele>
        <time>2013-08-04T08:38:34Z</time>
      </trkpt>
      <trkpt lat="44.43705" lon="2.51465">
        <ele>438.5</ele>
        <time>2013-08-04T08:38:51Z</time>
      </trkpt>
      <trkpt lat="44.43706" lon="2.51477">
        <ele>439.5</ele>
        <time>2013-08-04T08:40:03Z</time>
      </trkpt>
      <trkpt lat="44.43706" lon="2.51478">
        <ele>439.3</ele>
        <time>2013-08-04T08:40:04Z</time>
      </trkpt>
      <trkpt lat="44.43699" lon="2.51468">
        <ele>439.5</ele>
        <time>2013-08-04T08:41:43Z</time>
      </trkpt>
      <trkpt lat="44.43704" lon="2.51451">
        <ele>439.7</ele>
        <time>2013-08-04T08:41:49Z</time>
      </trkpt>
      <trkpt lat="44.43706" lon="2.5144">
        <ele>439.3</ele>
        <time>2013-08-04T08:41:52Z</time>
      </trkpt>
      <trkpt lat="44.4371" lon="2.51431">
        <ele>439.8</ele>
        <time>2013-08-04T08:41:55Z</time>
      </trkpt>
      <trkpt lat="44.43713" lon="2.5142">
        <ele>440.6</ele>
        <time>2013-08-04T08:41:58Z</time>
      </trkpt>
      <trkpt lat="44.43715" lon="2.5141">
        <ele>440.9</ele>
        <time>2013-08-04T08:42:01Z</time>
      </trkpt>
      <trkpt lat="44.43718" lon="2.514">
        <ele>441.1</ele>
        <time>2013-08-04T08:42:04Z</time>
      </trkpt>
      <trkpt lat="44.43721" lon="2.51391">
        <ele>441.3</ele>
        <time>2013-08-04T08:42:07Z</time>
      </trkpt>
      <trkpt lat="44.43724" lon="2.5138">
        <ele>442</ele>
        <time>2013-08-04T08:42:10Z</time>
      </trkpt>
      <trkpt lat="44.43727" lon="2.51373">
        <ele>441.8</ele>
        <time>2013-08-04T08:42:12Z</time>
      </trkpt>
      <trkpt lat="44.43731" lon="2.51363">
        <ele>441.9</ele>
        <time>2013-08-04T08:42:15Z</time>
      </trkpt>
      <trkpt lat="44.43735" lon="2.51355">
        <ele>442.6</ele>
        <time>2013-08-04T08:42:18Z</time>
      </trkpt>
      <trkpt lat="44.43738" lon="2.51343">
        <ele>443.4</ele>
        <time>2013-08-04T08:42:21Z</time>
      </trkpt>
      <trkpt lat="44.4374" lon="2.51332">
        <ele>443.7</ele>
        <time>2013-08-04T08:42:24Z</time>
      </trkpt>
      <trkpt lat="44.43744" lon="2.51321">
        <ele>443.5</ele>
        <time>2013-08-04T08:42:27Z</time>
      </trkpt>
      <trkpt lat="44.4375" lon="2.51315">
        <ele>444.2</ele>
        <time>2013-08-04T08:42:30Z</time>
      </trkpt>
      <trkpt lat="44.43758" lon="2.51311">
        <ele>444.9</ele>
        <time>2013-08-04T08:42:33Z</time>
      </trkpt>
      <trkpt lat="44.43766" lon="2.51308">
        <ele>445.3</ele>
        <time>2013-08-04T08:42:36Z</time>
      </trkpt>
      <trkpt lat="44.43773" lon="2.51302">
        <ele>445.2</ele>
        <time>2013-08-04T08:42:39Z</time>
      </trkpt>
      <trkpt lat="44.43778" lon="2.51294">
        <ele>446.2</ele>
        <time>2013-08-04T08:42:42Z</time>
      </trkpt>
      <trkpt lat="44.43782" lon="2.51285">
        <ele>446.7</ele>
        <time>2013-08-04T08:42:45Z</time>
      </trkpt>
      <trkpt lat="44.43784" lon="2.51282">
        <ele>447.1</ele>
        <time>2013-08-04T08:42:46Z</time>
      </trkpt>
      <trkpt lat="44.43788" lon="2.51266">
        <ele>447.9</ele>
        <time>2013-08-04T08:42:51Z</time>
      </trkpt>
      <trkpt lat="44.43789" lon="2.51256">
        <ele>448.5</ele>
        <time>2013-08-04T08:42:54Z</time>
      </trkpt>
      <trkpt lat="44.4379" lon="2.51245">
        <ele>448.9</ele>
        <time>2013-08-04T08:42:57Z</time>
      </trkpt>
      <trkpt lat="44.43792" lon="2.51236">
        <ele>449.5</ele>
        <time>2013-08-04T08:43:00Z</time>
      </trkpt>
      <trkpt lat="44.43795" lon="2.51227">
        <ele>450</ele>
        <time>2013-08-04T08:43:03Z</time>
      </trkpt>
      <trkpt lat="44.43797" lon="2.51217">
        <ele>450.8</ele>
        <time>2013-08-04T08:43:06Z</time>
      </trkpt>
      <trkpt lat="44.43801" lon="2.51208">
        <ele>452.3</ele>
        <time>2013-08-04T08:43:10Z</time>
      </trkpt>
      <trkpt lat="44.43807" lon="2.512">
        <ele>452.5</ele>
        <time>2013-08-04T08:43:15Z</time>
      </trkpt>
      <trkpt lat="44.4381" lon="2.51189">
        <ele>453.5</ele>
        <time>2013-08-04T08:43:21Z</time>
      </trkpt>
      <trkpt lat="44.43808" lon="2.51179">
        <ele>453.6</ele>
        <time>2013-08-04T08:43:24Z</time>
      </trkpt>
      <trkpt lat="44.43808" lon="2.51167">
        <ele>452.9</ele>
        <time>2013-08-04T08:43:27Z</time>
      </trkpt>
      <trkpt lat="44.43809" lon="2.51156">
        <ele>452.8</ele>
        <time>2013-08-04T08:43:29Z</time>
      </trkpt>
      <trkpt lat="44.43813" lon="2.51145">
        <ele>452.9</ele>
        <time>2013-08-04T08:43:32Z</time>
      </trkpt>
      <trkpt lat="44.43816" lon="2.51134">
        <ele>452.4</ele>
        <time>2013-08-04T08:43:35Z</time>
      </trkpt>
      <trkpt lat="44.4382" lon="2.51123">
        <ele>452.7</ele>
        <time>2013-08-04T08:43:38Z</time>
      </trkpt>
      <trkpt lat="44.43822" lon="2.51115">
        <ele>452.6</ele>
        <time>2013-08-04T08:43:40Z</time>
      </trkpt>
      <trkpt lat="44.43826" lon="2.51104">
        <ele>452.2</ele>
        <time>2013-08-04T08:43:43Z</time>
      </trkpt>
      <trkpt lat="44.43825" lon="2.51092">
        <ele>453.7</ele>
        <time>2013-08-04T08:43:48Z</time>
      </trkpt>
      <trkpt lat="44.43824" lon="2.51091">
        <ele>454</ele>
        <time>2013-08-04T08:43:49Z</time>
      </trkpt>
      <trkpt lat="44.43819" lon="2.51074">
        <ele>454.1</ele>
        <time>2013-08-04T08:43:55Z</time>
      </trkpt>
      <trkpt lat="44.43818" lon="2.51064">
        <ele>454.1</ele>
        <time>2013-08-04T08:43:57Z</time>
      </trkpt>
      <trkpt lat="44.43822" lon="2.51054">
        <ele>454.3</ele>
        <time>2013-08-04T08:44:00Z</time>
      </trkpt>
      <trkpt lat="44.43829" lon="2.51048">
        <ele>455.6</ele>
        <time>2013-08-04T08:44:05Z</time>
      </trkpt>
      <trkpt lat="44.43835" lon="2.5104">
        <ele>458.7</ele>
        <time>2013-08-04T08:44:14Z</time>
      </trkpt>
      <trkpt lat="44.43838" lon="2.51028">
        <ele>459.6</ele>
        <time>2013-08-04T08:44:20Z</time>
      </trkpt>
      <trkpt lat="44.43836" lon="2.51017">
        <ele>459.7</ele>
        <time>2013-08-04T08:44:23Z</time>
      </trkpt>
      <trkpt lat="44.43835" lon="2.51006">
        <ele>460</ele>
        <time>2013-08-04T08:44:25Z</time>
      </trkpt>
      <trkpt lat="44.43836" lon="2.50994">
        <ele>460.4</ele>
        <time>2013-08-04T08:44:27Z</time>
      </trkpt>
      <trkpt lat="44.43837" lon="2.50983">
        <ele>459.9</ele>
        <time>2013-08-04T08:44:29Z</time>
      </trkpt>
      <trkpt lat="44.4384" lon="2.50972">
        <ele>459.7</ele>
        <time>2013-08-04T08:44:31Z</time>
      </trkpt>
      <trkpt lat="44.43843" lon="2.50962">
        <ele>459.8</ele>
        <time>2013-08-04T08:44:33Z</time>
      </trkpt>
      <trkpt lat="44.43847" lon="2.50951">
        <ele>459.9</ele>
        <time>2013-08-04T08:44:35Z</time>
      </trkpt>
      <trkpt lat="44.4385" lon="2.5094">
        <ele>459.9</ele>
        <time>2013-08-04T08:44:37Z</time>
      </trkpt>
      <trkpt lat="44.43851" lon="2.50933">
        <ele>459.4</ele>
        <time>2013-08-04T08:44:38Z</time>
      </trkpt>
      <trkpt lat="44.43853" lon="2.50927">
        <ele>459</ele>
        <time>2013-08-04T08:44:39Z</time>
      </trkpt>
      <trkpt lat="44.43856" lon="2.50921">
        <ele>458.7</ele>
        <time>2013-08-04T08:44:40Z</time>
      </trkpt>
      <trkpt lat="44.43858" lon="2.50915">
        <ele>458.9</ele>
        <time>2013-08-04T08:44:41Z</time>
      </trkpt>
      <trkpt lat="44.4386" lon="2.50909">
        <ele>459</ele>
        <time>2013-08-04T08:44:42Z</time>
      </trkpt>
      <trkpt lat="44.43862" lon="2.50903">
        <ele>459</ele>
        <time>2013-08-04T08:44:43Z</time>
      </trkpt>
      <trkpt lat="44.43866" lon="2.50893">
        <ele>458.9</ele>
        <time>2013-08-04T08:44:45Z</time>
      </trkpt>
      <trkpt lat="44.43869" lon="2.50886">
        <ele>458.8</ele>
        <time>2013-08-04T08:44:47Z</time>
      </trkpt>
      <trkpt lat="44.43872" lon="2.50875">
        <ele>458.6</ele>
        <time>2013-08-04T08:44:49Z</time>
      </trkpt>
      <trkpt lat="44.43873" lon="2.50869">
        <ele>458.6</ele>
        <time>2013-08-04T08:44:50Z</time>
      </trkpt>
      <trkpt lat="44.43875" lon="2.50861">
        <ele>458.6</ele>
        <time>2013-08-04T08:44:51Z</time>
      </trkpt>
      <trkpt lat="44.43878" lon="2.50852">
        <ele>458.7</ele>
        <time>2013-08-04T08:44:52Z</time>
      </trkpt>
      <trkpt lat="44.43881" lon="2.50843">
        <ele>458.7</ele>
        <time>2013-08-04T08:44:53Z</time>
      </trkpt>
      <trkpt lat="44.43884" lon="2.50834">
        <ele>457.9</ele>
        <time>2013-08-04T08:44:54Z</time>
      </trkpt>
      <trkpt lat="44.43887" lon="2.50825">
        <ele>457.3</ele>
        <time>2013-08-04T08:44:55Z</time>
      </trkpt>
      <trkpt lat="44.43888" lon="2.50817">
        <ele>456.9</ele>
        <time>2013-08-04T08:44:56Z</time>
      </trkpt>
      <trkpt lat="44.43889" lon="2.50808">
        <ele>456.5</ele>
        <time>2013-08-04T08:44:57Z</time>
      </trkpt>
      <trkpt lat="44.43891" lon="2.50799">
        <ele>456.2</ele>
        <time>2013-08-04T08:44:58Z</time>
      </trkpt>
      <trkpt lat="44.43892" lon="2.5079">
        <ele>455.9</ele>
        <time>2013-08-04T08:44:59Z</time>
      </trkpt>
      <trkpt lat="44.43892" lon="2.50781">
        <ele>455.6</ele>
        <time>2013-08-04T08:45:00Z</time>
      </trkpt>
      <trkpt lat="44.43893" lon="2.5076">
        <ele>455.4</ele>
        <time>2013-08-04T08:45:02Z</time>
      </trkpt>
      <trkpt lat="44.43895" lon="2.50723">
        <ele>454.7</ele>
        <time>2013-08-04T08:45:05Z</time>
      </trkpt>
      <trkpt lat="44.43895" lon="2.5071">
        <ele>454.2</ele>
        <time>2013-08-04T08:45:06Z</time>
      </trkpt>
      <trkpt lat="44.43895" lon="2.50697">
        <ele>453.3</ele>
        <time>2013-08-04T08:45:07Z</time>
      </trkpt>
      <trkpt lat="44.43896" lon="2.50685">
        <ele>452.7</ele>
        <time>2013-08-04T08:45:08Z</time>
      </trkpt>
      <trkpt lat="44.43899" lon="2.50673">
        <ele>452.1</ele>
        <time>2013-08-04T08:45:09Z</time>
      </trkpt>
      <trkpt lat="44.43903" lon="2.50661">
        <ele>451.6</ele>
        <time>2013-08-04T08:45:10Z</time>
      </trkpt>
      <trkpt lat="44.43907" lon="2.50651">
        <ele>451.2</ele>
        <time>2013-08-04T08:45:11Z</time>
      </trkpt>
      <trkpt lat="44.43911" lon="2.50641">
        <ele>450.9</ele>
        <time>2013-08-04T08:45:12Z</time>
      </trkpt>
      <trkpt lat="44.43914" lon="2.50629">
        <ele>450.5</ele>
        <time>2013-08-04T08:45:13Z</time>
      </trkpt>
      <trkpt lat="44.43917" lon="2.50618">
        <ele>450.2</ele>
        <time>2013-08-04T08:45:14Z</time>
      </trkpt>
      <trkpt lat="44.43921" lon="2.50607">
        <ele>450.1</ele>
        <time>2013-08-04T08:45:15Z</time>
      </trkpt>
      <trkpt lat="44.43924" lon="2.50596">
        <ele>449.6</ele>
        <time>2013-08-04T08:45:16Z</time>
      </trkpt>
      <trkpt lat="44.43927" lon="2.50585">
        <ele>449.2</ele>
        <time>2013-08-04T08:45:17Z</time>
      </trkpt>
      <trkpt lat="44.4393" lon="2.50573">
        <ele>449</ele>
        <time>2013-08-04T08:45:18Z</time>
      </trkpt>
      <trkpt lat="44.43934" lon="2.50561">
        <ele>448.3</ele>
        <time>2013-08-04T08:45:19Z</time>
      </trkpt>
      <trkpt lat="44.43938" lon="2.50549">
        <ele>447.8</ele>
        <time>2013-08-04T08:45:20Z</time>
      </trkpt>
      <trkpt lat="44.43942" lon="2.50537">
        <ele>447.4</ele>
        <time>2013-08-04T08:45:21Z</time>
      </trkpt>
      <trkpt lat="44.43948" lon="2.50526">
        <ele>447.2</ele>
        <time>2013-08-04T08:45:22Z</time>
      </trkpt>
      <trkpt lat="44.43953" lon="2.50516">
        <ele>446.6</ele>
        <time>2013-08-04T08:45:23Z</time>
      </trkpt>
      <trkpt lat="44.43958" lon="2.50506">
        <ele>446.1</ele>
        <time>2013-08-04T08:45:24Z</time>
      </trkpt>
      <trkpt lat="44.43964" lon="2.50498">
        <ele>445.8</ele>
        <time>2013-08-04T08:45:25Z</time>
      </trkpt>
      <trkpt lat="44.43968" lon="2.5049">
        <ele>445.3</ele>
        <time>2013-08-04T08:45:26Z</time>
      </trkpt>
      <trkpt lat="44.43971" lon="2.50484">
        <ele>445</ele>
        <time>2013-08-04T08:45:27Z</time>
      </trkpt>
      <trkpt lat="44.43973" lon="2.50477">
        <ele>444.7</ele>
        <time>2013-08-04T08:45:28Z</time>
      </trkpt>
      <trkpt lat="44.43977" lon="2.50466">
        <ele>445</ele>
        <time>2013-08-04T08:45:30Z</time>
      </trkpt>
      <trkpt lat="44.43982" lon="2.50456">
        <ele>445.2</ele>
        <time>2013-08-04T08:45:32Z</time>
      </trkpt>
      <trkpt lat="44.43985" lon="2.50451">
        <ele>445.3</ele>
        <time>2013-08-04T08:45:33Z</time>
      </trkpt>
      <trkpt lat="44.43989" lon="2.50446">
        <ele>445.3</ele>
        <time>2013-08-04T08:45:34Z</time>
      </trkpt>
      <trkpt lat="44.43993" lon="2.50441">
        <ele>445.4</ele>
        <time>2013-08-04T08:45:35Z</time>
      </trkpt>
      <trkpt lat="44.43997" lon="2.50437">
        <ele>445.4</ele>
        <time>2013-08-04T08:45:36Z</time>
      </trkpt>
      <trkpt lat="44.44002" lon="2.50433">
        <ele>445.4</ele>
        <time>2013-08-04T08:45:37Z</time>
      </trkpt>
      <trkpt lat="44.44007" lon="2.5043">
        <ele>445.4</ele>
        <time>2013-08-04T08:45:38Z</time>
      </trkpt>
      <trkpt lat="44.44012" lon="2.50428">
        <ele>445.5</ele>
        <time>2013-08-04T08:45:39Z</time>
      </trkpt>
      <trkpt lat="44.44016" lon="2.50426">
        <ele>445.7</ele>
        <time>2013-08-04T08:45:40Z</time>
      </trkpt>
      <trkpt lat="44.44021" lon="2.50424">
        <ele>445.7</ele>
        <time>2013-08-04T08:45:41Z</time>
      </trkpt>
      <trkpt lat="44.44025" lon="2.50423">
        <ele>446</ele>
        <time>2013-08-04T08:45:42Z</time>
      </trkpt>
      <trkpt lat="44.4403" lon="2.50422">
        <ele>446.2</ele>
        <time>2013-08-04T08:45:43Z</time>
      </trkpt>
      <trkpt lat="44.44038" lon="2.50419">
        <ele>446.4</ele>
        <time>2013-08-04T08:45:45Z</time>
      </trkpt>
      <trkpt lat="44.44046" lon="2.50415">
        <ele>446.6</ele>
        <time>2013-08-04T08:45:47Z</time>
      </trkpt>
      <trkpt lat="44.44054" lon="2.50413">
        <ele>447.6</ele>
        <time>2013-08-04T08:45:49Z</time>
      </trkpt>
      <trkpt lat="44.44062" lon="2.50411">
        <ele>448.6</ele>
        <time>2013-08-04T08:45:51Z</time>
      </trkpt>
      <trkpt lat="44.44066" lon="2.50411">
        <ele>449.1</ele>
        <time>2013-08-04T08:45:52Z</time>
      </trkpt>
      <trkpt lat="44.44077" lon="2.50412">
        <ele>449.9</ele>
        <time>2013-08-04T08:45:55Z</time>
      </trkpt>
      <trkpt lat="44.44084" lon="2.50413">
        <ele>450.1</ele>
        <time>2013-08-04T08:45:57Z</time>
      </trkpt>
      <trkpt lat="44.44092" lon="2.50414">
        <ele>450.8</ele>
        <time>2013-08-04T08:45:59Z</time>
      </trkpt>
      <trkpt lat="44.441" lon="2.50416">
        <ele>450.9</ele>
        <time>2013-08-04T08:46:01Z</time>
      </trkpt>
      <trkpt lat="44.44108" lon="2.50418">
        <ele>450.8</ele>
        <time>2013-08-04T08:46:03Z</time>
      </trkpt>
      <trkpt lat="44.44117" lon="2.50419">
        <ele>450.7</ele>
        <time>2013-08-04T08:46:05Z</time>
      </trkpt>
      <trkpt lat="44.44126" lon="2.50421">
        <ele>451</ele>
        <time>2013-08-04T08:46:07Z</time>
      </trkpt>
      <trkpt lat="44.44134" lon="2.50426">
        <ele>451.4</ele>
        <time>2013-08-04T08:46:09Z</time>
      </trkpt>
      <trkpt lat="44.4414" lon="2.50433">
        <ele>451.3</ele>
        <time>2013-08-04T08:46:11Z</time>
      </trkpt>
      <trkpt lat="44.44147" lon="2.50441">
        <ele>451.2</ele>
        <time>2013-08-04T08:46:13Z</time>
      </trkpt>
      <trkpt lat="44.44153" lon="2.50449">
        <ele>451.4</ele>
        <time>2013-08-04T08:46:15Z</time>
      </trkpt>
      <trkpt lat="44.44159" lon="2.50455">
        <ele>451.9</ele>
        <time>2013-08-04T08:46:17Z</time>
      </trkpt>
      <trkpt lat="44.44165" lon="2.50459">
        <ele>452.3</ele>
        <time>2013-08-04T08:46:19Z</time>
      </trkpt>
      <trkpt lat="44.44171" lon="2.50462">
        <ele>453</ele>
        <time>2013-08-04T08:46:21Z</time>
      </trkpt>
      <trkpt lat="44.44177" lon="2.50466">
        <ele>453.4</ele>
        <time>2013-08-04T08:46:23Z</time>
      </trkpt>
      <trkpt lat="44.44183" lon="2.50471">
        <ele>453.7</ele>
        <time>2013-08-04T08:46:25Z</time>
      </trkpt>
      <trkpt lat="44.4419" lon="2.50475">
        <ele>454.2</ele>
        <time>2013-08-04T08:46:27Z</time>
      </trkpt>
      <trkpt lat="44.44196" lon="2.50479">
        <ele>454.5</ele>
        <time>2013-08-04T08:46:29Z</time>
      </trkpt>
      <trkpt lat="44.44202" lon="2.50483">
        <ele>454.9</ele>
        <time>2013-08-04T08:46:31Z</time>
      </trkpt>
      <trkpt lat="44.44209" lon="2.50489">
        <ele>455</ele>
        <time>2013-08-04T08:46:33Z</time>
      </trkpt>
      <trkpt lat="44.44215" lon="2.50494">
        <ele>455</ele>
        <time>2013-08-04T08:46:35Z</time>
      </trkpt>
      <trkpt lat="44.44222" lon="2.50498">
        <ele>454.6</ele>
        <time>2013-08-04T08:46:37Z</time>
      </trkpt>
      <trkpt lat="44.44227" lon="2.50501">
        <ele>454.5</ele>
        <time>2013-08-04T08:46:38Z</time>
      </trkpt>
      <trkpt lat="44.44231" lon="2.50503">
        <ele>454.6</ele>
        <time>2013-08-04T08:46:39Z</time>
      </trkpt>
      <trkpt lat="44.44235" lon="2.50505">
        <ele>454.7</ele>
        <time>2013-08-04T08:46:40Z</time>
      </trkpt>
      <trkpt lat="44.4424" lon="2.50506">
        <ele>454.8</ele>
        <time>2013-08-04T08:46:41Z</time>
      </trkpt>
      <trkpt lat="44.44244" lon="2.50507">
        <ele>454.3</ele>
        <time>2013-08-04T08:46:42Z</time>
      </trkpt>
      <trkpt lat="44.44249" lon="2.50509">
        <ele>454</ele>
        <time>2013-08-04T08:46:43Z</time>
      </trkpt>
      <trkpt lat="44.44254" lon="2.50511">
        <ele>453.8</ele>
        <time>2013-08-04T08:46:44Z</time>
      </trkpt>
      <trkpt lat="44.4426" lon="2.50513">
        <ele>453.6</ele>
        <time>2013-08-04T08:46:45Z</time>
      </trkpt>
      <trkpt lat="44.44267" lon="2.50516">
        <ele>453.4</ele>
        <time>2013-08-04T08:46:46Z</time>
      </trkpt>
      <trkpt lat="44.44274" lon="2.5052">
        <ele>453.2</ele>
        <time>2013-08-04T08:46:47Z</time>
      </trkpt>
      <trkpt lat="44.44281" lon="2.50524">
        <ele>453.1</ele>
        <time>2013-08-04T08:46:48Z</time>
      </trkpt>
      <trkpt lat="44.44288" lon="2.50529">
        <ele>452.6</ele>
        <time>2013-08-04T08:46:49Z</time>
      </trkpt>
      <trkpt lat="44.44296" lon="2.50533">
        <ele>452.1</ele>
        <time>2013-08-04T08:46:50Z</time>
      </trkpt>
      <trkpt lat="44.44303" lon="2.50536">
        <ele>451.8</ele>
        <time>2013-08-04T08:46:51Z</time>
      </trkpt>
      <trkpt lat="44.4431" lon="2.5054">
        <ele>451.4</ele>
        <time>2013-08-04T08:46:52Z</time>
      </trkpt>
      <trkpt lat="44.44316" lon="2.50542">
        <ele>451.1</ele>
        <time>2013-08-04T08:46:53Z</time>
      </trkpt>
      <trkpt lat="44.44323" lon="2.50543">
        <ele>450.8</ele>
        <time>2013-08-04T08:46:54Z</time>
      </trkpt>
      <trkpt lat="44.44329" lon="2.50544">
        <ele>450.4</ele>
        <time>2013-08-04T08:46:55Z</time>
      </trkpt>
      <trkpt lat="44.44336" lon="2.50543">
        <ele>450.2</ele>
        <time>2013-08-04T08:46:56Z</time>
      </trkpt>
      <trkpt lat="44.44342" lon="2.50541">
        <ele>450</ele>
        <time>2013-08-04T08:46:57Z</time>
      </trkpt>
      <trkpt lat="44.44348" lon="2.50537">
        <ele>449.4</ele>
        <time>2013-08-04T08:46:58Z</time>
      </trkpt>
      <trkpt lat="44.44352" lon="2.50533">
        <ele>449</ele>
        <time>2013-08-04T08:46:59Z</time>
      </trkpt>
      <trkpt lat="44.44356" lon="2.50528">
        <ele>448.7</ele>
        <time>2013-08-04T08:47:00Z</time>
      </trkpt>
      <trkpt lat="44.44358" lon="2.50522">
        <ele>448.8</ele>
        <time>2013-08-04T08:47:01Z</time>
      </trkpt>
      <trkpt lat="44.44359" lon="2.50516">
        <ele>448.8</ele>
        <time>2013-08-04T08:47:02Z</time>
      </trkpt>
      <trkpt lat="44.4436" lon="2.5051">
        <ele>448.8</ele>
        <time>2013-08-04T08:47:03Z</time>
      </trkpt>
      <trkpt lat="44.4436" lon="2.50503">
        <ele>448.8</ele>
        <time>2013-08-04T08:47:04Z</time>
      </trkpt>
      <trkpt lat="44.4436" lon="2.50496">
        <ele>448.9</ele>
        <time>2013-08-04T08:47:05Z</time>
      </trkpt>
      <trkpt lat="44.4436" lon="2.50489">
        <ele>449</ele>
        <time>2013-08-04T08:47:06Z</time>
      </trkpt>
      <trkpt lat="44.4436" lon="2.50482">
        <ele>449.1</ele>
        <time>2013-08-04T08:47:07Z</time>
      </trkpt>
      <trkpt lat="44.44359" lon="2.50476">
        <ele>448.7</ele>
        <time>2013-08-04T08:47:08Z</time>
      </trkpt>
      <trkpt lat="44.44359" lon="2.50469">
        <ele>448.4</ele>
        <time>2013-08-04T08:47:09Z</time>
      </trkpt>
      <trkpt lat="44.44358" lon="2.50461">
        <ele>448.2</ele>
        <time>2013-08-04T08:47:10Z</time>
      </trkpt>
      <trkpt lat="44.44358" lon="2.50455">
        <ele>448.1</ele>
        <time>2013-08-04T08:47:11Z</time>
      </trkpt>
      <trkpt lat="44.44359" lon="2.50449">
        <ele>448.1</ele>
        <time>2013-08-04T08:47:12Z</time>
      </trkpt>
      <trkpt lat="44.44361" lon="2.50437">
        <ele>448</ele>
        <time>2013-08-04T08:47:14Z</time>
      </trkpt>
      <trkpt lat="44.44361" lon="2.50427">
        <ele>448.1</ele>
        <time>2013-08-04T08:47:16Z</time>
      </trkpt>
      <trkpt lat="44.4436" lon="2.50417">
        <ele>448.3</ele>
        <time>2013-08-04T08:47:18Z</time>
      </trkpt>
      <trkpt lat="44.44359" lon="2.50407">
        <ele>448.7</ele>
        <time>2013-08-04T08:47:20Z</time>
      </trkpt>
      <trkpt lat="44.44359" lon="2.50397">
        <ele>449.3</ele>
        <time>2013-08-04T08:47:22Z</time>
      </trkpt>
      <trkpt lat="44.44359" lon="2.50386">
        <ele>449.3</ele>
        <time>2013-08-04T08:47:24Z</time>
      </trkpt>
      <trkpt lat="44.44358" lon="2.50376">
        <ele>449.1</ele>
        <time>2013-08-04T08:47:26Z</time>
      </trkpt>
      <trkpt lat="44.44358" lon="2.50367">
        <ele>449.2</ele>
        <time>2013-08-04T08:47:28Z</time>
      </trkpt>
      <trkpt lat="44.44358" lon="2.50355">
        <ele>450</ele>
        <time>2013-08-04T08:47:31Z</time>
      </trkpt>
      <trkpt lat="44.44358" lon="2.50345">
        <ele>450.7</ele>
        <time>2013-08-04T08:47:34Z</time>
      </trkpt>
      <trkpt lat="44.44359" lon="2.50333">
        <ele>451.8</ele>
        <time>2013-08-04T08:47:37Z</time>
      </trkpt>
      <trkpt lat="44.44361" lon="2.50322">
        <ele>453.1</ele>
        <time>2013-08-04T08:47:40Z</time>
      </trkpt>
      <trkpt lat="44.44364" lon="2.50311">
        <ele>453.6</ele>
        <time>2013-08-04T08:47:43Z</time>
      </trkpt>
      <trkpt lat="44.44367" lon="2.50301">
        <ele>454</ele>
        <time>2013-08-04T08:47:46Z</time>
      </trkpt>
      <trkpt lat="44.4437" lon="2.50291">
        <ele>455.1</ele>
        <time>2013-08-04T08:47:49Z</time>
      </trkpt>
      <trkpt lat="44.44372" lon="2.5028">
        <ele>456.6</ele>
        <time>2013-08-04T08:47:52Z</time>
      </trkpt>
      <trkpt lat="44.44372" lon="2.5027">
        <ele>457.3</ele>
        <time>2013-08-04T08:47:55Z</time>
      </trkpt>
      <trkpt lat="44.44372" lon="2.50267">
        <ele>457.8</ele>
        <time>2013-08-04T08:47:56Z</time>
      </trkpt>
      <trkpt lat="44.44373" lon="2.5025">
        <ele>458.7</ele>
        <time>2013-08-04T08:48:01Z</time>
      </trkpt>
      <trkpt lat="44.44374" lon="2.50238">
        <ele>459.4</ele>
        <time>2013-08-04T08:48:05Z</time>
      </trkpt>
      <trkpt lat="44.44377" lon="2.5023">
        <ele>460.2</ele>
        <time>2013-08-04T08:48:08Z</time>
      </trkpt>
      <trkpt lat="44.4438" lon="2.50221">
        <ele>460.7</ele>
        <time>2013-08-04T08:48:11Z</time>
      </trkpt>
      <trkpt lat="44.44387" lon="2.50213">
        <ele>461</ele>
        <time>2013-08-04T08:48:15Z</time>
      </trkpt>
      <trkpt lat="44.44393" lon="2.50207">
        <ele>462.4</ele>
        <time>2013-08-04T08:48:19Z</time>
      </trkpt>
      <trkpt lat="44.44398" lon="2.502">
        <ele>462.7</ele>
        <time>2013-08-04T08:48:22Z</time>
      </trkpt>
      <trkpt lat="44.44401" lon="2.5019">
        <ele>463.2</ele>
        <time>2013-08-04T08:48:26Z</time>
      </trkpt>
      <trkpt lat="44.44404" lon="2.50179">
        <ele>464.2</ele>
        <time>2013-08-04T08:48:30Z</time>
      </trkpt>
      <trkpt lat="44.44405" lon="2.50167">
        <ele>464.6</ele>
        <time>2013-08-04T08:48:34Z</time>
      </trkpt>
      <trkpt lat="44.44406" lon="2.50158">
        <ele>465.3</ele>
        <time>2013-08-04T08:48:37Z</time>
      </trkpt>
      <trkpt lat="44.44408" lon="2.50148">
        <ele>465.8</ele>
        <time>2013-08-04T08:48:40Z</time>
      </trkpt>
      <trkpt lat="44.44409" lon="2.50136">
        <ele>466.6</ele>
        <time>2013-08-04T08:48:43Z</time>
      </trkpt>
      <trkpt lat="44.44411" lon="2.50128">
        <ele>466.6</ele>
        <time>2013-08-04T08:48:45Z</time>
      </trkpt>
      <trkpt lat="44.44413" lon="2.5012">
        <ele>466.8</ele>
        <time>2013-08-04T08:48:47Z</time>
      </trkpt>
      <trkpt lat="44.44415" lon="2.50111">
        <ele>467</ele>
        <time>2013-08-04T08:48:49Z</time>
      </trkpt>
      <trkpt lat="44.44419" lon="2.50104">
        <ele>467.4</ele>
        <time>2013-08-04T08:48:51Z</time>
      </trkpt>
      <trkpt lat="44.44423" lon="2.50097">
        <ele>467.7</ele>
        <time>2013-08-04T08:48:53Z</time>
      </trkpt>
      <trkpt lat="44.44428" lon="2.5009">
        <ele>468</ele>
        <time>2013-08-04T08:48:55Z</time>
      </trkpt>
      <trkpt lat="44.44435" lon="2.50082">
        <ele>468.4</ele>
        <time>2013-08-04T08:48:58Z</time>
      </trkpt>
      <trkpt lat="44.44437" lon="2.50079">
        <ele>468.4</ele>
        <time>2013-08-04T08:48:59Z</time>
      </trkpt>
      <trkpt lat="44.44444" lon="2.50068">
        <ele>468.2</ele>
        <time>2013-08-04T08:49:02Z</time>
      </trkpt>
      <trkpt lat="44.44449" lon="2.50061">
        <ele>468.8</ele>
        <time>2013-08-04T08:49:04Z</time>
      </trkpt>
      <trkpt lat="44.44453" lon="2.50055">
        <ele>468.7</ele>
        <time>2013-08-04T08:49:06Z</time>
      </trkpt>
      <trkpt lat="44.44458" lon="2.50049">
        <ele>468.5</ele>
        <time>2013-08-04T08:49:08Z</time>
      </trkpt>
      <trkpt lat="44.44463" lon="2.50042">
        <ele>469.3</ele>
        <time>2013-08-04T08:49:10Z</time>
      </trkpt>
      <trkpt lat="44.44469" lon="2.50036">
        <ele>469.6</ele>
        <time>2013-08-04T08:49:12Z</time>
      </trkpt>
      <trkpt lat="44.44475" lon="2.50029">
        <ele>469.6</ele>
        <time>2013-08-04T08:49:14Z</time>
      </trkpt>
      <trkpt lat="44.44483" lon="2.50023">
        <ele>469.7</ele>
        <time>2013-08-04T08:49:16Z</time>
      </trkpt>
      <trkpt lat="44.44487" lon="2.50021">
        <ele>469.8</ele>
        <time>2013-08-04T08:49:17Z</time>
      </trkpt>
      <trkpt lat="44.44491" lon="2.50018">
        <ele>469.9</ele>
        <time>2013-08-04T08:49:18Z</time>
      </trkpt>
      <trkpt lat="44.44495" lon="2.50015">
        <ele>469.8</ele>
        <time>2013-08-04T08:49:19Z</time>
      </trkpt>
      <trkpt lat="44.44499" lon="2.50012">
        <ele>469.8</ele>
        <time>2013-08-04T08:49:20Z</time>
      </trkpt>
      <trkpt lat="44.44504" lon="2.50008">
        <ele>469.8</ele>
        <time>2013-08-04T08:49:21Z</time>
      </trkpt>
      <trkpt lat="44.44509" lon="2.50003">
        <ele>469.7</ele>
        <time>2013-08-04T08:49:22Z</time>
      </trkpt>
      <trkpt lat="44.44514" lon="2.49998">
        <ele>469.6</ele>
        <time>2013-08-04T08:49:23Z</time>
      </trkpt>
      <trkpt lat="44.4452" lon="2.49992">
        <ele>469.5</ele>
        <time>2013-08-04T08:49:24Z</time>
      </trkpt>
      <trkpt lat="44.44526" lon="2.49986">
        <ele>468.9</ele>
        <time>2013-08-04T08:49:25Z</time>
      </trkpt>
      <trkpt lat="44.44532" lon="2.4998">
        <ele>468.4</ele>
        <time>2013-08-04T08:49:26Z</time>
      </trkpt>
      <trkpt lat="44.44539" lon="2.49975">
        <ele>468.1</ele>
        <time>2013-08-04T08:49:27Z</time>
      </trkpt>
      <trkpt lat="44.44545" lon="2.4997">
        <ele>467.3</ele>
        <time>2013-08-04T08:49:28Z</time>
      </trkpt>
      <trkpt lat="44.44552" lon="2.49966">
        <ele>466.8</ele>
        <time>2013-08-04T08:49:29Z</time>
      </trkpt>
      <trkpt lat="44.44559" lon="2.49965">
        <ele>466.3</ele>
        <time>2013-08-04T08:49:30Z</time>
      </trkpt>
      <trkpt lat="44.44566" lon="2.49965">
        <ele>466</ele>
        <time>2013-08-04T08:49:31Z</time>
      </trkpt>
      <trkpt lat="44.44572" lon="2.49966">
        <ele>466</ele>
        <time>2013-08-04T08:49:32Z</time>
      </trkpt>
      <trkpt lat="44.44578" lon="2.4997">
        <ele>466</ele>
        <time>2013-08-04T08:49:33Z</time>
      </trkpt>
      <trkpt lat="44.44583" lon="2.49974">
        <ele>466</ele>
        <time>2013-08-04T08:49:34Z</time>
      </trkpt>
      <trkpt lat="44.44589" lon="2.4998">
        <ele>465.5</ele>
        <time>2013-08-04T08:49:35Z</time>
      </trkpt>
      <trkpt lat="44.44595" lon="2.49986">
        <ele>465.1</ele>
        <time>2013-08-04T08:49:36Z</time>
      </trkpt>
      <trkpt lat="44.44602" lon="2.49992">
        <ele>464.8</ele>
        <time>2013-08-04T08:49:37Z</time>
      </trkpt>
      <trkpt lat="44.44608" lon="2.49999">
        <ele>464.2</ele>
        <time>2013-08-04T08:49:38Z</time>
      </trkpt>
      <trkpt lat="44.44613" lon="2.50006">
        <ele>463.8</ele>
        <time>2013-08-04T08:49:39Z</time>
      </trkpt>
      <trkpt lat="44.44619" lon="2.50011">
        <ele>463.5</ele>
        <time>2013-08-04T08:49:40Z</time>
      </trkpt>
      <trkpt lat="44.44625" lon="2.50017">
        <ele>463.2</ele>
        <time>2013-08-04T08:49:41Z</time>
      </trkpt>
      <trkpt lat="44.44632" lon="2.50024">
        <ele>463.1</ele>
        <time>2013-08-04T08:49:42Z</time>
      </trkpt>
      <trkpt lat="44.44638" lon="2.50029">
        <ele>462.9</ele>
        <time>2013-08-04T08:49:43Z</time>
      </trkpt>
      <trkpt lat="44.44645" lon="2.50034">
        <ele>462.9</ele>
        <time>2013-08-04T08:49:44Z</time>
      </trkpt>
      <trkpt lat="44.44652" lon="2.50038">
        <ele>462.8</ele>
        <time>2013-08-04T08:49:45Z</time>
      </trkpt>
      <trkpt lat="44.44659" lon="2.5004">
        <ele>462.8</ele>
        <time>2013-08-04T08:49:46Z</time>
      </trkpt>
      <trkpt lat="44.44666" lon="2.50043">
        <ele>462.7</ele>
        <time>2013-08-04T08:49:47Z</time>
      </trkpt>
      <trkpt lat="44.44673" lon="2.50046">
        <ele>462.6</ele>
        <time>2013-08-04T08:49:48Z</time>
      </trkpt>
      <trkpt lat="44.44681" lon="2.50048">
        <ele>462.5</ele>
        <time>2013-08-04T08:49:49Z</time>
      </trkpt>
      <trkpt lat="44.44688" lon="2.50051">
        <ele>462.4</ele>
        <time>2013-08-04T08:49:50Z</time>
      </trkpt>
      <trkpt lat="44.44695" lon="2.50053">
        <ele>461.3</ele>
        <time>2013-08-04T08:49:51Z</time>
      </trkpt>
      <trkpt lat="44.44702" lon="2.50056">
        <ele>460.6</ele>
        <time>2013-08-04T08:49:52Z</time>
      </trkpt>
      <trkpt lat="44.44709" lon="2.5006">
        <ele>460</ele>
        <time>2013-08-04T08:49:53Z</time>
      </trkpt>
      <trkpt lat="44.44716" lon="2.50063">
        <ele>459.4</ele>
        <time>2013-08-04T08:49:54Z</time>
      </trkpt>
      <trkpt lat="44.44722" lon="2.50067">
        <ele>459</ele>
        <time>2013-08-04T08:49:55Z</time>
      </trkpt>
      <trkpt lat="44.44729" lon="2.50071">
        <ele>458.7</ele>
        <time>2013-08-04T08:49:56Z</time>
      </trkpt>
      <trkpt lat="44.44736" lon="2.50076">
        <ele>458.4</ele>
        <time>2013-08-04T08:49:57Z</time>
      </trkpt>
      <trkpt lat="44.44742" lon="2.5008">
        <ele>458.2</ele>
        <time>2013-08-04T08:49:58Z</time>
      </trkpt>
      <trkpt lat="44.44748" lon="2.50085">
        <ele>458</ele>
        <time>2013-08-04T08:49:59Z</time>
      </trkpt>
      <trkpt lat="44.44754" lon="2.5009">
        <ele>457.6</ele>
        <time>2013-08-04T08:50:00Z</time>
      </trkpt>
      <trkpt lat="44.4476" lon="2.50095">
        <ele>457.4</ele>
        <time>2013-08-04T08:50:01Z</time>
      </trkpt>
      <trkpt lat="44.44766" lon="2.501">
        <ele>457.2</ele>
        <time>2013-08-04T08:50:02Z</time>
      </trkpt>
      <trkpt lat="44.44772" lon="2.50105">
        <ele>456.8</ele>
        <time>2013-08-04T08:50:03Z</time>
      </trkpt>
      <trkpt lat="44.44777" lon="2.5011">
        <ele>456.6</ele>
        <time>2013-08-04T08:50:04Z</time>
      </trkpt>
      <trkpt lat="44.44783" lon="2.50116">
        <ele>456.4</ele>
        <time>2013-08-04T08:50:05Z</time>
      </trkpt>
      <trkpt lat="44.44789" lon="2.5012">
        <ele>456.3</ele>
        <time>2013-08-04T08:50:06Z</time>
      </trkpt>
      <trkpt lat="44.44794" lon="2.50125">
        <ele>456.1</ele>
        <time>2013-08-04T08:50:07Z</time>
      </trkpt>
      <trkpt lat="44.44799" lon="2.50129">
        <ele>456.1</ele>
        <time>2013-08-04T08:50:08Z</time>
      </trkpt>
      <trkpt lat="44.44803" lon="2.50133">
        <ele>456</ele>
        <time>2013-08-04T08:50:09Z</time>
      </trkpt>
      <trkpt lat="44.44808" lon="2.50137">
        <ele>456.2</ele>
        <time>2013-08-04T08:50:10Z</time>
      </trkpt>
      <trkpt lat="44.44813" lon="2.5014">
        <ele>456.4</ele>
        <time>2013-08-04T08:50:11Z</time>
      </trkpt>
      <trkpt lat="44.44818" lon="2.50144">
        <ele>456.6</ele>
        <time>2013-08-04T08:50:12Z</time>
      </trkpt>
      <trkpt lat="44.44822" lon="2.50148">
        <ele>456.3</ele>
        <time>2013-08-04T08:50:13Z</time>
      </trkpt>
      <trkpt lat="44.44827" lon="2.50152">
        <ele>456</ele>
        <time>2013-08-04T08:50:14Z</time>
      </trkpt>
      <trkpt lat="44.44833" lon="2.50155">
        <ele>455.8</ele>
        <time>2013-08-04T08:50:15Z</time>
      </trkpt>
      <trkpt lat="44.44838" lon="2.50159">
        <ele>455.8</ele>
        <time>2013-08-04T08:50:16Z</time>
      </trkpt>
      <trkpt lat="44.44843" lon="2.50162">
        <ele>455.8</ele>
        <time>2013-08-04T08:50:17Z</time>
      </trkpt>
      <trkpt lat="44.44848" lon="2.50164">
        <ele>455.7</ele>
        <time>2013-08-04T08:50:18Z</time>
      </trkpt>
      <trkpt lat="44.44853" lon="2.50166">
        <ele>456.2</ele>
        <time>2013-08-04T08:50:19Z</time>
      </trkpt>
      <trkpt lat="44.44859" lon="2.50168">
        <ele>456.5</ele>
        <time>2013-08-04T08:50:20Z</time>
      </trkpt>
      <trkpt lat="44.44864" lon="2.50169">
        <ele>456.8</ele>
        <time>2013-08-04T08:50:21Z</time>
      </trkpt>
      <trkpt lat="44.44869" lon="2.5017">
        <ele>457</ele>
        <time>2013-08-04T08:50:22Z</time>
      </trkpt>
      <trkpt lat="44.44874" lon="2.50171">
        <ele>457.1</ele>
        <time>2013-08-04T08:50:23Z</time>
      </trkpt>
      <trkpt lat="44.44879" lon="2.50171">
        <ele>457.2</ele>
        <time>2013-08-04T08:50:24Z</time>
      </trkpt>
      <trkpt lat="44.44887" lon="2.50173">
        <ele>457.5</ele>
        <time>2013-08-04T08:50:26Z</time>
      </trkpt>
      <trkpt lat="44.44896" lon="2.50175">
        <ele>457.8</ele>
        <time>2013-08-04T08:50:28Z</time>
      </trkpt>
      <trkpt lat="44.44904" lon="2.50177">
        <ele>457.8</ele>
        <time>2013-08-04T08:50:30Z</time>
      </trkpt>
      <trkpt lat="44.44909" lon="2.50179">
        <ele>457.9</ele>
        <time>2013-08-04T08:50:31Z</time>
      </trkpt>
      <trkpt lat="44.44913" lon="2.5018">
        <ele>458.2</ele>
        <time>2013-08-04T08:50:32Z</time>
      </trkpt>
      <trkpt lat="44.44922" lon="2.50182">
        <ele>458.7</ele>
        <time>2013-08-04T08:50:34Z</time>
      </trkpt>
      <trkpt lat="44.44929" lon="2.50183">
        <ele>458.3</ele>
        <time>2013-08-04T08:50:36Z</time>
      </trkpt>
      <trkpt lat="44.44937" lon="2.50184">
        <ele>458.1</ele>
        <time>2013-08-04T08:50:38Z</time>
      </trkpt>
      <trkpt lat="44.44945" lon="2.50185">
        <ele>458</ele>
        <time>2013-08-04T08:50:40Z</time>
      </trkpt>
      <trkpt lat="44.44953" lon="2.50186">
        <ele>458.5</ele>
        <time>2013-08-04T08:50:42Z</time>
      </trkpt>
      <trkpt lat="44.44962" lon="2.50186">
        <ele>459</ele>
        <time>2013-08-04T08:50:44Z</time>
      </trkpt>
      <trkpt lat="44.4497" lon="2.50183">
        <ele>459</ele>
        <time>2013-08-04T08:50:46Z</time>
      </trkpt>
      <trkpt lat="44.44977" lon="2.50175">
        <ele>459.2</ele>
        <time>2013-08-04T08:50:48Z</time>
      </trkpt>
      <trkpt lat="44.4498" lon="2.5017">
        <ele>459.3</ele>
        <time>2013-08-04T08:50:49Z</time>
      </trkpt>
      <trkpt lat="44.44984" lon="2.5016">
        <ele>459.7</ele>
        <time>2013-08-04T08:50:51Z</time>
      </trkpt>
      <trkpt lat="44.44987" lon="2.50149">
        <ele>460.2</ele>
        <time>2013-08-04T08:50:53Z</time>
      </trkpt>
      <trkpt lat="44.44989" lon="2.50138">
        <ele>460.8</ele>
        <time>2013-08-04T08:50:55Z</time>
      </trkpt>
      <trkpt lat="44.4499" lon="2.50128">
        <ele>461.3</ele>
        <time>2013-08-04T08:50:57Z</time>
      </trkpt>
      <trkpt lat="44.44991" lon="2.50119">
        <ele>461</ele>
        <time>2013-08-04T08:50:59Z</time>
      </trkpt>
      <trkpt lat="44.44992" lon="2.50109">
        <ele>461.9</ele>
        <time>2013-08-04T08:51:01Z</time>
      </trkpt>
      <trkpt lat="44.44992" lon="2.50104">
        <ele>462.7</ele>
        <time>2013-08-04T08:51:02Z</time>
      </trkpt>
      <trkpt lat="44.44993" lon="2.50089">
        <ele>463.5</ele>
        <time>2013-08-04T08:51:05Z</time>
      </trkpt>
      <trkpt lat="44.44993" lon="2.50078">
        <ele>463.7</ele>
        <time>2013-08-04T08:51:07Z</time>
      </trkpt>
      <trkpt lat="44.44994" lon="2.50069">
        <ele>463.7</ele>
        <time>2013-08-04T08:51:09Z</time>
      </trkpt>
      <trkpt lat="44.44995" lon="2.5006">
        <ele>463.8</ele>
        <time>2013-08-04T08:51:11Z</time>
      </trkpt>
      <trkpt lat="44.44994" lon="2.5005">
        <ele>463.9</ele>
        <time>2013-08-04T08:51:13Z</time>
      </trkpt>
      <trkpt lat="44.44994" lon="2.50039">
        <ele>464.9</ele>
        <time>2013-08-04T08:51:15Z</time>
      </trkpt>
      <trkpt lat="44.44994" lon="2.50029">
        <ele>465.6</ele>
        <time>2013-08-04T08:51:17Z</time>
      </trkpt>
      <trkpt lat="44.44993" lon="2.50019">
        <ele>466</ele>
        <time>2013-08-04T08:51:19Z</time>
      </trkpt>
      <trkpt lat="44.44993" lon="2.50009">
        <ele>465.9</ele>
        <time>2013-08-04T08:51:21Z</time>
      </trkpt>
      <trkpt lat="44.44993" lon="2.49998">
        <ele>465.8</ele>
        <time>2013-08-04T08:51:23Z</time>
      </trkpt>
      <trkpt lat="44.44993" lon="2.49986">
        <ele>465.7</ele>
        <time>2013-08-04T08:51:25Z</time>
      </trkpt>
      <trkpt lat="44.44994" lon="2.49974">
        <ele>465.7</ele>
        <time>2013-08-04T08:51:27Z</time>
      </trkpt>
      <trkpt lat="44.44994" lon="2.49962">
        <ele>465.8</ele>
        <time>2013-08-04T08:51:29Z</time>
      </trkpt>
      <trkpt lat="44.44995" lon="2.4995">
        <ele>466.2</ele>
        <time>2013-08-04T08:51:31Z</time>
      </trkpt>
      <trkpt lat="44.44995" lon="2.49937">
        <ele>466.1</ele>
        <time>2013-08-04T08:51:33Z</time>
      </trkpt>
      <trkpt lat="44.44996" lon="2.49925">
        <ele>465.8</ele>
        <time>2013-08-04T08:51:35Z</time>
      </trkpt>
      <trkpt lat="44.44996" lon="2.49914">
        <ele>466</ele>
        <time>2013-08-04T08:51:37Z</time>
      </trkpt>
      <trkpt lat="44.44994" lon="2.49901">
        <ele>465.9</ele>
        <time>2013-08-04T08:51:39Z</time>
      </trkpt>
      <trkpt lat="44.44993" lon="2.49895">
        <ele>465.8</ele>
        <time>2013-08-04T08:51:40Z</time>
      </trkpt>
      <trkpt lat="44.44992" lon="2.49888">
        <ele>465.7</ele>
        <time>2013-08-04T08:51:41Z</time>
      </trkpt>
      <trkpt lat="44.44991" lon="2.49882">
        <ele>465.8</ele>
        <time>2013-08-04T08:51:42Z</time>
      </trkpt>
      <trkpt lat="44.44991" lon="2.49875">
        <ele>465.9</ele>
        <time>2013-08-04T08:51:43Z</time>
      </trkpt>
      <trkpt lat="44.44991" lon="2.49867">
        <ele>466</ele>
        <time>2013-08-04T08:51:44Z</time>
      </trkpt>
      <trkpt lat="44.44991" lon="2.4986">
        <ele>466</ele>
        <time>2013-08-04T08:51:45Z</time>
      </trkpt>
      <trkpt lat="44.44991" lon="2.49852">
        <ele>465.6</ele>
        <time>2013-08-04T08:51:46Z</time>
      </trkpt>
      <trkpt lat="44.44991" lon="2.49844">
        <ele>465.3</ele>
        <time>2013-08-04T08:51:47Z</time>
      </trkpt>
      <trkpt lat="44.44991" lon="2.49836">
        <ele>465</ele>
        <time>2013-08-04T08:51:48Z</time>
      </trkpt>
      <trkpt lat="44.44992" lon="2.49828">
        <ele>464.6</ele>
        <time>2013-08-04T08:51:49Z</time>
      </trkpt>
      <trkpt lat="44.44991" lon="2.49818">
        <ele>464.4</ele>
        <time>2013-08-04T08:51:50Z</time>
      </trkpt>
      <trkpt lat="44.44991" lon="2.4981">
        <ele>464.1</ele>
        <time>2013-08-04T08:51:51Z</time>
      </trkpt>
      <trkpt lat="44.44991" lon="2.49802">
        <ele>463.5</ele>
        <time>2013-08-04T08:51:52Z</time>
      </trkpt>
      <trkpt lat="44.44989" lon="2.4975">
        <ele>463.2</ele>
        <time>2013-08-04T08:51:58Z</time>
      </trkpt>
      <trkpt lat="44.44988" lon="2.49742">
        <ele>462.9</ele>
        <time>2013-08-04T08:51:59Z</time>
      </trkpt>
      <trkpt lat="44.44987" lon="2.49734">
        <ele>462.7</ele>
        <time>2013-08-04T08:52:00Z</time>
      </trkpt>
      <trkpt lat="44.44986" lon="2.49727">
        <ele>462.5</ele>
        <time>2013-08-04T08:52:01Z</time>
      </trkpt>
      <trkpt lat="44.44985" lon="2.49719">
        <ele>462.1</ele>
        <time>2013-08-04T08:52:02Z</time>
      </trkpt>
      <trkpt lat="44.44983" lon="2.49712">
        <ele>461.7</ele>
        <time>2013-08-04T08:52:03Z</time>
      </trkpt>
      <trkpt lat="44.44981" lon="2.49703">
        <ele>460.6</ele>
        <time>2013-08-04T08:52:06Z</time>
      </trkpt>
      <trkpt lat="44.44981" lon="2.49696">
        <ele>460.4</ele>
        <time>2013-08-04T08:52:07Z</time>
      </trkpt>
      <trkpt lat="44.4498" lon="2.49689">
        <ele>460.3</ele>
        <time>2013-08-04T08:52:08Z</time>
      </trkpt>
      <trkpt lat="44.4498" lon="2.49677">
        <ele>460.1</ele>
        <time>2013-08-04T08:52:10Z</time>
      </trkpt>
      <trkpt lat="44.44979" lon="2.49667">
        <ele>460.7</ele>
        <time>2013-08-04T08:52:12Z</time>
      </trkpt>
      <trkpt lat="44.44979" lon="2.49655">
        <ele>461.4</ele>
        <time>2013-08-04T08:52:14Z</time>
      </trkpt>
      <trkpt lat="44.44979" lon="2.49649">
        <ele>461.8</ele>
        <time>2013-08-04T08:52:15Z</time>
      </trkpt>
      <trkpt lat="44.44979" lon="2.49641">
        <ele>462.2</ele>
        <time>2013-08-04T08:52:16Z</time>
      </trkpt>
      <trkpt lat="44.44979" lon="2.49634">
        <ele>462.4</ele>
        <time>2013-08-04T08:52:17Z</time>
      </trkpt>
      <trkpt lat="44.4498" lon="2.49627">
        <ele>462.2</ele>
        <time>2013-08-04T08:52:18Z</time>
      </trkpt>
      <trkpt lat="44.4498" lon="2.4962">
        <ele>462</ele>
        <time>2013-08-04T08:52:19Z</time>
      </trkpt>
      <trkpt lat="44.4498" lon="2.49613">
        <ele>461.9</ele>
        <time>2013-08-04T08:52:20Z</time>
      </trkpt>
      <trkpt lat="44.44981" lon="2.49606">
        <ele>462.1</ele>
        <time>2013-08-04T08:52:21Z</time>
      </trkpt>
      <trkpt lat="44.44981" lon="2.49594">
        <ele>462.3</ele>
        <time>2013-08-04T08:52:23Z</time>
      </trkpt>
      <trkpt lat="44.44981" lon="2.49585">
        <ele>463.7</ele>
        <time>2013-08-04T08:52:25Z</time>
      </trkpt>
      <trkpt lat="44.44981" lon="2.49579">
        <ele>464.2</ele>
        <time>2013-08-04T08:52:26Z</time>
      </trkpt>
      <trkpt lat="44.44982" lon="2.49567">
        <ele>464.6</ele>
        <time>2013-08-04T08:52:28Z</time>
      </trkpt>
      <trkpt lat="44.44976" lon="2.49559">
        <ele>465.4</ele>
        <time>2013-08-04T08:52:32Z</time>
      </trkpt>
      <trkpt lat="44.44971" lon="2.49553">
        <ele>465.9</ele>
        <time>2013-08-04T08:52:34Z</time>
      </trkpt>
      <trkpt lat="44.4497" lon="2.49543">
        <ele>466.2</ele>
        <time>2013-08-04T08:52:36Z</time>
      </trkpt>
      <trkpt lat="44.44971" lon="2.49532">
        <ele>466.4</ele>
        <time>2013-08-04T08:52:38Z</time>
      </trkpt>
      <trkpt lat="44.44971" lon="2.49523">
        <ele>466.9</ele>
        <time>2013-08-04T08:52:40Z</time>
      </trkpt>
      <trkpt lat="44.44972" lon="2.49512">
        <ele>467.8</ele>
        <time>2013-08-04T08:52:43Z</time>
      </trkpt>
      <trkpt lat="44.44975" lon="2.495">
        <ele>468.9</ele>
        <time>2013-08-04T08:52:46Z</time>
      </trkpt>
      <trkpt lat="44.44977" lon="2.49489">
        <ele>469.9</ele>
        <time>2013-08-04T08:52:49Z</time>
      </trkpt>
      <trkpt lat="44.44971" lon="2.49481">
        <ele>471.8</ele>
        <time>2013-08-04T08:52:56Z</time>
      </trkpt>
      <trkpt lat="44.44963" lon="2.49476">
        <ele>473.1</ele>
        <time>2013-08-04T08:53:00Z</time>
      </trkpt>
      <trkpt lat="44.44958" lon="2.49467">
        <ele>472.9</ele>
        <time>2013-08-04T08:53:03Z</time>
      </trkpt>
      <trkpt lat="44.44955" lon="2.49467">
        <ele>472.8</ele>
        <time>2013-08-04T08:53:04Z</time>
      </trkpt>
      <trkpt lat="44.44945" lon="2.49471">
        <ele>472.2</ele>
        <time>2013-08-04T08:53:06Z</time>
      </trkpt>
      <trkpt lat="44.44939" lon="2.49472">
        <ele>472</ele>
        <time>2013-08-04T08:53:07Z</time>
      </trkpt>
      <trkpt lat="44.44933" lon="2.49471">
        <ele>471.8</ele>
        <time>2013-08-04T08:53:08Z</time>
      </trkpt>
      <trkpt lat="44.44927" lon="2.49468">
        <ele>471.8</ele>
        <time>2013-08-04T08:53:09Z</time>
      </trkpt>
      <trkpt lat="44.44921" lon="2.49465">
        <ele>471.8</ele>
        <time>2013-08-04T08:53:10Z</time>
      </trkpt>
      <trkpt lat="44.44915" lon="2.49461">
        <ele>471.8</ele>
        <time>2013-08-04T08:53:11Z</time>
      </trkpt>
      <trkpt lat="44.44909" lon="2.49457">
        <ele>471.3</ele>
        <time>2013-08-04T08:53:12Z</time>
      </trkpt>
      <trkpt lat="44.44904" lon="2.49451">
        <ele>470.9</ele>
        <time>2013-08-04T08:53:13Z</time>
      </trkpt>
      <trkpt lat="44.44899" lon="2.49443">
        <ele>470.6</ele>
        <time>2013-08-04T08:53:14Z</time>
      </trkpt>
      <trkpt lat="44.44895" lon="2.49435">
        <ele>470</ele>
        <time>2013-08-04T08:53:15Z</time>
      </trkpt>
      <trkpt lat="44.44893" lon="2.49425">
        <ele>469.6</ele>
        <time>2013-08-04T08:53:16Z</time>
      </trkpt>
      <trkpt lat="44.4489" lon="2.49415">
        <ele>469.3</ele>
        <time>2013-08-04T08:53:17Z</time>
      </trkpt>
      <trkpt lat="44.44887" lon="2.49404">
        <ele>468.9</ele>
        <time>2013-08-04T08:53:18Z</time>
      </trkpt>
      <trkpt lat="44.44885" lon="2.49393">
        <ele>468.5</ele>
        <time>2013-08-04T08:53:19Z</time>
      </trkpt>
      <trkpt lat="44.44883" lon="2.49382">
        <ele>468.3</ele>
        <time>2013-08-04T08:53:20Z</time>
      </trkpt>
      <trkpt lat="44.44881" lon="2.49371">
        <ele>467.5</ele>
        <time>2013-08-04T08:53:21Z</time>
      </trkpt>
      <trkpt lat="44.44879" lon="2.4936">
        <ele>466.9</ele>
        <time>2013-08-04T08:53:22Z</time>
      </trkpt>
      <trkpt lat="44.44879" lon="2.49349">
        <ele>466.5</ele>
        <time>2013-08-04T08:53:23Z</time>
      </trkpt>
      <trkpt lat="44.44879" lon="2.49337">
        <ele>466.1</ele>
        <time>2013-08-04T08:53:24Z</time>
      </trkpt>
      <trkpt lat="44.44881" lon="2.49327">
        <ele>465.4</ele>
        <time>2013-08-04T08:53:25Z</time>
      </trkpt>
      <trkpt lat="44.44883" lon="2.49318">
        <ele>464.8</ele>
        <time>2013-08-04T08:53:26Z</time>
      </trkpt>
      <trkpt lat="44.44886" lon="2.4931">
        <ele>464.4</ele>
        <time>2013-08-04T08:53:27Z</time>
      </trkpt>
      <trkpt lat="44.44888" lon="2.49303">
        <ele>463.4</ele>
        <time>2013-08-04T08:53:28Z</time>
      </trkpt>
      <trkpt lat="44.44889" lon="2.49292">
        <ele>462</ele>
        <time>2013-08-04T08:53:30Z</time>
      </trkpt>
      <trkpt lat="44.44882" lon="2.49293">
        <ele>459.5</ele>
        <time>2013-08-04T08:53:35Z</time>
      </trkpt>
      <trkpt lat="44.44878" lon="2.493">
        <ele>458.2</ele>
        <time>2013-08-04T08:53:37Z</time>
      </trkpt>
      <trkpt lat="44.44873" lon="2.49307">
        <ele>457.2</ele>
        <time>2013-08-04T08:53:39Z</time>
      </trkpt>
      <trkpt lat="44.44868" lon="2.49313">
        <ele>456.8</ele>
        <time>2013-08-04T08:53:41Z</time>
      </trkpt>
      <trkpt lat="44.44862" lon="2.49322">
        <ele>456.8</ele>
        <time>2013-08-04T08:53:43Z</time>
      </trkpt>
      <trkpt lat="44.44859" lon="2.49327">
        <ele>456.4</ele>
        <time>2013-08-04T08:53:44Z</time>
      </trkpt>
      <trkpt lat="44.44856" lon="2.49334">
        <ele>456.1</ele>
        <time>2013-08-04T08:53:45Z</time>
      </trkpt>
      <trkpt lat="44.44854" lon="2.49342">
        <ele>455.9</ele>
        <time>2013-08-04T08:53:46Z</time>
      </trkpt>
      <trkpt lat="44.44852" lon="2.49351">
        <ele>455.3</ele>
        <time>2013-08-04T08:53:47Z</time>
      </trkpt>
      <trkpt lat="44.4485" lon="2.49361">
        <ele>454.9</ele>
        <time>2013-08-04T08:53:48Z</time>
      </trkpt>
      <trkpt lat="44.44848" lon="2.4937">
        <ele>454.6</ele>
        <time>2013-08-04T08:53:49Z</time>
      </trkpt>
      <trkpt lat="44.44846" lon="2.49379">
        <ele>453.5</ele>
        <time>2013-08-04T08:53:50Z</time>
      </trkpt>
      <trkpt lat="44.44843" lon="2.49386">
        <ele>452.8</ele>
        <time>2013-08-04T08:53:51Z</time>
      </trkpt>
      <trkpt lat="44.44834" lon="2.49386">
        <ele>448.2</ele>
        <time>2013-08-04T08:53:55Z</time>
      </trkpt>
      <trkpt lat="44.44829" lon="2.49381">
        <ele>446.5</ele>
        <time>2013-08-04T08:53:57Z</time>
      </trkpt>
      <trkpt lat="44.44824" lon="2.49371">
        <ele>445.3</ele>
        <time>2013-08-04T08:53:59Z</time>
      </trkpt>
      <trkpt lat="44.44819" lon="2.49365">
        <ele>444.3</ele>
        <time>2013-08-04T08:54:01Z</time>
      </trkpt>
      <trkpt lat="44.44812" lon="2.4936">
        <ele>441.4</ele>
        <time>2013-08-04T08:54:04Z</time>
      </trkpt>
      <trkpt lat="44.4481" lon="2.49359">
        <ele>440.5</ele>
        <time>2013-08-04T08:54:05Z</time>
      </trkpt>
      <trkpt lat="44.44801" lon="2.49344">
        <ele>439</ele>
        <time>2013-08-04T08:54:09Z</time>
      </trkpt>
      <trkpt lat="44.44798" lon="2.49339">
        <ele>438.7</ele>
        <time>2013-08-04T08:54:10Z</time>
      </trkpt>
      <trkpt lat="44.44795" lon="2.49332">
        <ele>438.5</ele>
        <time>2013-08-04T08:54:11Z</time>
      </trkpt>
      <trkpt lat="44.44792" lon="2.49325">
        <ele>437.3</ele>
        <time>2013-08-04T08:54:12Z</time>
      </trkpt>
      <trkpt lat="44.44788" lon="2.49315">
        <ele>436.4</ele>
        <time>2013-08-04T08:54:13Z</time>
      </trkpt>
      <trkpt lat="44.44784" lon="2.49306">
        <ele>435.7</ele>
        <time>2013-08-04T08:54:14Z</time>
      </trkpt>
      <trkpt lat="44.44781" lon="2.49298">
        <ele>435.2</ele>
        <time>2013-08-04T08:54:15Z</time>
      </trkpt>
      <trkpt lat="44.44779" lon="2.49288">
        <ele>433.6</ele>
        <time>2013-08-04T08:54:16Z</time>
      </trkpt>
      <trkpt lat="44.44778" lon="2.49278">
        <ele>432.4</ele>
        <time>2013-08-04T08:54:17Z</time>
      </trkpt>
      <trkpt lat="44.44777" lon="2.49266">
        <ele>431.6</ele>
        <time>2013-08-04T08:54:18Z</time>
      </trkpt>
      <trkpt lat="44.44777" lon="2.49254">
        <ele>430.1</ele>
        <time>2013-08-04T08:54:19Z</time>
      </trkpt>
      <trkpt lat="44.44776" lon="2.49241">
        <ele>428.9</ele>
        <time>2013-08-04T08:54:20Z</time>
      </trkpt>
      <trkpt lat="44.44775" lon="2.49228">
        <ele>428.1</ele>
        <time>2013-08-04T08:54:21Z</time>
      </trkpt>
      <trkpt lat="44.44773" lon="2.49214">
        <ele>426.7</ele>
        <time>2013-08-04T08:54:22Z</time>
      </trkpt>
      <trkpt lat="44.44772" lon="2.49202">
        <ele>425.6</ele>
        <time>2013-08-04T08:54:23Z</time>
      </trkpt>
      <trkpt lat="44.44771" lon="2.49189">
        <ele>424.9</ele>
        <time>2013-08-04T08:54:24Z</time>
      </trkpt>
      <trkpt lat="44.44771" lon="2.49176">
        <ele>424</ele>
        <time>2013-08-04T08:54:25Z</time>
      </trkpt>
      <trkpt lat="44.4477" lon="2.49164">
        <ele>423.3</ele>
        <time>2013-08-04T08:54:26Z</time>
      </trkpt>
      <trkpt lat="44.4477" lon="2.49154">
        <ele>422.8</ele>
        <time>2013-08-04T08:54:27Z</time>
      </trkpt>
      <trkpt lat="44.44769" lon="2.49144">
        <ele>420.7</ele>
        <time>2013-08-04T08:54:28Z</time>
      </trkpt>
      <trkpt lat="44.44767" lon="2.49137">
        <ele>419.1</ele>
        <time>2013-08-04T08:54:29Z</time>
      </trkpt>
      <trkpt lat="44.44764" lon="2.49131">
        <ele>418</ele>
        <time>2013-08-04T08:54:30Z</time>
      </trkpt>
      <trkpt lat="44.44759" lon="2.49122">
        <ele>415.7</ele>
        <time>2013-08-04T08:54:32Z</time>
      </trkpt>
      <trkpt lat="44.44761" lon="2.49112">
        <ele>413.9</ele>
        <time>2013-08-04T08:54:34Z</time>
      </trkpt>
      <trkpt lat="44.44764" lon="2.49106">
        <ele>412.5</ele>
        <time>2013-08-04T08:54:35Z</time>
      </trkpt>
      <trkpt lat="44.44767" lon="2.49099">
        <ele>411.5</ele>
        <time>2013-08-04T08:54:36Z</time>
      </trkpt>
      <trkpt lat="44.44769" lon="2.49091">
        <ele>410.8</ele>
        <time>2013-08-04T08:54:37Z</time>
      </trkpt>
      <trkpt lat="44.44772" lon="2.49081">
        <ele>409.4</ele>
        <time>2013-08-04T08:54:38Z</time>
      </trkpt>
      <trkpt lat="44.44775" lon="2.49071">
        <ele>408.4</ele>
        <time>2013-08-04T08:54:39Z</time>
      </trkpt>
      <trkpt lat="44.44777" lon="2.49061">
        <ele>407.6</ele>
        <time>2013-08-04T08:54:40Z</time>
      </trkpt>
      <trkpt lat="44.4478" lon="2.49051">
        <ele>407</ele>
        <time>2013-08-04T08:54:41Z</time>
      </trkpt>
      <trkpt lat="44.44783" lon="2.49042">
        <ele>406.5</ele>
        <time>2013-08-04T08:54:42Z</time>
      </trkpt>
      <trkpt lat="44.44786" lon="2.49033">
        <ele>406.2</ele>
        <time>2013-08-04T08:54:43Z</time>
      </trkpt>
      <trkpt lat="44.44787" lon="2.49022">
        <ele>405.2</ele>
        <time>2013-08-04T08:54:45Z</time>
      </trkpt>
      <trkpt lat="44.4479" lon="2.49011">
        <ele>404.6</ele>
        <time>2013-08-04T08:54:47Z</time>
      </trkpt>
      <trkpt lat="44.4479" lon="2.49004">
        <ele>403.7</ele>
        <time>2013-08-04T08:54:48Z</time>
      </trkpt>
      <trkpt lat="44.44788" lon="2.48996">
        <ele>403</ele>
        <time>2013-08-04T08:54:49Z</time>
      </trkpt>
      <trkpt lat="44.44785" lon="2.48989">
        <ele>402.5</ele>
        <time>2013-08-04T08:54:50Z</time>
      </trkpt>
      <trkpt lat="44.44782" lon="2.48981">
        <ele>401.3</ele>
        <time>2013-08-04T08:54:51Z</time>
      </trkpt>
      <trkpt lat="44.44779" lon="2.48975">
        <ele>400.4</ele>
        <time>2013-08-04T08:54:52Z</time>
      </trkpt>
      <trkpt lat="44.44777" lon="2.48968">
        <ele>399.8</ele>
        <time>2013-08-04T08:54:53Z</time>
      </trkpt>
      <trkpt lat="44.44773" lon="2.48957">
        <ele>397.6</ele>
        <time>2013-08-04T08:54:55Z</time>
      </trkpt>
      <trkpt lat="44.44768" lon="2.4895">
        <ele>395.6</ele>
        <time>2013-08-04T08:54:57Z</time>
      </trkpt>
      <trkpt lat="44.44764" lon="2.48948">
        <ele>394.6</ele>
        <time>2013-08-04T08:54:58Z</time>
      </trkpt>
      <trkpt lat="44.44759" lon="2.48945">
        <ele>393.8</ele>
        <time>2013-08-04T08:54:59Z</time>
      </trkpt>
      <trkpt lat="44.44754" lon="2.48943">
        <ele>392.4</ele>
        <time>2013-08-04T08:55:00Z</time>
      </trkpt>
      <trkpt lat="44.44749" lon="2.48941">
        <ele>391.3</ele>
        <time>2013-08-04T08:55:01Z</time>
      </trkpt>
      <trkpt lat="44.44743" lon="2.4894">
        <ele>390.5</ele>
        <time>2013-08-04T08:55:02Z</time>
      </trkpt>
      <trkpt lat="44.44738" lon="2.48939">
        <ele>389.9</ele>
        <time>2013-08-04T08:55:03Z</time>
      </trkpt>
      <trkpt lat="44.44733" lon="2.48938">
        <ele>388.6</ele>
        <time>2013-08-04T08:55:04Z</time>
      </trkpt>
      <trkpt lat="44.44728" lon="2.48937">
        <ele>387.7</ele>
        <time>2013-08-04T08:55:05Z</time>
      </trkpt>
      <trkpt lat="44.44722" lon="2.48935">
        <ele>387</ele>
        <time>2013-08-04T08:55:06Z</time>
      </trkpt>
      <trkpt lat="44.44717" lon="2.48934">
        <ele>385.7</ele>
        <time>2013-08-04T08:55:07Z</time>
      </trkpt>
      <trkpt lat="44.44713" lon="2.48932">
        <ele>384.7</ele>
        <time>2013-08-04T08:55:08Z</time>
      </trkpt>
      <trkpt lat="44.44708" lon="2.4893">
        <ele>384</ele>
        <time>2013-08-04T08:55:09Z</time>
      </trkpt>
      <trkpt lat="44.44703" lon="2.48928">
        <ele>382.5</ele>
        <time>2013-08-04T08:55:10Z</time>
      </trkpt>
      <trkpt lat="44.44695" lon="2.48927">
        <ele>380.7</ele>
        <time>2013-08-04T08:55:12Z</time>
      </trkpt>
      <trkpt lat="44.44686" lon="2.4893">
        <ele>377.9</ele>
        <time>2013-08-04T08:55:14Z</time>
      </trkpt>
      <trkpt lat="44.44679" lon="2.48933">
        <ele>375.7</ele>
        <time>2013-08-04T08:55:16Z</time>
      </trkpt>
      <trkpt lat="44.44672" lon="2.4894">
        <ele>372.5</ele>
        <time>2013-08-04T08:55:19Z</time>
      </trkpt>
      <trkpt lat="44.44666" lon="2.48946">
        <ele>370.5</ele>
        <time>2013-08-04T08:55:21Z</time>
      </trkpt>
      <trkpt lat="44.44663" lon="2.48948">
        <ele>369.8</ele>
        <time>2013-08-04T08:55:22Z</time>
      </trkpt>
      <trkpt lat="44.44658" lon="2.48951">
        <ele>369.3</ele>
        <time>2013-08-04T08:55:23Z</time>
      </trkpt>
      <trkpt lat="44.44652" lon="2.48954">
        <ele>369</ele>
        <time>2013-08-04T08:55:24Z</time>
      </trkpt>
      <trkpt lat="44.44648" lon="2.48958">
        <ele>368.7</ele>
        <time>2013-08-04T08:55:25Z</time>
      </trkpt>
      <trkpt lat="44.44642" lon="2.48963">
        <ele>366.2</ele>
        <time>2013-08-04T08:55:27Z</time>
      </trkpt>
      <trkpt lat="44.44637" lon="2.48967">
        <ele>364.2</ele>
        <time>2013-08-04T08:55:29Z</time>
      </trkpt>
      <trkpt lat="44.44631" lon="2.48973">
        <ele>362.7</ele>
        <time>2013-08-04T08:55:31Z</time>
      </trkpt>
      <trkpt lat="44.44628" lon="2.48977">
        <ele>361.4</ele>
        <time>2013-08-04T08:55:32Z</time>
      </trkpt>
      <trkpt lat="44.44624" lon="2.48982">
        <ele>360.4</ele>
        <time>2013-08-04T08:55:33Z</time>
      </trkpt>
      <trkpt lat="44.44619" lon="2.48986">
        <ele>359.6</ele>
        <time>2013-08-04T08:55:34Z</time>
      </trkpt>
      <trkpt lat="44.44615" lon="2.48991">
        <ele>358.2</ele>
        <time>2013-08-04T08:55:35Z</time>
      </trkpt>
      <trkpt lat="44.44609" lon="2.48984">
        <ele>354.2</ele>
        <time>2013-08-04T08:55:40Z</time>
      </trkpt>
      <trkpt lat="44.44611" lon="2.48972">
        <ele>352.6</ele>
        <time>2013-08-04T08:55:42Z</time>
      </trkpt>
      <trkpt lat="44.44613" lon="2.4896">
        <ele>351.1</ele>
        <time>2013-08-04T08:55:44Z</time>
      </trkpt>
      <trkpt lat="44.44612" lon="2.48948">
        <ele>347.6</ele>
        <time>2013-08-04T08:55:48Z</time>
      </trkpt>
      <trkpt lat="44.4461" lon="2.48938">
        <ele>346.2</ele>
        <time>2013-08-04T08:55:52Z</time>
      </trkpt>
      <trkpt lat="44.44612" lon="2.48926">
        <ele>346.1</ele>
        <time>2013-08-04T08:55:55Z</time>
      </trkpt>
      <trkpt lat="44.44613" lon="2.48916">
        <ele>345.9</ele>
        <time>2013-08-04T08:55:58Z</time>
      </trkpt>
      <trkpt lat="44.44613" lon="2.48906">
        <ele>345.3</ele>
        <time>2013-08-04T08:56:01Z</time>
      </trkpt>
      <trkpt lat="44.44613" lon="2.48894">
        <ele>344.6</ele>
        <time>2013-08-04T08:56:04Z</time>
      </trkpt>
      <trkpt lat="44.44614" lon="2.48886">
        <ele>343.9</ele>
        <time>2013-08-04T08:56:06Z</time>
      </trkpt>
      <trkpt lat="44.44614" lon="2.48881">
        <ele>343.9</ele>
        <time>2013-08-04T08:56:07Z</time>
      </trkpt>
      <trkpt lat="44.44615" lon="2.48865">
        <ele>343.8</ele>
        <time>2013-08-04T08:56:10Z</time>
      </trkpt>
      <trkpt lat="44.44615" lon="2.48854">
        <ele>343.7</ele>
        <time>2013-08-04T08:56:12Z</time>
      </trkpt>
      <trkpt lat="44.44617" lon="2.48842">
        <ele>343.2</ele>
        <time>2013-08-04T08:56:15Z</time>
      </trkpt>
      <trkpt lat="44.44618" lon="2.48834">
        <ele>342.8</ele>
        <time>2013-08-04T08:56:17Z</time>
      </trkpt>
      <trkpt lat="44.44619" lon="2.48825">
        <ele>342.5</ele>
        <time>2013-08-04T08:56:19Z</time>
      </trkpt>
      <trkpt lat="44.44621" lon="2.48813">
        <ele>342.1</ele>
        <time>2013-08-04T08:56:22Z</time>
      </trkpt>
      <trkpt lat="44.44622" lon="2.48805">
        <ele>341.9</ele>
        <time>2013-08-04T08:56:24Z</time>
      </trkpt>
      <trkpt lat="44.44625" lon="2.48796">
        <ele>341.7</ele>
        <time>2013-08-04T08:56:26Z</time>
      </trkpt>
      <trkpt lat="44.44626" lon="2.48787">
        <ele>341</ele>
        <time>2013-08-04T08:56:28Z</time>
      </trkpt>
      <trkpt lat="44.44628" lon="2.48777">
        <ele>340.6</ele>
        <time>2013-08-04T08:56:30Z</time>
      </trkpt>
      <trkpt lat="44.44629" lon="2.48768">
        <ele>340.4</ele>
        <time>2013-08-04T08:56:32Z</time>
      </trkpt>
      <trkpt lat="44.44631" lon="2.48758">
        <ele>339.4</ele>
        <time>2013-08-04T08:56:34Z</time>
      </trkpt>
      <trkpt lat="44.44634" lon="2.48747">
        <ele>339.3</ele>
        <time>2013-08-04T08:56:36Z</time>
      </trkpt>
      <trkpt lat="44.44637" lon="2.48737">
        <ele>339.7</ele>
        <time>2013-08-04T08:56:38Z</time>
      </trkpt>
      <trkpt lat="44.44639" lon="2.48727">
        <ele>339.1</ele>
        <time>2013-08-04T08:56:40Z</time>
      </trkpt>
      <trkpt lat="44.4464" lon="2.48721">
        <ele>338.9</ele>
        <time>2013-08-04T08:56:41Z</time>
      </trkpt>
      <trkpt lat="44.44642" lon="2.48714">
        <ele>338.9</ele>
        <time>2013-08-04T08:56:42Z</time>
      </trkpt>
      <trkpt lat="44.44644" lon="2.48702">
        <ele>338.9</ele>
        <time>2013-08-04T08:56:44Z</time>
      </trkpt>
      <trkpt lat="44.44645" lon="2.48695">
        <ele>338.9</ele>
        <time>2013-08-04T08:56:45Z</time>
      </trkpt>
      <trkpt lat="44.44647" lon="2.48688">
        <ele>338.6</ele>
        <time>2013-08-04T08:56:46Z</time>
      </trkpt>
      <trkpt lat="44.44649" lon="2.48682">
        <ele>338.4</ele>
        <time>2013-08-04T08:56:47Z</time>
      </trkpt>
      <trkpt lat="44.4465" lon="2.48675">
        <ele>338.3</ele>
        <time>2013-08-04T08:56:48Z</time>
      </trkpt>
      <trkpt lat="44.44651" lon="2.48668">
        <ele>338</ele>
        <time>2013-08-04T08:56:49Z</time>
      </trkpt>
      <trkpt lat="44.44653" lon="2.48661">
        <ele>337.8</ele>
        <time>2013-08-04T08:56:50Z</time>
      </trkpt>
      <trkpt lat="44.44654" lon="2.48654">
        <ele>337.7</ele>
        <time>2013-08-04T08:56:51Z</time>
      </trkpt>
      <trkpt lat="44.44656" lon="2.48646">
        <ele>337.5</ele>
        <time>2013-08-04T08:56:52Z</time>
      </trkpt>
      <trkpt lat="44.44659" lon="2.4864">
        <ele>337.4</ele>
        <time>2013-08-04T08:56:53Z</time>
      </trkpt>
      <trkpt lat="44.4466" lon="2.48633">
        <ele>337.3</ele>
        <time>2013-08-04T08:56:54Z</time>
      </trkpt>
      <trkpt lat="44.44661" lon="2.48627">
        <ele>336.8</ele>
        <time>2013-08-04T08:56:55Z</time>
      </trkpt>
      <trkpt lat="44.44663" lon="2.48621">
        <ele>336.4</ele>
        <time>2013-08-04T08:56:56Z</time>
      </trkpt>
      <trkpt lat="44.44664" lon="2.48614">
        <ele>336.1</ele>
        <time>2013-08-04T08:56:57Z</time>
      </trkpt>
      <trkpt lat="44.44665" lon="2.48606">
        <ele>336.3</ele>
        <time>2013-08-04T08:56:58Z</time>
      </trkpt>
      <trkpt lat="44.44666" lon="2.48599">
        <ele>336.5</ele>
        <time>2013-08-04T08:56:59Z</time>
      </trkpt>
      <trkpt lat="44.44668" lon="2.48591">
        <ele>336.6</ele>
        <time>2013-08-04T08:57:00Z</time>
      </trkpt>
      <trkpt lat="44.44669" lon="2.48584">
        <ele>336.7</ele>
        <time>2013-08-04T08:57:01Z</time>
      </trkpt>
      <trkpt lat="44.4467" lon="2.48576">
        <ele>336.5</ele>
        <time>2013-08-04T08:57:02Z</time>
      </trkpt>
      <trkpt lat="44.44672" lon="2.48569">
        <ele>336.3</ele>
        <time>2013-08-04T08:57:03Z</time>
      </trkpt>
      <trkpt lat="44.44673" lon="2.48562">
        <ele>336.2</ele>
        <time>2013-08-04T08:57:04Z</time>
      </trkpt>
      <trkpt lat="44.44675" lon="2.48555">
        <ele>335.7</ele>
        <time>2013-08-04T08:57:05Z</time>
      </trkpt>
      <trkpt lat="44.44676" lon="2.48549">
        <ele>335.4</ele>
        <time>2013-08-04T08:57:06Z</time>
      </trkpt>
      <trkpt lat="44.44677" lon="2.48542">
        <ele>335.1</ele>
        <time>2013-08-04T08:57:07Z</time>
      </trkpt>
      <trkpt lat="44.44677" lon="2.48535">
        <ele>334.9</ele>
        <time>2013-08-04T08:57:08Z</time>
      </trkpt>
      <trkpt lat="44.44679" lon="2.48517">
        <ele>334.5</ele>
        <time>2013-08-04T08:57:11Z</time>
      </trkpt>
      <trkpt lat="44.44679" lon="2.48511">
        <ele>334.4</ele>
        <time>2013-08-04T08:57:12Z</time>
      </trkpt>
      <trkpt lat="44.44679" lon="2.48504">
        <ele>334.2</ele>
        <time>2013-08-04T08:57:13Z</time>
      </trkpt>
      <trkpt lat="44.44679" lon="2.48498">
        <ele>334</ele>
        <time>2013-08-04T08:57:14Z</time>
      </trkpt>
      <trkpt lat="44.44679" lon="2.48491">
        <ele>333.9</ele>
        <time>2013-08-04T08:57:15Z</time>
      </trkpt>
      <trkpt lat="44.4468" lon="2.48485">
        <ele>333.7</ele>
        <time>2013-08-04T08:57:16Z</time>
      </trkpt>
      <trkpt lat="44.44679" lon="2.48473">
        <ele>333.8</ele>
        <time>2013-08-04T08:57:18Z</time>
      </trkpt>
      <trkpt lat="44.44676" lon="2.48463">
        <ele>334</ele>
        <time>2013-08-04T08:57:20Z</time>
      </trkpt>
      <trkpt lat="44.44671" lon="2.48454">
        <ele>333.9</ele>
        <time>2013-08-04T08:57:23Z</time>
      </trkpt>
      <trkpt lat="44.44665" lon="2.48446">
        <ele>333.8</ele>
        <time>2013-08-04T08:57:28Z</time>
      </trkpt>
      <trkpt lat="44.44661" lon="2.48435">
        <ele>334.7</ele>
        <time>2013-08-04T08:57:34Z</time>
      </trkpt>
      <trkpt lat="44.44654" lon="2.48428">
        <ele>336.1</ele>
        <time>2013-08-04T08:57:41Z</time>
      </trkpt>
      <trkpt lat="44.44647" lon="2.48423">
        <ele>337.2</ele>
        <time>2013-08-04T08:57:47Z</time>
      </trkpt>
      <trkpt lat="44.4464" lon="2.48421">
        <ele>338</ele>
        <time>2013-08-04T08:57:52Z</time>
      </trkpt>
      <trkpt lat="44.44631" lon="2.48419">
        <ele>339.7</ele>
        <time>2013-08-04T08:57:56Z</time>
      </trkpt>
      <trkpt lat="44.44625" lon="2.48412">
        <ele>340.9</ele>
        <time>2013-08-04T08:58:01Z</time>
      </trkpt>
      <trkpt lat="44.44621" lon="2.48402">
        <ele>342.5</ele>
        <time>2013-08-04T08:58:07Z</time>
      </trkpt>
      <trkpt lat="44.44617" lon="2.48392">
        <ele>344.6</ele>
        <time>2013-08-04T08:58:12Z</time>
      </trkpt>
      <trkpt lat="44.44616" lon="2.48391">
        <ele>345</ele>
        <time>2013-08-04T08:58:13Z</time>
      </trkpt>
      <trkpt lat="44.44608" lon="2.48372">
        <ele>348.8</ele>
        <time>2013-08-04T08:58:27Z</time>
      </trkpt>
      <trkpt lat="44.44604" lon="2.48362">
        <ele>352.1</ele>
        <time>2013-08-04T08:58:35Z</time>
      </trkpt>
      <trkpt lat="44.44603" lon="2.4835">
        <ele>353.8</ele>
        <time>2013-08-04T08:58:43Z</time>
      </trkpt>
      <trkpt lat="44.44604" lon="2.48338">
        <ele>354.9</ele>
        <time>2013-08-04T08:58:50Z</time>
      </trkpt>
      <trkpt lat="44.44605" lon="2.48326">
        <ele>357.2</ele>
        <time>2013-08-04T08:58:56Z</time>
      </trkpt>
      <trkpt lat="44.44608" lon="2.48316">
        <ele>357.3</ele>
        <time>2013-08-04T08:59:01Z</time>
      </trkpt>
      <trkpt lat="44.44609" lon="2.48304">
        <ele>359</ele>
        <time>2013-08-04T08:59:06Z</time>
      </trkpt>
      <trkpt lat="44.44607" lon="2.48293">
        <ele>359.8</ele>
        <time>2013-08-04T08:59:12Z</time>
      </trkpt>
      <trkpt lat="44.44604" lon="2.48282">
        <ele>360.3</ele>
        <time>2013-08-04T08:59:17Z</time>
      </trkpt>
      <trkpt lat="44.44603" lon="2.4828">
        <ele>360.4</ele>
        <time>2013-08-04T08:59:18Z</time>
      </trkpt>
      <trkpt lat="44.44597" lon="2.48261">
        <ele>363.1</ele>
        <time>2013-08-04T08:59:28Z</time>
      </trkpt>
      <trkpt lat="44.44595" lon="2.48251">
        <ele>364</ele>
        <time>2013-08-04T08:59:33Z</time>
      </trkpt>
      <trkpt lat="44.44593" lon="2.4824">
        <ele>365</ele>
        <time>2013-08-04T08:59:38Z</time>
      </trkpt>
      <trkpt lat="44.44593" lon="2.4823">
        <ele>366.2</ele>
        <time>2013-08-04T08:59:43Z</time>
      </trkpt>
      <trkpt lat="44.44592" lon="2.48217">
        <ele>368</ele>
        <time>2013-08-04T08:59:49Z</time>
      </trkpt>
      <trkpt lat="44.44588" lon="2.48207">
        <ele>369.5</ele>
        <time>2013-08-04T08:59:55Z</time>
      </trkpt>
      <trkpt lat="44.44585" lon="2.48197">
        <ele>371</ele>
        <time>2013-08-04T09:00:01Z</time>
      </trkpt>
      <trkpt lat="44.44581" lon="2.48186">
        <ele>372.1</ele>
        <time>2013-08-04T09:00:08Z</time>
      </trkpt>
      <trkpt lat="44.44581" lon="2.48174">
        <ele>373.9</ele>
        <time>2013-08-04T09:00:15Z</time>
      </trkpt>
      <trkpt lat="44.44577" lon="2.48163">
        <ele>375.6</ele>
        <time>2013-08-04T09:00:22Z</time>
      </trkpt>
      <trkpt lat="44.44576" lon="2.48162">
        <ele>375.6</ele>
        <time>2013-08-04T09:00:23Z</time>
      </trkpt>
      <trkpt lat="44.44571" lon="2.48141">
        <ele>377.7</ele>
        <time>2013-08-04T09:00:36Z</time>
      </trkpt>
      <trkpt lat="44.44573" lon="2.48131">
        <ele>376.9</ele>
        <time>2013-08-04T09:00:39Z</time>
      </trkpt>
      <trkpt lat="44.44573" lon="2.48123">
        <ele>376.4</ele>
        <time>2013-08-04T09:00:41Z</time>
      </trkpt>
      <trkpt lat="44.44576" lon="2.48111">
        <ele>374.5</ele>
        <time>2013-08-04T09:00:43Z</time>
      </trkpt>
      <trkpt lat="44.44578" lon="2.48105">
        <ele>373.9</ele>
        <time>2013-08-04T09:00:44Z</time>
      </trkpt>
      <trkpt lat="44.44583" lon="2.48097">
        <ele>373.5</ele>
        <time>2013-08-04T09:00:45Z</time>
      </trkpt>
      <trkpt lat="44.44588" lon="2.48089">
        <ele>373.1</ele>
        <time>2013-08-04T09:00:46Z</time>
      </trkpt>
      <trkpt lat="44.44594" lon="2.48078">
        <ele>372.9</ele>
        <time>2013-08-04T09:00:47Z</time>
      </trkpt>
      <trkpt lat="44.44601" lon="2.48068">
        <ele>372.2</ele>
        <time>2013-08-04T09:00:48Z</time>
      </trkpt>
      <trkpt lat="44.44609" lon="2.48058">
        <ele>371.7</ele>
        <time>2013-08-04T09:00:49Z</time>
      </trkpt>
      <trkpt lat="44.44616" lon="2.48045">
        <ele>371.3</ele>
        <time>2013-08-04T09:00:50Z</time>
      </trkpt>
      <trkpt lat="44.44623" lon="2.48033">
        <ele>370.4</ele>
        <time>2013-08-04T09:00:51Z</time>
      </trkpt>
      <trkpt lat="44.4463" lon="2.4802">
        <ele>369.7</ele>
        <time>2013-08-04T09:00:52Z</time>
      </trkpt>
      <trkpt lat="44.44638" lon="2.48007">
        <ele>369.2</ele>
        <time>2013-08-04T09:00:53Z</time>
      </trkpt>
      <trkpt lat="44.44646" lon="2.47993">
        <ele>368.8</ele>
        <time>2013-08-04T09:00:54Z</time>
      </trkpt>
      <trkpt lat="44.44654" lon="2.47978">
        <ele>367.4</ele>
        <time>2013-08-04T09:00:55Z</time>
      </trkpt>
      <trkpt lat="44.44661" lon="2.47963">
        <ele>366.3</ele>
        <time>2013-08-04T09:00:56Z</time>
      </trkpt>
      <trkpt lat="44.44669" lon="2.47947">
        <ele>365.6</ele>
        <time>2013-08-04T09:00:57Z</time>
      </trkpt>
      <trkpt lat="44.44676" lon="2.47931">
        <ele>364.2</ele>
        <time>2013-08-04T09:00:58Z</time>
      </trkpt>
      <trkpt lat="44.44683" lon="2.47915">
        <ele>363.2</ele>
        <time>2013-08-04T09:00:59Z</time>
      </trkpt>
      <trkpt lat="44.44689" lon="2.47901">
        <ele>362.5</ele>
        <time>2013-08-04T09:01:00Z</time>
      </trkpt>
      <trkpt lat="44.44696" lon="2.47888">
        <ele>360.8</ele>
        <time>2013-08-04T09:01:01Z</time>
      </trkpt>
      <trkpt lat="44.44702" lon="2.47878">
        <ele>359.6</ele>
        <time>2013-08-04T09:01:02Z</time>
      </trkpt>
      <trkpt lat="44.44709" lon="2.47868">
        <ele>358.7</ele>
        <time>2013-08-04T09:01:03Z</time>
      </trkpt>
      <trkpt lat="44.44716" lon="2.4786">
        <ele>356.6</ele>
        <time>2013-08-04T09:01:04Z</time>
      </trkpt>
      <trkpt lat="44.44724" lon="2.47852">
        <ele>355.1</ele>
        <time>2013-08-04T09:01:05Z</time>
      </trkpt>
      <trkpt lat="44.44732" lon="2.47842">
        <ele>353.9</ele>
        <time>2013-08-04T09:01:06Z</time>
      </trkpt>
      <trkpt lat="44.4474" lon="2.47833">
        <ele>351.9</ele>
        <time>2013-08-04T09:01:07Z</time>
      </trkpt>
      <trkpt lat="44.44748" lon="2.47823">
        <ele>350.3</ele>
        <time>2013-08-04T09:01:08Z</time>
      </trkpt>
      <trkpt lat="44.44758" lon="2.47814">
        <ele>349.2</ele>
        <time>2013-08-04T09:01:09Z</time>
      </trkpt>
      <trkpt lat="44.44768" lon="2.47805">
        <ele>348.3</ele>
        <time>2013-08-04T09:01:10Z</time>
      </trkpt>
      <trkpt lat="44.4478" lon="2.47796">
        <ele>347.2</ele>
        <time>2013-08-04T09:01:11Z</time>
      </trkpt>
      <trkpt lat="44.44793" lon="2.47787">
        <ele>346.3</ele>
        <time>2013-08-04T09:01:12Z</time>
      </trkpt>
      <trkpt lat="44.44806" lon="2.47779">
        <ele>345.6</ele>
        <time>2013-08-04T09:01:13Z</time>
      </trkpt>
      <trkpt lat="44.44815" lon="2.47773">
        <ele>343.9</ele>
        <time>2013-08-04T09:01:14Z</time>
      </trkpt>
      <trkpt lat="44.44825" lon="2.47767">
        <ele>342.5</ele>
        <time>2013-08-04T09:01:15Z</time>
      </trkpt>
      <trkpt lat="44.44835" lon="2.47762">
        <ele>341.5</ele>
        <time>2013-08-04T09:01:16Z</time>
      </trkpt>
      <trkpt lat="44.44846" lon="2.47758">
        <ele>339.8</ele>
        <time>2013-08-04T09:01:17Z</time>
      </trkpt>
      <trkpt lat="44.44856" lon="2.47756">
        <ele>338.5</ele>
        <time>2013-08-04T09:01:18Z</time>
      </trkpt>
      <trkpt lat="44.44866" lon="2.47753">
        <ele>337.6</ele>
        <time>2013-08-04T09:01:19Z</time>
      </trkpt>
      <trkpt lat="44.44875" lon="2.47748">
        <ele>335.9</ele>
        <time>2013-08-04T09:01:20Z</time>
      </trkpt>
      <trkpt lat="44.44883" lon="2.47743">
        <ele>334.7</ele>
        <time>2013-08-04T09:01:21Z</time>
      </trkpt>
      <trkpt lat="44.4489" lon="2.4774">
        <ele>333.8</ele>
        <time>2013-08-04T09:01:22Z</time>
      </trkpt>
      <trkpt lat="44.44897" lon="2.47737">
        <ele>332</ele>
        <time>2013-08-04T09:01:23Z</time>
      </trkpt>
      <trkpt lat="44.44904" lon="2.47736">
        <ele>330.7</ele>
        <time>2013-08-04T09:01:24Z</time>
      </trkpt>
      <trkpt lat="44.44909" lon="2.47735">
        <ele>329.7</ele>
        <time>2013-08-04T09:01:25Z</time>
      </trkpt>
      <trkpt lat="44.44917" lon="2.47731">
        <ele>328.4</ele>
        <time>2013-08-04T09:01:27Z</time>
      </trkpt>
      <trkpt lat="44.44923" lon="2.47722">
        <ele>325.9</ele>
        <time>2013-08-04T09:01:32Z</time>
      </trkpt>
      <trkpt lat="44.44919" lon="2.4771">
        <ele>325.7</ele>
        <time>2013-08-04T09:01:42Z</time>
      </trkpt>
      <trkpt lat="44.44918" lon="2.47698">
        <ele>325.9</ele>
        <time>2013-08-04T09:02:08Z</time>
      </trkpt>
      <trkpt lat="44.44925" lon="2.47706">
        <ele>325.3</ele>
        <time>2013-08-04T09:03:05Z</time>
      </trkpt>
      <trkpt lat="44.44925" lon="2.47707">
        <ele>325.4</ele>
        <time>2013-08-04T09:03:06Z</time>
      </trkpt>
      <trkpt lat="44.44942" lon="2.47704">
        <ele>325.6</ele>
        <time>2013-08-04T09:03:51Z</time>
      </trkpt>
      <trkpt lat="44.4495" lon="2.477">
        <ele>325.1</ele>
        <time>2013-08-04T09:03:56Z</time>
      </trkpt>
      <trkpt lat="44.44955" lon="2.47696">
        <ele>325.5</ele>
        <time>2013-08-04T09:03:58Z</time>
      </trkpt>
      <trkpt lat="44.44961" lon="2.4769">
        <ele>325.4</ele>
        <time>2013-08-04T09:04:00Z</time>
      </trkpt>
      <trkpt lat="44.44966" lon="2.47684">
        <ele>325.2</ele>
        <time>2013-08-04T09:04:02Z</time>
      </trkpt>
      <trkpt lat="44.44971" lon="2.47676">
        <ele>325</ele>
        <time>2013-08-04T09:04:04Z</time>
      </trkpt>
      <trkpt lat="44.44974" lon="2.47668">
        <ele>325</ele>
        <time>2013-08-04T09:04:06Z</time>
      </trkpt>
      <trkpt lat="44.44976" lon="2.47663">
        <ele>325</ele>
        <time>2013-08-04T09:04:07Z</time>
      </trkpt>
      <trkpt lat="44.44978" lon="2.47648">
        <ele>325.3</ele>
        <time>2013-08-04T09:04:11Z</time>
      </trkpt>
      <trkpt lat="44.4498" lon="2.47637">
        <ele>325</ele>
        <time>2013-08-04T09:04:14Z</time>
      </trkpt>
      <trkpt lat="44.44982" lon="2.47628">
        <ele>325.1</ele>
        <time>2013-08-04T09:04:17Z</time>
      </trkpt>
      <trkpt lat="44.44984" lon="2.47616">
        <ele>325.3</ele>
        <time>2013-08-04T09:04:20Z</time>
      </trkpt>
      <trkpt lat="44.44986" lon="2.47604">
        <ele>325.7</ele>
        <time>2013-08-04T09:04:23Z</time>
      </trkpt>
      <trkpt lat="44.4499" lon="2.47594">
        <ele>326.7</ele>
        <time>2013-08-04T09:04:27Z</time>
      </trkpt>
      <trkpt lat="44.44994" lon="2.47585">
        <ele>327.7</ele>
        <time>2013-08-04T09:04:31Z</time>
      </trkpt>
      <trkpt lat="44.44998" lon="2.47577">
        <ele>328</ele>
        <time>2013-08-04T09:04:34Z</time>
      </trkpt>
      <trkpt lat="44.45001" lon="2.47568">
        <ele>328.2</ele>
        <time>2013-08-04T09:04:36Z</time>
      </trkpt>
      <trkpt lat="44.45004" lon="2.4756">
        <ele>328.7</ele>
        <time>2013-08-04T09:04:38Z</time>
      </trkpt>
      <trkpt lat="44.45007" lon="2.47551">
        <ele>329.2</ele>
        <time>2013-08-04T09:04:40Z</time>
      </trkpt>
      <trkpt lat="44.45011" lon="2.47541">
        <ele>329.7</ele>
        <time>2013-08-04T09:04:43Z</time>
      </trkpt>
      <trkpt lat="44.45015" lon="2.47534">
        <ele>329.6</ele>
        <time>2013-08-04T09:04:45Z</time>
      </trkpt>
      <trkpt lat="44.45019" lon="2.47527">
        <ele>329.5</ele>
        <time>2013-08-04T09:04:47Z</time>
      </trkpt>
      <trkpt lat="44.45022" lon="2.47519">
        <ele>329.5</ele>
        <time>2013-08-04T09:04:49Z</time>
      </trkpt>
      <trkpt lat="44.45027" lon="2.4751">
        <ele>329.4</ele>
        <time>2013-08-04T09:04:52Z</time>
      </trkpt>
      <trkpt lat="44.45032" lon="2.47502">
        <ele>329.2</ele>
        <time>2013-08-04T09:04:54Z</time>
      </trkpt>
      <trkpt lat="44.45035" lon="2.47492">
        <ele>328.9</ele>
        <time>2013-08-04T09:04:56Z</time>
      </trkpt>
      <trkpt lat="44.45037" lon="2.47487">
        <ele>329</ele>
        <time>2013-08-04T09:04:57Z</time>
      </trkpt>
      <trkpt lat="44.45039" lon="2.4748">
        <ele>329</ele>
        <time>2013-08-04T09:04:58Z</time>
      </trkpt>
      <trkpt lat="44.45042" lon="2.47473">
        <ele>329</ele>
        <time>2013-08-04T09:04:59Z</time>
      </trkpt>
      <trkpt lat="44.45045" lon="2.47467">
        <ele>328.8</ele>
        <time>2013-08-04T09:05:00Z</time>
      </trkpt>
      <trkpt lat="44.45049" lon="2.4746">
        <ele>328.6</ele>
        <time>2013-08-04T09:05:01Z</time>
      </trkpt>
      <trkpt lat="44.45054" lon="2.47453">
        <ele>328.5</ele>
        <time>2013-08-04T09:05:02Z</time>
      </trkpt>
      <trkpt lat="44.45058" lon="2.47445">
        <ele>328.4</ele>
        <time>2013-08-04T09:05:03Z</time>
      </trkpt>
      <trkpt lat="44.45064" lon="2.47437">
        <ele>328.5</ele>
        <time>2013-08-04T09:05:04Z</time>
      </trkpt>
      <trkpt lat="44.45069" lon="2.4743">
        <ele>328.5</ele>
        <time>2013-08-04T09:05:05Z</time>
      </trkpt>
      <trkpt lat="44.45074" lon="2.47422">
        <ele>328.6</ele>
        <time>2013-08-04T09:05:06Z</time>
      </trkpt>
      <trkpt lat="44.4508" lon="2.47412">
        <ele>328</ele>
        <time>2013-08-04T09:05:07Z</time>
      </trkpt>
      <trkpt lat="44.45085" lon="2.47402">
        <ele>327.5</ele>
        <time>2013-08-04T09:05:08Z</time>
      </trkpt>
      <trkpt lat="44.4509" lon="2.47391">
        <ele>327.2</ele>
        <time>2013-08-04T09:05:09Z</time>
      </trkpt>
      <trkpt lat="44.45095" lon="2.47382">
        <ele>326.4</ele>
        <time>2013-08-04T09:05:10Z</time>
      </trkpt>
      <trkpt lat="44.45101" lon="2.47376">
        <ele>325.9</ele>
        <time>2013-08-04T09:05:11Z</time>
      </trkpt>
      <trkpt lat="44.45107" lon="2.47368">
        <ele>325.4</ele>
        <time>2013-08-04T09:05:12Z</time>
      </trkpt>
      <trkpt lat="44.45114" lon="2.47361">
        <ele>324.8</ele>
        <time>2013-08-04T09:05:13Z</time>
      </trkpt>
      <trkpt lat="44.45122" lon="2.47354">
        <ele>324.3</ele>
        <time>2013-08-04T09:05:14Z</time>
      </trkpt>
      <trkpt lat="44.45128" lon="2.47349">
        <ele>324</ele>
        <time>2013-08-04T09:05:15Z</time>
      </trkpt>
      <trkpt lat="44.45135" lon="2.47344">
        <ele>323.7</ele>
        <time>2013-08-04T09:05:16Z</time>
      </trkpt>
      <trkpt lat="44.45141" lon="2.47339">
        <ele>323.5</ele>
        <time>2013-08-04T09:05:17Z</time>
      </trkpt>
      <trkpt lat="44.45146" lon="2.47335">
        <ele>323.3</ele>
        <time>2013-08-04T09:05:18Z</time>
      </trkpt>
      <trkpt lat="44.45151" lon="2.4733">
        <ele>322.9</ele>
        <time>2013-08-04T09:05:20Z</time>
      </trkpt>
      <trkpt lat="44.45158" lon="2.47325">
        <ele>322.2</ele>
        <time>2013-08-04T09:05:23Z</time>
      </trkpt>
      <trkpt lat="44.45164" lon="2.4732">
        <ele>321.9</ele>
        <time>2013-08-04T09:05:26Z</time>
      </trkpt>
      <trkpt lat="44.45172" lon="2.47317">
        <ele>322.3</ele>
        <time>2013-08-04T09:05:32Z</time>
      </trkpt>
      <trkpt lat="44.4518" lon="2.4731">
        <ele>321.2</ele>
        <time>2013-08-04T09:06:12Z</time>
      </trkpt>
      <trkpt lat="44.4518" lon="2.47309">
        <ele>321.3</ele>
        <time>2013-08-04T09:06:13Z</time>
      </trkpt>
      <trkpt lat="44.45181" lon="2.47297">
        <ele>320.6</ele>
        <time>2013-08-04T09:07:54Z</time>
      </trkpt>
      <trkpt lat="44.4519" lon="2.47292">
        <ele>321.6</ele>
        <time>2013-08-04T09:09:14Z</time>
      </trkpt>
      <trkpt lat="44.45182" lon="2.47301">
        <ele>321</ele>
        <time>2013-08-04T09:10:41Z</time>
      </trkpt>
      <trkpt lat="44.45184" lon="2.47299">
        <ele>321.8</ele>
        <time>2013-08-04T09:11:58Z</time>
      </trkpt>
      <trkpt lat="44.45184" lon="2.47299">
        <ele>321.8</ele>
        <time>2013-08-04T09:11:59Z</time>
      </trkpt>
      <trkpt lat="44.45175" lon="2.4729">
        <ele>321.3</ele>
        <time>2013-08-04T09:14:54Z</time>
      </trkpt>
      <trkpt lat="44.45164" lon="2.47283">
        <ele>321.6</ele>
        <time>2013-08-04T09:14:58Z</time>
      </trkpt>
      <trkpt lat="44.45158" lon="2.4728">
        <ele>321.7</ele>
        <time>2013-08-04T09:15:00Z</time>
      </trkpt>
      <trkpt lat="44.45151" lon="2.47273">
        <ele>321.7</ele>
        <time>2013-08-04T09:15:02Z</time>
      </trkpt>
      <trkpt lat="44.45144" lon="2.47268">
        <ele>322.4</ele>
        <time>2013-08-04T09:15:05Z</time>
      </trkpt>
      <trkpt lat="44.45138" lon="2.47259">
        <ele>321.7</ele>
        <time>2013-08-04T09:15:09Z</time>
      </trkpt>
      <trkpt lat="44.45135" lon="2.47247">
        <ele>322.9</ele>
        <time>2013-08-04T09:15:16Z</time>
      </trkpt>
      <trkpt lat="44.45132" lon="2.47238">
        <ele>323.6</ele>
        <time>2013-08-04T09:15:22Z</time>
      </trkpt>
      <trkpt lat="44.45127" lon="2.4723">
        <ele>323.6</ele>
        <time>2013-08-04T09:15:26Z</time>
      </trkpt>
      <trkpt lat="44.45121" lon="2.47223">
        <ele>323.9</ele>
        <time>2013-08-04T09:15:29Z</time>
      </trkpt>
      <trkpt lat="44.45116" lon="2.47217">
        <ele>324.5</ele>
        <time>2013-08-04T09:15:32Z</time>
      </trkpt>
      <trkpt lat="44.45111" lon="2.47211">
        <ele>324.7</ele>
        <time>2013-08-04T09:15:35Z</time>
      </trkpt>
      <trkpt lat="44.45104" lon="2.47204">
        <ele>324.8</ele>
        <time>2013-08-04T09:15:39Z</time>
      </trkpt>
      <trkpt lat="44.45096" lon="2.47198">
        <ele>325.4</ele>
        <time>2013-08-04T09:15:42Z</time>
      </trkpt>
      <trkpt lat="44.45089" lon="2.47192">
        <ele>326</ele>
        <time>2013-08-04T09:15:45Z</time>
      </trkpt>
      <trkpt lat="44.45083" lon="2.47185">
        <ele>325.7</ele>
        <time>2013-08-04T09:15:48Z</time>
      </trkpt>
      <trkpt lat="44.45077" lon="2.47176">
        <ele>325.7</ele>
        <time>2013-08-04T09:15:51Z</time>
      </trkpt>
      <trkpt lat="44.45071" lon="2.47168">
        <ele>326.4</ele>
        <time>2013-08-04T09:15:54Z</time>
      </trkpt>
      <trkpt lat="44.45069" lon="2.47166">
        <ele>326.8</ele>
        <time>2013-08-04T09:15:55Z</time>
      </trkpt>
      <trkpt lat="44.45059" lon="2.47156">
        <ele>327.8</ele>
        <time>2013-08-04T09:16:00Z</time>
      </trkpt>
      <trkpt lat="44.45052" lon="2.47149">
        <ele>327.7</ele>
        <time>2013-08-04T09:16:03Z</time>
      </trkpt>
      <trkpt lat="44.45046" lon="2.47141">
        <ele>328.4</ele>
        <time>2013-08-04T09:16:06Z</time>
      </trkpt>
      <trkpt lat="44.45039" lon="2.47133">
        <ele>328.7</ele>
        <time>2013-08-04T09:16:09Z</time>
      </trkpt>
      <trkpt lat="44.45033" lon="2.47126">
        <ele>329.1</ele>
        <time>2013-08-04T09:16:12Z</time>
      </trkpt>
      <trkpt lat="44.45029" lon="2.47116">
        <ele>329.9</ele>
        <time>2013-08-04T09:16:15Z</time>
      </trkpt>
      <trkpt lat="44.45025" lon="2.47107">
        <ele>330.3</ele>
        <time>2013-08-04T09:16:18Z</time>
      </trkpt>
      <trkpt lat="44.45022" lon="2.47098">
        <ele>330.2</ele>
        <time>2013-08-04T09:16:21Z</time>
      </trkpt>
      <trkpt lat="44.45016" lon="2.47089">
        <ele>330.3</ele>
        <time>2013-08-04T09:16:24Z</time>
      </trkpt>
      <trkpt lat="44.45011" lon="2.47081">
        <ele>330.8</ele>
        <time>2013-08-04T09:16:27Z</time>
      </trkpt>
      <trkpt lat="44.45006" lon="2.47074">
        <ele>330.8</ele>
        <time>2013-08-04T09:16:30Z</time>
      </trkpt>
      <trkpt lat="44.44999" lon="2.47069">
        <ele>330.7</ele>
        <time>2013-08-04T09:16:33Z</time>
      </trkpt>
      <trkpt lat="44.44993" lon="2.47066">
        <ele>331</ele>
        <time>2013-08-04T09:16:35Z</time>
      </trkpt>
      <trkpt lat="44.44987" lon="2.47063">
        <ele>331.3</ele>
        <time>2013-08-04T09:16:37Z</time>
      </trkpt>
      <trkpt lat="44.4498" lon="2.47057">
        <ele>331.6</ele>
        <time>2013-08-04T09:16:40Z</time>
      </trkpt>
      <trkpt lat="44.44974" lon="2.47052">
        <ele>331.8</ele>
        <time>2013-08-04T09:16:42Z</time>
      </trkpt>
      <trkpt lat="44.44967" lon="2.47047">
        <ele>332.6</ele>
        <time>2013-08-04T09:16:45Z</time>
      </trkpt>
      <trkpt lat="44.44961" lon="2.47042">
        <ele>332.2</ele>
        <time>2013-08-04T09:16:48Z</time>
      </trkpt>
      <trkpt lat="44.44956" lon="2.47038">
        <ele>331.8</ele>
        <time>2013-08-04T09:16:50Z</time>
      </trkpt>
      <trkpt lat="44.4495" lon="2.47034">
        <ele>332</ele>
        <time>2013-08-04T09:16:52Z</time>
      </trkpt>
      <trkpt lat="44.44942" lon="2.47029">
        <ele>332.7</ele>
        <time>2013-08-04T09:16:55Z</time>
      </trkpt>
      <trkpt lat="44.44939" lon="2.47029">
        <ele>332.9</ele>
        <time>2013-08-04T09:16:56Z</time>
      </trkpt>
      <trkpt lat="44.4493" lon="2.47022">
        <ele>333</ele>
        <time>2013-08-04T09:16:59Z</time>
      </trkpt>
      <trkpt lat="44.44924" lon="2.47016">
        <ele>332.9</ele>
        <time>2013-08-04T09:17:01Z</time>
      </trkpt>
      <trkpt lat="44.44918" lon="2.47008">
        <ele>333.2</ele>
        <time>2013-08-04T09:17:03Z</time>
      </trkpt>
      <trkpt lat="44.44912" lon="2.47001">
        <ele>333.6</ele>
        <time>2013-08-04T09:17:05Z</time>
      </trkpt>
      <trkpt lat="44.44907" lon="2.46994">
        <ele>334</ele>
        <time>2013-08-04T09:17:07Z</time>
      </trkpt>
      <trkpt lat="44.44901" lon="2.46986">
        <ele>334</ele>
        <time>2013-08-04T09:17:09Z</time>
      </trkpt>
      <trkpt lat="44.44896" lon="2.46979">
        <ele>334.2</ele>
        <time>2013-08-04T09:17:11Z</time>
      </trkpt>
      <trkpt lat="44.4489" lon="2.46973">
        <ele>334.4</ele>
        <time>2013-08-04T09:17:13Z</time>
      </trkpt>
      <trkpt lat="44.44885" lon="2.46967">
        <ele>334.5</ele>
        <time>2013-08-04T09:17:15Z</time>
      </trkpt>
      <trkpt lat="44.4488" lon="2.46961">
        <ele>334.5</ele>
        <time>2013-08-04T09:17:17Z</time>
      </trkpt>
      <trkpt lat="44.44873" lon="2.46955">
        <ele>334.4</ele>
        <time>2013-08-04T09:17:20Z</time>
      </trkpt>
      <trkpt lat="44.44866" lon="2.46949">
        <ele>334.5</ele>
        <time>2013-08-04T09:17:23Z</time>
      </trkpt>
      <trkpt lat="44.44859" lon="2.46943">
        <ele>335</ele>
        <time>2013-08-04T09:17:26Z</time>
      </trkpt>
      <trkpt lat="44.44852" lon="2.46936">
        <ele>336.2</ele>
        <time>2013-08-04T09:17:29Z</time>
      </trkpt>
      <trkpt lat="44.44847" lon="2.46929">
        <ele>336.9</ele>
        <time>2013-08-04T09:17:32Z</time>
      </trkpt>
      <trkpt lat="44.44841" lon="2.4692">
        <ele>337</ele>
        <time>2013-08-04T09:17:35Z</time>
      </trkpt>
      <trkpt lat="44.44834" lon="2.46912">
        <ele>337.3</ele>
        <time>2013-08-04T09:17:38Z</time>
      </trkpt>
      <trkpt lat="44.4483" lon="2.46906">
        <ele>337.7</ele>
        <time>2013-08-04T09:17:40Z</time>
      </trkpt>
      <trkpt lat="44.44825" lon="2.469">
        <ele>338.2</ele>
        <time>2013-08-04T09:17:42Z</time>
      </trkpt>
      <trkpt lat="44.4482" lon="2.46894">
        <ele>338.3</ele>
        <time>2013-08-04T09:17:44Z</time>
      </trkpt>
      <trkpt lat="44.44815" lon="2.46887">
        <ele>338.3</ele>
        <time>2013-08-04T09:17:46Z</time>
      </trkpt>
      <trkpt lat="44.4481" lon="2.4688">
        <ele>338.8</ele>
        <time>2013-08-04T09:17:48Z</time>
      </trkpt>
      <trkpt lat="44.44805" lon="2.46874">
        <ele>338.7</ele>
        <time>2013-08-04T09:17:50Z</time>
      </trkpt>
      <trkpt lat="44.44801" lon="2.46868">
        <ele>338.4</ele>
        <time>2013-08-04T09:17:52Z</time>
      </trkpt>
      <trkpt lat="44.44797" lon="2.46862">
        <ele>338.5</ele>
        <time>2013-08-04T09:17:54Z</time>
      </trkpt>
      <trkpt lat="44.44793" lon="2.46854">
        <ele>338.7</ele>
        <time>2013-08-04T09:17:56Z</time>
      </trkpt>
      <trkpt lat="44.44791" lon="2.4685">
        <ele>338.8</ele>
        <time>2013-08-04T09:17:57Z</time>
      </trkpt>
      <trkpt lat="44.44785" lon="2.46839">
        <ele>339</ele>
        <time>2013-08-04T09:18:00Z</time>
      </trkpt>
      <trkpt lat="44.4478" lon="2.46831">
        <ele>339.1</ele>
        <time>2013-08-04T09:18:02Z</time>
      </trkpt>
      <trkpt lat="44.44775" lon="2.46824">
        <ele>339.6</ele>
        <time>2013-08-04T09:18:04Z</time>
      </trkpt>
      <trkpt lat="44.4477" lon="2.46818">
        <ele>339.6</ele>
        <time>2013-08-04T09:18:06Z</time>
      </trkpt>
      <trkpt lat="44.44765" lon="2.46811">
        <ele>339.4</ele>
        <time>2013-08-04T09:18:08Z</time>
      </trkpt>
      <trkpt lat="44.44761" lon="2.46803">
        <ele>339.5</ele>
        <time>2013-08-04T09:18:10Z</time>
      </trkpt>
      <trkpt lat="44.44758" lon="2.46793">
        <ele>339.6</ele>
        <time>2013-08-04T09:18:12Z</time>
      </trkpt>
      <trkpt lat="44.44755" lon="2.46783">
        <ele>339.5</ele>
        <time>2013-08-04T09:18:14Z</time>
      </trkpt>
      <trkpt lat="44.44752" lon="2.46775">
        <ele>339.6</ele>
        <time>2013-08-04T09:18:16Z</time>
      </trkpt>
      <trkpt lat="44.4475" lon="2.46765">
        <ele>339.7</ele>
        <time>2013-08-04T09:18:18Z</time>
      </trkpt>
      <trkpt lat="44.44749" lon="2.46756">
        <ele>340</ele>
        <time>2013-08-04T09:18:20Z</time>
      </trkpt>
      <trkpt lat="44.44748" lon="2.46747">
        <ele>340.3</ele>
        <time>2013-08-04T09:18:22Z</time>
      </trkpt>
      <trkpt lat="44.44746" lon="2.46737">
        <ele>340.4</ele>
        <time>2013-08-04T09:18:24Z</time>
      </trkpt>
      <trkpt lat="44.44743" lon="2.46727">
        <ele>340.6</ele>
        <time>2013-08-04T09:18:26Z</time>
      </trkpt>
      <trkpt lat="44.44742" lon="2.46718">
        <ele>340.6</ele>
        <time>2013-08-04T09:18:28Z</time>
      </trkpt>
      <trkpt lat="44.44741" lon="2.46707">
        <ele>340.5</ele>
        <time>2013-08-04T09:18:30Z</time>
      </trkpt>
      <trkpt lat="44.44738" lon="2.46696">
        <ele>340.2</ele>
        <time>2013-08-04T09:18:32Z</time>
      </trkpt>
      <trkpt lat="44.44737" lon="2.46689">
        <ele>340</ele>
        <time>2013-08-04T09:18:33Z</time>
      </trkpt>
      <trkpt lat="44.44737" lon="2.46683">
        <ele>340.2</ele>
        <time>2013-08-04T09:18:34Z</time>
      </trkpt>
      <trkpt lat="44.44736" lon="2.46676">
        <ele>340.4</ele>
        <time>2013-08-04T09:18:35Z</time>
      </trkpt>
      <trkpt lat="44.44735" lon="2.4667">
        <ele>340.5</ele>
        <time>2013-08-04T09:18:36Z</time>
      </trkpt>
      <trkpt lat="44.44734" lon="2.46664">
        <ele>340.6</ele>
        <time>2013-08-04T09:18:37Z</time>
      </trkpt>
      <trkpt lat="44.44733" lon="2.46652">
        <ele>340.6</ele>
        <time>2013-08-04T09:18:39Z</time>
      </trkpt>
      <trkpt lat="44.44733" lon="2.4664">
        <ele>340.6</ele>
        <time>2013-08-04T09:18:41Z</time>
      </trkpt>
      <trkpt lat="44.44734" lon="2.46628">
        <ele>340.7</ele>
        <time>2013-08-04T09:18:43Z</time>
      </trkpt>
      <trkpt lat="44.44735" lon="2.46617">
        <ele>341.2</ele>
        <time>2013-08-04T09:18:45Z</time>
      </trkpt>
      <trkpt lat="44.44737" lon="2.46606">
        <ele>341.3</ele>
        <time>2013-08-04T09:18:47Z</time>
      </trkpt>
      <trkpt lat="44.44739" lon="2.46595">
        <ele>341.1</ele>
        <time>2013-08-04T09:18:49Z</time>
      </trkpt>
      <trkpt lat="44.4474" lon="2.46583">
        <ele>341.8</ele>
        <time>2013-08-04T09:18:51Z</time>
      </trkpt>
      <trkpt lat="44.4474" lon="2.46572">
        <ele>342.1</ele>
        <time>2013-08-04T09:18:53Z</time>
      </trkpt>
      <trkpt lat="44.44738" lon="2.46561">
        <ele>341.7</ele>
        <time>2013-08-04T09:18:55Z</time>
      </trkpt>
      <trkpt lat="44.44737" lon="2.46553">
        <ele>342</ele>
        <time>2013-08-04T09:18:57Z</time>
      </trkpt>
      <trkpt lat="44.44736" lon="2.46548">
        <ele>342.2</ele>
        <time>2013-08-04T09:18:58Z</time>
      </trkpt>
      <trkpt lat="44.44736" lon="2.46532">
        <ele>342.8</ele>
        <time>2013-08-04T09:19:01Z</time>
      </trkpt>
      <trkpt lat="44.44735" lon="2.46522">
        <ele>342.7</ele>
        <time>2013-08-04T09:19:03Z</time>
      </trkpt>
      <trkpt lat="44.44735" lon="2.46513">
        <ele>342.5</ele>
        <time>2013-08-04T09:19:05Z</time>
      </trkpt>
      <trkpt lat="44.44734" lon="2.46502">
        <ele>342</ele>
        <time>2013-08-04T09:19:07Z</time>
      </trkpt>
      <trkpt lat="44.44735" lon="2.46492">
        <ele>341.8</ele>
        <time>2013-08-04T09:19:09Z</time>
      </trkpt>
      <trkpt lat="44.44736" lon="2.46482">
        <ele>342.1</ele>
        <time>2013-08-04T09:19:11Z</time>
      </trkpt>
      <trkpt lat="44.44736" lon="2.46473">
        <ele>342.7</ele>
        <time>2013-08-04T09:19:13Z</time>
      </trkpt>
      <trkpt lat="44.44737" lon="2.46462">
        <ele>343.5</ele>
        <time>2013-08-04T09:19:16Z</time>
      </trkpt>
      <trkpt lat="44.44739" lon="2.46452">
        <ele>343.8</ele>
        <time>2013-08-04T09:19:19Z</time>
      </trkpt>
      <trkpt lat="44.4474" lon="2.4644">
        <ele>344.5</ele>
        <time>2013-08-04T09:19:22Z</time>
      </trkpt>
      <trkpt lat="44.44743" lon="2.46429">
        <ele>345.5</ele>
        <time>2013-08-04T09:19:25Z</time>
      </trkpt>
      <trkpt lat="44.44745" lon="2.4642">
        <ele>345.7</ele>
        <time>2013-08-04T09:19:28Z</time>
      </trkpt>
      <trkpt lat="44.44745" lon="2.4641">
        <ele>346.1</ele>
        <time>2013-08-04T09:19:31Z</time>
      </trkpt>
      <trkpt lat="44.44746" lon="2.464">
        <ele>346.6</ele>
        <time>2013-08-04T09:19:34Z</time>
      </trkpt>
      <trkpt lat="44.44748" lon="2.46388">
        <ele>347.4</ele>
        <time>2013-08-04T09:19:37Z</time>
      </trkpt>
      <trkpt lat="44.4475" lon="2.46377">
        <ele>347.7</ele>
        <time>2013-08-04T09:19:40Z</time>
      </trkpt>
      <trkpt lat="44.44752" lon="2.46367">
        <ele>349.1</ele>
        <time>2013-08-04T09:19:43Z</time>
      </trkpt>
      <trkpt lat="44.44753" lon="2.46355">
        <ele>349.6</ele>
        <time>2013-08-04T09:19:46Z</time>
      </trkpt>
      <trkpt lat="44.44755" lon="2.46343">
        <ele>350.4</ele>
        <time>2013-08-04T09:19:49Z</time>
      </trkpt>
      <trkpt lat="44.44757" lon="2.46332">
        <ele>351.5</ele>
        <time>2013-08-04T09:19:52Z</time>
      </trkpt>
      <trkpt lat="44.44759" lon="2.4632">
        <ele>351.9</ele>
        <time>2013-08-04T09:19:55Z</time>
      </trkpt>
      <trkpt lat="44.44759" lon="2.4631">
        <ele>352.7</ele>
        <time>2013-08-04T09:19:58Z</time>
      </trkpt>
      <trkpt lat="44.4476" lon="2.46307">
        <ele>353</ele>
        <time>2013-08-04T09:19:59Z</time>
      </trkpt>
      <trkpt lat="44.44761" lon="2.46291">
        <ele>353.3</ele>
        <time>2013-08-04T09:20:03Z</time>
      </trkpt>
      <trkpt lat="44.44762" lon="2.46282">
        <ele>354.3</ele>
        <time>2013-08-04T09:20:05Z</time>
      </trkpt>
      <trkpt lat="44.44761" lon="2.46273">
        <ele>354.8</ele>
        <time>2013-08-04T09:20:07Z</time>
      </trkpt>
      <trkpt lat="44.4476" lon="2.46264">
        <ele>355</ele>
        <time>2013-08-04T09:20:09Z</time>
      </trkpt>
      <trkpt lat="44.44758" lon="2.46256">
        <ele>355.8</ele>
        <time>2013-08-04T09:20:11Z</time>
      </trkpt>
      <trkpt lat="44.44755" lon="2.46248">
        <ele>355.8</ele>
        <time>2013-08-04T09:20:13Z</time>
      </trkpt>
      <trkpt lat="44.44752" lon="2.46239">
        <ele>355.4</ele>
        <time>2013-08-04T09:20:15Z</time>
      </trkpt>
      <trkpt lat="44.44749" lon="2.4623">
        <ele>355.3</ele>
        <time>2013-08-04T09:20:17Z</time>
      </trkpt>
      <trkpt lat="44.44744" lon="2.4622">
        <ele>355.3</ele>
        <time>2013-08-04T09:20:19Z</time>
      </trkpt>
      <trkpt lat="44.4474" lon="2.46209">
        <ele>355.1</ele>
        <time>2013-08-04T09:20:21Z</time>
      </trkpt>
      <trkpt lat="44.44737" lon="2.462">
        <ele>355.3</ele>
        <time>2013-08-04T09:20:23Z</time>
      </trkpt>
      <trkpt lat="44.44734" lon="2.46191">
        <ele>355.5</ele>
        <time>2013-08-04T09:20:25Z</time>
      </trkpt>
      <trkpt lat="44.44732" lon="2.46181">
        <ele>355.8</ele>
        <time>2013-08-04T09:20:27Z</time>
      </trkpt>
      <trkpt lat="44.44729" lon="2.4617">
        <ele>355.6</ele>
        <time>2013-08-04T09:20:30Z</time>
      </trkpt>
      <trkpt lat="44.44728" lon="2.46162">
        <ele>355.4</ele>
        <time>2013-08-04T09:20:32Z</time>
      </trkpt>
      <trkpt lat="44.44727" lon="2.46151">
        <ele>355.6</ele>
        <time>2013-08-04T09:20:34Z</time>
      </trkpt>
      <trkpt lat="44.44727" lon="2.4614">
        <ele>355.6</ele>
        <time>2013-08-04T09:20:36Z</time>
      </trkpt>
      <trkpt lat="44.44726" lon="2.46129">
        <ele>355.5</ele>
        <time>2013-08-04T09:20:38Z</time>
      </trkpt>
      <trkpt lat="44.44725" lon="2.46118">
        <ele>355.7</ele>
        <time>2013-08-04T09:20:40Z</time>
      </trkpt>
      <trkpt lat="44.44724" lon="2.46107">
        <ele>356</ele>
        <time>2013-08-04T09:20:42Z</time>
      </trkpt>
      <trkpt lat="44.44724" lon="2.46097">
        <ele>356.3</ele>
        <time>2013-08-04T09:20:44Z</time>
      </trkpt>
      <trkpt lat="44.44724" lon="2.46087">
        <ele>356.8</ele>
        <time>2013-08-04T09:20:46Z</time>
      </trkpt>
      <trkpt lat="44.44723" lon="2.46077">
        <ele>357</ele>
        <time>2013-08-04T09:20:48Z</time>
      </trkpt>
      <trkpt lat="44.44721" lon="2.46067">
        <ele>357.1</ele>
        <time>2013-08-04T09:20:50Z</time>
      </trkpt>
      <trkpt lat="44.44718" lon="2.46057">
        <ele>357.1</ele>
        <time>2013-08-04T09:20:52Z</time>
      </trkpt>
      <trkpt lat="44.44715" lon="2.46046">
        <ele>357</ele>
        <time>2013-08-04T09:20:54Z</time>
      </trkpt>
      <trkpt lat="44.44714" lon="2.4604">
        <ele>357</ele>
        <time>2013-08-04T09:20:55Z</time>
      </trkpt>
      <trkpt lat="44.44713" lon="2.46034">
        <ele>357</ele>
        <time>2013-08-04T09:20:56Z</time>
      </trkpt>
      <trkpt lat="44.44711" lon="2.46022">
        <ele>357</ele>
        <time>2013-08-04T09:20:58Z</time>
      </trkpt>
      <trkpt lat="44.44711" lon="2.4601">
        <ele>357</ele>
        <time>2013-08-04T09:21:00Z</time>
      </trkpt>
      <trkpt lat="44.4471" lon="2.46005">
        <ele>357.2</ele>
        <time>2013-08-04T09:21:01Z</time>
      </trkpt>
      <trkpt lat="44.44708" lon="2.45987">
        <ele>357.3</ele>
        <time>2013-08-04T09:21:04Z</time>
      </trkpt>
      <trkpt lat="44.44706" lon="2.45975">
        <ele>357.1</ele>
        <time>2013-08-04T09:21:06Z</time>
      </trkpt>
      <trkpt lat="44.44705" lon="2.45963">
        <ele>357.3</ele>
        <time>2013-08-04T09:21:08Z</time>
      </trkpt>
      <trkpt lat="44.44704" lon="2.45953">
        <ele>358</ele>
        <time>2013-08-04T09:21:11Z</time>
      </trkpt>
      <trkpt lat="44.44704" lon="2.45941">
        <ele>358.7</ele>
        <time>2013-08-04T09:21:14Z</time>
      </trkpt>
      <trkpt lat="44.44705" lon="2.45928">
        <ele>359.3</ele>
        <time>2013-08-04T09:21:17Z</time>
      </trkpt>
      <trkpt lat="44.44706" lon="2.45918">
        <ele>359.9</ele>
        <time>2013-08-04T09:21:20Z</time>
      </trkpt>
      <trkpt lat="44.44708" lon="2.45908">
        <ele>359.9</ele>
        <time>2013-08-04T09:21:22Z</time>
      </trkpt>
      <trkpt lat="44.44709" lon="2.45896">
        <ele>361</ele>
        <time>2013-08-04T09:21:25Z</time>
      </trkpt>
      <trkpt lat="44.4471" lon="2.45887">
        <ele>361.4</ele>
        <time>2013-08-04T09:21:27Z</time>
      </trkpt>
      <trkpt lat="44.44711" lon="2.45877">
        <ele>361.4</ele>
        <time>2013-08-04T09:21:29Z</time>
      </trkpt>
      <trkpt lat="44.4471" lon="2.45867">
        <ele>362.5</ele>
        <time>2013-08-04T09:21:31Z</time>
      </trkpt>
      <trkpt lat="44.4471" lon="2.45856">
        <ele>363.1</ele>
        <time>2013-08-04T09:21:33Z</time>
      </trkpt>
      <trkpt lat="44.4471" lon="2.45844">
        <ele>363.6</ele>
        <time>2013-08-04T09:21:35Z</time>
      </trkpt>
      <trkpt lat="44.4471" lon="2.45831">
        <ele>363.5</ele>
        <time>2013-08-04T09:21:37Z</time>
      </trkpt>
      <trkpt lat="44.44711" lon="2.4582">
        <ele>363.5</ele>
        <time>2013-08-04T09:21:39Z</time>
      </trkpt>
      <trkpt lat="44.44712" lon="2.45813">
        <ele>363.4</ele>
        <time>2013-08-04T09:21:40Z</time>
      </trkpt>
      <trkpt lat="44.44713" lon="2.45801">
        <ele>363.3</ele>
        <time>2013-08-04T09:21:42Z</time>
      </trkpt>
      <trkpt lat="44.44714" lon="2.45789">
        <ele>363.9</ele>
        <time>2013-08-04T09:21:44Z</time>
      </trkpt>
      <trkpt lat="44.44715" lon="2.45782">
        <ele>364</ele>
        <time>2013-08-04T09:21:45Z</time>
      </trkpt>
      <trkpt lat="44.44716" lon="2.45776">
        <ele>364.5</ele>
        <time>2013-08-04T09:21:46Z</time>
      </trkpt>
      <trkpt lat="44.44718" lon="2.45763">
        <ele>365.2</ele>
        <time>2013-08-04T09:21:48Z</time>
      </trkpt>
      <trkpt lat="44.44719" lon="2.45752">
        <ele>365.5</ele>
        <time>2013-08-04T09:21:50Z</time>
      </trkpt>
      <trkpt lat="44.4472" lon="2.45742">
        <ele>365.3</ele>
        <time>2013-08-04T09:21:52Z</time>
      </trkpt>
      <trkpt lat="44.44721" lon="2.45733">
        <ele>365</ele>
        <time>2013-08-04T09:21:54Z</time>
      </trkpt>
      <trkpt lat="44.44722" lon="2.45723">
        <ele>365.2</ele>
        <time>2013-08-04T09:21:56Z</time>
      </trkpt>
      <trkpt lat="44.44723" lon="2.45712">
        <ele>365.6</ele>
        <time>2013-08-04T09:21:58Z</time>
      </trkpt>
      <trkpt lat="44.44724" lon="2.45702">
        <ele>365.8</ele>
        <time>2013-08-04T09:22:00Z</time>
      </trkpt>
      <trkpt lat="44.44725" lon="2.45692">
        <ele>366.5</ele>
        <time>2013-08-04T09:22:02Z</time>
      </trkpt>
      <trkpt lat="44.44726" lon="2.45687">
        <ele>367</ele>
        <time>2013-08-04T09:22:03Z</time>
      </trkpt>
      <trkpt lat="44.44728" lon="2.45671">
        <ele>367.9</ele>
        <time>2013-08-04T09:22:06Z</time>
      </trkpt>
      <trkpt lat="44.44732" lon="2.4566">
        <ele>368.7</ele>
        <time>2013-08-04T09:22:09Z</time>
      </trkpt>
      <trkpt lat="44.44737" lon="2.45654">
        <ele>369.2</ele>
        <time>2013-08-04T09:22:11Z</time>
      </trkpt>
      <trkpt lat="44.44743" lon="2.45651">
        <ele>369.5</ele>
        <time>2013-08-04T09:22:13Z</time>
      </trkpt>
      <trkpt lat="44.4475" lon="2.45648">
        <ele>369.7</ele>
        <time>2013-08-04T09:22:15Z</time>
      </trkpt>
      <trkpt lat="44.44757" lon="2.45646">
        <ele>369.7</ele>
        <time>2013-08-04T09:22:17Z</time>
      </trkpt>
      <trkpt lat="44.44763" lon="2.45645">
        <ele>369.9</ele>
        <time>2013-08-04T09:22:19Z</time>
      </trkpt>
      <trkpt lat="44.44769" lon="2.45643">
        <ele>370.2</ele>
        <time>2013-08-04T09:22:21Z</time>
      </trkpt>
      <trkpt lat="44.44776" lon="2.4564">
        <ele>370.6</ele>
        <time>2013-08-04T09:22:23Z</time>
      </trkpt>
      <trkpt lat="44.44782" lon="2.45638">
        <ele>371.4</ele>
        <time>2013-08-04T09:22:25Z</time>
      </trkpt>
      <trkpt lat="44.44789" lon="2.45633">
        <ele>371.8</ele>
        <time>2013-08-04T09:22:28Z</time>
      </trkpt>
      <trkpt lat="44.44796" lon="2.45629">
        <ele>372.4</ele>
        <time>2013-08-04T09:22:31Z</time>
      </trkpt>
      <trkpt lat="44.44804" lon="2.45624">
        <ele>373.8</ele>
        <time>2013-08-04T09:22:34Z</time>
      </trkpt>
      <trkpt lat="44.44808" lon="2.45621">
        <ele>374.6</ele>
        <time>2013-08-04T09:22:36Z</time>
      </trkpt>
      <trkpt lat="44.44815" lon="2.45618">
        <ele>374.6</ele>
        <time>2013-08-04T09:22:39Z</time>
      </trkpt>
      <trkpt lat="44.44822" lon="2.4561">
        <ele>375.7</ele>
        <time>2013-08-04T09:22:43Z</time>
      </trkpt>
      <trkpt lat="44.44829" lon="2.45602">
        <ele>376.8</ele>
        <time>2013-08-04T09:22:48Z</time>
      </trkpt>
      <trkpt lat="44.44836" lon="2.45594">
        <ele>376.9</ele>
        <time>2013-08-04T09:22:52Z</time>
      </trkpt>
      <trkpt lat="44.44843" lon="2.45588">
        <ele>378.1</ele>
        <time>2013-08-04T09:22:56Z</time>
      </trkpt>
      <trkpt lat="44.44849" lon="2.45582">
        <ele>378.4</ele>
        <time>2013-08-04T09:23:00Z</time>
      </trkpt>
      <trkpt lat="44.44856" lon="2.45576">
        <ele>379.1</ele>
        <time>2013-08-04T09:23:05Z</time>
      </trkpt>
      <trkpt lat="44.44857" lon="2.45574">
        <ele>379.5</ele>
        <time>2013-08-04T09:23:06Z</time>
      </trkpt>
      <trkpt lat="44.44869" lon="2.45566">
        <ele>381.4</ele>
        <time>2013-08-04T09:23:13Z</time>
      </trkpt>
      <trkpt lat="44.44877" lon="2.45561">
        <ele>383.3</ele>
        <time>2013-08-04T09:23:18Z</time>
      </trkpt>
      <trkpt lat="44.44884" lon="2.45556">
        <ele>383.5</ele>
        <time>2013-08-04T09:23:22Z</time>
      </trkpt>
      <trkpt lat="44.44892" lon="2.45551">
        <ele>384.1</ele>
        <time>2013-08-04T09:23:26Z</time>
      </trkpt>
      <trkpt lat="44.44902" lon="2.45545">
        <ele>384.8</ele>
        <time>2013-08-04T09:23:31Z</time>
      </trkpt>
      <trkpt lat="44.44909" lon="2.45539">
        <ele>385.5</ele>
        <time>2013-08-04T09:23:36Z</time>
      </trkpt>
      <trkpt lat="44.44914" lon="2.45531">
        <ele>385.9</ele>
        <time>2013-08-04T09:23:40Z</time>
      </trkpt>
      <trkpt lat="44.44918" lon="2.45521">
        <ele>388</ele>
        <time>2013-08-04T09:23:46Z</time>
      </trkpt>
      <trkpt lat="44.44923" lon="2.45513">
        <ele>388.7</ele>
        <time>2013-08-04T09:23:51Z</time>
      </trkpt>
      <trkpt lat="44.44929" lon="2.45506">
        <ele>389</ele>
        <time>2013-08-04T09:23:56Z</time>
      </trkpt>
      <trkpt lat="44.44933" lon="2.45497">
        <ele>390.9</ele>
        <time>2013-08-04T09:24:02Z</time>
      </trkpt>
      <trkpt lat="44.44938" lon="2.45487">
        <ele>392</ele>
        <time>2013-08-04T09:24:07Z</time>
      </trkpt>
      <trkpt lat="44.44939" lon="2.45485">
        <ele>392.3</ele>
        <time>2013-08-04T09:24:08Z</time>
      </trkpt>
      <trkpt lat="44.44947" lon="2.45467">
        <ele>394.2</ele>
        <time>2013-08-04T09:24:18Z</time>
      </trkpt>
      <trkpt lat="44.44952" lon="2.45458">
        <ele>396.1</ele>
        <time>2013-08-04T09:24:24Z</time>
      </trkpt>
      <trkpt lat="44.44957" lon="2.4545">
        <ele>397.4</ele>
        <time>2013-08-04T09:24:30Z</time>
      </trkpt>
      <trkpt lat="44.44963" lon="2.45443">
        <ele>398.1</ele>
        <time>2013-08-04T09:24:36Z</time>
      </trkpt>
      <trkpt lat="44.44968" lon="2.45434">
        <ele>399.9</ele>
        <time>2013-08-04T09:24:43Z</time>
      </trkpt>
      <trkpt lat="44.44973" lon="2.45425">
        <ele>401.8</ele>
        <time>2013-08-04T09:24:51Z</time>
      </trkpt>
      <trkpt lat="44.44981" lon="2.45418">
        <ele>404.9</ele>
        <time>2013-08-04T09:25:00Z</time>
      </trkpt>
      <trkpt lat="44.44988" lon="2.45414">
        <ele>405.8</ele>
        <time>2013-08-04T09:25:06Z</time>
      </trkpt>
      <trkpt lat="44.44996" lon="2.45414">
        <ele>406.8</ele>
        <time>2013-08-04T09:25:11Z</time>
      </trkpt>
      <trkpt lat="44.44998" lon="2.45414">
        <ele>406.9</ele>
        <time>2013-08-04T09:25:12Z</time>
      </trkpt>
      <trkpt lat="44.45013" lon="2.45416">
        <ele>407.7</ele>
        <time>2013-08-04T09:25:21Z</time>
      </trkpt>
      <trkpt lat="44.4502" lon="2.45417">
        <ele>408.6</ele>
        <time>2013-08-04T09:25:25Z</time>
      </trkpt>
      <trkpt lat="44.45028" lon="2.45415">
        <ele>408.6</ele>
        <time>2013-08-04T09:25:29Z</time>
      </trkpt>
      <trkpt lat="44.45035" lon="2.45408">
        <ele>409.3</ele>
        <time>2013-08-04T09:25:35Z</time>
      </trkpt>
      <trkpt lat="44.4504" lon="2.45399">
        <ele>411.4</ele>
        <time>2013-08-04T09:25:44Z</time>
      </trkpt>
      <trkpt lat="44.45039" lon="2.45387">
        <ele>413.9</ele>
        <time>2013-08-04T09:26:03Z</time>
      </trkpt>
      <trkpt lat="44.45035" lon="2.45376">
        <ele>416.2</ele>
        <time>2013-08-04T09:26:11Z</time>
      </trkpt>
      <trkpt lat="44.45032" lon="2.45365">
        <ele>417.6</ele>
        <time>2013-08-04T09:26:18Z</time>
      </trkpt>
      <trkpt lat="44.45031" lon="2.45363">
        <ele>417.7</ele>
        <time>2013-08-04T09:26:19Z</time>
      </trkpt>
      <trkpt lat="44.45026" lon="2.45343">
        <ele>422.1</ele>
        <time>2013-08-04T09:26:34Z</time>
      </trkpt>
      <trkpt lat="44.45026" lon="2.45331">
        <ele>423.8</ele>
        <time>2013-08-04T09:26:42Z</time>
      </trkpt>
      <trkpt lat="44.45028" lon="2.4532">
        <ele>426.2</ele>
        <time>2013-08-04T09:26:50Z</time>
      </trkpt>
      <trkpt lat="44.45031" lon="2.45309">
        <ele>428</ele>
        <time>2013-08-04T09:26:57Z</time>
      </trkpt>
      <trkpt lat="44.45033" lon="2.45297">
        <ele>432.5</ele>
        <time>2013-08-04T09:27:16Z</time>
      </trkpt>
      <trkpt lat="44.45024" lon="2.45293">
        <ele>436.5</ele>
        <time>2013-08-04T09:27:37Z</time>
      </trkpt>
      <trkpt lat="44.45024" lon="2.45293">
        <ele>436.8</ele>
        <time>2013-08-04T09:27:38Z</time>
      </trkpt>
      <trkpt lat="44.45039" lon="2.45288">
        <ele>443.4</ele>
        <time>2013-08-04T09:28:10Z</time>
      </trkpt>
      <trkpt lat="44.45047" lon="2.45292">
        <ele>443.5</ele>
        <time>2013-08-04T09:28:14Z</time>
      </trkpt>
      <trkpt lat="44.45055" lon="2.45298">
        <ele>444.2</ele>
        <time>2013-08-04T09:28:18Z</time>
      </trkpt>
      <trkpt lat="44.45061" lon="2.45303">
        <ele>445.8</ele>
        <time>2013-08-04T09:28:22Z</time>
      </trkpt>
      <trkpt lat="44.45068" lon="2.45306">
        <ele>446.1</ele>
        <time>2013-08-04T09:28:25Z</time>
      </trkpt>
      <trkpt lat="44.45074" lon="2.45313">
        <ele>447</ele>
        <time>2013-08-04T09:28:28Z</time>
      </trkpt>
      <trkpt lat="44.4508" lon="2.45319">
        <ele>448</ele>
        <time>2013-08-04T09:28:31Z</time>
      </trkpt>
      <trkpt lat="44.45086" lon="2.45326">
        <ele>448.2</ele>
        <time>2013-08-04T09:28:34Z</time>
      </trkpt>
      <trkpt lat="44.45093" lon="2.45333">
        <ele>448.8</ele>
        <time>2013-08-04T09:28:37Z</time>
      </trkpt>
      <trkpt lat="44.45099" lon="2.4534">
        <ele>449.2</ele>
        <time>2013-08-04T09:28:40Z</time>
      </trkpt>
      <trkpt lat="44.45102" lon="2.45342">
        <ele>449.4</ele>
        <time>2013-08-04T09:28:41Z</time>
      </trkpt>
      <trkpt lat="44.45111" lon="2.45352">
        <ele>450.2</ele>
        <time>2013-08-04T09:28:45Z</time>
      </trkpt>
      <trkpt lat="44.45116" lon="2.45357">
        <ele>450.4</ele>
        <time>2013-08-04T09:28:47Z</time>
      </trkpt>
      <trkpt lat="44.45125" lon="2.45361">
        <ele>450.5</ele>
        <time>2013-08-04T09:28:50Z</time>
      </trkpt>
      <trkpt lat="44.45146" lon="2.45371">
        <ele>452</ele>
        <time>2013-08-04T09:28:59Z</time>
      </trkpt>
      <trkpt lat="44.45213" lon="2.45399">
        <ele>454</ele>
        <time>2013-08-04T09:29:32Z</time>
      </trkpt>
      <trkpt lat="44.45214" lon="2.45413">
        <ele>456.9</ele>
        <time>2013-08-04T09:29:44Z</time>
      </trkpt>
      <trkpt lat="44.45214" lon="2.45414">
        <ele>457</ele>
        <time>2013-08-04T09:29:45Z</time>
      </trkpt>
      <trkpt lat="44.45209" lon="2.45433">
        <ele>460</ele>
        <time>2013-08-04T09:29:57Z</time>
      </trkpt>
      <trkpt lat="44.45208" lon="2.45444">
        <ele>459.1</ele>
        <time>2013-08-04T09:30:03Z</time>
      </trkpt>
      <trkpt lat="44.45214" lon="2.45435">
        <ele>462.1</ele>
        <time>2013-08-04T09:30:14Z</time>
      </trkpt>
      <trkpt lat="44.45215" lon="2.45424">
        <ele>463.5</ele>
        <time>2013-08-04T09:30:22Z</time>
      </trkpt>
      <trkpt lat="44.45217" lon="2.45412">
        <ele>464.5</ele>
        <time>2013-08-04T09:30:28Z</time>
      </trkpt>
      <trkpt lat="44.45222" lon="2.45402">
        <ele>464.6</ele>
        <time>2013-08-04T09:30:34Z</time>
      </trkpt>
      <trkpt lat="44.45227" lon="2.45394">
        <ele>465.4</ele>
        <time>2013-08-04T09:30:39Z</time>
      </trkpt>
      <trkpt lat="44.45232" lon="2.45385">
        <ele>466.2</ele>
        <time>2013-08-04T09:30:45Z</time>
      </trkpt>
      <trkpt lat="44.45232" lon="2.45383">
        <ele>466.2</ele>
        <time>2013-08-04T09:30:46Z</time>
      </trkpt>
      <trkpt lat="44.45235" lon="2.45363">
        <ele>467.1</ele>
        <time>2013-08-04T09:30:55Z</time>
      </trkpt>
      <trkpt lat="44.45234" lon="2.45351">
        <ele>467.8</ele>
        <time>2013-08-04T09:31:00Z</time>
      </trkpt>
      <trkpt lat="44.4523" lon="2.45343">
        <ele>468.6</ele>
        <time>2013-08-04T09:31:04Z</time>
      </trkpt>
      <trkpt lat="44.45225" lon="2.45334">
        <ele>470.1</ele>
        <time>2013-08-04T09:31:09Z</time>
      </trkpt>
      <trkpt lat="44.45216" lon="2.45337">
        <ele>472.7</ele>
        <time>2013-08-04T09:31:26Z</time>
      </trkpt>
      <trkpt lat="44.45209" lon="2.4534">
        <ele>473.6</ele>
        <time>2013-08-04T09:31:33Z</time>
      </trkpt>
      <trkpt lat="44.452" lon="2.45341">
        <ele>474.2</ele>
        <time>2013-08-04T09:31:40Z</time>
      </trkpt>
      <trkpt lat="44.45196" lon="2.4533">
        <ele>475.6</ele>
        <time>2013-08-04T09:31:46Z</time>
      </trkpt>
      <trkpt lat="44.45197" lon="2.45328">
        <ele>475.9</ele>
        <time>2013-08-04T09:31:47Z</time>
      </trkpt>
      <trkpt lat="44.4521" lon="2.45318">
        <ele>476.2</ele>
        <time>2013-08-04T09:31:57Z</time>
      </trkpt>
      <trkpt lat="44.45217" lon="2.45314">
        <ele>478.2</ele>
        <time>2013-08-04T09:32:02Z</time>
      </trkpt>
      <trkpt lat="44.45226" lon="2.45309">
        <ele>479.2</ele>
        <time>2013-08-04T09:32:08Z</time>
      </trkpt>
      <trkpt lat="44.45232" lon="2.45304">
        <ele>479.7</ele>
        <time>2013-08-04T09:32:13Z</time>
      </trkpt>
      <trkpt lat="44.45238" lon="2.45299">
        <ele>480.2</ele>
        <time>2013-08-04T09:32:17Z</time>
      </trkpt>
      <trkpt lat="44.45246" lon="2.45294">
        <ele>481</ele>
        <time>2013-08-04T09:32:21Z</time>
      </trkpt>
      <trkpt lat="44.45253" lon="2.4529">
        <ele>482</ele>
        <time>2013-08-04T09:32:25Z</time>
      </trkpt>
      <trkpt lat="44.45262" lon="2.45286">
        <ele>482.9</ele>
        <time>2013-08-04T09:32:30Z</time>
      </trkpt>
      <trkpt lat="44.4527" lon="2.45286">
        <ele>482.6</ele>
        <time>2013-08-04T09:32:35Z</time>
      </trkpt>
      <trkpt lat="44.45277" lon="2.45291">
        <ele>482.8</ele>
        <time>2013-08-04T09:32:39Z</time>
      </trkpt>
      <trkpt lat="44.45282" lon="2.45299">
        <ele>484.4</ele>
        <time>2013-08-04T09:32:42Z</time>
      </trkpt>
      <trkpt lat="44.45285" lon="2.45309">
        <ele>483.8</ele>
        <time>2013-08-04T09:32:45Z</time>
      </trkpt>
      <trkpt lat="44.45289" lon="2.45318">
        <ele>484</ele>
        <time>2013-08-04T09:32:48Z</time>
      </trkpt>
      <trkpt lat="44.45289" lon="2.45321">
        <ele>484.2</ele>
        <time>2013-08-04T09:32:49Z</time>
      </trkpt>
      <trkpt lat="44.45291" lon="2.4534">
        <ele>486</ele>
        <time>2013-08-04T09:32:55Z</time>
      </trkpt>
      <trkpt lat="44.45292" lon="2.4535">
        <ele>486.6</ele>
        <time>2013-08-04T09:32:58Z</time>
      </trkpt>
      <trkpt lat="44.45293" lon="2.45363">
        <ele>486.5</ele>
        <time>2013-08-04T09:33:02Z</time>
      </trkpt>
      <trkpt lat="44.45294" lon="2.45375">
        <ele>487.1</ele>
        <time>2013-08-04T09:33:06Z</time>
      </trkpt>
      <trkpt lat="44.45294" lon="2.45385">
        <ele>487.4</ele>
        <time>2013-08-04T09:33:09Z</time>
      </trkpt>
      <trkpt lat="44.45295" lon="2.45394">
        <ele>487.9</ele>
        <time>2013-08-04T09:33:12Z</time>
      </trkpt>
      <trkpt lat="44.45295" lon="2.45404">
        <ele>488.1</ele>
        <time>2013-08-04T09:33:15Z</time>
      </trkpt>
      <trkpt lat="44.45293" lon="2.45414">
        <ele>488.3</ele>
        <time>2013-08-04T09:33:18Z</time>
      </trkpt>
      <trkpt lat="44.45292" lon="2.45425">
        <ele>489.2</ele>
        <time>2013-08-04T09:33:21Z</time>
      </trkpt>
      <trkpt lat="44.45289" lon="2.45436">
        <ele>489.4</ele>
        <time>2013-08-04T09:33:24Z</time>
      </trkpt>
      <trkpt lat="44.45287" lon="2.45446">
        <ele>489.2</ele>
        <time>2013-08-04T09:33:27Z</time>
      </trkpt>
      <trkpt lat="44.45286" lon="2.45456">
        <ele>491</ele>
        <time>2013-08-04T09:33:30Z</time>
      </trkpt>
      <trkpt lat="44.45284" lon="2.45466">
        <ele>491.5</ele>
        <time>2013-08-04T09:33:33Z</time>
      </trkpt>
      <trkpt lat="44.45283" lon="2.45477">
        <ele>491.7</ele>
        <time>2013-08-04T09:33:36Z</time>
      </trkpt>
      <trkpt lat="44.45283" lon="2.45488">
        <ele>492.6</ele>
        <time>2013-08-04T09:33:39Z</time>
      </trkpt>
      <trkpt lat="44.45282" lon="2.45499">
        <ele>493.2</ele>
        <time>2013-08-04T09:33:42Z</time>
      </trkpt>
      <trkpt lat="44.4528" lon="2.45508">
        <ele>493.2</ele>
        <time>2013-08-04T09:33:44Z</time>
      </trkpt>
      <trkpt lat="44.45278" lon="2.45517">
        <ele>493.2</ele>
        <time>2013-08-04T09:33:46Z</time>
      </trkpt>
      <trkpt lat="44.45277" lon="2.45525">
        <ele>493.1</ele>
        <time>2013-08-04T09:33:48Z</time>
      </trkpt>
      <trkpt lat="44.45275" lon="2.45534">
        <ele>493</ele>
        <time>2013-08-04T09:33:50Z</time>
      </trkpt>
      <trkpt lat="44.45275" lon="2.45538">
        <ele>493.2</ele>
        <time>2013-08-04T09:33:51Z</time>
      </trkpt>
      <trkpt lat="44.45273" lon="2.45552">
        <ele>493.7</ele>
        <time>2013-08-04T09:33:54Z</time>
      </trkpt>
      <trkpt lat="44.45272" lon="2.45562">
        <ele>494</ele>
        <time>2013-08-04T09:33:56Z</time>
      </trkpt>
      <trkpt lat="44.45271" lon="2.45571">
        <ele>493.7</ele>
        <time>2013-08-04T09:33:58Z</time>
      </trkpt>
      <trkpt lat="44.45269" lon="2.4558">
        <ele>493.9</ele>
        <time>2013-08-04T09:34:00Z</time>
      </trkpt>
      <trkpt lat="44.45267" lon="2.45588">
        <ele>494.3</ele>
        <time>2013-08-04T09:34:02Z</time>
      </trkpt>
      <trkpt lat="44.45263" lon="2.45596">
        <ele>494</ele>
        <time>2013-08-04T09:34:04Z</time>
      </trkpt>
      <trkpt lat="44.4526" lon="2.45603">
        <ele>493.8</ele>
        <time>2013-08-04T09:34:06Z</time>
      </trkpt>
      <trkpt lat="44.45259" lon="2.45611">
        <ele>494.1</ele>
        <time>2013-08-04T09:34:08Z</time>
      </trkpt>
      <trkpt lat="44.45258" lon="2.45623">
        <ele>493.8</ele>
        <time>2013-08-04T09:34:11Z</time>
      </trkpt>
      <trkpt lat="44.45259" lon="2.45632">
        <ele>494</ele>
        <time>2013-08-04T09:34:13Z</time>
      </trkpt>
      <trkpt lat="44.4526" lon="2.45641">
        <ele>494.5</ele>
        <time>2013-08-04T09:34:15Z</time>
      </trkpt>
      <trkpt lat="44.4526" lon="2.45651">
        <ele>494.9</ele>
        <time>2013-08-04T09:34:17Z</time>
      </trkpt>
      <trkpt lat="44.45259" lon="2.45659">
        <ele>494.9</ele>
        <time>2013-08-04T09:34:19Z</time>
      </trkpt>
      <trkpt lat="44.45256" lon="2.45667">
        <ele>494.8</ele>
        <time>2013-08-04T09:34:21Z</time>
      </trkpt>
      <trkpt lat="44.45252" lon="2.45673">
        <ele>495.3</ele>
        <time>2013-08-04T09:34:23Z</time>
      </trkpt>
      <trkpt lat="44.45247" lon="2.45679">
        <ele>495.8</ele>
        <time>2013-08-04T09:34:25Z</time>
      </trkpt>
      <trkpt lat="44.45244" lon="2.45689">
        <ele>496.4</ele>
        <time>2013-08-04T09:34:28Z</time>
      </trkpt>
      <trkpt lat="44.4524" lon="2.45699">
        <ele>495.6</ele>
        <time>2013-08-04T09:34:31Z</time>
      </trkpt>
      <trkpt lat="44.45238" lon="2.45708">
        <ele>495.6</ele>
        <time>2013-08-04T09:34:33Z</time>
      </trkpt>
      <trkpt lat="44.45235" lon="2.45715">
        <ele>495.5</ele>
        <time>2013-08-04T09:34:35Z</time>
      </trkpt>
      <trkpt lat="44.45232" lon="2.45723">
        <ele>495.4</ele>
        <time>2013-08-04T09:34:37Z</time>
      </trkpt>
      <trkpt lat="44.45228" lon="2.45731">
        <ele>495</ele>
        <time>2013-08-04T09:34:39Z</time>
      </trkpt>
      <trkpt lat="44.45224" lon="2.4574">
        <ele>494.7</ele>
        <time>2013-08-04T09:34:41Z</time>
      </trkpt>
      <trkpt lat="44.45223" lon="2.4575">
        <ele>494.7</ele>
        <time>2013-08-04T09:34:43Z</time>
      </trkpt>
      <trkpt lat="44.45226" lon="2.45755">
        <ele>494.6</ele>
        <time>2013-08-04T09:34:44Z</time>
      </trkpt>
      <trkpt lat="44.45229" lon="2.4576">
        <ele>494.6</ele>
        <time>2013-08-04T09:34:45Z</time>
      </trkpt>
      <trkpt lat="44.45233" lon="2.45765">
        <ele>494.5</ele>
        <time>2013-08-04T09:34:46Z</time>
      </trkpt>
      <trkpt lat="44.45236" lon="2.4577">
        <ele>494.5</ele>
        <time>2013-08-04T09:34:47Z</time>
      </trkpt>
      <trkpt lat="44.45239" lon="2.45776">
        <ele>494.2</ele>
        <time>2013-08-04T09:34:48Z</time>
      </trkpt>
      <trkpt lat="44.45244" lon="2.45783">
        <ele>493.9</ele>
        <time>2013-08-04T09:34:49Z</time>
      </trkpt>
      <trkpt lat="44.45249" lon="2.45789">
        <ele>493.7</ele>
        <time>2013-08-04T09:34:50Z</time>
      </trkpt>
      <trkpt lat="44.45253" lon="2.45795">
        <ele>493</ele>
        <time>2013-08-04T09:34:51Z</time>
      </trkpt>
      <trkpt lat="44.45257" lon="2.45802">
        <ele>492.5</ele>
        <time>2013-08-04T09:34:52Z</time>
      </trkpt>
      <trkpt lat="44.45262" lon="2.45807">
        <ele>492.1</ele>
        <time>2013-08-04T09:34:53Z</time>
      </trkpt>
      <trkpt lat="44.45267" lon="2.45813">
        <ele>491.7</ele>
        <time>2013-08-04T09:34:54Z</time>
      </trkpt>
      <trkpt lat="44.45271" lon="2.45818">
        <ele>491.4</ele>
        <time>2013-08-04T09:34:55Z</time>
      </trkpt>
      <trkpt lat="44.45275" lon="2.45823">
        <ele>491.2</ele>
        <time>2013-08-04T09:34:56Z</time>
      </trkpt>
      <trkpt lat="44.45279" lon="2.45828">
        <ele>491</ele>
        <time>2013-08-04T09:34:57Z</time>
      </trkpt>
      <trkpt lat="44.45282" lon="2.45833">
        <ele>491.1</ele>
        <time>2013-08-04T09:34:58Z</time>
      </trkpt>
      <trkpt lat="44.45286" lon="2.45838">
        <ele>491.1</ele>
        <time>2013-08-04T09:34:59Z</time>
      </trkpt>
      <trkpt lat="44.4529" lon="2.45843">
        <ele>491.1</ele>
        <time>2013-08-04T09:35:00Z</time>
      </trkpt>
      <trkpt lat="44.45293" lon="2.45848">
        <ele>491</ele>
        <time>2013-08-04T09:35:01Z</time>
      </trkpt>
      <trkpt lat="44.45297" lon="2.45853">
        <ele>491</ele>
        <time>2013-08-04T09:35:02Z</time>
      </trkpt>
      <trkpt lat="44.45303" lon="2.45861">
        <ele>491.2</ele>
        <time>2013-08-04T09:35:04Z</time>
      </trkpt>
      <trkpt lat="44.45308" lon="2.45867">
        <ele>491.7</ele>
        <time>2013-08-04T09:35:06Z</time>
      </trkpt>
      <trkpt lat="44.45314" lon="2.45874">
        <ele>492</ele>
        <time>2013-08-04T09:35:08Z</time>
      </trkpt>
      <trkpt lat="44.45319" lon="2.45879">
        <ele>492.1</ele>
        <time>2013-08-04T09:35:10Z</time>
      </trkpt>
      <trkpt lat="44.45324" lon="2.45886">
        <ele>492</ele>
        <time>2013-08-04T09:35:12Z</time>
      </trkpt>
      <trkpt lat="44.4533" lon="2.45892">
        <ele>492.3</ele>
        <time>2013-08-04T09:35:14Z</time>
      </trkpt>
      <trkpt lat="44.45335" lon="2.45898">
        <ele>492.8</ele>
        <time>2013-08-04T09:35:16Z</time>
      </trkpt>
      <trkpt lat="44.45339" lon="2.45904">
        <ele>492.6</ele>
        <time>2013-08-04T09:35:18Z</time>
      </trkpt>
      <trkpt lat="44.45343" lon="2.45911">
        <ele>492.9</ele>
        <time>2013-08-04T09:35:20Z</time>
      </trkpt>
      <trkpt lat="44.45349" lon="2.45919">
        <ele>493.6</ele>
        <time>2013-08-04T09:35:23Z</time>
      </trkpt>
      <trkpt lat="44.45354" lon="2.45925">
        <ele>494.1</ele>
        <time>2013-08-04T09:35:25Z</time>
      </trkpt>
      <trkpt lat="44.45359" lon="2.45932">
        <ele>494.3</ele>
        <time>2013-08-04T09:35:27Z</time>
      </trkpt>
      <trkpt lat="44.45364" lon="2.45939">
        <ele>494.1</ele>
        <time>2013-08-04T09:35:29Z</time>
      </trkpt>
      <trkpt lat="44.4537" lon="2.45948">
        <ele>493.7</ele>
        <time>2013-08-04T09:35:31Z</time>
      </trkpt>
      <trkpt lat="44.45375" lon="2.45955">
        <ele>493.3</ele>
        <time>2013-08-04T09:35:33Z</time>
      </trkpt>
      <trkpt lat="44.45379" lon="2.4596">
        <ele>493.1</ele>
        <time>2013-08-04T09:35:34Z</time>
      </trkpt>
      <trkpt lat="44.45382" lon="2.45965">
        <ele>492.9</ele>
        <time>2013-08-04T09:35:35Z</time>
      </trkpt>
      <trkpt lat="44.45386" lon="2.45971">
        <ele>492.8</ele>
        <time>2013-08-04T09:35:36Z</time>
      </trkpt>
      <trkpt lat="44.4539" lon="2.45977">
        <ele>492.7</ele>
        <time>2013-08-04T09:35:37Z</time>
      </trkpt>
      <trkpt lat="44.45394" lon="2.45983">
        <ele>492.6</ele>
        <time>2013-08-04T09:35:38Z</time>
      </trkpt>
      <trkpt lat="44.45398" lon="2.4599">
        <ele>492.2</ele>
        <time>2013-08-04T09:35:39Z</time>
      </trkpt>
      <trkpt lat="44.45403" lon="2.45998">
        <ele>491.8</ele>
        <time>2013-08-04T09:35:40Z</time>
      </trkpt>
      <trkpt lat="44.45407" lon="2.46007">
        <ele>491.5</ele>
        <time>2013-08-04T09:35:41Z</time>
      </trkpt>
      <trkpt lat="44.45412" lon="2.46017">
        <ele>491.1</ele>
        <time>2013-08-04T09:35:42Z</time>
      </trkpt>
      <trkpt lat="44.45418" lon="2.46027">
        <ele>490.7</ele>
        <time>2013-08-04T09:35:43Z</time>
      </trkpt>
      <trkpt lat="44.45424" lon="2.46035">
        <ele>490.5</ele>
        <time>2013-08-04T09:35:44Z</time>
      </trkpt>
      <trkpt lat="44.45432" lon="2.46042">
        <ele>490.3</ele>
        <time>2013-08-04T09:35:45Z</time>
      </trkpt>
      <trkpt lat="44.45439" lon="2.46049">
        <ele>489.5</ele>
        <time>2013-08-04T09:35:46Z</time>
      </trkpt>
      <trkpt lat="44.45447" lon="2.46056">
        <ele>488.9</ele>
        <time>2013-08-04T09:35:47Z</time>
      </trkpt>
      <trkpt lat="44.45454" lon="2.46062">
        <ele>488.4</ele>
        <time>2013-08-04T09:35:48Z</time>
      </trkpt>
      <trkpt lat="44.45461" lon="2.46068">
        <ele>487.6</ele>
        <time>2013-08-04T09:35:49Z</time>
      </trkpt>
      <trkpt lat="44.45468" lon="2.46074">
        <ele>487.1</ele>
        <time>2013-08-04T09:35:50Z</time>
      </trkpt>
      <trkpt lat="44.45475" lon="2.4608">
        <ele>486.6</ele>
        <time>2013-08-04T09:35:51Z</time>
      </trkpt>
      <trkpt lat="44.45481" lon="2.46086">
        <ele>486.1</ele>
        <time>2013-08-04T09:35:52Z</time>
      </trkpt>
      <trkpt lat="44.45487" lon="2.46091">
        <ele>485.7</ele>
        <time>2013-08-04T09:35:53Z</time>
      </trkpt>
      <trkpt lat="44.45494" lon="2.46097">
        <ele>485.4</ele>
        <time>2013-08-04T09:35:54Z</time>
      </trkpt>
      <trkpt lat="44.455" lon="2.46102">
        <ele>485</ele>
        <time>2013-08-04T09:35:55Z</time>
      </trkpt>
      <trkpt lat="44.45506" lon="2.46107">
        <ele>484.6</ele>
        <time>2013-08-04T09:35:56Z</time>
      </trkpt>
      <trkpt lat="44.45511" lon="2.46113">
        <ele>484.4</ele>
        <time>2013-08-04T09:35:57Z</time>
      </trkpt>
      <trkpt lat="44.45516" lon="2.46121">
        <ele>484</ele>
        <time>2013-08-04T09:35:58Z</time>
      </trkpt>
      <trkpt lat="44.45519" lon="2.4613">
        <ele>483.7</ele>
        <time>2013-08-04T09:35:59Z</time>
      </trkpt>
      <trkpt lat="44.4552" lon="2.46139">
        <ele>483.4</ele>
        <time>2013-08-04T09:36:00Z</time>
      </trkpt>
      <trkpt lat="44.45521" lon="2.46149">
        <ele>482.9</ele>
        <time>2013-08-04T09:36:01Z</time>
      </trkpt>
      <trkpt lat="44.45523" lon="2.46158">
        <ele>482.5</ele>
        <time>2013-08-04T09:36:02Z</time>
      </trkpt>
      <trkpt lat="44.45525" lon="2.46168">
        <ele>482.2</ele>
        <time>2013-08-04T09:36:03Z</time>
      </trkpt>
      <trkpt lat="44.45526" lon="2.46177">
        <ele>482</ele>
        <time>2013-08-04T09:36:04Z</time>
      </trkpt>
      <trkpt lat="44.4553" lon="2.46186">
        <ele>481.3</ele>
        <time>2013-08-04T09:36:05Z</time>
      </trkpt>
      <trkpt lat="44.45534" lon="2.46194">
        <ele>480.9</ele>
        <time>2013-08-04T09:36:06Z</time>
      </trkpt>
      <trkpt lat="44.4554" lon="2.46199">
        <ele>480.5</ele>
        <time>2013-08-04T09:36:07Z</time>
      </trkpt>
      <trkpt lat="44.45546" lon="2.46203">
        <ele>480</ele>
        <time>2013-08-04T09:36:08Z</time>
      </trkpt>
      <trkpt lat="44.45553" lon="2.46207">
        <ele>479.6</ele>
        <time>2013-08-04T09:36:09Z</time>
      </trkpt>
      <trkpt lat="44.45559" lon="2.4621">
        <ele>479.3</ele>
        <time>2013-08-04T09:36:10Z</time>
      </trkpt>
      <trkpt lat="44.45566" lon="2.46213">
        <ele>479.3</ele>
        <time>2013-08-04T09:36:11Z</time>
      </trkpt>
      <trkpt lat="44.45573" lon="2.46216">
        <ele>479.2</ele>
        <time>2013-08-04T09:36:12Z</time>
      </trkpt>
      <trkpt lat="44.45579" lon="2.46218">
        <ele>479.1</ele>
        <time>2013-08-04T09:36:13Z</time>
      </trkpt>
      <trkpt lat="44.45586" lon="2.46221">
        <ele>478.7</ele>
        <time>2013-08-04T09:36:14Z</time>
      </trkpt>
      <trkpt lat="44.45591" lon="2.46223">
        <ele>478.3</ele>
        <time>2013-08-04T09:36:15Z</time>
      </trkpt>
      <trkpt lat="44.45599" lon="2.4622">
        <ele>477.6</ele>
        <time>2013-08-04T09:36:17Z</time>
      </trkpt>
      <trkpt lat="44.45604" lon="2.46213">
        <ele>477.1</ele>
        <time>2013-08-04T09:36:19Z</time>
      </trkpt>
      <trkpt lat="44.45607" lon="2.46205">
        <ele>476.4</ele>
        <time>2013-08-04T09:36:21Z</time>
      </trkpt>
      <trkpt lat="44.45611" lon="2.46196">
        <ele>475.8</ele>
        <time>2013-08-04T09:36:23Z</time>
      </trkpt>
      <trkpt lat="44.45613" lon="2.46191">
        <ele>475.6</ele>
        <time>2013-08-04T09:36:24Z</time>
      </trkpt>
      <trkpt lat="44.45615" lon="2.46185">
        <ele>475.6</ele>
        <time>2013-08-04T09:36:25Z</time>
      </trkpt>
      <trkpt lat="44.45618" lon="2.46179">
        <ele>475.5</ele>
        <time>2013-08-04T09:36:26Z</time>
      </trkpt>
      <trkpt lat="44.45621" lon="2.46173">
        <ele>475.3</ele>
        <time>2013-08-04T09:36:27Z</time>
      </trkpt>
      <trkpt lat="44.45625" lon="2.46168">
        <ele>475.2</ele>
        <time>2013-08-04T09:36:28Z</time>
      </trkpt>
      <trkpt lat="44.45629" lon="2.46163">
        <ele>475.1</ele>
        <time>2013-08-04T09:36:29Z</time>
      </trkpt>
      <trkpt lat="44.45634" lon="2.46154">
        <ele>474.5</ele>
        <time>2013-08-04T09:36:31Z</time>
      </trkpt>
      <trkpt lat="44.45639" lon="2.46144">
        <ele>475</ele>
        <time>2013-08-04T09:36:40Z</time>
      </trkpt>
      <trkpt lat="44.45644" lon="2.46153">
        <ele>472.8</ele>
        <time>2013-08-04T09:41:55Z</time>
      </trkpt>
      <trkpt lat="44.45645" lon="2.46154">
        <ele>472.9</ele>
        <time>2013-08-04T09:41:56Z</time>
      </trkpt>
      <trkpt lat="44.45641" lon="2.46142">
        <ele>475.1</ele>
        <time>2013-08-04T09:44:48Z</time>
      </trkpt>
      <trkpt lat="44.45651" lon="2.46123">
        <ele>476</ele>
        <time>2013-08-04T09:45:15Z</time>
      </trkpt>
      <trkpt lat="44.45657" lon="2.46115">
        <ele>476.8</ele>
        <time>2013-08-04T09:45:22Z</time>
      </trkpt>
      <trkpt lat="44.45661" lon="2.46106">
        <ele>478</ele>
        <time>2013-08-04T09:45:28Z</time>
      </trkpt>
      <trkpt lat="44.45664" lon="2.46095">
        <ele>478</ele>
        <time>2013-08-04T09:45:33Z</time>
      </trkpt>
      <trkpt lat="44.45667" lon="2.46086">
        <ele>479.2</ele>
        <time>2013-08-04T09:45:38Z</time>
      </trkpt>
      <trkpt lat="44.45669" lon="2.46076">
        <ele>479.6</ele>
        <time>2013-08-04T09:45:42Z</time>
      </trkpt>
      <trkpt lat="44.45672" lon="2.46065">
        <ele>481</ele>
        <time>2013-08-04T09:45:47Z</time>
      </trkpt>
      <trkpt lat="44.45674" lon="2.46054">
        <ele>481.5</ele>
        <time>2013-08-04T09:45:52Z</time>
      </trkpt>
      <trkpt lat="44.45675" lon="2.46052">
        <ele>481.7</ele>
        <time>2013-08-04T09:45:53Z</time>
      </trkpt>
      <trkpt lat="44.45683" lon="2.46033">
        <ele>482.6</ele>
        <time>2013-08-04T09:46:03Z</time>
      </trkpt>
      <trkpt lat="44.45685" lon="2.46023">
        <ele>483.3</ele>
        <time>2013-08-04T09:46:07Z</time>
      </trkpt>
      <trkpt lat="44.45688" lon="2.46011">
        <ele>484.2</ele>
        <time>2013-08-04T09:46:12Z</time>
      </trkpt>
      <trkpt lat="44.45691" lon="2.46002">
        <ele>484.9</ele>
        <time>2013-08-04T09:46:16Z</time>
      </trkpt>
      <trkpt lat="44.45694" lon="2.45992">
        <ele>485.7</ele>
        <time>2013-08-04T09:46:20Z</time>
      </trkpt>
      <trkpt lat="44.45697" lon="2.45983">
        <ele>485.8</ele>
        <time>2013-08-04T09:46:23Z</time>
      </trkpt>
      <trkpt lat="44.45701" lon="2.45974">
        <ele>486.1</ele>
        <time>2013-08-04T09:46:26Z</time>
      </trkpt>
      <trkpt lat="44.45704" lon="2.45965">
        <ele>486.4</ele>
        <time>2013-08-04T09:46:29Z</time>
      </trkpt>
      <trkpt lat="44.45709" lon="2.45954">
        <ele>486.5</ele>
        <time>2013-08-04T09:46:33Z</time>
      </trkpt>
      <trkpt lat="44.45712" lon="2.45944">
        <ele>487.3</ele>
        <time>2013-08-04T09:46:37Z</time>
      </trkpt>
      <trkpt lat="44.45716" lon="2.45934">
        <ele>488.6</ele>
        <time>2013-08-04T09:46:41Z</time>
      </trkpt>
      <trkpt lat="44.45719" lon="2.45924">
        <ele>488.7</ele>
        <time>2013-08-04T09:46:45Z</time>
      </trkpt>
      <trkpt lat="44.45723" lon="2.45913">
        <ele>490</ele>
        <time>2013-08-04T09:46:50Z</time>
      </trkpt>
      <trkpt lat="44.45727" lon="2.45902">
        <ele>490.6</ele>
        <time>2013-08-04T09:46:54Z</time>
      </trkpt>
      <trkpt lat="44.45728" lon="2.45899">
        <ele>490.7</ele>
        <time>2013-08-04T09:46:55Z</time>
      </trkpt>
      <trkpt lat="44.45735" lon="2.4588">
        <ele>491.4</ele>
        <time>2013-08-04T09:47:02Z</time>
      </trkpt>
      <trkpt lat="44.45739" lon="2.45869">
        <ele>492.9</ele>
        <time>2013-08-04T09:47:06Z</time>
      </trkpt>
      <trkpt lat="44.45743" lon="2.45861">
        <ele>493.1</ele>
        <time>2013-08-04T09:47:09Z</time>
      </trkpt>
      <trkpt lat="44.45746" lon="2.45851">
        <ele>492.4</ele>
        <time>2013-08-04T09:47:12Z</time>
      </trkpt>
      <trkpt lat="44.4575" lon="2.45842">
        <ele>492.7</ele>
        <time>2013-08-04T09:47:15Z</time>
      </trkpt>
      <trkpt lat="44.45754" lon="2.45831">
        <ele>492.8</ele>
        <time>2013-08-04T09:47:18Z</time>
      </trkpt>
      <trkpt lat="44.45758" lon="2.45821">
        <ele>493.4</ele>
        <time>2013-08-04T09:47:21Z</time>
      </trkpt>
      <trkpt lat="44.45762" lon="2.45812">
        <ele>494.2</ele>
        <time>2013-08-04T09:47:24Z</time>
      </trkpt>
      <trkpt lat="44.45766" lon="2.45803">
        <ele>494.6</ele>
        <time>2013-08-04T09:47:27Z</time>
      </trkpt>
      <trkpt lat="44.45769" lon="2.45793">
        <ele>495</ele>
        <time>2013-08-04T09:47:30Z</time>
      </trkpt>
      <trkpt lat="44.45773" lon="2.45783">
        <ele>494.9</ele>
        <time>2013-08-04T09:47:33Z</time>
      </trkpt>
      <trkpt lat="44.45777" lon="2.45773">
        <ele>495.5</ele>
        <time>2013-08-04T09:47:36Z</time>
      </trkpt>
      <trkpt lat="44.45781" lon="2.45763">
        <ele>495.9</ele>
        <time>2013-08-04T09:47:39Z</time>
      </trkpt>
      <trkpt lat="44.45786" lon="2.45753">
        <ele>495.7</ele>
        <time>2013-08-04T09:47:42Z</time>
      </trkpt>
      <trkpt lat="44.45789" lon="2.45743">
        <ele>495.8</ele>
        <time>2013-08-04T09:47:45Z</time>
      </trkpt>
      <trkpt lat="44.45792" lon="2.45732">
        <ele>496.8</ele>
        <time>2013-08-04T09:47:48Z</time>
      </trkpt>
      <trkpt lat="44.45796" lon="2.45722">
        <ele>497.5</ele>
        <time>2013-08-04T09:47:51Z</time>
      </trkpt>
      <trkpt lat="44.458" lon="2.45711">
        <ele>497.7</ele>
        <time>2013-08-04T09:47:54Z</time>
      </trkpt>
      <trkpt lat="44.45803" lon="2.457">
        <ele>498</ele>
        <time>2013-08-04T09:47:57Z</time>
      </trkpt>
      <trkpt lat="44.45804" lon="2.45697">
        <ele>498.2</ele>
        <time>2013-08-04T09:47:58Z</time>
      </trkpt>
      <trkpt lat="44.45806" lon="2.45679">
        <ele>498.4</ele>
        <time>2013-08-04T09:48:03Z</time>
      </trkpt>
      <trkpt lat="44.45808" lon="2.45671">
        <ele>498.4</ele>
        <time>2013-08-04T09:48:05Z</time>
      </trkpt>
      <trkpt lat="44.45809" lon="2.45662">
        <ele>498.7</ele>
        <time>2013-08-04T09:48:07Z</time>
      </trkpt>
      <trkpt lat="44.4581" lon="2.45653">
        <ele>498.5</ele>
        <time>2013-08-04T09:48:09Z</time>
      </trkpt>
      <trkpt lat="44.45812" lon="2.45644">
        <ele>498</ele>
        <time>2013-08-04T09:48:11Z</time>
      </trkpt>
      <trkpt lat="44.45813" lon="2.45635">
        <ele>498.2</ele>
        <time>2013-08-04T09:48:13Z</time>
      </trkpt>
      <trkpt lat="44.45814" lon="2.45626">
        <ele>498.3</ele>
        <time>2013-08-04T09:48:15Z</time>
      </trkpt>
      <trkpt lat="44.45815" lon="2.45617">
        <ele>498.5</ele>
        <time>2013-08-04T09:48:17Z</time>
      </trkpt>
      <trkpt lat="44.45817" lon="2.45607">
        <ele>498.6</ele>
        <time>2013-08-04T09:48:19Z</time>
      </trkpt>
      <trkpt lat="44.45818" lon="2.45596">
        <ele>498.7</ele>
        <time>2013-08-04T09:48:21Z</time>
      </trkpt>
      <trkpt lat="44.45819" lon="2.45586">
        <ele>499.2</ele>
        <time>2013-08-04T09:48:23Z</time>
      </trkpt>
      <trkpt lat="44.4582" lon="2.45576">
        <ele>499.3</ele>
        <time>2013-08-04T09:48:25Z</time>
      </trkpt>
      <trkpt lat="44.45822" lon="2.45564">
        <ele>499.4</ele>
        <time>2013-08-04T09:48:28Z</time>
      </trkpt>
      <trkpt lat="44.45824" lon="2.45554">
        <ele>499.5</ele>
        <time>2013-08-04T09:48:30Z</time>
      </trkpt>
      <trkpt lat="44.45827" lon="2.45544">
        <ele>499.4</ele>
        <time>2013-08-04T09:48:32Z</time>
      </trkpt>
      <trkpt lat="44.4583" lon="2.45535">
        <ele>499.2</ele>
        <time>2013-08-04T09:48:34Z</time>
      </trkpt>
      <trkpt lat="44.45833" lon="2.45526">
        <ele>498.7</ele>
        <time>2013-08-04T09:48:36Z</time>
      </trkpt>
      <trkpt lat="44.45836" lon="2.45517">
        <ele>498.5</ele>
        <time>2013-08-04T09:48:38Z</time>
      </trkpt>
      <trkpt lat="44.4584" lon="2.45507">
        <ele>498.5</ele>
        <time>2013-08-04T09:48:40Z</time>
      </trkpt>
      <trkpt lat="44.45843" lon="2.45502">
        <ele>498.2</ele>
        <time>2013-08-04T09:48:41Z</time>
      </trkpt>
      <trkpt lat="44.45845" lon="2.45496">
        <ele>497.9</ele>
        <time>2013-08-04T09:48:42Z</time>
      </trkpt>
      <trkpt lat="44.45848" lon="2.4549">
        <ele>497.7</ele>
        <time>2013-08-04T09:48:43Z</time>
      </trkpt>
      <trkpt lat="44.4585" lon="2.45479">
        <ele>496.5</ele>
        <time>2013-08-04T09:48:45Z</time>
      </trkpt>
      <trkpt lat="44.45849" lon="2.4547">
        <ele>495.8</ele>
        <time>2013-08-04T09:48:47Z</time>
      </trkpt>
      <trkpt lat="44.45845" lon="2.4546">
        <ele>494.7</ele>
        <time>2013-08-04T09:48:49Z</time>
      </trkpt>
      <trkpt lat="44.45842" lon="2.4545">
        <ele>494.1</ele>
        <time>2013-08-04T09:48:52Z</time>
      </trkpt>
      <trkpt lat="44.45839" lon="2.45441">
        <ele>494.8</ele>
        <time>2013-08-04T09:48:55Z</time>
      </trkpt>
      <trkpt lat="44.45842" lon="2.4543">
        <ele>495.7</ele>
        <time>2013-08-04T09:48:58Z</time>
      </trkpt>
      <trkpt lat="44.45845" lon="2.45428">
        <ele>495.9</ele>
        <time>2013-08-04T09:48:59Z</time>
      </trkpt>
      <trkpt lat="44.45854" lon="2.45423">
        <ele>495.9</ele>
        <time>2013-08-04T09:49:02Z</time>
      </trkpt>
      <trkpt lat="44.45861" lon="2.4542">
        <ele>496.2</ele>
        <time>2013-08-04T09:49:04Z</time>
      </trkpt>
      <trkpt lat="44.45868" lon="2.45417">
        <ele>496.6</ele>
        <time>2013-08-04T09:49:06Z</time>
      </trkpt>
      <trkpt lat="44.45875" lon="2.45414">
        <ele>496.1</ele>
        <time>2013-08-04T09:49:08Z</time>
      </trkpt>
      <trkpt lat="44.45882" lon="2.45413">
        <ele>496.2</ele>
        <time>2013-08-04T09:49:10Z</time>
      </trkpt>
      <trkpt lat="44.45889" lon="2.45409">
        <ele>496.4</ele>
        <time>2013-08-04T09:49:12Z</time>
      </trkpt>
      <trkpt lat="44.45895" lon="2.45402">
        <ele>495.6</ele>
        <time>2013-08-04T09:49:14Z</time>
      </trkpt>
      <trkpt lat="44.45903" lon="2.45397">
        <ele>495.5</ele>
        <time>2013-08-04T09:49:16Z</time>
      </trkpt>
      <trkpt lat="44.45911" lon="2.45399">
        <ele>495.8</ele>
        <time>2013-08-04T09:49:18Z</time>
      </trkpt>
      <trkpt lat="44.45915" lon="2.45401">
        <ele>495.4</ele>
        <time>2013-08-04T09:49:19Z</time>
      </trkpt>
      <trkpt lat="44.45919" lon="2.45404">
        <ele>495.2</ele>
        <time>2013-08-04T09:49:20Z</time>
      </trkpt>
      <trkpt lat="44.45925" lon="2.45407">
        <ele>495</ele>
        <time>2013-08-04T09:49:21Z</time>
      </trkpt>
      <trkpt lat="44.4593" lon="2.45411">
        <ele>494.8</ele>
        <time>2013-08-04T09:49:22Z</time>
      </trkpt>
      <trkpt lat="44.45936" lon="2.45416">
        <ele>494.1</ele>
        <time>2013-08-04T09:49:23Z</time>
      </trkpt>
      <trkpt lat="44.45943" lon="2.45421">
        <ele>493.6</ele>
        <time>2013-08-04T09:49:24Z</time>
      </trkpt>
      <trkpt lat="44.4595" lon="2.45424">
        <ele>493.2</ele>
        <time>2013-08-04T09:49:25Z</time>
      </trkpt>
      <trkpt lat="44.45958" lon="2.45426">
        <ele>492.1</ele>
        <time>2013-08-04T09:49:26Z</time>
      </trkpt>
      <trkpt lat="44.45965" lon="2.45428">
        <ele>491.2</ele>
        <time>2013-08-04T09:49:27Z</time>
      </trkpt>
      <trkpt lat="44.45973" lon="2.4543">
        <ele>490.5</ele>
        <time>2013-08-04T09:49:28Z</time>
      </trkpt>
      <trkpt lat="44.4598" lon="2.45433">
        <ele>489.9</ele>
        <time>2013-08-04T09:49:29Z</time>
      </trkpt>
      <trkpt lat="44.45988" lon="2.45436">
        <ele>489.5</ele>
        <time>2013-08-04T09:49:30Z</time>
      </trkpt>
      <trkpt lat="44.45996" lon="2.45439">
        <ele>489.2</ele>
        <time>2013-08-04T09:49:31Z</time>
      </trkpt>
      <trkpt lat="44.46003" lon="2.45442">
        <ele>488.5</ele>
        <time>2013-08-04T09:49:32Z</time>
      </trkpt>
      <trkpt lat="44.46009" lon="2.45446">
        <ele>487.9</ele>
        <time>2013-08-04T09:49:33Z</time>
      </trkpt>
      <trkpt lat="44.46016" lon="2.45451">
        <ele>487.5</ele>
        <time>2013-08-04T09:49:34Z</time>
      </trkpt>
      <trkpt lat="44.46022" lon="2.45455">
        <ele>486.9</ele>
        <time>2013-08-04T09:49:35Z</time>
      </trkpt>
      <trkpt lat="44.46028" lon="2.4546">
        <ele>486.5</ele>
        <time>2013-08-04T09:49:36Z</time>
      </trkpt>
      <trkpt lat="44.46032" lon="2.45465">
        <ele>486.2</ele>
        <time>2013-08-04T09:49:37Z</time>
      </trkpt>
      <trkpt lat="44.46037" lon="2.4547">
        <ele>485.9</ele>
        <time>2013-08-04T09:49:38Z</time>
      </trkpt>
      <trkpt lat="44.46041" lon="2.45475">
        <ele>485.9</ele>
        <time>2013-08-04T09:49:39Z</time>
      </trkpt>
      <trkpt lat="44.46045" lon="2.4548">
        <ele>485.8</ele>
        <time>2013-08-04T09:49:40Z</time>
      </trkpt>
      <trkpt lat="44.46049" lon="2.45484">
        <ele>485.8</ele>
        <time>2013-08-04T09:49:41Z</time>
      </trkpt>
      <trkpt lat="44.46056" lon="2.45491">
        <ele>485.5</ele>
        <time>2013-08-04T09:49:43Z</time>
      </trkpt>
      <trkpt lat="44.46063" lon="2.45498">
        <ele>485.3</ele>
        <time>2013-08-04T09:49:45Z</time>
      </trkpt>
      <trkpt lat="44.46071" lon="2.45505">
        <ele>485.1</ele>
        <time>2013-08-04T09:49:47Z</time>
      </trkpt>
      <trkpt lat="44.46075" lon="2.45508">
        <ele>484.7</ele>
        <time>2013-08-04T09:49:48Z</time>
      </trkpt>
      <trkpt lat="44.46082" lon="2.45513">
        <ele>484.2</ele>
        <time>2013-08-04T09:49:50Z</time>
      </trkpt>
      <trkpt lat="44.46086" lon="2.45517">
        <ele>484.3</ele>
        <time>2013-08-04T09:49:51Z</time>
      </trkpt>
      <trkpt lat="44.4609" lon="2.4552">
        <ele>484.3</ele>
        <time>2013-08-04T09:49:52Z</time>
      </trkpt>
      <trkpt lat="44.46094" lon="2.45524">
        <ele>484.4</ele>
        <time>2013-08-04T09:49:53Z</time>
      </trkpt>
      <trkpt lat="44.46099" lon="2.45527">
        <ele>484.4</ele>
        <time>2013-08-04T09:49:54Z</time>
      </trkpt>
      <trkpt lat="44.46104" lon="2.4553">
        <ele>484.4</ele>
        <time>2013-08-04T09:49:55Z</time>
      </trkpt>
      <trkpt lat="44.46109" lon="2.45533">
        <ele>484.3</ele>
        <time>2013-08-04T09:49:56Z</time>
      </trkpt>
      <trkpt lat="44.46114" lon="2.45536">
        <ele>484.3</ele>
        <time>2013-08-04T09:49:57Z</time>
      </trkpt>
      <trkpt lat="44.46119" lon="2.45538">
        <ele>483.7</ele>
        <time>2013-08-04T09:49:58Z</time>
      </trkpt>
      <trkpt lat="44.46125" lon="2.45541">
        <ele>483.3</ele>
        <time>2013-08-04T09:49:59Z</time>
      </trkpt>
      <trkpt lat="44.46132" lon="2.45543">
        <ele>483</ele>
        <time>2013-08-04T09:50:00Z</time>
      </trkpt>
      <trkpt lat="44.46139" lon="2.45546">
        <ele>482.4</ele>
        <time>2013-08-04T09:50:01Z</time>
      </trkpt>
      <trkpt lat="44.46146" lon="2.45548">
        <ele>482</ele>
        <time>2013-08-04T09:50:02Z</time>
      </trkpt>
      <trkpt lat="44.46152" lon="2.45549">
        <ele>481.7</ele>
        <time>2013-08-04T09:50:03Z</time>
      </trkpt>
      <trkpt lat="44.4616" lon="2.45552">
        <ele>479.5</ele>
        <time>2013-08-04T09:50:05Z</time>
      </trkpt>
      <trkpt lat="44.46159" lon="2.45564">
        <ele>477</ele>
        <time>2013-08-04T09:50:08Z</time>
      </trkpt>
      <trkpt lat="44.46156" lon="2.45576">
        <ele>475.9</ele>
        <time>2013-08-04T09:50:10Z</time>
      </trkpt>
      <trkpt lat="44.46154" lon="2.45582">
        <ele>474.9</ele>
        <time>2013-08-04T09:50:11Z</time>
      </trkpt>
      <trkpt lat="44.46151" lon="2.45588">
        <ele>474.2</ele>
        <time>2013-08-04T09:50:12Z</time>
      </trkpt>
      <trkpt lat="44.46146" lon="2.45592">
        <ele>473.6</ele>
        <time>2013-08-04T09:50:13Z</time>
      </trkpt>
      <trkpt lat="44.4614" lon="2.45596">
        <ele>473.2</ele>
        <time>2013-08-04T09:50:14Z</time>
      </trkpt>
      <trkpt lat="44.46133" lon="2.45598">
        <ele>472.9</ele>
        <time>2013-08-04T09:50:15Z</time>
      </trkpt>
      <trkpt lat="44.46126" lon="2.456">
        <ele>472.7</ele>
        <time>2013-08-04T09:50:16Z</time>
      </trkpt>
      <trkpt lat="44.46118" lon="2.45601">
        <ele>471.8</ele>
        <time>2013-08-04T09:50:17Z</time>
      </trkpt>
      <trkpt lat="44.46114" lon="2.45604">
        <ele>471.1</ele>
        <time>2013-08-04T09:50:18Z</time>
      </trkpt>
      <trkpt lat="44.46109" lon="2.45609">
        <ele>470.5</ele>
        <time>2013-08-04T09:50:19Z</time>
      </trkpt>
      <trkpt lat="44.46107" lon="2.45616">
        <ele>469.2</ele>
        <time>2013-08-04T09:50:20Z</time>
      </trkpt>
      <trkpt lat="44.46107" lon="2.45624">
        <ele>468.2</ele>
        <time>2013-08-04T09:50:21Z</time>
      </trkpt>
      <trkpt lat="44.4611" lon="2.45634">
        <ele>466</ele>
        <time>2013-08-04T09:50:23Z</time>
      </trkpt>
      <trkpt lat="44.46116" lon="2.45636">
        <ele>464.2</ele>
        <time>2013-08-04T09:50:25Z</time>
      </trkpt>
      <trkpt lat="44.46123" lon="2.45633">
        <ele>463.3</ele>
        <time>2013-08-04T09:50:27Z</time>
      </trkpt>
      <trkpt lat="44.46131" lon="2.45633">
        <ele>462.9</ele>
        <time>2013-08-04T09:50:29Z</time>
      </trkpt>
      <trkpt lat="44.46138" lon="2.4564">
        <ele>459.2</ele>
        <time>2013-08-04T09:51:55Z</time>
      </trkpt>
      <trkpt lat="44.4614" lon="2.4564">
        <ele>459.2</ele>
        <time>2013-08-04T09:51:56Z</time>
      </trkpt>
      <trkpt lat="44.46151" lon="2.4564">
        <ele>458.7</ele>
        <time>2013-08-04T09:51:59Z</time>
      </trkpt>
      <trkpt lat="44.46159" lon="2.45637">
        <ele>458.3</ele>
        <time>2013-08-04T09:52:01Z</time>
      </trkpt>
      <trkpt lat="44.46164" lon="2.45635">
        <ele>458.3</ele>
        <time>2013-08-04T09:52:02Z</time>
      </trkpt>
      <trkpt lat="44.46169" lon="2.45632">
        <ele>458.4</ele>
        <time>2013-08-04T09:52:03Z</time>
      </trkpt>
      <trkpt lat="44.46175" lon="2.4563">
        <ele>458.4</ele>
        <time>2013-08-04T09:52:04Z</time>
      </trkpt>
      <trkpt lat="44.4618" lon="2.45628">
        <ele>458.5</ele>
        <time>2013-08-04T09:52:05Z</time>
      </trkpt>
      <trkpt lat="44.46186" lon="2.45625">
        <ele>458.5</ele>
        <time>2013-08-04T09:52:06Z</time>
      </trkpt>
      <trkpt lat="44.46193" lon="2.45623">
        <ele>458.6</ele>
        <time>2013-08-04T09:52:07Z</time>
      </trkpt>
      <trkpt lat="44.462" lon="2.45621">
        <ele>458.6</ele>
        <time>2013-08-04T09:52:08Z</time>
      </trkpt>
      <trkpt lat="44.46207" lon="2.45619">
        <ele>458.3</ele>
        <time>2013-08-04T09:52:09Z</time>
      </trkpt>
      <trkpt lat="44.46214" lon="2.4562">
        <ele>458</ele>
        <time>2013-08-04T09:52:10Z</time>
      </trkpt>
      <trkpt lat="44.46221" lon="2.45623">
        <ele>457.8</ele>
        <time>2013-08-04T09:52:11Z</time>
      </trkpt>
      <trkpt lat="44.46227" lon="2.45627">
        <ele>457.2</ele>
        <time>2013-08-04T09:52:12Z</time>
      </trkpt>
      <trkpt lat="44.46233" lon="2.45633">
        <ele>456.7</ele>
        <time>2013-08-04T09:52:13Z</time>
      </trkpt>
      <trkpt lat="44.46239" lon="2.4564">
        <ele>456.3</ele>
        <time>2013-08-04T09:52:14Z</time>
      </trkpt>
      <trkpt lat="44.46244" lon="2.45649">
        <ele>455.7</ele>
        <time>2013-08-04T09:52:15Z</time>
      </trkpt>
      <trkpt lat="44.46248" lon="2.45659">
        <ele>455.2</ele>
        <time>2013-08-04T09:52:16Z</time>
      </trkpt>
      <trkpt lat="44.46251" lon="2.4567">
        <ele>454.8</ele>
        <time>2013-08-04T09:52:17Z</time>
      </trkpt>
      <trkpt lat="44.46251" lon="2.45683">
        <ele>454</ele>
        <time>2013-08-04T09:52:18Z</time>
      </trkpt>
      <trkpt lat="44.4625" lon="2.45697">
        <ele>453.4</ele>
        <time>2013-08-04T09:52:19Z</time>
      </trkpt>
      <trkpt lat="44.46249" lon="2.4571">
        <ele>453</ele>
        <time>2013-08-04T09:52:20Z</time>
      </trkpt>
      <trkpt lat="44.46247" lon="2.45724">
        <ele>452.1</ele>
        <time>2013-08-04T09:52:21Z</time>
      </trkpt>
      <trkpt lat="44.46247" lon="2.45738">
        <ele>451.4</ele>
        <time>2013-08-04T09:52:22Z</time>
      </trkpt>
      <trkpt lat="44.46248" lon="2.45753">
        <ele>450.9</ele>
        <time>2013-08-04T09:52:23Z</time>
      </trkpt>
      <trkpt lat="44.4625" lon="2.45767">
        <ele>450.5</ele>
        <time>2013-08-04T09:52:24Z</time>
      </trkpt>
      <trkpt lat="44.46254" lon="2.45781">
        <ele>450</ele>
        <time>2013-08-04T09:52:25Z</time>
      </trkpt>
      <trkpt lat="44.46257" lon="2.45795">
        <ele>449.7</ele>
        <time>2013-08-04T09:52:26Z</time>
      </trkpt>
      <trkpt lat="44.46261" lon="2.45806">
        <ele>449.4</ele>
        <time>2013-08-04T09:52:27Z</time>
      </trkpt>
      <trkpt lat="44.46265" lon="2.45817">
        <ele>448.2</ele>
        <time>2013-08-04T09:52:28Z</time>
      </trkpt>
      <trkpt lat="44.46269" lon="2.45826">
        <ele>447.3</ele>
        <time>2013-08-04T09:52:29Z</time>
      </trkpt>
      <trkpt lat="44.46273" lon="2.45835">
        <ele>446.6</ele>
        <time>2013-08-04T09:52:30Z</time>
      </trkpt>
      <trkpt lat="44.46277" lon="2.45842">
        <ele>445.4</ele>
        <time>2013-08-04T09:52:31Z</time>
      </trkpt>
      <trkpt lat="44.46281" lon="2.45847">
        <ele>444.5</ele>
        <time>2013-08-04T09:52:32Z</time>
      </trkpt>
      <trkpt lat="44.46284" lon="2.45852">
        <ele>443.8</ele>
        <time>2013-08-04T09:52:33Z</time>
      </trkpt>
      <trkpt lat="44.4629" lon="2.4586">
        <ele>442.6</ele>
        <time>2013-08-04T09:52:35Z</time>
      </trkpt>
      <trkpt lat="44.46295" lon="2.45868">
        <ele>441.8</ele>
        <time>2013-08-04T09:52:37Z</time>
      </trkpt>
      <trkpt lat="44.46299" lon="2.45873">
        <ele>441.5</ele>
        <time>2013-08-04T09:52:38Z</time>
      </trkpt>
      <trkpt lat="44.46302" lon="2.45877">
        <ele>441.3</ele>
        <time>2013-08-04T09:52:39Z</time>
      </trkpt>
      <trkpt lat="44.46305" lon="2.45883">
        <ele>441.2</ele>
        <time>2013-08-04T09:52:40Z</time>
      </trkpt>
      <trkpt lat="44.4631" lon="2.45888">
        <ele>440.2</ele>
        <time>2013-08-04T09:52:41Z</time>
      </trkpt>
      <trkpt lat="44.46314" lon="2.45893">
        <ele>439.5</ele>
        <time>2013-08-04T09:52:42Z</time>
      </trkpt>
      <trkpt lat="44.46319" lon="2.459">
        <ele>438.9</ele>
        <time>2013-08-04T09:52:43Z</time>
      </trkpt>
      <trkpt lat="44.46324" lon="2.45906">
        <ele>438.7</ele>
        <time>2013-08-04T09:52:44Z</time>
      </trkpt>
      <trkpt lat="44.46329" lon="2.45913">
        <ele>438.5</ele>
        <time>2013-08-04T09:52:45Z</time>
      </trkpt>
      <trkpt lat="44.46334" lon="2.4592">
        <ele>438.4</ele>
        <time>2013-08-04T09:52:46Z</time>
      </trkpt>
      <trkpt lat="44.4634" lon="2.45927">
        <ele>437.4</ele>
        <time>2013-08-04T09:52:47Z</time>
      </trkpt>
      <trkpt lat="44.46346" lon="2.45934">
        <ele>436.8</ele>
        <time>2013-08-04T09:52:48Z</time>
      </trkpt>
      <trkpt lat="44.46352" lon="2.45941">
        <ele>436.2</ele>
        <time>2013-08-04T09:52:49Z</time>
      </trkpt>
      <trkpt lat="44.46358" lon="2.45948">
        <ele>435.9</ele>
        <time>2013-08-04T09:52:50Z</time>
      </trkpt>
      <trkpt lat="44.46364" lon="2.45954">
        <ele>435.7</ele>
        <time>2013-08-04T09:52:51Z</time>
      </trkpt>
      <trkpt lat="44.46371" lon="2.45961">
        <ele>435.5</ele>
        <time>2013-08-04T09:52:52Z</time>
      </trkpt>
      <trkpt lat="44.46378" lon="2.45966">
        <ele>434.9</ele>
        <time>2013-08-04T09:52:53Z</time>
      </trkpt>
      <trkpt lat="44.46386" lon="2.4597">
        <ele>434.4</ele>
        <time>2013-08-04T09:52:54Z</time>
      </trkpt>
      <trkpt lat="44.46394" lon="2.45972">
        <ele>434.1</ele>
        <time>2013-08-04T09:52:55Z</time>
      </trkpt>
      <trkpt lat="44.46403" lon="2.45973">
        <ele>433.8</ele>
        <time>2013-08-04T09:52:56Z</time>
      </trkpt>
      <trkpt lat="44.46411" lon="2.45974">
        <ele>433.3</ele>
        <time>2013-08-04T09:52:57Z</time>
      </trkpt>
      <trkpt lat="44.4642" lon="2.45976">
        <ele>433</ele>
        <time>2013-08-04T09:52:58Z</time>
      </trkpt>
      <trkpt lat="44.46429" lon="2.45978">
        <ele>432.7</ele>
        <time>2013-08-04T09:52:59Z</time>
      </trkpt>
      <trkpt lat="44.46438" lon="2.45982">
        <ele>431.8</ele>
        <time>2013-08-04T09:53:00Z</time>
      </trkpt>
      <trkpt lat="44.46447" lon="2.45987">
        <ele>431.1</ele>
        <time>2013-08-04T09:53:01Z</time>
      </trkpt>
      <trkpt lat="44.46456" lon="2.45992">
        <ele>430.5</ele>
        <time>2013-08-04T09:53:02Z</time>
      </trkpt>
      <trkpt lat="44.46464" lon="2.45998">
        <ele>430.1</ele>
        <time>2013-08-04T09:53:03Z</time>
      </trkpt>
      <trkpt lat="44.46471" lon="2.46004">
        <ele>429.8</ele>
        <time>2013-08-04T09:53:04Z</time>
      </trkpt>
      <trkpt lat="44.46477" lon="2.46011">
        <ele>429.6</ele>
        <time>2013-08-04T09:53:05Z</time>
      </trkpt>
      <trkpt lat="44.46482" lon="2.46018">
        <ele>429.1</ele>
        <time>2013-08-04T09:53:06Z</time>
      </trkpt>
      <trkpt lat="44.46487" lon="2.46026">
        <ele>428.8</ele>
        <time>2013-08-04T09:53:07Z</time>
      </trkpt>
      <trkpt lat="44.46491" lon="2.46033">
        <ele>428.5</ele>
        <time>2013-08-04T09:53:08Z</time>
      </trkpt>
      <trkpt lat="44.46494" lon="2.46039">
        <ele>427.9</ele>
        <time>2013-08-04T09:53:09Z</time>
      </trkpt>
      <trkpt lat="44.46498" lon="2.46048">
        <ele>427.1</ele>
        <time>2013-08-04T09:53:11Z</time>
      </trkpt>
      <trkpt lat="44.46502" lon="2.46055">
        <ele>426.9</ele>
        <time>2013-08-04T09:53:13Z</time>
      </trkpt>
      <trkpt lat="44.46509" lon="2.46061">
        <ele>427.1</ele>
        <time>2013-08-04T09:53:16Z</time>
      </trkpt>
      <trkpt lat="44.46517" lon="2.46058">
        <ele>428.1</ele>
        <time>2013-08-04T09:53:23Z</time>
      </trkpt>
      <trkpt lat="44.46525" lon="2.46055">
        <ele>427.7</ele>
        <time>2013-08-04T09:53:29Z</time>
      </trkpt>
      <trkpt lat="44.46533" lon="2.46059">
        <ele>428.3</ele>
        <time>2013-08-04T09:53:33Z</time>
      </trkpt>
      <trkpt lat="44.4654" lon="2.46066">
        <ele>429</ele>
        <time>2013-08-04T09:53:39Z</time>
      </trkpt>
      <trkpt lat="44.46546" lon="2.46072">
        <ele>430.1</ele>
        <time>2013-08-04T09:53:43Z</time>
      </trkpt>
      <trkpt lat="44.46555" lon="2.46073">
        <ele>431.8</ele>
        <time>2013-08-04T09:53:47Z</time>
      </trkpt>
      <trkpt lat="44.46563" lon="2.4607">
        <ele>431.7</ele>
        <time>2013-08-04T09:53:51Z</time>
      </trkpt>
      <trkpt lat="44.46571" lon="2.46068">
        <ele>432.2</ele>
        <time>2013-08-04T09:53:55Z</time>
      </trkpt>
      <trkpt lat="44.46578" lon="2.46066">
        <ele>432.9</ele>
        <time>2013-08-04T09:53:58Z</time>
      </trkpt>
      <trkpt lat="44.4658" lon="2.46066">
        <ele>433.1</ele>
        <time>2013-08-04T09:53:59Z</time>
      </trkpt>
      <trkpt lat="44.46593" lon="2.46063">
        <ele>435</ele>
        <time>2013-08-04T09:54:05Z</time>
      </trkpt>
      <trkpt lat="44.466" lon="2.46062">
        <ele>436.4</ele>
        <time>2013-08-04T09:54:08Z</time>
      </trkpt>
      <trkpt lat="44.46608" lon="2.46061">
        <ele>438.3</ele>
        <time>2013-08-04T09:54:11Z</time>
      </trkpt>
      <trkpt lat="44.46616" lon="2.4606">
        <ele>439.2</ele>
        <time>2013-08-04T09:54:15Z</time>
      </trkpt>
      <trkpt lat="44.46623" lon="2.46057">
        <ele>438.7</ele>
        <time>2013-08-04T09:54:18Z</time>
      </trkpt>
      <trkpt lat="44.46631" lon="2.46052">
        <ele>438.6</ele>
        <time>2013-08-04T09:54:22Z</time>
      </trkpt>
      <trkpt lat="44.46637" lon="2.46047">
        <ele>439</ele>
        <time>2013-08-04T09:54:25Z</time>
      </trkpt>
      <trkpt lat="44.46642" lon="2.4604">
        <ele>439.2</ele>
        <time>2013-08-04T09:54:28Z</time>
      </trkpt>
      <trkpt lat="44.46647" lon="2.46033">
        <ele>440</ele>
        <time>2013-08-04T09:54:31Z</time>
      </trkpt>
      <trkpt lat="44.46652" lon="2.46026">
        <ele>440</ele>
        <time>2013-08-04T09:54:34Z</time>
      </trkpt>
      <trkpt lat="44.46656" lon="2.46019">
        <ele>440.7</ele>
        <time>2013-08-04T09:54:37Z</time>
      </trkpt>
      <trkpt lat="44.4666" lon="2.4601">
        <ele>441.2</ele>
        <time>2013-08-04T09:54:40Z</time>
      </trkpt>
      <trkpt lat="44.46664" lon="2.46002">
        <ele>441.5</ele>
        <time>2013-08-04T09:54:43Z</time>
      </trkpt>
      <trkpt lat="44.46668" lon="2.45994">
        <ele>441.3</ele>
        <time>2013-08-04T09:54:47Z</time>
      </trkpt>
      <trkpt lat="44.46671" lon="2.45984">
        <ele>442.4</ele>
        <time>2013-08-04T09:54:51Z</time>
      </trkpt>
      <trkpt lat="44.46674" lon="2.45975">
        <ele>443.3</ele>
        <time>2013-08-04T09:54:54Z</time>
      </trkpt>
      <trkpt lat="44.46677" lon="2.45969">
        <ele>443.4</ele>
        <time>2013-08-04T09:54:56Z</time>
      </trkpt>
      <trkpt lat="44.46683" lon="2.4596">
        <ele>443.7</ele>
        <time>2013-08-04T09:54:59Z</time>
      </trkpt>
      <trkpt lat="44.46685" lon="2.45957">
        <ele>443.8</ele>
        <time>2013-08-04T09:55:00Z</time>
      </trkpt>
      <trkpt lat="44.46694" lon="2.4594">
        <ele>444.4</ele>
        <time>2013-08-04T09:55:05Z</time>
      </trkpt>
      <trkpt lat="44.46698" lon="2.45934">
        <ele>444.2</ele>
        <time>2013-08-04T09:55:07Z</time>
      </trkpt>
      <trkpt lat="44.46702" lon="2.45927">
        <ele>444</ele>
        <time>2013-08-04T09:55:09Z</time>
      </trkpt>
      <trkpt lat="44.46707" lon="2.45917">
        <ele>444.6</ele>
        <time>2013-08-04T09:55:12Z</time>
      </trkpt>
      <trkpt lat="44.46712" lon="2.45909">
        <ele>444.8</ele>
        <time>2013-08-04T09:55:15Z</time>
      </trkpt>
      <trkpt lat="44.46716" lon="2.45899">
        <ele>444.9</ele>
        <time>2013-08-04T09:55:18Z</time>
      </trkpt>
      <trkpt lat="44.46722" lon="2.45891">
        <ele>445</ele>
        <time>2013-08-04T09:55:21Z</time>
      </trkpt>
      <trkpt lat="44.46726" lon="2.45884">
        <ele>445</ele>
        <time>2013-08-04T09:55:23Z</time>
      </trkpt>
      <trkpt lat="44.46732" lon="2.45878">
        <ele>445</ele>
        <time>2013-08-04T09:55:25Z</time>
      </trkpt>
      <trkpt lat="44.46739" lon="2.45872">
        <ele>445.2</ele>
        <time>2013-08-04T09:55:27Z</time>
      </trkpt>
      <trkpt lat="44.46747" lon="2.45866">
        <ele>445.4</ele>
        <time>2013-08-04T09:55:29Z</time>
      </trkpt>
      <trkpt lat="44.46752" lon="2.4586">
        <ele>445.1</ele>
        <time>2013-08-04T09:55:31Z</time>
      </trkpt>
      <trkpt lat="44.46757" lon="2.45854">
        <ele>445.1</ele>
        <time>2013-08-04T09:55:33Z</time>
      </trkpt>
      <trkpt lat="44.46761" lon="2.45847">
        <ele>445.2</ele>
        <time>2013-08-04T09:55:35Z</time>
      </trkpt>
      <trkpt lat="44.46767" lon="2.45837">
        <ele>446.1</ele>
        <time>2013-08-04T09:55:38Z</time>
      </trkpt>
      <trkpt lat="44.46771" lon="2.45831">
        <ele>446.2</ele>
        <time>2013-08-04T09:55:40Z</time>
      </trkpt>
      <trkpt lat="44.46774" lon="2.45824">
        <ele>446.3</ele>
        <time>2013-08-04T09:55:42Z</time>
      </trkpt>
      <trkpt lat="44.46779" lon="2.45818">
        <ele>446.5</ele>
        <time>2013-08-04T09:55:44Z</time>
      </trkpt>
      <trkpt lat="44.46785" lon="2.45812">
        <ele>446.7</ele>
        <time>2013-08-04T09:55:46Z</time>
      </trkpt>
      <trkpt lat="44.46791" lon="2.45806">
        <ele>446.8</ele>
        <time>2013-08-04T09:55:48Z</time>
      </trkpt>
      <trkpt lat="44.46795" lon="2.45798">
        <ele>447.5</ele>
        <time>2013-08-04T09:55:50Z</time>
      </trkpt>
      <trkpt lat="44.46799" lon="2.45791">
        <ele>448</ele>
        <time>2013-08-04T09:55:52Z</time>
      </trkpt>
      <trkpt lat="44.46804" lon="2.45784">
        <ele>448.5</ele>
        <time>2013-08-04T09:55:54Z</time>
      </trkpt>
      <trkpt lat="44.46809" lon="2.45777">
        <ele>448.5</ele>
        <time>2013-08-04T09:55:56Z</time>
      </trkpt>
      <trkpt lat="44.46814" lon="2.45773">
        <ele>448.6</ele>
        <time>2013-08-04T09:55:58Z</time>
      </trkpt>
      <trkpt lat="44.4682" lon="2.45765">
        <ele>449.3</ele>
        <time>2013-08-04T09:56:01Z</time>
      </trkpt>
      <trkpt lat="44.46823" lon="2.45762">
        <ele>448.9</ele>
        <time>2013-08-04T09:56:02Z</time>
      </trkpt>
      <trkpt lat="44.46831" lon="2.45754">
        <ele>448.6</ele>
        <time>2013-08-04T09:56:05Z</time>
      </trkpt>
      <trkpt lat="44.46836" lon="2.45747">
        <ele>448.6</ele>
        <time>2013-08-04T09:56:07Z</time>
      </trkpt>
      <trkpt lat="44.46842" lon="2.45742">
        <ele>449.3</ele>
        <time>2013-08-04T09:56:09Z</time>
      </trkpt>
      <trkpt lat="44.46848" lon="2.45736">
        <ele>449.2</ele>
        <time>2013-08-04T09:56:11Z</time>
      </trkpt>
      <trkpt lat="44.46854" lon="2.45731">
        <ele>448.9</ele>
        <time>2013-08-04T09:56:13Z</time>
      </trkpt>
      <trkpt lat="44.46861" lon="2.45723">
        <ele>449.1</ele>
        <time>2013-08-04T09:56:15Z</time>
      </trkpt>
      <trkpt lat="44.46866" lon="2.45717">
        <ele>449.2</ele>
        <time>2013-08-04T09:56:17Z</time>
      </trkpt>
      <trkpt lat="44.46873" lon="2.4571">
        <ele>449.7</ele>
        <time>2013-08-04T09:56:19Z</time>
      </trkpt>
      <trkpt lat="44.46876" lon="2.45706">
        <ele>449.9</ele>
        <time>2013-08-04T09:56:20Z</time>
      </trkpt>
      <trkpt lat="44.4688" lon="2.45702">
        <ele>449.4</ele>
        <time>2013-08-04T09:56:21Z</time>
      </trkpt>
      <trkpt lat="44.46884" lon="2.45697">
        <ele>449.1</ele>
        <time>2013-08-04T09:56:22Z</time>
      </trkpt>
      <trkpt lat="44.4689" lon="2.45689">
        <ele>449</ele>
        <time>2013-08-04T09:56:24Z</time>
      </trkpt>
      <trkpt lat="44.46895" lon="2.45681">
        <ele>449.2</ele>
        <time>2013-08-04T09:56:26Z</time>
      </trkpt>
      <trkpt lat="44.46899" lon="2.45673">
        <ele>448.8</ele>
        <time>2013-08-04T09:56:28Z</time>
      </trkpt>
      <trkpt lat="44.469" lon="2.45664">
        <ele>448.6</ele>
        <time>2013-08-04T09:56:30Z</time>
      </trkpt>
      <trkpt lat="44.46897" lon="2.45653">
        <ele>448.5</ele>
        <time>2013-08-04T09:56:33Z</time>
      </trkpt>
      <trkpt lat="44.46893" lon="2.45646">
        <ele>448.7</ele>
        <time>2013-08-04T09:56:36Z</time>
      </trkpt>
      <trkpt lat="44.46886" lon="2.45638">
        <ele>449.2</ele>
        <time>2013-08-04T09:56:40Z</time>
      </trkpt>
      <trkpt lat="44.46878" lon="2.45634">
        <ele>450.4</ele>
        <time>2013-08-04T09:56:45Z</time>
      </trkpt>
      <trkpt lat="44.4687" lon="2.45634">
        <ele>451.7</ele>
        <time>2013-08-04T09:56:50Z</time>
      </trkpt>
      <trkpt lat="44.46862" lon="2.45633">
        <ele>452.7</ele>
        <time>2013-08-04T09:56:54Z</time>
      </trkpt>
      <trkpt lat="44.46854" lon="2.45632">
        <ele>453.3</ele>
        <time>2013-08-04T09:56:58Z</time>
      </trkpt>
      <trkpt lat="44.46845" lon="2.45631">
        <ele>454.4</ele>
        <time>2013-08-04T09:57:02Z</time>
      </trkpt>
      <trkpt lat="44.46843" lon="2.4563">
        <ele>454.7</ele>
        <time>2013-08-04T09:57:03Z</time>
      </trkpt>
      <trkpt lat="44.46833" lon="2.45621">
        <ele>455.1</ele>
        <time>2013-08-04T09:57:08Z</time>
      </trkpt>
      <trkpt lat="44.46825" lon="2.45616">
        <ele>456.7</ele>
        <time>2013-08-04T09:57:12Z</time>
      </trkpt>
      <trkpt lat="44.46817" lon="2.45613">
        <ele>457.4</ele>
        <time>2013-08-04T09:57:16Z</time>
      </trkpt>
      <trkpt lat="44.46809" lon="2.4561">
        <ele>459.1</ele>
        <time>2013-08-04T09:57:20Z</time>
      </trkpt>
      <trkpt lat="44.46802" lon="2.45606">
        <ele>459</ele>
        <time>2013-08-04T09:57:23Z</time>
      </trkpt>
      <trkpt lat="44.46794" lon="2.45601">
        <ele>458.6</ele>
        <time>2013-08-04T09:57:26Z</time>
      </trkpt>
      <trkpt lat="44.4679" lon="2.45598">
        <ele>458.5</ele>
        <time>2013-08-04T09:57:27Z</time>
      </trkpt>
      <trkpt lat="44.46786" lon="2.45596">
        <ele>458.2</ele>
        <time>2013-08-04T09:57:28Z</time>
      </trkpt>
      <trkpt lat="44.46781" lon="2.45592">
        <ele>457.9</ele>
        <time>2013-08-04T09:57:29Z</time>
      </trkpt>
      <trkpt lat="44.46776" lon="2.45589">
        <ele>457.8</ele>
        <time>2013-08-04T09:57:30Z</time>
      </trkpt>
      <trkpt lat="44.46772" lon="2.45586">
        <ele>457.7</ele>
        <time>2013-08-04T09:57:31Z</time>
      </trkpt>
      <trkpt lat="44.46766" lon="2.45582">
        <ele>457.6</ele>
        <time>2013-08-04T09:57:32Z</time>
      </trkpt>
      <trkpt lat="44.46761" lon="2.45579">
        <ele>457.5</ele>
        <time>2013-08-04T09:57:33Z</time>
      </trkpt>
      <trkpt lat="44.46755" lon="2.45576">
        <ele>456.7</ele>
        <time>2013-08-04T09:57:34Z</time>
      </trkpt>
      <trkpt lat="44.46748" lon="2.45573">
        <ele>456.2</ele>
        <time>2013-08-04T09:57:35Z</time>
      </trkpt>
      <trkpt lat="44.46741" lon="2.45568">
        <ele>455.7</ele>
        <time>2013-08-04T09:57:36Z</time>
      </trkpt>
      <trkpt lat="44.46734" lon="2.45565">
        <ele>455.2</ele>
        <time>2013-08-04T09:57:37Z</time>
      </trkpt>
      <trkpt lat="44.46727" lon="2.45561">
        <ele>454.8</ele>
        <time>2013-08-04T09:57:38Z</time>
      </trkpt>
      <trkpt lat="44.4672" lon="2.45557">
        <ele>454.5</ele>
        <time>2013-08-04T09:57:39Z</time>
      </trkpt>
      <trkpt lat="44.46713" lon="2.45553">
        <ele>454.3</ele>
        <time>2013-08-04T09:57:40Z</time>
      </trkpt>
      <trkpt lat="44.46707" lon="2.45547">
        <ele>454.4</ele>
        <time>2013-08-04T09:57:41Z</time>
      </trkpt>
      <trkpt lat="44.46673" lon="2.45465">
        <ele>452.8</ele>
        <time>2013-08-04T09:57:50Z</time>
      </trkpt>
      <trkpt lat="44.46669" lon="2.45456">
        <ele>451.7</ele>
        <time>2013-08-04T09:57:51Z</time>
      </trkpt>
      <trkpt lat="44.46665" lon="2.45446">
        <ele>450.8</ele>
        <time>2013-08-04T09:57:52Z</time>
      </trkpt>
      <trkpt lat="44.46661" lon="2.45438">
        <ele>449.8</ele>
        <time>2013-08-04T09:57:53Z</time>
      </trkpt>
      <trkpt lat="44.46657" lon="2.4543">
        <ele>449</ele>
        <time>2013-08-04T09:57:54Z</time>
      </trkpt>
      <trkpt lat="44.46654" lon="2.45421">
        <ele>448.4</ele>
        <time>2013-08-04T09:57:55Z</time>
      </trkpt>
      <trkpt lat="44.4665" lon="2.45413">
        <ele>448</ele>
        <time>2013-08-04T09:57:56Z</time>
      </trkpt>
      <trkpt lat="44.46646" lon="2.45405">
        <ele>447.7</ele>
        <time>2013-08-04T09:57:57Z</time>
      </trkpt>
      <trkpt lat="44.46642" lon="2.45397">
        <ele>447.4</ele>
        <time>2013-08-04T09:57:58Z</time>
      </trkpt>
      <trkpt lat="44.46638" lon="2.45389">
        <ele>447.3</ele>
        <time>2013-08-04T09:57:59Z</time>
      </trkpt>
      <trkpt lat="44.46634" lon="2.4538">
        <ele>446.8</ele>
        <time>2013-08-04T09:58:00Z</time>
      </trkpt>
      <trkpt lat="44.46631" lon="2.45373">
        <ele>446.5</ele>
        <time>2013-08-04T09:58:01Z</time>
      </trkpt>
      <trkpt lat="44.46628" lon="2.45365">
        <ele>446.3</ele>
        <time>2013-08-04T09:58:02Z</time>
      </trkpt>
      <trkpt lat="44.46624" lon="2.45357">
        <ele>446</ele>
        <time>2013-08-04T09:58:03Z</time>
      </trkpt>
      <trkpt lat="44.4662" lon="2.45348">
        <ele>445.8</ele>
        <time>2013-08-04T09:58:04Z</time>
      </trkpt>
      <trkpt lat="44.46615" lon="2.4534">
        <ele>445.6</ele>
        <time>2013-08-04T09:58:05Z</time>
      </trkpt>
      <trkpt lat="44.46612" lon="2.45332">
        <ele>445.3</ele>
        <time>2013-08-04T09:58:06Z</time>
      </trkpt>
      <trkpt lat="44.4661" lon="2.45325">
        <ele>445</ele>
        <time>2013-08-04T09:58:07Z</time>
      </trkpt>
      <trkpt lat="44.46607" lon="2.45318">
        <ele>444.8</ele>
        <time>2013-08-04T09:58:08Z</time>
      </trkpt>
      <trkpt lat="44.46604" lon="2.4531">
        <ele>445</ele>
        <time>2013-08-04T09:58:09Z</time>
      </trkpt>
      <trkpt lat="44.466" lon="2.45304">
        <ele>445.1</ele>
        <time>2013-08-04T09:58:10Z</time>
      </trkpt>
      <trkpt lat="44.46598" lon="2.45297">
        <ele>445.2</ele>
        <time>2013-08-04T09:58:11Z</time>
      </trkpt>
      <trkpt lat="44.46596" lon="2.4529">
        <ele>445.3</ele>
        <time>2013-08-04T09:58:12Z</time>
      </trkpt>
      <trkpt lat="44.46595" lon="2.45282">
        <ele>444.8</ele>
        <time>2013-08-04T09:58:13Z</time>
      </trkpt>
      <trkpt lat="44.46593" lon="2.45273">
        <ele>444.4</ele>
        <time>2013-08-04T09:58:14Z</time>
      </trkpt>
      <trkpt lat="44.46591" lon="2.45265">
        <ele>444.1</ele>
        <time>2013-08-04T09:58:15Z</time>
      </trkpt>
      <trkpt lat="44.46589" lon="2.45257">
        <ele>443.6</ele>
        <time>2013-08-04T09:58:16Z</time>
      </trkpt>
      <trkpt lat="44.46587" lon="2.45249">
        <ele>443.3</ele>
        <time>2013-08-04T09:58:17Z</time>
      </trkpt>
      <trkpt lat="44.46586" lon="2.45241">
        <ele>443</ele>
        <time>2013-08-04T09:58:18Z</time>
      </trkpt>
      <trkpt lat="44.46583" lon="2.45236">
        <ele>442.9</ele>
        <time>2013-08-04T09:58:19Z</time>
      </trkpt>
      <trkpt lat="44.4658" lon="2.4523">
        <ele>442.7</ele>
        <time>2013-08-04T09:58:20Z</time>
      </trkpt>
      <trkpt lat="44.46577" lon="2.45224">
        <ele>442.6</ele>
        <time>2013-08-04T09:58:21Z</time>
      </trkpt>
      <trkpt lat="44.46575" lon="2.45218">
        <ele>442.4</ele>
        <time>2013-08-04T09:58:22Z</time>
      </trkpt>
      <trkpt lat="44.46573" lon="2.45212">
        <ele>442.3</ele>
        <time>2013-08-04T09:58:23Z</time>
      </trkpt>
      <trkpt lat="44.4657" lon="2.45206">
        <ele>442.2</ele>
        <time>2013-08-04T09:58:24Z</time>
      </trkpt>
      <trkpt lat="44.46567" lon="2.45201">
        <ele>442.3</ele>
        <time>2013-08-04T09:58:25Z</time>
      </trkpt>
      <trkpt lat="44.46564" lon="2.45196">
        <ele>442.3</ele>
        <time>2013-08-04T09:58:26Z</time>
      </trkpt>
      <trkpt lat="44.46561" lon="2.45191">
        <ele>442.4</ele>
        <time>2013-08-04T09:58:27Z</time>
      </trkpt>
      <trkpt lat="44.46554" lon="2.45183">
        <ele>442.4</ele>
        <time>2013-08-04T09:58:29Z</time>
      </trkpt>
      <trkpt lat="44.46549" lon="2.45177">
        <ele>442.5</ele>
        <time>2013-08-04T09:58:31Z</time>
      </trkpt>
      <trkpt lat="44.46542" lon="2.45168">
        <ele>442.4</ele>
        <time>2013-08-04T09:58:34Z</time>
      </trkpt>
      <trkpt lat="44.46538" lon="2.45163">
        <ele>442.9</ele>
        <time>2013-08-04T09:58:36Z</time>
      </trkpt>
      <trkpt lat="44.46532" lon="2.45157">
        <ele>443.8</ele>
        <time>2013-08-04T09:58:38Z</time>
      </trkpt>
      <trkpt lat="44.46527" lon="2.45151">
        <ele>444.7</ele>
        <time>2013-08-04T09:58:40Z</time>
      </trkpt>
      <trkpt lat="44.46522" lon="2.45144">
        <ele>444.8</ele>
        <time>2013-08-04T09:58:42Z</time>
      </trkpt>
      <trkpt lat="44.46518" lon="2.45137">
        <ele>444.9</ele>
        <time>2013-08-04T09:58:44Z</time>
      </trkpt>
      <trkpt lat="44.46514" lon="2.45131">
        <ele>445.4</ele>
        <time>2013-08-04T09:58:46Z</time>
      </trkpt>
      <trkpt lat="44.4651" lon="2.45123">
        <ele>445.7</ele>
        <time>2013-08-04T09:58:48Z</time>
      </trkpt>
      <trkpt lat="44.46505" lon="2.45114">
        <ele>445.7</ele>
        <time>2013-08-04T09:58:50Z</time>
      </trkpt>
      <trkpt lat="44.46501" lon="2.45107">
        <ele>445.7</ele>
        <time>2013-08-04T09:58:52Z</time>
      </trkpt>
      <trkpt lat="44.46496" lon="2.45098">
        <ele>445.6</ele>
        <time>2013-08-04T09:58:54Z</time>
      </trkpt>
      <trkpt lat="44.46493" lon="2.45092">
        <ele>445.6</ele>
        <time>2013-08-04T09:58:55Z</time>
      </trkpt>
      <trkpt lat="44.46491" lon="2.45087">
        <ele>445.5</ele>
        <time>2013-08-04T09:58:56Z</time>
      </trkpt>
      <trkpt lat="44.46488" lon="2.45081">
        <ele>445.3</ele>
        <time>2013-08-04T09:58:57Z</time>
      </trkpt>
      <trkpt lat="44.46486" lon="2.45075">
        <ele>445.2</ele>
        <time>2013-08-04T09:58:58Z</time>
      </trkpt>
      <trkpt lat="44.46482" lon="2.45064">
        <ele>445.1</ele>
        <time>2013-08-04T09:59:00Z</time>
      </trkpt>
      <trkpt lat="44.46479" lon="2.45054">
        <ele>445</ele>
        <time>2013-08-04T09:59:02Z</time>
      </trkpt>
      <trkpt lat="44.46475" lon="2.45043">
        <ele>445.5</ele>
        <time>2013-08-04T09:59:04Z</time>
      </trkpt>
      <trkpt lat="44.46473" lon="2.45039">
        <ele>445.9</ele>
        <time>2013-08-04T09:59:05Z</time>
      </trkpt>
      <trkpt lat="44.4647" lon="2.45024">
        <ele>446</ele>
        <time>2013-08-04T09:59:08Z</time>
      </trkpt>
      <trkpt lat="44.46468" lon="2.45013">
        <ele>446</ele>
        <time>2013-08-04T09:59:10Z</time>
      </trkpt>
      <trkpt lat="44.46465" lon="2.45003">
        <ele>446.1</ele>
        <time>2013-08-04T09:59:12Z</time>
      </trkpt>
      <trkpt lat="44.46462" lon="2.44994">
        <ele>446.6</ele>
        <time>2013-08-04T09:59:14Z</time>
      </trkpt>
      <trkpt lat="44.46459" lon="2.44986">
        <ele>446.6</ele>
        <time>2013-08-04T09:59:16Z</time>
      </trkpt>
      <trkpt lat="44.46457" lon="2.44976">
        <ele>446.4</ele>
        <time>2013-08-04T09:59:18Z</time>
      </trkpt>
      <trkpt lat="44.46456" lon="2.44968">
        <ele>446.6</ele>
        <time>2013-08-04T09:59:20Z</time>
      </trkpt>
      <trkpt lat="44.46453" lon="2.44958">
        <ele>447</ele>
        <time>2013-08-04T09:59:22Z</time>
      </trkpt>
      <trkpt lat="44.46451" lon="2.4495">
        <ele>448.1</ele>
        <time>2013-08-04T09:59:24Z</time>
      </trkpt>
      <trkpt lat="44.46449" lon="2.44941">
        <ele>449.2</ele>
        <time>2013-08-04T09:59:26Z</time>
      </trkpt>
      <trkpt lat="44.46448" lon="2.44933">
        <ele>450.1</ele>
        <time>2013-08-04T09:59:28Z</time>
      </trkpt>
      <trkpt lat="44.46446" lon="2.44925">
        <ele>450.5</ele>
        <time>2013-08-04T09:59:30Z</time>
      </trkpt>
      <trkpt lat="44.46444" lon="2.44916">
        <ele>450.9</ele>
        <time>2013-08-04T09:59:32Z</time>
      </trkpt>
      <trkpt lat="44.4644" lon="2.44904">
        <ele>451.4</ele>
        <time>2013-08-04T09:59:35Z</time>
      </trkpt>
      <trkpt lat="44.46439" lon="2.44896">
        <ele>451.4</ele>
        <time>2013-08-04T09:59:37Z</time>
      </trkpt>
      <trkpt lat="44.46437" lon="2.44888">
        <ele>451.7</ele>
        <time>2013-08-04T09:59:39Z</time>
      </trkpt>
      <trkpt lat="44.46436" lon="2.44879">
        <ele>452.1</ele>
        <time>2013-08-04T09:59:41Z</time>
      </trkpt>
      <trkpt lat="44.46433" lon="2.44871">
        <ele>453.1</ele>
        <time>2013-08-04T09:59:43Z</time>
      </trkpt>
      <trkpt lat="44.4643" lon="2.44864">
        <ele>453.4</ele>
        <time>2013-08-04T09:59:45Z</time>
      </trkpt>
      <trkpt lat="44.46427" lon="2.44853">
        <ele>454.1</ele>
        <time>2013-08-04T09:59:48Z</time>
      </trkpt>
      <trkpt lat="44.46424" lon="2.44844">
        <ele>455</ele>
        <time>2013-08-04T09:59:51Z</time>
      </trkpt>
      <trkpt lat="44.46422" lon="2.44835">
        <ele>455.2</ele>
        <time>2013-08-04T09:59:54Z</time>
      </trkpt>
      <trkpt lat="44.46419" lon="2.44826">
        <ele>456</ele>
        <time>2013-08-04T09:59:57Z</time>
      </trkpt>
      <trkpt lat="44.46418" lon="2.44815">
        <ele>456.7</ele>
        <time>2013-08-04T10:00:01Z</time>
      </trkpt>
      <trkpt lat="44.46416" lon="2.44804">
        <ele>457.8</ele>
        <time>2013-08-04T10:00:05Z</time>
      </trkpt>
      <trkpt lat="44.46416" lon="2.44801">
        <ele>458</ele>
        <time>2013-08-04T10:00:06Z</time>
      </trkpt>
      <trkpt lat="44.46413" lon="2.44781">
        <ele>458.8</ele>
        <time>2013-08-04T10:00:13Z</time>
      </trkpt>
      <trkpt lat="44.46411" lon="2.44769">
        <ele>460.6</ele>
        <time>2013-08-04T10:00:17Z</time>
      </trkpt>
      <trkpt lat="44.4641" lon="2.44757">
        <ele>461.4</ele>
        <time>2013-08-04T10:00:21Z</time>
      </trkpt>
      <trkpt lat="44.46409" lon="2.44745">
        <ele>461.9</ele>
        <time>2013-08-04T10:00:26Z</time>
      </trkpt>
      <trkpt lat="44.46409" lon="2.44733">
        <ele>461.3</ele>
        <time>2013-08-04T10:00:30Z</time>
      </trkpt>
      <trkpt lat="44.46409" lon="2.44721">
        <ele>462.6</ele>
        <time>2013-08-04T10:00:34Z</time>
      </trkpt>
      <trkpt lat="44.46411" lon="2.44711">
        <ele>462.8</ele>
        <time>2013-08-04T10:00:38Z</time>
      </trkpt>
      <trkpt lat="44.46412" lon="2.44699">
        <ele>464.6</ele>
        <time>2013-08-04T10:00:43Z</time>
      </trkpt>
      <trkpt lat="44.46412" lon="2.44687">
        <ele>464.8</ele>
        <time>2013-08-04T10:00:47Z</time>
      </trkpt>
      <trkpt lat="44.46411" lon="2.44676">
        <ele>466.2</ele>
        <time>2013-08-04T10:00:51Z</time>
      </trkpt>
      <trkpt lat="44.4641" lon="2.44664">
        <ele>466.2</ele>
        <time>2013-08-04T10:00:55Z</time>
      </trkpt>
      <trkpt lat="44.46411" lon="2.44651">
        <ele>466.8</ele>
        <time>2013-08-04T10:00:59Z</time>
      </trkpt>
      <trkpt lat="44.46408" lon="2.44642">
        <ele>467.5</ele>
        <time>2013-08-04T10:01:02Z</time>
      </trkpt>
      <trkpt lat="44.46406" lon="2.44633">
        <ele>467.9</ele>
        <time>2013-08-04T10:01:05Z</time>
      </trkpt>
      <trkpt lat="44.46402" lon="2.44621">
        <ele>468</ele>
        <time>2013-08-04T10:01:09Z</time>
      </trkpt>
      <trkpt lat="44.46401" lon="2.44618">
        <ele>468</ele>
        <time>2013-08-04T10:01:10Z</time>
      </trkpt>
      <trkpt lat="44.46395" lon="2.44604">
        <ele>468.6</ele>
        <time>2013-08-04T10:01:14Z</time>
      </trkpt>
      <trkpt lat="44.46391" lon="2.44594">
        <ele>469</ele>
        <time>2013-08-04T10:01:17Z</time>
      </trkpt>
      <trkpt lat="44.46387" lon="2.44587">
        <ele>469.5</ele>
        <time>2013-08-04T10:01:19Z</time>
      </trkpt>
      <trkpt lat="44.46383" lon="2.44581">
        <ele>469.5</ele>
        <time>2013-08-04T10:01:21Z</time>
      </trkpt>
      <trkpt lat="44.46379" lon="2.44574">
        <ele>469.3</ele>
        <time>2013-08-04T10:01:23Z</time>
      </trkpt>
      <trkpt lat="44.46374" lon="2.44566">
        <ele>469.4</ele>
        <time>2013-08-04T10:01:25Z</time>
      </trkpt>
      <trkpt lat="44.46368" lon="2.44557">
        <ele>469.4</ele>
        <time>2013-08-04T10:01:27Z</time>
      </trkpt>
      <trkpt lat="44.46364" lon="2.44552">
        <ele>469.4</ele>
        <time>2013-08-04T10:01:28Z</time>
      </trkpt>
      <trkpt lat="44.4636" lon="2.44546">
        <ele>469.4</ele>
        <time>2013-08-04T10:01:29Z</time>
      </trkpt>
      <trkpt lat="44.46356" lon="2.44541">
        <ele>469.4</ele>
        <time>2013-08-04T10:01:30Z</time>
      </trkpt>
      <trkpt lat="44.46352" lon="2.44535">
        <ele>469.1</ele>
        <time>2013-08-04T10:01:31Z</time>
      </trkpt>
      <trkpt lat="44.46349" lon="2.44529">
        <ele>468.8</ele>
        <time>2013-08-04T10:01:32Z</time>
      </trkpt>
      <trkpt lat="44.46345" lon="2.44524">
        <ele>468.7</ele>
        <time>2013-08-04T10:01:33Z</time>
      </trkpt>
      <trkpt lat="44.46342" lon="2.44517">
        <ele>468.5</ele>
        <time>2013-08-04T10:01:34Z</time>
      </trkpt>
      <trkpt lat="44.46338" lon="2.44509">
        <ele>468.3</ele>
        <time>2013-08-04T10:01:35Z</time>
      </trkpt>
      <trkpt lat="44.46335" lon="2.445">
        <ele>468.2</ele>
        <time>2013-08-04T10:01:36Z</time>
      </trkpt>
      <trkpt lat="44.46331" lon="2.44492">
        <ele>467.8</ele>
        <time>2013-08-04T10:01:37Z</time>
      </trkpt>
      <trkpt lat="44.46327" lon="2.44484">
        <ele>467.4</ele>
        <time>2013-08-04T10:01:38Z</time>
      </trkpt>
      <trkpt lat="44.46323" lon="2.44476">
        <ele>467.1</ele>
        <time>2013-08-04T10:01:39Z</time>
      </trkpt>
      <trkpt lat="44.46318" lon="2.44468">
        <ele>466.9</ele>
        <time>2013-08-04T10:01:40Z</time>
      </trkpt>
      <trkpt lat="44.46313" lon="2.44461">
        <ele>466.8</ele>
        <time>2013-08-04T10:01:41Z</time>
      </trkpt>
      <trkpt lat="44.46308" lon="2.44453">
        <ele>466.7</ele>
        <time>2013-08-04T10:01:42Z</time>
      </trkpt>
      <trkpt lat="44.46302" lon="2.44446">
        <ele>466.5</ele>
        <time>2013-08-04T10:01:43Z</time>
      </trkpt>
      <trkpt lat="44.46296" lon="2.44441">
        <ele>466.3</ele>
        <time>2013-08-04T10:01:44Z</time>
      </trkpt>
      <trkpt lat="44.4629" lon="2.44436">
        <ele>466.2</ele>
        <time>2013-08-04T10:01:45Z</time>
      </trkpt>
      <trkpt lat="44.46284" lon="2.44433">
        <ele>465.6</ele>
        <time>2013-08-04T10:01:46Z</time>
      </trkpt>
      <trkpt lat="44.46278" lon="2.4443">
        <ele>465.1</ele>
        <time>2013-08-04T10:01:47Z</time>
      </trkpt>
      <trkpt lat="44.46272" lon="2.44428">
        <ele>464.8</ele>
        <time>2013-08-04T10:01:48Z</time>
      </trkpt>
      <trkpt lat="44.46267" lon="2.44425">
        <ele>464.6</ele>
        <time>2013-08-04T10:01:49Z</time>
      </trkpt>
      <trkpt lat="44.46262" lon="2.44422">
        <ele>464.4</ele>
        <time>2013-08-04T10:01:50Z</time>
      </trkpt>
      <trkpt lat="44.46257" lon="2.4442">
        <ele>464.3</ele>
        <time>2013-08-04T10:01:51Z</time>
      </trkpt>
      <trkpt lat="44.4625" lon="2.44416">
        <ele>464.7</ele>
        <time>2013-08-04T10:01:53Z</time>
      </trkpt>
      <trkpt lat="44.46246" lon="2.44414">
        <ele>465</ele>
        <time>2013-08-04T10:01:54Z</time>
      </trkpt>
      <trkpt lat="44.46165" lon="2.44392">
        <ele>465.9</ele>
        <time>2013-08-04T10:02:20Z</time>
      </trkpt>
      <trkpt lat="44.46158" lon="2.44391">
        <ele>467.8</ele>
        <time>2013-08-04T10:02:23Z</time>
      </trkpt>
      <trkpt lat="44.46152" lon="2.44391">
        <ele>468.6</ele>
        <time>2013-08-04T10:02:25Z</time>
      </trkpt>
      <trkpt lat="44.46146" lon="2.44389">
        <ele>469.2</ele>
        <time>2013-08-04T10:02:27Z</time>
      </trkpt>
      <trkpt lat="44.4614" lon="2.44389">
        <ele>469.9</ele>
        <time>2013-08-04T10:02:29Z</time>
      </trkpt>
      <trkpt lat="44.46134" lon="2.44387">
        <ele>470.4</ele>
        <time>2013-08-04T10:02:31Z</time>
      </trkpt>
      <trkpt lat="44.46128" lon="2.44385">
        <ele>470.8</ele>
        <time>2013-08-04T10:02:33Z</time>
      </trkpt>
      <trkpt lat="44.46119" lon="2.44383">
        <ele>471.5</ele>
        <time>2013-08-04T10:02:36Z</time>
      </trkpt>
      <trkpt lat="44.46113" lon="2.4438">
        <ele>472.1</ele>
        <time>2013-08-04T10:02:38Z</time>
      </trkpt>
      <trkpt lat="44.46107" lon="2.44377">
        <ele>472.4</ele>
        <time>2013-08-04T10:02:40Z</time>
      </trkpt>
      <trkpt lat="44.46101" lon="2.44374">
        <ele>472.3</ele>
        <time>2013-08-04T10:02:42Z</time>
      </trkpt>
      <trkpt lat="44.46094" lon="2.44371">
        <ele>472.1</ele>
        <time>2013-08-04T10:02:44Z</time>
      </trkpt>
      <trkpt lat="44.46086" lon="2.44368">
        <ele>472.3</ele>
        <time>2013-08-04T10:02:47Z</time>
      </trkpt>
      <trkpt lat="44.4608" lon="2.44365">
        <ele>472.8</ele>
        <time>2013-08-04T10:02:50Z</time>
      </trkpt>
      <trkpt lat="44.46073" lon="2.44364">
        <ele>472.9</ele>
        <time>2013-08-04T10:02:53Z</time>
      </trkpt>
      <trkpt lat="44.46065" lon="2.44363">
        <ele>472.7</ele>
        <time>2013-08-04T10:02:57Z</time>
      </trkpt>
      <trkpt lat="44.46058" lon="2.44356">
        <ele>473.3</ele>
        <time>2013-08-04T10:03:03Z</time>
      </trkpt>
      <trkpt lat="44.46054" lon="2.44346">
        <ele>472.8</ele>
        <time>2013-08-04T10:03:25Z</time>
      </trkpt>
      <trkpt lat="44.46053" lon="2.44345">
        <ele>473.1</ele>
        <time>2013-08-04T10:03:26Z</time>
      </trkpt>
      <trkpt lat="44.46041" lon="2.4434">
        <ele>472.9</ele>
        <time>2013-08-04T10:04:30Z</time>
      </trkpt>
      <trkpt lat="44.46038" lon="2.44332">
        <ele>472.8</ele>
        <time>2013-08-04T10:04:49Z</time>
      </trkpt>
      <trkpt lat="44.46044" lon="2.44352">
        <ele>473.2</ele>
        <time>2013-08-04T10:07:57Z</time>
      </trkpt>
      <trkpt lat="44.46042" lon="2.44352">
        <ele>473.1</ele>
        <time>2013-08-04T10:08:01Z</time>
      </trkpt>
      <trkpt lat="44.46035" lon="2.44349">
        <ele>474</ele>
        <time>2013-08-04T10:09:48Z</time>
      </trkpt>
      <trkpt lat="44.46035" lon="2.4437">
        <ele>479.1</ele>
        <time>2013-08-04T10:10:07Z</time>
      </trkpt>
      <trkpt lat="44.46043" lon="2.44374">
        <ele>480.6</ele>
        <time>2013-08-04T10:10:16Z</time>
      </trkpt>
      <trkpt lat="44.46051" lon="2.44379">
        <ele>482.8</ele>
        <time>2013-08-04T10:10:24Z</time>
      </trkpt>
      <trkpt lat="44.46059" lon="2.44384">
        <ele>485.2</ele>
        <time>2013-08-04T10:10:32Z</time>
      </trkpt>
      <trkpt lat="44.46066" lon="2.44391">
        <ele>487</ele>
        <time>2013-08-04T10:10:39Z</time>
      </trkpt>
      <trkpt lat="44.46073" lon="2.44397">
        <ele>488</ele>
        <time>2013-08-04T10:10:45Z</time>
      </trkpt>
      <trkpt lat="44.46082" lon="2.44398">
        <ele>489</ele>
        <time>2013-08-04T10:10:50Z</time>
      </trkpt>
      <trkpt lat="44.46084" lon="2.44399">
        <ele>489.2</ele>
        <time>2013-08-04T10:10:51Z</time>
      </trkpt>
      <trkpt lat="44.46096" lon="2.44403">
        <ele>489.8</ele>
        <time>2013-08-04T10:10:58Z</time>
      </trkpt>
      <trkpt lat="44.46105" lon="2.44407">
        <ele>490.2</ele>
        <time>2013-08-04T10:11:02Z</time>
      </trkpt>
      <trkpt lat="44.46113" lon="2.44411">
        <ele>490.6</ele>
        <time>2013-08-04T10:11:06Z</time>
      </trkpt>
      <trkpt lat="44.46119" lon="2.44413">
        <ele>490.7</ele>
        <time>2013-08-04T10:11:09Z</time>
      </trkpt>
      <trkpt lat="44.46127" lon="2.44416">
        <ele>491.1</ele>
        <time>2013-08-04T10:11:12Z</time>
      </trkpt>
      <trkpt lat="44.46134" lon="2.44419">
        <ele>491.6</ele>
        <time>2013-08-04T10:11:15Z</time>
      </trkpt>
      <trkpt lat="44.46142" lon="2.44422">
        <ele>492</ele>
        <time>2013-08-04T10:11:18Z</time>
      </trkpt>
      <trkpt lat="44.4615" lon="2.44425">
        <ele>492</ele>
        <time>2013-08-04T10:11:21Z</time>
      </trkpt>
      <trkpt lat="44.46157" lon="2.44428">
        <ele>492.5</ele>
        <time>2013-08-04T10:11:24Z</time>
      </trkpt>
      <trkpt lat="44.46164" lon="2.4443">
        <ele>493.6</ele>
        <time>2013-08-04T10:11:27Z</time>
      </trkpt>
      <trkpt lat="44.46171" lon="2.44433">
        <ele>494.2</ele>
        <time>2013-08-04T10:11:30Z</time>
      </trkpt>
      <trkpt lat="44.46178" lon="2.44436">
        <ele>494.3</ele>
        <time>2013-08-04T10:11:33Z</time>
      </trkpt>
      <trkpt lat="44.46186" lon="2.44439">
        <ele>495.5</ele>
        <time>2013-08-04T10:11:37Z</time>
      </trkpt>
      <trkpt lat="44.46194" lon="2.44443">
        <ele>496.5</ele>
        <time>2013-08-04T10:11:41Z</time>
      </trkpt>
      <trkpt lat="44.46202" lon="2.44447">
        <ele>497.5</ele>
        <time>2013-08-04T10:11:45Z</time>
      </trkpt>
      <trkpt lat="44.46209" lon="2.44453">
        <ele>497.2</ele>
        <time>2013-08-04T10:11:49Z</time>
      </trkpt>
      <trkpt lat="44.46216" lon="2.44458">
        <ele>499</ele>
        <time>2013-08-04T10:11:53Z</time>
      </trkpt>
      <trkpt lat="44.46218" lon="2.4446">
        <ele>499.4</ele>
        <time>2013-08-04T10:11:54Z</time>
      </trkpt>
      <trkpt lat="44.46229" lon="2.4447">
        <ele>500.2</ele>
        <time>2013-08-04T10:12:01Z</time>
      </trkpt>
      <trkpt lat="44.46235" lon="2.44476">
        <ele>501.4</ele>
        <time>2013-08-04T10:12:05Z</time>
      </trkpt>
      <trkpt lat="44.46241" lon="2.44481">
        <ele>501</ele>
        <time>2013-08-04T10:12:09Z</time>
      </trkpt>
      <trkpt lat="44.46248" lon="2.44487">
        <ele>502.3</ele>
        <time>2013-08-04T10:12:13Z</time>
      </trkpt>
      <trkpt lat="44.46251" lon="2.4449">
        <ele>503</ele>
        <time>2013-08-04T10:12:15Z</time>
      </trkpt>
      <trkpt lat="44.46256" lon="2.44499">
        <ele>503.6</ele>
        <time>2013-08-04T10:12:17Z</time>
      </trkpt>
      <trkpt lat="44.46262" lon="2.44507">
        <ele>504.1</ele>
        <time>2013-08-04T10:12:22Z</time>
      </trkpt>
      <trkpt lat="44.46266" lon="2.44515">
        <ele>505.1</ele>
        <time>2013-08-04T10:12:25Z</time>
      </trkpt>
      <trkpt lat="44.4627" lon="2.44525">
        <ele>505.8</ele>
        <time>2013-08-04T10:12:29Z</time>
      </trkpt>
      <trkpt lat="44.46274" lon="2.44534">
        <ele>507.2</ele>
        <time>2013-08-04T10:12:33Z</time>
      </trkpt>
      <trkpt lat="44.46278" lon="2.44545">
        <ele>507</ele>
        <time>2013-08-04T10:12:37Z</time>
      </trkpt>
      <trkpt lat="44.46281" lon="2.44555">
        <ele>508.6</ele>
        <time>2013-08-04T10:12:41Z</time>
      </trkpt>
      <trkpt lat="44.46285" lon="2.44566">
        <ele>508.7</ele>
        <time>2013-08-04T10:12:45Z</time>
      </trkpt>
      <trkpt lat="44.46289" lon="2.44577">
        <ele>509.2</ele>
        <time>2013-08-04T10:12:50Z</time>
      </trkpt>
      <trkpt lat="44.46293" lon="2.44587">
        <ele>510</ele>
        <time>2013-08-04T10:12:55Z</time>
      </trkpt>
      <trkpt lat="44.46295" lon="2.4459">
        <ele>510.1</ele>
        <time>2013-08-04T10:12:56Z</time>
      </trkpt>
      <trkpt lat="44.46301" lon="2.44608">
        <ele>511.9</ele>
        <time>2013-08-04T10:13:03Z</time>
      </trkpt>
      <trkpt lat="44.46303" lon="2.44618">
        <ele>512.1</ele>
        <time>2013-08-04T10:13:06Z</time>
      </trkpt>
      <trkpt lat="44.46305" lon="2.44628">
        <ele>513.4</ele>
        <time>2013-08-04T10:13:09Z</time>
      </trkpt>
      <trkpt lat="44.46307" lon="2.44638">
        <ele>512.5</ele>
        <time>2013-08-04T10:13:12Z</time>
      </trkpt>
      <trkpt lat="44.46308" lon="2.4465">
        <ele>512.7</ele>
        <time>2013-08-04T10:13:16Z</time>
      </trkpt>
      <trkpt lat="44.4631" lon="2.44663">
        <ele>513.7</ele>
        <time>2013-08-04T10:13:20Z</time>
      </trkpt>
      <trkpt lat="44.46311" lon="2.44675">
        <ele>513.2</ele>
        <time>2013-08-04T10:13:24Z</time>
      </trkpt>
      <trkpt lat="44.46311" lon="2.44686">
        <ele>513.4</ele>
        <time>2013-08-04T10:13:27Z</time>
      </trkpt>
      <trkpt lat="44.46311" lon="2.44695">
        <ele>513.3</ele>
        <time>2013-08-04T10:13:29Z</time>
      </trkpt>
      <trkpt lat="44.46312" lon="2.44708">
        <ele>513.2</ele>
        <time>2013-08-04T10:13:31Z</time>
      </trkpt>
      <trkpt lat="44.46312" lon="2.44715">
        <ele>513.2</ele>
        <time>2013-08-04T10:13:32Z</time>
      </trkpt>
      <trkpt lat="44.46313" lon="2.44722">
        <ele>513.3</ele>
        <time>2013-08-04T10:13:33Z</time>
      </trkpt>
      <trkpt lat="44.46313" lon="2.44729">
        <ele>513.3</ele>
        <time>2013-08-04T10:13:34Z</time>
      </trkpt>
      <trkpt lat="44.46314" lon="2.44736">
        <ele>512.7</ele>
        <time>2013-08-04T10:13:35Z</time>
      </trkpt>
      <trkpt lat="44.46315" lon="2.44742">
        <ele>512.3</ele>
        <time>2013-08-04T10:13:36Z</time>
      </trkpt>
      <trkpt lat="44.46316" lon="2.44749">
        <ele>512</ele>
        <time>2013-08-04T10:13:37Z</time>
      </trkpt>
      <trkpt lat="44.46317" lon="2.44755">
        <ele>512</ele>
        <time>2013-08-04T10:13:38Z</time>
      </trkpt>
      <trkpt lat="44.46321" lon="2.44767">
        <ele>512.1</ele>
        <time>2013-08-04T10:13:40Z</time>
      </trkpt>
      <trkpt lat="44.46322" lon="2.44779">
        <ele>511.6</ele>
        <time>2013-08-04T10:13:42Z</time>
      </trkpt>
      <trkpt lat="44.46323" lon="2.44786">
        <ele>511.5</ele>
        <time>2013-08-04T10:13:43Z</time>
      </trkpt>
      <trkpt lat="44.46324" lon="2.44793">
        <ele>511.4</ele>
        <time>2013-08-04T10:13:44Z</time>
      </trkpt>
      <trkpt lat="44.46325" lon="2.44801">
        <ele>511.1</ele>
        <time>2013-08-04T10:13:45Z</time>
      </trkpt>
      <trkpt lat="44.46326" lon="2.44808">
        <ele>510.9</ele>
        <time>2013-08-04T10:13:46Z</time>
      </trkpt>
      <trkpt lat="44.46327" lon="2.44817">
        <ele>510.8</ele>
        <time>2013-08-04T10:13:47Z</time>
      </trkpt>
      <trkpt lat="44.46328" lon="2.44825">
        <ele>510.9</ele>
        <time>2013-08-04T10:13:48Z</time>
      </trkpt>
      <trkpt lat="44.46329" lon="2.44833">
        <ele>510.9</ele>
        <time>2013-08-04T10:13:49Z</time>
      </trkpt>
      <trkpt lat="44.4633" lon="2.44841">
        <ele>510.9</ele>
        <time>2013-08-04T10:13:50Z</time>
      </trkpt>
      <trkpt lat="44.46331" lon="2.44849">
        <ele>510.9</ele>
        <time>2013-08-04T10:13:51Z</time>
      </trkpt>
      <trkpt lat="44.46332" lon="2.44857">
        <ele>510.9</ele>
        <time>2013-08-04T10:13:52Z</time>
      </trkpt>
      <trkpt lat="44.46332" lon="2.44866">
        <ele>510.8</ele>
        <time>2013-08-04T10:13:53Z</time>
      </trkpt>
      <trkpt lat="44.46333" lon="2.44874">
        <ele>511.1</ele>
        <time>2013-08-04T10:13:54Z</time>
      </trkpt>
      <trkpt lat="44.46333" lon="2.44882">
        <ele>511.2</ele>
        <time>2013-08-04T10:13:55Z</time>
      </trkpt>
      <trkpt lat="44.46334" lon="2.4489">
        <ele>511.4</ele>
        <time>2013-08-04T10:13:56Z</time>
      </trkpt>
      <trkpt lat="44.46335" lon="2.44898">
        <ele>511.5</ele>
        <time>2013-08-04T10:13:57Z</time>
      </trkpt>
      <trkpt lat="44.46335" lon="2.44906">
        <ele>511.6</ele>
        <time>2013-08-04T10:13:58Z</time>
      </trkpt>
      <trkpt lat="44.46336" lon="2.44915">
        <ele>511.6</ele>
        <time>2013-08-04T10:13:59Z</time>
      </trkpt>
      <trkpt lat="44.46336" lon="2.44923">
        <ele>511.6</ele>
        <time>2013-08-04T10:14:00Z</time>
      </trkpt>
      <trkpt lat="44.46337" lon="2.44931">
        <ele>511.7</ele>
        <time>2013-08-04T10:14:01Z</time>
      </trkpt>
      <trkpt lat="44.46337" lon="2.4494">
        <ele>511.8</ele>
        <time>2013-08-04T10:14:02Z</time>
      </trkpt>
      <trkpt lat="44.46337" lon="2.44947">
        <ele>511.8</ele>
        <time>2013-08-04T10:14:03Z</time>
      </trkpt>
      <trkpt lat="44.46337" lon="2.44955">
        <ele>511.8</ele>
        <time>2013-08-04T10:14:04Z</time>
      </trkpt>
      <trkpt lat="44.46337" lon="2.44964">
        <ele>511.7</ele>
        <time>2013-08-04T10:14:05Z</time>
      </trkpt>
      <trkpt lat="44.46336" lon="2.44972">
        <ele>511.7</ele>
        <time>2013-08-04T10:14:06Z</time>
      </trkpt>
      <trkpt lat="44.46336" lon="2.44981">
        <ele>511.6</ele>
        <time>2013-08-04T10:14:07Z</time>
      </trkpt>
      <trkpt lat="44.46335" lon="2.4499">
        <ele>511.5</ele>
        <time>2013-08-04T10:14:08Z</time>
      </trkpt>
      <trkpt lat="44.46335" lon="2.44998">
        <ele>511.5</ele>
        <time>2013-08-04T10:14:09Z</time>
      </trkpt>
      <trkpt lat="44.46334" lon="2.45006">
        <ele>511.6</ele>
        <time>2013-08-04T10:14:10Z</time>
      </trkpt>
      <trkpt lat="44.46334" lon="2.45015">
        <ele>511.8</ele>
        <time>2013-08-04T10:14:11Z</time>
      </trkpt>
      <trkpt lat="44.46333" lon="2.45022">
        <ele>511.9</ele>
        <time>2013-08-04T10:14:12Z</time>
      </trkpt>
      <trkpt lat="44.46333" lon="2.4503">
        <ele>511.6</ele>
        <time>2013-08-04T10:14:13Z</time>
      </trkpt>
      <trkpt lat="44.46334" lon="2.45037">
        <ele>511.5</ele>
        <time>2013-08-04T10:14:14Z</time>
      </trkpt>
      <trkpt lat="44.46334" lon="2.45043">
        <ele>511.3</ele>
        <time>2013-08-04T10:14:15Z</time>
      </trkpt>
      <trkpt lat="44.46332" lon="2.45054">
        <ele>511.7</ele>
        <time>2013-08-04T10:14:17Z</time>
      </trkpt>
      <trkpt lat="44.46326" lon="2.45058">
        <ele>512.2</ele>
        <time>2013-08-04T10:14:19Z</time>
      </trkpt>
      <trkpt lat="44.46319" lon="2.4506">
        <ele>511.9</ele>
        <time>2013-08-04T10:14:21Z</time>
      </trkpt>
      <trkpt lat="44.46312" lon="2.45062">
        <ele>512.1</ele>
        <time>2013-08-04T10:14:23Z</time>
      </trkpt>
      <trkpt lat="44.46305" lon="2.45064">
        <ele>512.5</ele>
        <time>2013-08-04T10:14:25Z</time>
      </trkpt>
      <trkpt lat="44.46297" lon="2.45066">
        <ele>512</ele>
        <time>2013-08-04T10:14:27Z</time>
      </trkpt>
      <trkpt lat="44.46293" lon="2.45067">
        <ele>511.9</ele>
        <time>2013-08-04T10:14:28Z</time>
      </trkpt>
      <trkpt lat="44.46287" lon="2.45068">
        <ele>511.8</ele>
        <time>2013-08-04T10:14:29Z</time>
      </trkpt>
      <trkpt lat="44.46282" lon="2.45068">
        <ele>511.8</ele>
        <time>2013-08-04T10:14:30Z</time>
      </trkpt>
      <trkpt lat="44.46277" lon="2.45069">
        <ele>511.7</ele>
        <time>2013-08-04T10:14:31Z</time>
      </trkpt>
      <trkpt lat="44.46272" lon="2.45069">
        <ele>511.7</ele>
        <time>2013-08-04T10:14:32Z</time>
      </trkpt>
      <trkpt lat="44.46266" lon="2.4507">
        <ele>511.4</ele>
        <time>2013-08-04T10:14:33Z</time>
      </trkpt>
      <trkpt lat="44.4626" lon="2.45071">
        <ele>511.1</ele>
        <time>2013-08-04T10:14:34Z</time>
      </trkpt>
      <trkpt lat="44.46254" lon="2.45073">
        <ele>510.9</ele>
        <time>2013-08-04T10:14:35Z</time>
      </trkpt>
      <trkpt lat="44.46248" lon="2.45074">
        <ele>511.3</ele>
        <time>2013-08-04T10:14:36Z</time>
      </trkpt>
      <trkpt lat="44.46242" lon="2.45076">
        <ele>511.5</ele>
        <time>2013-08-04T10:14:37Z</time>
      </trkpt>
      <trkpt lat="44.46235" lon="2.45078">
        <ele>511.7</ele>
        <time>2013-08-04T10:14:38Z</time>
      </trkpt>
      <trkpt lat="44.46229" lon="2.4508">
        <ele>511</ele>
        <time>2013-08-04T10:14:39Z</time>
      </trkpt>
      <trkpt lat="44.46223" lon="2.45082">
        <ele>510.5</ele>
        <time>2013-08-04T10:14:40Z</time>
      </trkpt>
      <trkpt lat="44.46217" lon="2.45084">
        <ele>510.1</ele>
        <time>2013-08-04T10:14:41Z</time>
      </trkpt>
      <trkpt lat="44.46211" lon="2.45087">
        <ele>510</ele>
        <time>2013-08-04T10:14:42Z</time>
      </trkpt>
      <trkpt lat="44.46205" lon="2.4509">
        <ele>509.9</ele>
        <time>2013-08-04T10:14:43Z</time>
      </trkpt>
      <trkpt lat="44.46198" lon="2.45092">
        <ele>509.8</ele>
        <time>2013-08-04T10:14:44Z</time>
      </trkpt>
      <trkpt lat="44.46192" lon="2.45094">
        <ele>509.3</ele>
        <time>2013-08-04T10:14:45Z</time>
      </trkpt>
      <trkpt lat="44.46185" lon="2.45097">
        <ele>509</ele>
        <time>2013-08-04T10:14:46Z</time>
      </trkpt>
      <trkpt lat="44.46179" lon="2.45099">
        <ele>508.7</ele>
        <time>2013-08-04T10:14:47Z</time>
      </trkpt>
      <trkpt lat="44.46173" lon="2.45101">
        <ele>508.9</ele>
        <time>2013-08-04T10:14:48Z</time>
      </trkpt>
      <trkpt lat="44.46168" lon="2.45103">
        <ele>509</ele>
        <time>2013-08-04T10:14:49Z</time>
      </trkpt>
      <trkpt lat="44.46162" lon="2.45105">
        <ele>509.1</ele>
        <time>2013-08-04T10:14:50Z</time>
      </trkpt>
      <trkpt lat="44.46157" lon="2.45107">
        <ele>509.2</ele>
        <time>2013-08-04T10:14:51Z</time>
      </trkpt>
      <trkpt lat="44.46152" lon="2.45108">
        <ele>508.9</ele>
        <time>2013-08-04T10:14:52Z</time>
      </trkpt>
      <trkpt lat="44.46147" lon="2.45109">
        <ele>508.8</ele>
        <time>2013-08-04T10:14:53Z</time>
      </trkpt>
      <trkpt lat="44.46143" lon="2.45111">
        <ele>508.6</ele>
        <time>2013-08-04T10:14:54Z</time>
      </trkpt>
      <trkpt lat="44.46138" lon="2.45113">
        <ele>508.6</ele>
        <time>2013-08-04T10:14:55Z</time>
      </trkpt>
      <trkpt lat="44.46129" lon="2.45116">
        <ele>508.5</ele>
        <time>2013-08-04T10:14:57Z</time>
      </trkpt>
      <trkpt lat="44.46125" lon="2.45117">
        <ele>508.6</ele>
        <time>2013-08-04T10:14:58Z</time>
      </trkpt>
      <trkpt lat="44.46114" lon="2.45111">
        <ele>508.6</ele>
        <time>2013-08-04T10:15:01Z</time>
      </trkpt>
      <trkpt lat="44.4611" lon="2.45101">
        <ele>508.7</ele>
        <time>2013-08-04T10:15:03Z</time>
      </trkpt>
      <trkpt lat="44.46109" lon="2.4509">
        <ele>509.6</ele>
        <time>2013-08-04T10:15:05Z</time>
      </trkpt>
      <trkpt lat="44.46107" lon="2.45079">
        <ele>510.2</ele>
        <time>2013-08-04T10:15:07Z</time>
      </trkpt>
      <trkpt lat="44.46105" lon="2.45068">
        <ele>509.8</ele>
        <time>2013-08-04T10:15:09Z</time>
      </trkpt>
      <trkpt lat="44.46101" lon="2.4506">
        <ele>509.9</ele>
        <time>2013-08-04T10:15:11Z</time>
      </trkpt>
      <trkpt lat="44.46096" lon="2.45054">
        <ele>510.2</ele>
        <time>2013-08-04T10:15:13Z</time>
      </trkpt>
      <trkpt lat="44.46089" lon="2.45048">
        <ele>509.8</ele>
        <time>2013-08-04T10:15:15Z</time>
      </trkpt>
      <trkpt lat="44.46084" lon="2.45044">
        <ele>510.1</ele>
        <time>2013-08-04T10:15:17Z</time>
      </trkpt>
      <trkpt lat="44.46078" lon="2.45038">
        <ele>510.6</ele>
        <time>2013-08-04T10:15:19Z</time>
      </trkpt>
      <trkpt lat="44.4607" lon="2.45032">
        <ele>511.1</ele>
        <time>2013-08-04T10:15:21Z</time>
      </trkpt>
      <trkpt lat="44.46064" lon="2.45024">
        <ele>511.4</ele>
        <time>2013-08-04T10:15:23Z</time>
      </trkpt>
      <trkpt lat="44.4606" lon="2.4502">
        <ele>511.3</ele>
        <time>2013-08-04T10:15:24Z</time>
      </trkpt>
      <trkpt lat="44.46057" lon="2.45016">
        <ele>511.2</ele>
        <time>2013-08-04T10:15:25Z</time>
      </trkpt>
      <trkpt lat="44.46053" lon="2.45011">
        <ele>511.2</ele>
        <time>2013-08-04T10:15:26Z</time>
      </trkpt>
      <trkpt lat="44.4605" lon="2.45006">
        <ele>511</ele>
        <time>2013-08-04T10:15:27Z</time>
      </trkpt>
      <trkpt lat="44.46047" lon="2.45002">
        <ele>511</ele>
        <time>2013-08-04T10:15:28Z</time>
      </trkpt>
      <trkpt lat="44.46043" lon="2.44997">
        <ele>510.9</ele>
        <time>2013-08-04T10:15:29Z</time>
      </trkpt>
      <trkpt lat="44.4604" lon="2.44993">
        <ele>510.8</ele>
        <time>2013-08-04T10:15:30Z</time>
      </trkpt>
      <trkpt lat="44.46037" lon="2.44987">
        <ele>510.7</ele>
        <time>2013-08-04T10:15:31Z</time>
      </trkpt>
      <trkpt lat="44.46035" lon="2.44982">
        <ele>510.6</ele>
        <time>2013-08-04T10:15:32Z</time>
      </trkpt>
      <trkpt lat="44.46031" lon="2.44977">
        <ele>510.7</ele>
        <time>2013-08-04T10:15:33Z</time>
      </trkpt>
      <trkpt lat="44.46028" lon="2.44971">
        <ele>510.7</ele>
        <time>2013-08-04T10:15:34Z</time>
      </trkpt>
      <trkpt lat="44.46025" lon="2.44966">
        <ele>510.7</ele>
        <time>2013-08-04T10:15:35Z</time>
      </trkpt>
      <trkpt lat="44.46022" lon="2.44962">
        <ele>510.9</ele>
        <time>2013-08-04T10:15:36Z</time>
      </trkpt>
      <trkpt lat="44.46018" lon="2.44959">
        <ele>511.1</ele>
        <time>2013-08-04T10:15:37Z</time>
      </trkpt>
      <trkpt lat="44.46013" lon="2.44956">
        <ele>511.2</ele>
        <time>2013-08-04T10:15:38Z</time>
      </trkpt>
      <trkpt lat="44.46009" lon="2.44953">
        <ele>511.3</ele>
        <time>2013-08-04T10:15:39Z</time>
      </trkpt>
      <trkpt lat="44.46004" lon="2.4495">
        <ele>511.1</ele>
        <time>2013-08-04T10:15:40Z</time>
      </trkpt>
      <trkpt lat="44.46" lon="2.44947">
        <ele>510.9</ele>
        <time>2013-08-04T10:15:41Z</time>
      </trkpt>
      <trkpt lat="44.45995" lon="2.44945">
        <ele>510.8</ele>
        <time>2013-08-04T10:15:42Z</time>
      </trkpt>
      <trkpt lat="44.45991" lon="2.44943">
        <ele>510.6</ele>
        <time>2013-08-04T10:15:43Z</time>
      </trkpt>
      <trkpt lat="44.45986" lon="2.4494">
        <ele>510.4</ele>
        <time>2013-08-04T10:15:44Z</time>
      </trkpt>
      <trkpt lat="44.45982" lon="2.44938">
        <ele>510.3</ele>
        <time>2013-08-04T10:15:45Z</time>
      </trkpt>
      <trkpt lat="44.45977" lon="2.44936">
        <ele>510.3</ele>
        <time>2013-08-04T10:15:46Z</time>
      </trkpt>
      <trkpt lat="44.45973" lon="2.44934">
        <ele>510.4</ele>
        <time>2013-08-04T10:15:47Z</time>
      </trkpt>
      <trkpt lat="44.45965" lon="2.44929">
        <ele>510.2</ele>
        <time>2013-08-04T10:15:49Z</time>
      </trkpt>
      <trkpt lat="44.45961" lon="2.44927">
        <ele>510</ele>
        <time>2013-08-04T10:15:50Z</time>
      </trkpt>
      <trkpt lat="44.45956" lon="2.44925">
        <ele>509.9</ele>
        <time>2013-08-04T10:15:51Z</time>
      </trkpt>
      <trkpt lat="44.45952" lon="2.44923">
        <ele>510.2</ele>
        <time>2013-08-04T10:15:52Z</time>
      </trkpt>
      <trkpt lat="44.45947" lon="2.4492">
        <ele>510.5</ele>
        <time>2013-08-04T10:15:53Z</time>
      </trkpt>
      <trkpt lat="44.45943" lon="2.44917">
        <ele>510.7</ele>
        <time>2013-08-04T10:15:54Z</time>
      </trkpt>
      <trkpt lat="44.45939" lon="2.44915">
        <ele>510.8</ele>
        <time>2013-08-04T10:15:55Z</time>
      </trkpt>
      <trkpt lat="44.45935" lon="2.44912">
        <ele>510.7</ele>
        <time>2013-08-04T10:15:56Z</time>
      </trkpt>
      <trkpt lat="44.4593" lon="2.44909">
        <ele>510.6</ele>
        <time>2013-08-04T10:15:57Z</time>
      </trkpt>
      <trkpt lat="44.45926" lon="2.44907">
        <ele>510.5</ele>
        <time>2013-08-04T10:15:58Z</time>
      </trkpt>
      <trkpt lat="44.45921" lon="2.44904">
        <ele>510.4</ele>
        <time>2013-08-04T10:15:59Z</time>
      </trkpt>
      <trkpt lat="44.45917" lon="2.44901">
        <ele>510.3</ele>
        <time>2013-08-04T10:16:00Z</time>
      </trkpt>
      <trkpt lat="44.45912" lon="2.44899">
        <ele>510.3</ele>
        <time>2013-08-04T10:16:01Z</time>
      </trkpt>
      <trkpt lat="44.45908" lon="2.44896">
        <ele>510.3</ele>
        <time>2013-08-04T10:16:02Z</time>
      </trkpt>
      <trkpt lat="44.45903" lon="2.44893">
        <ele>510.4</ele>
        <time>2013-08-04T10:16:03Z</time>
      </trkpt>
      <trkpt lat="44.45899" lon="2.44891">
        <ele>510.4</ele>
        <time>2013-08-04T10:16:04Z</time>
      </trkpt>
      <trkpt lat="44.45894" lon="2.44888">
        <ele>510.5</ele>
        <time>2013-08-04T10:16:05Z</time>
      </trkpt>
      <trkpt lat="44.4589" lon="2.44885">
        <ele>510.6</ele>
        <time>2013-08-04T10:16:06Z</time>
      </trkpt>
      <trkpt lat="44.45885" lon="2.44882">
        <ele>510.7</ele>
        <time>2013-08-04T10:16:07Z</time>
      </trkpt>
      <trkpt lat="44.45881" lon="2.4488">
        <ele>511.1</ele>
        <time>2013-08-04T10:16:08Z</time>
      </trkpt>
      <trkpt lat="44.45876" lon="2.44877">
        <ele>511.3</ele>
        <time>2013-08-04T10:16:09Z</time>
      </trkpt>
      <trkpt lat="44.45872" lon="2.44875">
        <ele>511.6</ele>
        <time>2013-08-04T10:16:10Z</time>
      </trkpt>
      <trkpt lat="44.45867" lon="2.44872">
        <ele>511.4</ele>
        <time>2013-08-04T10:16:11Z</time>
      </trkpt>
      <trkpt lat="44.45863" lon="2.44869">
        <ele>511.4</ele>
        <time>2013-08-04T10:16:12Z</time>
      </trkpt>
      <trkpt lat="44.45858" lon="2.44867">
        <ele>511.3</ele>
        <time>2013-08-04T10:16:13Z</time>
      </trkpt>
      <trkpt lat="44.45854" lon="2.44864">
        <ele>511.3</ele>
        <time>2013-08-04T10:16:14Z</time>
      </trkpt>
      <trkpt lat="44.4585" lon="2.44862">
        <ele>511.2</ele>
        <time>2013-08-04T10:16:15Z</time>
      </trkpt>
      <trkpt lat="44.45842" lon="2.44857">
        <ele>511.1</ele>
        <time>2013-08-04T10:16:17Z</time>
      </trkpt>
      <trkpt lat="44.45834" lon="2.44852">
        <ele>511.3</ele>
        <time>2013-08-04T10:16:19Z</time>
      </trkpt>
      <trkpt lat="44.45827" lon="2.44848">
        <ele>511.7</ele>
        <time>2013-08-04T10:16:21Z</time>
      </trkpt>
      <trkpt lat="44.4582" lon="2.44843">
        <ele>512.1</ele>
        <time>2013-08-04T10:16:23Z</time>
      </trkpt>
      <trkpt lat="44.45814" lon="2.44839">
        <ele>512.7</ele>
        <time>2013-08-04T10:16:25Z</time>
      </trkpt>
      <trkpt lat="44.45807" lon="2.44835">
        <ele>513</ele>
        <time>2013-08-04T10:16:27Z</time>
      </trkpt>
      <trkpt lat="44.45801" lon="2.44832">
        <ele>513.7</ele>
        <time>2013-08-04T10:16:29Z</time>
      </trkpt>
      <trkpt lat="44.45793" lon="2.44827">
        <ele>514.7</ele>
        <time>2013-08-04T10:16:32Z</time>
      </trkpt>
      <trkpt lat="44.45785" lon="2.44823">
        <ele>514.5</ele>
        <time>2013-08-04T10:16:35Z</time>
      </trkpt>
      <trkpt lat="44.45779" lon="2.44819">
        <ele>514.9</ele>
        <time>2013-08-04T10:16:37Z</time>
      </trkpt>
      <trkpt lat="44.45774" lon="2.44816">
        <ele>515.5</ele>
        <time>2013-08-04T10:16:39Z</time>
      </trkpt>
      <trkpt lat="44.45768" lon="2.44813">
        <ele>516</ele>
        <time>2013-08-04T10:16:41Z</time>
      </trkpt>
      <trkpt lat="44.45762" lon="2.4481">
        <ele>516.3</ele>
        <time>2013-08-04T10:16:43Z</time>
      </trkpt>
      <trkpt lat="44.45756" lon="2.44807">
        <ele>516.5</ele>
        <time>2013-08-04T10:16:45Z</time>
      </trkpt>
      <trkpt lat="44.45747" lon="2.44805">
        <ele>516.6</ele>
        <time>2013-08-04T10:16:48Z</time>
      </trkpt>
      <trkpt lat="44.45741" lon="2.44803">
        <ele>516.9</ele>
        <time>2013-08-04T10:16:50Z</time>
      </trkpt>
      <trkpt lat="44.45735" lon="2.448">
        <ele>517.2</ele>
        <time>2013-08-04T10:16:52Z</time>
      </trkpt>
      <trkpt lat="44.45729" lon="2.44797">
        <ele>516.9</ele>
        <time>2013-08-04T10:16:54Z</time>
      </trkpt>
      <trkpt lat="44.45723" lon="2.44794">
        <ele>517</ele>
        <time>2013-08-04T10:16:56Z</time>
      </trkpt>
      <trkpt lat="44.45715" lon="2.4479">
        <ele>517.5</ele>
        <time>2013-08-04T10:16:59Z</time>
      </trkpt>
      <trkpt lat="44.45712" lon="2.44789">
        <ele>517.6</ele>
        <time>2013-08-04T10:17:00Z</time>
      </trkpt>
      <trkpt lat="44.45703" lon="2.44784">
        <ele>517.4</ele>
        <time>2013-08-04T10:17:03Z</time>
      </trkpt>
      <trkpt lat="44.45697" lon="2.4478">
        <ele>517.1</ele>
        <time>2013-08-04T10:17:05Z</time>
      </trkpt>
      <trkpt lat="44.45691" lon="2.44776">
        <ele>517.1</ele>
        <time>2013-08-04T10:17:07Z</time>
      </trkpt>
      <trkpt lat="44.45684" lon="2.44772">
        <ele>517.1</ele>
        <time>2013-08-04T10:17:09Z</time>
      </trkpt>
      <trkpt lat="44.45676" lon="2.44768">
        <ele>517.1</ele>
        <time>2013-08-04T10:17:11Z</time>
      </trkpt>
      <trkpt lat="44.45669" lon="2.44764">
        <ele>516.9</ele>
        <time>2013-08-04T10:17:13Z</time>
      </trkpt>
      <trkpt lat="44.45661" lon="2.44759">
        <ele>516.8</ele>
        <time>2013-08-04T10:17:15Z</time>
      </trkpt>
      <trkpt lat="44.45657" lon="2.44756">
        <ele>516.7</ele>
        <time>2013-08-04T10:17:16Z</time>
      </trkpt>
      <trkpt lat="44.45653" lon="2.44753">
        <ele>516.6</ele>
        <time>2013-08-04T10:17:17Z</time>
      </trkpt>
      <trkpt lat="44.45649" lon="2.4475">
        <ele>516.6</ele>
        <time>2013-08-04T10:17:18Z</time>
      </trkpt>
      <trkpt lat="44.45644" lon="2.44748">
        <ele>516.5</ele>
        <time>2013-08-04T10:17:19Z</time>
      </trkpt>
      <trkpt lat="44.4564" lon="2.44745">
        <ele>516.4</ele>
        <time>2013-08-04T10:17:20Z</time>
      </trkpt>
      <trkpt lat="44.45636" lon="2.44742">
        <ele>516.3</ele>
        <time>2013-08-04T10:17:21Z</time>
      </trkpt>
      <trkpt lat="44.45631" lon="2.44739">
        <ele>516.1</ele>
        <time>2013-08-04T10:17:22Z</time>
      </trkpt>
      <trkpt lat="44.45626" lon="2.44736">
        <ele>516</ele>
        <time>2013-08-04T10:17:23Z</time>
      </trkpt>
      <trkpt lat="44.45622" lon="2.44733">
        <ele>515.9</ele>
        <time>2013-08-04T10:17:24Z</time>
      </trkpt>
      <trkpt lat="44.45617" lon="2.4473">
        <ele>515.5</ele>
        <time>2013-08-04T10:17:25Z</time>
      </trkpt>
      <trkpt lat="44.45612" lon="2.44727">
        <ele>515.1</ele>
        <time>2013-08-04T10:17:26Z</time>
      </trkpt>
      <trkpt lat="44.45608" lon="2.44723">
        <ele>514.9</ele>
        <time>2013-08-04T10:17:27Z</time>
      </trkpt>
      <trkpt lat="44.45603" lon="2.44719">
        <ele>514.8</ele>
        <time>2013-08-04T10:17:28Z</time>
      </trkpt>
      <trkpt lat="44.45599" lon="2.44716">
        <ele>514.8</ele>
        <time>2013-08-04T10:17:29Z</time>
      </trkpt>
      <trkpt lat="44.45595" lon="2.44713">
        <ele>514.8</ele>
        <time>2013-08-04T10:17:30Z</time>
      </trkpt>
      <trkpt lat="44.45591" lon="2.4471">
        <ele>514.1</ele>
        <time>2013-08-04T10:17:31Z</time>
      </trkpt>
      <trkpt lat="44.45587" lon="2.44707">
        <ele>513.5</ele>
        <time>2013-08-04T10:17:32Z</time>
      </trkpt>
      <trkpt lat="44.45582" lon="2.44704">
        <ele>513.1</ele>
        <time>2013-08-04T10:17:33Z</time>
      </trkpt>
      <trkpt lat="44.45578" lon="2.44701">
        <ele>512.8</ele>
        <time>2013-08-04T10:17:34Z</time>
      </trkpt>
      <trkpt lat="44.45574" lon="2.44698">
        <ele>512.8</ele>
        <time>2013-08-04T10:17:35Z</time>
      </trkpt>
      <trkpt lat="44.4557" lon="2.44695">
        <ele>512.8</ele>
        <time>2013-08-04T10:17:36Z</time>
      </trkpt>
      <trkpt lat="44.45566" lon="2.44692">
        <ele>512.8</ele>
        <time>2013-08-04T10:17:37Z</time>
      </trkpt>
      <trkpt lat="44.45562" lon="2.44689">
        <ele>513.2</ele>
        <time>2013-08-04T10:17:38Z</time>
      </trkpt>
      <trkpt lat="44.45557" lon="2.44687">
        <ele>513.6</ele>
        <time>2013-08-04T10:17:39Z</time>
      </trkpt>
      <trkpt lat="44.45553" lon="2.44684">
        <ele>513.8</ele>
        <time>2013-08-04T10:17:40Z</time>
      </trkpt>
      <trkpt lat="44.45549" lon="2.44682">
        <ele>513.3</ele>
        <time>2013-08-04T10:17:41Z</time>
      </trkpt>
      <trkpt lat="44.45544" lon="2.4468">
        <ele>512.9</ele>
        <time>2013-08-04T10:17:42Z</time>
      </trkpt>
      <trkpt lat="44.4554" lon="2.44677">
        <ele>512.5</ele>
        <time>2013-08-04T10:17:43Z</time>
      </trkpt>
      <trkpt lat="44.45535" lon="2.44676">
        <ele>512.7</ele>
        <time>2013-08-04T10:17:44Z</time>
      </trkpt>
      <trkpt lat="44.45527" lon="2.44673">
        <ele>512.9</ele>
        <time>2013-08-04T10:17:46Z</time>
      </trkpt>
      <trkpt lat="44.45518" lon="2.4467">
        <ele>513.1</ele>
        <time>2013-08-04T10:17:48Z</time>
      </trkpt>
      <trkpt lat="44.45514" lon="2.44669">
        <ele>513.1</ele>
        <time>2013-08-04T10:17:49Z</time>
      </trkpt>
      <trkpt lat="44.45506" lon="2.44664">
        <ele>512.7</ele>
        <time>2013-08-04T10:17:51Z</time>
      </trkpt>
      <trkpt lat="44.455" lon="2.44656">
        <ele>512.4</ele>
        <time>2013-08-04T10:17:53Z</time>
      </trkpt>
      <trkpt lat="44.45497" lon="2.44647">
        <ele>512.3</ele>
        <time>2013-08-04T10:17:55Z</time>
      </trkpt>
      <trkpt lat="44.45498" lon="2.44638">
        <ele>512.2</ele>
        <time>2013-08-04T10:17:57Z</time>
      </trkpt>
      <trkpt lat="44.45498" lon="2.44629">
        <ele>512.3</ele>
        <time>2013-08-04T10:17:59Z</time>
      </trkpt>
      <trkpt lat="44.45499" lon="2.44617">
        <ele>512.3</ele>
        <time>2013-08-04T10:18:01Z</time>
      </trkpt>
      <trkpt lat="44.45499" lon="2.4461">
        <ele>512.3</ele>
        <time>2013-08-04T10:18:02Z</time>
      </trkpt>
      <trkpt lat="44.455" lon="2.44604">
        <ele>511.7</ele>
        <time>2013-08-04T10:18:03Z</time>
      </trkpt>
      <trkpt lat="44.455" lon="2.44597">
        <ele>511.4</ele>
        <time>2013-08-04T10:18:04Z</time>
      </trkpt>
      <trkpt lat="44.45501" lon="2.4459">
        <ele>511.1</ele>
        <time>2013-08-04T10:18:05Z</time>
      </trkpt>
      <trkpt lat="44.45502" lon="2.44584">
        <ele>511</ele>
        <time>2013-08-04T10:18:06Z</time>
      </trkpt>
      <trkpt lat="44.45502" lon="2.44577">
        <ele>511</ele>
        <time>2013-08-04T10:18:07Z</time>
      </trkpt>
      <trkpt lat="44.45503" lon="2.44569">
        <ele>511</ele>
        <time>2013-08-04T10:18:08Z</time>
      </trkpt>
      <trkpt lat="44.45504" lon="2.4456">
        <ele>510.9</ele>
        <time>2013-08-04T10:18:09Z</time>
      </trkpt>
      <trkpt lat="44.45505" lon="2.44551">
        <ele>510.3</ele>
        <time>2013-08-04T10:18:10Z</time>
      </trkpt>
      <trkpt lat="44.45507" lon="2.44542">
        <ele>509.8</ele>
        <time>2013-08-04T10:18:11Z</time>
      </trkpt>
      <trkpt lat="44.45508" lon="2.44534">
        <ele>509.4</ele>
        <time>2013-08-04T10:18:12Z</time>
      </trkpt>
      <trkpt lat="44.45509" lon="2.44526">
        <ele>509.2</ele>
        <time>2013-08-04T10:18:13Z</time>
      </trkpt>
      <trkpt lat="44.4551" lon="2.44518">
        <ele>509</ele>
        <time>2013-08-04T10:18:14Z</time>
      </trkpt>
      <trkpt lat="44.45512" lon="2.4451">
        <ele>508.8</ele>
        <time>2013-08-04T10:18:15Z</time>
      </trkpt>
      <trkpt lat="44.45513" lon="2.44502">
        <ele>508.8</ele>
        <time>2013-08-04T10:18:16Z</time>
      </trkpt>
      <trkpt lat="44.45514" lon="2.44494">
        <ele>508.7</ele>
        <time>2013-08-04T10:18:17Z</time>
      </trkpt>
      <trkpt lat="44.45516" lon="2.44485">
        <ele>508.6</ele>
        <time>2013-08-04T10:18:18Z</time>
      </trkpt>
      <trkpt lat="44.45517" lon="2.44477">
        <ele>508.7</ele>
        <time>2013-08-04T10:18:19Z</time>
      </trkpt>
      <trkpt lat="44.45519" lon="2.44469">
        <ele>508.8</ele>
        <time>2013-08-04T10:18:20Z</time>
      </trkpt>
      <trkpt lat="44.4552" lon="2.44461">
        <ele>508.9</ele>
        <time>2013-08-04T10:18:21Z</time>
      </trkpt>
      <trkpt lat="44.45521" lon="2.44452">
        <ele>508.6</ele>
        <time>2013-08-04T10:18:22Z</time>
      </trkpt>
      <trkpt lat="44.45523" lon="2.44443">
        <ele>508.5</ele>
        <time>2013-08-04T10:18:23Z</time>
      </trkpt>
      <trkpt lat="44.45525" lon="2.44434">
        <ele>508.4</ele>
        <time>2013-08-04T10:18:24Z</time>
      </trkpt>
      <trkpt lat="44.45526" lon="2.44425">
        <ele>508.3</ele>
        <time>2013-08-04T10:18:25Z</time>
      </trkpt>
      <trkpt lat="44.45528" lon="2.44416">
        <ele>507.8</ele>
        <time>2013-08-04T10:18:26Z</time>
      </trkpt>
      <trkpt lat="44.4553" lon="2.44407">
        <ele>507.5</ele>
        <time>2013-08-04T10:18:27Z</time>
      </trkpt>
      <trkpt lat="44.45533" lon="2.44398">
        <ele>507.3</ele>
        <time>2013-08-04T10:18:28Z</time>
      </trkpt>
      <trkpt lat="44.45536" lon="2.44389">
        <ele>506.9</ele>
        <time>2013-08-04T10:18:29Z</time>
      </trkpt>
      <trkpt lat="44.45539" lon="2.4438">
        <ele>506.6</ele>
        <time>2013-08-04T10:18:30Z</time>
      </trkpt>
      <trkpt lat="44.45542" lon="2.44371">
        <ele>506.4</ele>
        <time>2013-08-04T10:18:31Z</time>
      </trkpt>
      <trkpt lat="44.45545" lon="2.44362">
        <ele>506</ele>
        <time>2013-08-04T10:18:32Z</time>
      </trkpt>
      <trkpt lat="44.45549" lon="2.44352">
        <ele>505.7</ele>
        <time>2013-08-04T10:18:33Z</time>
      </trkpt>
      <trkpt lat="44.45552" lon="2.44341">
        <ele>505.4</ele>
        <time>2013-08-04T10:18:34Z</time>
      </trkpt>
      <trkpt lat="44.45556" lon="2.44331">
        <ele>504.7</ele>
        <time>2013-08-04T10:18:35Z</time>
      </trkpt>
      <trkpt lat="44.4556" lon="2.44321">
        <ele>504.2</ele>
        <time>2013-08-04T10:18:36Z</time>
      </trkpt>
      <trkpt lat="44.45563" lon="2.4431">
        <ele>503.8</ele>
        <time>2013-08-04T10:18:37Z</time>
      </trkpt>
      <trkpt lat="44.45565" lon="2.443">
        <ele>503.2</ele>
        <time>2013-08-04T10:18:38Z</time>
      </trkpt>
      <trkpt lat="44.45565" lon="2.44289">
        <ele>502.7</ele>
        <time>2013-08-04T10:18:39Z</time>
      </trkpt>
      <trkpt lat="44.45565" lon="2.44278">
        <ele>502.3</ele>
        <time>2013-08-04T10:18:40Z</time>
      </trkpt>
      <trkpt lat="44.45565" lon="2.44268">
        <ele>502.1</ele>
        <time>2013-08-04T10:18:41Z</time>
      </trkpt>
      <trkpt lat="44.45564" lon="2.44258">
        <ele>501.6</ele>
        <time>2013-08-04T10:18:42Z</time>
      </trkpt>
      <trkpt lat="44.45563" lon="2.44248">
        <ele>501.2</ele>
        <time>2013-08-04T10:18:43Z</time>
      </trkpt>
      <trkpt lat="44.45563" lon="2.44238">
        <ele>500.9</ele>
        <time>2013-08-04T10:18:44Z</time>
      </trkpt>
      <trkpt lat="44.45563" lon="2.44229">
        <ele>500.6</ele>
        <time>2013-08-04T10:18:45Z</time>
      </trkpt>
      <trkpt lat="44.45564" lon="2.4422">
        <ele>500.3</ele>
        <time>2013-08-04T10:18:46Z</time>
      </trkpt>
      <trkpt lat="44.45565" lon="2.44212">
        <ele>500.1</ele>
        <time>2013-08-04T10:18:47Z</time>
      </trkpt>
      <trkpt lat="44.45565" lon="2.44204">
        <ele>500</ele>
        <time>2013-08-04T10:18:48Z</time>
      </trkpt>
      <trkpt lat="44.45566" lon="2.44196">
        <ele>500</ele>
        <time>2013-08-04T10:18:49Z</time>
      </trkpt>
      <trkpt lat="44.45567" lon="2.44188">
        <ele>500</ele>
        <time>2013-08-04T10:18:50Z</time>
      </trkpt>
      <trkpt lat="44.45567" lon="2.4418">
        <ele>499.8</ele>
        <time>2013-08-04T10:18:51Z</time>
      </trkpt>
      <trkpt lat="44.45566" lon="2.44172">
        <ele>499.6</ele>
        <time>2013-08-04T10:18:52Z</time>
      </trkpt>
      <trkpt lat="44.45567" lon="2.4416">
        <ele>499.5</ele>
        <time>2013-08-04T10:18:54Z</time>
      </trkpt>
      <trkpt lat="44.45569" lon="2.44154">
        <ele>499.5</ele>
        <time>2013-08-04T10:18:55Z</time>
      </trkpt>
      <trkpt lat="44.45571" lon="2.44148">
        <ele>499.6</ele>
        <time>2013-08-04T10:18:56Z</time>
      </trkpt>
      <trkpt lat="44.45573" lon="2.44141">
        <ele>499.6</ele>
        <time>2013-08-04T10:18:57Z</time>
      </trkpt>
      <trkpt lat="44.45573" lon="2.44134">
        <ele>499.3</ele>
        <time>2013-08-04T10:18:58Z</time>
      </trkpt>
      <trkpt lat="44.45573" lon="2.44126">
        <ele>499.1</ele>
        <time>2013-08-04T10:18:59Z</time>
      </trkpt>
      <trkpt lat="44.45573" lon="2.44118">
        <ele>499</ele>
        <time>2013-08-04T10:19:00Z</time>
      </trkpt>
      <trkpt lat="44.45574" lon="2.44109">
        <ele>498.9</ele>
        <time>2013-08-04T10:19:01Z</time>
      </trkpt>
      <trkpt lat="44.45575" lon="2.441">
        <ele>498.9</ele>
        <time>2013-08-04T10:19:02Z</time>
      </trkpt>
      <trkpt lat="44.45577" lon="2.4409">
        <ele>498.9</ele>
        <time>2013-08-04T10:19:03Z</time>
      </trkpt>
      <trkpt lat="44.45579" lon="2.4408">
        <ele>498.5</ele>
        <time>2013-08-04T10:19:04Z</time>
      </trkpt>
      <trkpt lat="44.4558" lon="2.4407">
        <ele>498.2</ele>
        <time>2013-08-04T10:19:05Z</time>
      </trkpt>
      <trkpt lat="44.45583" lon="2.44061">
        <ele>498</ele>
        <time>2013-08-04T10:19:06Z</time>
      </trkpt>
      <trkpt lat="44.45585" lon="2.44051">
        <ele>497.6</ele>
        <time>2013-08-04T10:19:07Z</time>
      </trkpt>
      <trkpt lat="44.45588" lon="2.44042">
        <ele>497.3</ele>
        <time>2013-08-04T10:19:08Z</time>
      </trkpt>
      <trkpt lat="44.45591" lon="2.44033">
        <ele>497.1</ele>
        <time>2013-08-04T10:19:09Z</time>
      </trkpt>
      <trkpt lat="44.45594" lon="2.44023">
        <ele>496.8</ele>
        <time>2013-08-04T10:19:10Z</time>
      </trkpt>
      <trkpt lat="44.45598" lon="2.44014">
        <ele>496.5</ele>
        <time>2013-08-04T10:19:11Z</time>
      </trkpt>
      <trkpt lat="44.45602" lon="2.44005">
        <ele>496.3</ele>
        <time>2013-08-04T10:19:12Z</time>
      </trkpt>
      <trkpt lat="44.45606" lon="2.43997">
        <ele>496</ele>
        <time>2013-08-04T10:19:13Z</time>
      </trkpt>
      <trkpt lat="44.45611" lon="2.43989">
        <ele>495.7</ele>
        <time>2013-08-04T10:19:14Z</time>
      </trkpt>
      <trkpt lat="44.45615" lon="2.43982">
        <ele>495.5</ele>
        <time>2013-08-04T10:19:15Z</time>
      </trkpt>
      <trkpt lat="44.4562" lon="2.43974">
        <ele>495.4</ele>
        <time>2013-08-04T10:19:16Z</time>
      </trkpt>
      <trkpt lat="44.45625" lon="2.43967">
        <ele>495.7</ele>
        <time>2013-08-04T10:19:17Z</time>
      </trkpt>
      <trkpt lat="44.4563" lon="2.43959">
        <ele>496</ele>
        <time>2013-08-04T10:19:18Z</time>
      </trkpt>
      <trkpt lat="44.45635" lon="2.43951">
        <ele>496.1</ele>
        <time>2013-08-04T10:19:19Z</time>
      </trkpt>
      <trkpt lat="44.4564" lon="2.43943">
        <ele>496</ele>
        <time>2013-08-04T10:19:20Z</time>
      </trkpt>
      <trkpt lat="44.45644" lon="2.43936">
        <ele>495.9</ele>
        <time>2013-08-04T10:19:21Z</time>
      </trkpt>
      <trkpt lat="44.45649" lon="2.43928">
        <ele>495.9</ele>
        <time>2013-08-04T10:19:22Z</time>
      </trkpt>
      <trkpt lat="44.45654" lon="2.4392">
        <ele>495.2</ele>
        <time>2013-08-04T10:19:23Z</time>
      </trkpt>
      <trkpt lat="44.45658" lon="2.43913">
        <ele>494.7</ele>
        <time>2013-08-04T10:19:24Z</time>
      </trkpt>
      <trkpt lat="44.45663" lon="2.43905">
        <ele>494.3</ele>
        <time>2013-08-04T10:19:25Z</time>
      </trkpt>
      <trkpt lat="44.45668" lon="2.43897">
        <ele>494.4</ele>
        <time>2013-08-04T10:19:26Z</time>
      </trkpt>
      <trkpt lat="44.45672" lon="2.43889">
        <ele>494.5</ele>
        <time>2013-08-04T10:19:27Z</time>
      </trkpt>
      <trkpt lat="44.45677" lon="2.43881">
        <ele>494.5</ele>
        <time>2013-08-04T10:19:28Z</time>
      </trkpt>
      <trkpt lat="44.45681" lon="2.43873">
        <ele>494.3</ele>
        <time>2013-08-04T10:19:29Z</time>
      </trkpt>
      <trkpt lat="44.45686" lon="2.43865">
        <ele>494.1</ele>
        <time>2013-08-04T10:19:30Z</time>
      </trkpt>
      <trkpt lat="44.4569" lon="2.43857">
        <ele>493.9</ele>
        <time>2013-08-04T10:19:31Z</time>
      </trkpt>
      <trkpt lat="44.45695" lon="2.43848">
        <ele>493.8</ele>
        <time>2013-08-04T10:19:32Z</time>
      </trkpt>
      <trkpt lat="44.45699" lon="2.43839">
        <ele>493.3</ele>
        <time>2013-08-04T10:19:33Z</time>
      </trkpt>
      <trkpt lat="44.45703" lon="2.43829">
        <ele>492.9</ele>
        <time>2013-08-04T10:19:34Z</time>
      </trkpt>
      <trkpt lat="44.45705" lon="2.43819">
        <ele>492.6</ele>
        <time>2013-08-04T10:19:35Z</time>
      </trkpt>
      <trkpt lat="44.45707" lon="2.43808">
        <ele>492</ele>
        <time>2013-08-04T10:19:36Z</time>
      </trkpt>
      <trkpt lat="44.45708" lon="2.43799">
        <ele>491.6</ele>
        <time>2013-08-04T10:19:37Z</time>
      </trkpt>
      <trkpt lat="44.45709" lon="2.4379">
        <ele>491.3</ele>
        <time>2013-08-04T10:19:38Z</time>
      </trkpt>
      <trkpt lat="44.4571" lon="2.43783">
        <ele>490</ele>
        <time>2013-08-04T10:19:39Z</time>
      </trkpt>
      <trkpt lat="44.45715" lon="2.43774">
        <ele>488.3</ele>
        <time>2013-08-04T10:19:41Z</time>
      </trkpt>
      <trkpt lat="44.4572" lon="2.43773">
        <ele>487.4</ele>
        <time>2013-08-04T10:19:42Z</time>
      </trkpt>
      <trkpt lat="44.45725" lon="2.43774">
        <ele>486.7</ele>
        <time>2013-08-04T10:19:43Z</time>
      </trkpt>
      <trkpt lat="44.45734" lon="2.43774">
        <ele>484.8</ele>
        <time>2013-08-04T10:19:45Z</time>
      </trkpt>
      <trkpt lat="44.45739" lon="2.43767">
        <ele>483.1</ele>
        <time>2013-08-04T10:19:47Z</time>
      </trkpt>
      <trkpt lat="44.45738" lon="2.43756">
        <ele>481.3</ele>
        <time>2013-08-04T10:19:49Z</time>
      </trkpt>
      <trkpt lat="44.45736" lon="2.43749">
        <ele>480.3</ele>
        <time>2013-08-04T10:19:50Z</time>
      </trkpt>
      <trkpt lat="44.45733" lon="2.43743">
        <ele>479.7</ele>
        <time>2013-08-04T10:19:51Z</time>
      </trkpt>
      <trkpt lat="44.4573" lon="2.43736">
        <ele>478.3</ele>
        <time>2013-08-04T10:19:52Z</time>
      </trkpt>
      <trkpt lat="44.45727" lon="2.43729">
        <ele>477.3</ele>
        <time>2013-08-04T10:19:53Z</time>
      </trkpt>
      <trkpt lat="44.45724" lon="2.43723">
        <ele>476.5</ele>
        <time>2013-08-04T10:19:54Z</time>
      </trkpt>
      <trkpt lat="44.4572" lon="2.43717">
        <ele>476.5</ele>
        <time>2013-08-04T10:19:55Z</time>
      </trkpt>
      <trkpt lat="44.45717" lon="2.4371">
        <ele>476.4</ele>
        <time>2013-08-04T10:19:56Z</time>
      </trkpt>
      <trkpt lat="44.45715" lon="2.43704">
        <ele>476.4</ele>
        <time>2013-08-04T10:19:57Z</time>
      </trkpt>
      <trkpt lat="44.45712" lon="2.43697">
        <ele>476.1</ele>
        <time>2013-08-04T10:19:58Z</time>
      </trkpt>
      <trkpt lat="44.4571" lon="2.4369">
        <ele>475.9</ele>
        <time>2013-08-04T10:19:59Z</time>
      </trkpt>
      <trkpt lat="44.45708" lon="2.43683">
        <ele>475.7</ele>
        <time>2013-08-04T10:20:00Z</time>
      </trkpt>
      <trkpt lat="44.45707" lon="2.43676">
        <ele>475.8</ele>
        <time>2013-08-04T10:20:01Z</time>
      </trkpt>
      <trkpt lat="44.45706" lon="2.43669">
        <ele>475.8</ele>
        <time>2013-08-04T10:20:02Z</time>
      </trkpt>
      <trkpt lat="44.45705" lon="2.43663">
        <ele>475.8</ele>
        <time>2013-08-04T10:20:03Z</time>
      </trkpt>
      <trkpt lat="44.45704" lon="2.43656">
        <ele>476</ele>
        <time>2013-08-04T10:20:04Z</time>
      </trkpt>
      <trkpt lat="44.45703" lon="2.43643">
        <ele>476.3</ele>
        <time>2013-08-04T10:20:06Z</time>
      </trkpt>
      <trkpt lat="44.45704" lon="2.43632">
        <ele>476.6</ele>
        <time>2013-08-04T10:20:08Z</time>
      </trkpt>
      <trkpt lat="44.45706" lon="2.43622">
        <ele>476.8</ele>
        <time>2013-08-04T10:20:10Z</time>
      </trkpt>
      <trkpt lat="44.45709" lon="2.43614">
        <ele>477.3</ele>
        <time>2013-08-04T10:20:12Z</time>
      </trkpt>
      <trkpt lat="44.45714" lon="2.43606">
        <ele>478.3</ele>
        <time>2013-08-04T10:20:15Z</time>
      </trkpt>
      <trkpt lat="44.45719" lon="2.43599">
        <ele>479.1</ele>
        <time>2013-08-04T10:20:18Z</time>
      </trkpt>
      <trkpt lat="44.45725" lon="2.43591">
        <ele>480.6</ele>
        <time>2013-08-04T10:20:22Z</time>
      </trkpt>
      <trkpt lat="44.45731" lon="2.43585">
        <ele>481.9</ele>
        <time>2013-08-04T10:20:26Z</time>
      </trkpt>
      <trkpt lat="44.45739" lon="2.43579">
        <ele>483.4</ele>
        <time>2013-08-04T10:20:31Z</time>
      </trkpt>
      <trkpt lat="44.45746" lon="2.43575">
        <ele>484.9</ele>
        <time>2013-08-04T10:20:37Z</time>
      </trkpt>
      <trkpt lat="44.45755" lon="2.43572">
        <ele>486</ele>
        <time>2013-08-04T10:20:43Z</time>
      </trkpt>
      <trkpt lat="44.45762" lon="2.4357">
        <ele>487.2</ele>
        <time>2013-08-04T10:20:48Z</time>
      </trkpt>
      <trkpt lat="44.45771" lon="2.43568">
        <ele>488.2</ele>
        <time>2013-08-04T10:20:53Z</time>
      </trkpt>
      <trkpt lat="44.45779" lon="2.43565">
        <ele>488.9</ele>
        <time>2013-08-04T10:20:58Z</time>
      </trkpt>
      <trkpt lat="44.45787" lon="2.4356">
        <ele>490</ele>
        <time>2013-08-04T10:21:03Z</time>
      </trkpt>
      <trkpt lat="44.45794" lon="2.43555">
        <ele>490.6</ele>
        <time>2013-08-04T10:21:07Z</time>
      </trkpt>
      <trkpt lat="44.45796" lon="2.43553">
        <ele>491.2</ele>
        <time>2013-08-04T10:21:08Z</time>
      </trkpt>
      <trkpt lat="44.45802" lon="2.43536">
        <ele>491.4</ele>
        <time>2013-08-04T10:21:15Z</time>
      </trkpt>
      <trkpt lat="44.45797" lon="2.43529">
        <ele>491.4</ele>
        <time>2013-08-04T10:21:18Z</time>
      </trkpt>
      <trkpt lat="44.4579" lon="2.43522">
        <ele>491.3</ele>
        <time>2013-08-04T10:21:21Z</time>
      </trkpt>
      <trkpt lat="44.45782" lon="2.43515">
        <ele>491.3</ele>
        <time>2013-08-04T10:21:24Z</time>
      </trkpt>
      <trkpt lat="44.45775" lon="2.43509">
        <ele>491.5</ele>
        <time>2013-08-04T10:21:27Z</time>
      </trkpt>
      <trkpt lat="44.45767" lon="2.43503">
        <ele>492.1</ele>
        <time>2013-08-04T10:21:30Z</time>
      </trkpt>
      <trkpt lat="44.4576" lon="2.43497">
        <ele>491.6</ele>
        <time>2013-08-04T10:21:33Z</time>
      </trkpt>
      <trkpt lat="44.45751" lon="2.43492">
        <ele>492.1</ele>
        <time>2013-08-04T10:21:36Z</time>
      </trkpt>
      <trkpt lat="44.45744" lon="2.43489">
        <ele>492.4</ele>
        <time>2013-08-04T10:21:39Z</time>
      </trkpt>
      <trkpt lat="44.45737" lon="2.43486">
        <ele>492.9</ele>
        <time>2013-08-04T10:21:42Z</time>
      </trkpt>
      <trkpt lat="44.4573" lon="2.43485">
        <ele>494.1</ele>
        <time>2013-08-04T10:21:45Z</time>
      </trkpt>
      <trkpt lat="44.45723" lon="2.43487">
        <ele>494.1</ele>
        <time>2013-08-04T10:21:48Z</time>
      </trkpt>
      <trkpt lat="44.45716" lon="2.43491">
        <ele>495</ele>
        <time>2013-08-04T10:21:52Z</time>
      </trkpt>
      <trkpt lat="44.45708" lon="2.43493">
        <ele>495.1</ele>
        <time>2013-08-04T10:21:56Z</time>
      </trkpt>
      <trkpt lat="44.45701" lon="2.43493">
        <ele>496.3</ele>
        <time>2013-08-04T10:22:00Z</time>
      </trkpt>
      <trkpt lat="44.45693" lon="2.43491">
        <ele>497.4</ele>
        <time>2013-08-04T10:22:04Z</time>
      </trkpt>
      <trkpt lat="44.45686" lon="2.43488">
        <ele>497.6</ele>
        <time>2013-08-04T10:22:08Z</time>
      </trkpt>
      <trkpt lat="44.45684" lon="2.43488">
        <ele>497.8</ele>
        <time>2013-08-04T10:22:09Z</time>
      </trkpt>
      <trkpt lat="44.4567" lon="2.43485">
        <ele>499.4</ele>
        <time>2013-08-04T10:22:17Z</time>
      </trkpt>
      <trkpt lat="44.45662" lon="2.43484">
        <ele>500.8</ele>
        <time>2013-08-04T10:22:22Z</time>
      </trkpt>
      <trkpt lat="44.45654" lon="2.43483">
        <ele>501.9</ele>
        <time>2013-08-04T10:22:27Z</time>
      </trkpt>
      <trkpt lat="44.45646" lon="2.43482">
        <ele>503.1</ele>
        <time>2013-08-04T10:22:33Z</time>
      </trkpt>
      <trkpt lat="44.45639" lon="2.43481">
        <ele>502.9</ele>
        <time>2013-08-04T10:22:37Z</time>
      </trkpt>
      <trkpt lat="44.45631" lon="2.43481">
        <ele>504.2</ele>
        <time>2013-08-04T10:22:41Z</time>
      </trkpt>
      <trkpt lat="44.45623" lon="2.43481">
        <ele>505.2</ele>
        <time>2013-08-04T10:22:45Z</time>
      </trkpt>
      <trkpt lat="44.45615" lon="2.4348">
        <ele>506.1</ele>
        <time>2013-08-04T10:22:49Z</time>
      </trkpt>
      <trkpt lat="44.45606" lon="2.43478">
        <ele>506.8</ele>
        <time>2013-08-04T10:22:54Z</time>
      </trkpt>
      <trkpt lat="44.45599" lon="2.43477">
        <ele>507.2</ele>
        <time>2013-08-04T10:22:58Z</time>
      </trkpt>
      <trkpt lat="44.45591" lon="2.43479">
        <ele>507.4</ele>
        <time>2013-08-04T10:23:03Z</time>
      </trkpt>
      <trkpt lat="44.45583" lon="2.4348">
        <ele>507.9</ele>
        <time>2013-08-04T10:23:07Z</time>
      </trkpt>
      <trkpt lat="44.45575" lon="2.43483">
        <ele>509</ele>
        <time>2013-08-04T10:23:11Z</time>
      </trkpt>
      <trkpt lat="44.45573" lon="2.43483">
        <ele>509.2</ele>
        <time>2013-08-04T10:23:12Z</time>
      </trkpt>
      <trkpt lat="44.45561" lon="2.43486">
        <ele>509.7</ele>
        <time>2013-08-04T10:23:17Z</time>
      </trkpt>
      <trkpt lat="44.45554" lon="2.43488">
        <ele>509.6</ele>
        <time>2013-08-04T10:23:20Z</time>
      </trkpt>
      <trkpt lat="44.45547" lon="2.4349">
        <ele>510.1</ele>
        <time>2013-08-04T10:23:23Z</time>
      </trkpt>
      <trkpt lat="44.4554" lon="2.43493">
        <ele>510.5</ele>
        <time>2013-08-04T10:23:26Z</time>
      </trkpt>
      <trkpt lat="44.45533" lon="2.43496">
        <ele>510.4</ele>
        <time>2013-08-04T10:23:29Z</time>
      </trkpt>
      <trkpt lat="44.45525" lon="2.435">
        <ele>511</ele>
        <time>2013-08-04T10:23:33Z</time>
      </trkpt>
      <trkpt lat="44.45516" lon="2.43504">
        <ele>512.2</ele>
        <time>2013-08-04T10:23:37Z</time>
      </trkpt>
      <trkpt lat="44.4551" lon="2.43509">
        <ele>512.6</ele>
        <time>2013-08-04T10:23:40Z</time>
      </trkpt>
      <trkpt lat="44.45502" lon="2.43515">
        <ele>513.1</ele>
        <time>2013-08-04T10:23:44Z</time>
      </trkpt>
      <trkpt lat="44.45495" lon="2.43521">
        <ele>514.6</ele>
        <time>2013-08-04T10:23:47Z</time>
      </trkpt>
      <trkpt lat="44.45489" lon="2.43527">
        <ele>514.1</ele>
        <time>2013-08-04T10:23:50Z</time>
      </trkpt>
      <trkpt lat="44.45483" lon="2.43532">
        <ele>513.7</ele>
        <time>2013-08-04T10:23:53Z</time>
      </trkpt>
      <trkpt lat="44.45477" lon="2.43538">
        <ele>514.6</ele>
        <time>2013-08-04T10:23:56Z</time>
      </trkpt>
      <trkpt lat="44.45471" lon="2.43545">
        <ele>515.4</ele>
        <time>2013-08-04T10:23:59Z</time>
      </trkpt>
      <trkpt lat="44.45464" lon="2.43551">
        <ele>515.8</ele>
        <time>2013-08-04T10:24:02Z</time>
      </trkpt>
      <trkpt lat="44.45459" lon="2.4356">
        <ele>515.7</ele>
        <time>2013-08-04T10:24:06Z</time>
      </trkpt>
      <trkpt lat="44.45454" lon="2.43568">
        <ele>517.3</ele>
        <time>2013-08-04T10:24:09Z</time>
      </trkpt>
      <trkpt lat="44.45449" lon="2.43576">
        <ele>517.7</ele>
        <time>2013-08-04T10:24:12Z</time>
      </trkpt>
      <trkpt lat="44.45447" lon="2.43579">
        <ele>517.8</ele>
        <time>2013-08-04T10:24:13Z</time>
      </trkpt>
      <trkpt lat="44.45437" lon="2.43592">
        <ele>517.5</ele>
        <time>2013-08-04T10:24:18Z</time>
      </trkpt>
      <trkpt lat="44.4543" lon="2.436">
        <ele>517.9</ele>
        <time>2013-08-04T10:24:21Z</time>
      </trkpt>
      <trkpt lat="44.45425" lon="2.43608">
        <ele>518.5</ele>
        <time>2013-08-04T10:24:24Z</time>
      </trkpt>
      <trkpt lat="44.45419" lon="2.43616">
        <ele>518.8</ele>
        <time>2013-08-04T10:24:27Z</time>
      </trkpt>
      <trkpt lat="44.45414" lon="2.43625">
        <ele>519.1</ele>
        <time>2013-08-04T10:24:30Z</time>
      </trkpt>
      <trkpt lat="44.45409" lon="2.43632">
        <ele>519.8</ele>
        <time>2013-08-04T10:24:33Z</time>
      </trkpt>
      <trkpt lat="44.45403" lon="2.43641">
        <ele>519.8</ele>
        <time>2013-08-04T10:24:36Z</time>
      </trkpt>
      <trkpt lat="44.45399" lon="2.43647">
        <ele>519.4</ele>
        <time>2013-08-04T10:24:38Z</time>
      </trkpt>
      <trkpt lat="44.45395" lon="2.43654">
        <ele>519.6</ele>
        <time>2013-08-04T10:24:40Z</time>
      </trkpt>
      <trkpt lat="44.4539" lon="2.4366">
        <ele>519.9</ele>
        <time>2013-08-04T10:24:42Z</time>
      </trkpt>
      <trkpt lat="44.45386" lon="2.43666">
        <ele>520.3</ele>
        <time>2013-08-04T10:24:44Z</time>
      </trkpt>
      <trkpt lat="44.45381" lon="2.43673">
        <ele>520.6</ele>
        <time>2013-08-04T10:24:46Z</time>
      </trkpt>
      <trkpt lat="44.45377" lon="2.43679">
        <ele>520.8</ele>
        <time>2013-08-04T10:24:48Z</time>
      </trkpt>
      <trkpt lat="44.45372" lon="2.43685">
        <ele>520.6</ele>
        <time>2013-08-04T10:24:50Z</time>
      </trkpt>
      <trkpt lat="44.45367" lon="2.43691">
        <ele>521.2</ele>
        <time>2013-08-04T10:24:52Z</time>
      </trkpt>
      <trkpt lat="44.45362" lon="2.43696">
        <ele>522</ele>
        <time>2013-08-04T10:24:54Z</time>
      </trkpt>
      <trkpt lat="44.45356" lon="2.437">
        <ele>521.7</ele>
        <time>2013-08-04T10:24:56Z</time>
      </trkpt>
      <trkpt lat="44.4535" lon="2.43705">
        <ele>521.4</ele>
        <time>2013-08-04T10:24:58Z</time>
      </trkpt>
      <trkpt lat="44.45343" lon="2.4371">
        <ele>521.2</ele>
        <time>2013-08-04T10:25:00Z</time>
      </trkpt>
      <trkpt lat="44.45337" lon="2.43715">
        <ele>521.4</ele>
        <time>2013-08-04T10:25:02Z</time>
      </trkpt>
      <trkpt lat="44.4533" lon="2.43721">
        <ele>521.5</ele>
        <time>2013-08-04T10:25:04Z</time>
      </trkpt>
      <trkpt lat="44.45326" lon="2.43723">
        <ele>521.2</ele>
        <time>2013-08-04T10:25:05Z</time>
      </trkpt>
      <trkpt lat="44.45322" lon="2.43727">
        <ele>521</ele>
        <time>2013-08-04T10:25:06Z</time>
      </trkpt>
      <trkpt lat="44.45317" lon="2.43731">
        <ele>520.9</ele>
        <time>2013-08-04T10:25:07Z</time>
      </trkpt>
      <trkpt lat="44.45313" lon="2.43735">
        <ele>520.6</ele>
        <time>2013-08-04T10:25:08Z</time>
      </trkpt>
      <trkpt lat="44.45308" lon="2.43739">
        <ele>520.4</ele>
        <time>2013-08-04T10:25:09Z</time>
      </trkpt>
      <trkpt lat="44.45304" lon="2.43744">
        <ele>520.3</ele>
        <time>2013-08-04T10:25:10Z</time>
      </trkpt>
      <trkpt lat="44.45299" lon="2.43749">
        <ele>519.7</ele>
        <time>2013-08-04T10:25:11Z</time>
      </trkpt>
      <trkpt lat="44.45294" lon="2.43754">
        <ele>519.3</ele>
        <time>2013-08-04T10:25:12Z</time>
      </trkpt>
      <trkpt lat="44.45289" lon="2.4376">
        <ele>519</ele>
        <time>2013-08-04T10:25:13Z</time>
      </trkpt>
      <trkpt lat="44.45284" lon="2.43765">
        <ele>518.7</ele>
        <time>2013-08-04T10:25:14Z</time>
      </trkpt>
      <trkpt lat="44.45279" lon="2.43771">
        <ele>518.5</ele>
        <time>2013-08-04T10:25:15Z</time>
      </trkpt>
      <trkpt lat="44.45274" lon="2.43776">
        <ele>518.4</ele>
        <time>2013-08-04T10:25:16Z</time>
      </trkpt>
      <trkpt lat="44.45268" lon="2.43782">
        <ele>518.2</ele>
        <time>2013-08-04T10:25:17Z</time>
      </trkpt>
      <trkpt lat="44.45263" lon="2.43787">
        <ele>518.2</ele>
        <time>2013-08-04T10:25:18Z</time>
      </trkpt>
      <trkpt lat="44.45257" lon="2.43793">
        <ele>518.1</ele>
        <time>2013-08-04T10:25:19Z</time>
      </trkpt>
      <trkpt lat="44.45252" lon="2.43799">
        <ele>518</ele>
        <time>2013-08-04T10:25:20Z</time>
      </trkpt>
      <trkpt lat="44.45246" lon="2.43804">
        <ele>517.8</ele>
        <time>2013-08-04T10:25:21Z</time>
      </trkpt>
      <trkpt lat="44.45241" lon="2.4381">
        <ele>517.7</ele>
        <time>2013-08-04T10:25:22Z</time>
      </trkpt>
      <trkpt lat="44.45235" lon="2.43815">
        <ele>517.6</ele>
        <time>2013-08-04T10:25:23Z</time>
      </trkpt>
      <trkpt lat="44.45229" lon="2.4382">
        <ele>517.6</ele>
        <time>2013-08-04T10:25:24Z</time>
      </trkpt>
      <trkpt lat="44.45224" lon="2.43826">
        <ele>517.5</ele>
        <time>2013-08-04T10:25:25Z</time>
      </trkpt>
      <trkpt lat="44.45218" lon="2.43831">
        <ele>517.5</ele>
        <time>2013-08-04T10:25:26Z</time>
      </trkpt>
      <trkpt lat="44.45212" lon="2.43836">
        <ele>517.2</ele>
        <time>2013-08-04T10:25:27Z</time>
      </trkpt>
      <trkpt lat="44.45207" lon="2.43841">
        <ele>516.9</ele>
        <time>2013-08-04T10:25:28Z</time>
      </trkpt>
      <trkpt lat="44.45201" lon="2.43846">
        <ele>516.6</ele>
        <time>2013-08-04T10:25:29Z</time>
      </trkpt>
      <trkpt lat="44.45194" lon="2.43851">
        <ele>516.2</ele>
        <time>2013-08-04T10:25:30Z</time>
      </trkpt>
      <trkpt lat="44.45188" lon="2.43854">
        <ele>515.9</ele>
        <time>2013-08-04T10:25:31Z</time>
      </trkpt>
      <trkpt lat="44.45181" lon="2.43857">
        <ele>515.7</ele>
        <time>2013-08-04T10:25:32Z</time>
      </trkpt>
      <trkpt lat="44.45174" lon="2.4386">
        <ele>515.1</ele>
        <time>2013-08-04T10:25:33Z</time>
      </trkpt>
      <trkpt lat="44.45167" lon="2.43863">
        <ele>514.7</ele>
        <time>2013-08-04T10:25:34Z</time>
      </trkpt>
      <trkpt lat="44.4516" lon="2.43867">
        <ele>514.3</ele>
        <time>2013-08-04T10:25:35Z</time>
      </trkpt>
      <trkpt lat="44.45152" lon="2.43871">
        <ele>514.1</ele>
        <time>2013-08-04T10:25:36Z</time>
      </trkpt>
      <trkpt lat="44.45145" lon="2.43875">
        <ele>513.6</ele>
        <time>2013-08-04T10:25:37Z</time>
      </trkpt>
      <trkpt lat="44.45137" lon="2.43878">
        <ele>513.2</ele>
        <time>2013-08-04T10:25:38Z</time>
      </trkpt>
      <trkpt lat="44.45128" lon="2.43881">
        <ele>512.9</ele>
        <time>2013-08-04T10:25:39Z</time>
      </trkpt>
      <trkpt lat="44.4512" lon="2.43885">
        <ele>512.3</ele>
        <time>2013-08-04T10:25:40Z</time>
      </trkpt>
      <trkpt lat="44.45112" lon="2.43888">
        <ele>511.8</ele>
        <time>2013-08-04T10:25:41Z</time>
      </trkpt>
      <trkpt lat="44.45104" lon="2.43892">
        <ele>511.5</ele>
        <time>2013-08-04T10:25:42Z</time>
      </trkpt>
      <trkpt lat="44.45096" lon="2.43895">
        <ele>510.9</ele>
        <time>2013-08-04T10:25:43Z</time>
      </trkpt>
      <trkpt lat="44.45087" lon="2.43897">
        <ele>510.4</ele>
        <time>2013-08-04T10:25:44Z</time>
      </trkpt>
      <trkpt lat="44.45079" lon="2.43898">
        <ele>510.1</ele>
        <time>2013-08-04T10:25:45Z</time>
      </trkpt>
      <trkpt lat="44.4507" lon="2.439">
        <ele>509.4</ele>
        <time>2013-08-04T10:25:46Z</time>
      </trkpt>
      <trkpt lat="44.45062" lon="2.43902">
        <ele>509</ele>
        <time>2013-08-04T10:25:47Z</time>
      </trkpt>
      <trkpt lat="44.45054" lon="2.43905">
        <ele>508.6</ele>
        <time>2013-08-04T10:25:48Z</time>
      </trkpt>
      <trkpt lat="44.45046" lon="2.43908">
        <ele>507.9</ele>
        <time>2013-08-04T10:25:49Z</time>
      </trkpt>
      <trkpt lat="44.45037" lon="2.4391">
        <ele>507.4</ele>
        <time>2013-08-04T10:25:50Z</time>
      </trkpt>
      <trkpt lat="44.45029" lon="2.43911">
        <ele>507</ele>
        <time>2013-08-04T10:25:51Z</time>
      </trkpt>
      <trkpt lat="44.4502" lon="2.43911">
        <ele>506.1</ele>
        <time>2013-08-04T10:25:52Z</time>
      </trkpt>
      <trkpt lat="44.45011" lon="2.43911">
        <ele>505.3</ele>
        <time>2013-08-04T10:25:53Z</time>
      </trkpt>
      <trkpt lat="44.45002" lon="2.43911">
        <ele>504.8</ele>
        <time>2013-08-04T10:25:54Z</time>
      </trkpt>
      <trkpt lat="44.44994" lon="2.43914">
        <ele>504.4</ele>
        <time>2013-08-04T10:25:55Z</time>
      </trkpt>
      <trkpt lat="44.44987" lon="2.43919">
        <ele>503.9</ele>
        <time>2013-08-04T10:25:56Z</time>
      </trkpt>
      <trkpt lat="44.44982" lon="2.43924">
        <ele>503.6</ele>
        <time>2013-08-04T10:25:57Z</time>
      </trkpt>
      <trkpt lat="44.44976" lon="2.43928">
        <ele>503.3</ele>
        <time>2013-08-04T10:25:58Z</time>
      </trkpt>
      <trkpt lat="44.44971" lon="2.43933">
        <ele>502.9</ele>
        <time>2013-08-04T10:25:59Z</time>
      </trkpt>
      <trkpt lat="44.44966" lon="2.43937">
        <ele>502.6</ele>
        <time>2013-08-04T10:26:00Z</time>
      </trkpt>
      <trkpt lat="44.44961" lon="2.43941">
        <ele>502.4</ele>
        <time>2013-08-04T10:26:01Z</time>
      </trkpt>
      <trkpt lat="44.44956" lon="2.43944">
        <ele>502.1</ele>
        <time>2013-08-04T10:26:02Z</time>
      </trkpt>
      <trkpt lat="44.44951" lon="2.43948">
        <ele>501.9</ele>
        <time>2013-08-04T10:26:03Z</time>
      </trkpt>
      <trkpt lat="44.44947" lon="2.43951">
        <ele>501.8</ele>
        <time>2013-08-04T10:26:04Z</time>
      </trkpt>
      <trkpt lat="44.44942" lon="2.43955">
        <ele>501.9</ele>
        <time>2013-08-04T10:26:05Z</time>
      </trkpt>
      <trkpt lat="44.44937" lon="2.43959">
        <ele>502.1</ele>
        <time>2013-08-04T10:26:06Z</time>
      </trkpt>
      <trkpt lat="44.44933" lon="2.43963">
        <ele>502.1</ele>
        <time>2013-08-04T10:26:07Z</time>
      </trkpt>
      <trkpt lat="44.44928" lon="2.43967">
        <ele>502.4</ele>
        <time>2013-08-04T10:26:08Z</time>
      </trkpt>
      <trkpt lat="44.44923" lon="2.43971">
        <ele>502.6</ele>
        <time>2013-08-04T10:26:09Z</time>
      </trkpt>
      <trkpt lat="44.44919" lon="2.43975">
        <ele>502.7</ele>
        <time>2013-08-04T10:26:10Z</time>
      </trkpt>
      <trkpt lat="44.44914" lon="2.43979">
        <ele>502.8</ele>
        <time>2013-08-04T10:26:11Z</time>
      </trkpt>
      <trkpt lat="44.4491" lon="2.43983">
        <ele>502.6</ele>
        <time>2013-08-04T10:26:12Z</time>
      </trkpt>
      <trkpt lat="44.44906" lon="2.43986">
        <ele>502.4</ele>
        <time>2013-08-04T10:26:13Z</time>
      </trkpt>
      <trkpt lat="44.44901" lon="2.4399">
        <ele>502.3</ele>
        <time>2013-08-04T10:26:14Z</time>
      </trkpt>
      <trkpt lat="44.44897" lon="2.43994">
        <ele>502.3</ele>
        <time>2013-08-04T10:26:15Z</time>
      </trkpt>
      <trkpt lat="44.44893" lon="2.43998">
        <ele>502.3</ele>
        <time>2013-08-04T10:26:16Z</time>
      </trkpt>
      <trkpt lat="44.44889" lon="2.44002">
        <ele>502.4</ele>
        <time>2013-08-04T10:26:17Z</time>
      </trkpt>
      <trkpt lat="44.44885" lon="2.44006">
        <ele>502.4</ele>
        <time>2013-08-04T10:26:18Z</time>
      </trkpt>
      <trkpt lat="44.44881" lon="2.44009">
        <ele>502.5</ele>
        <time>2013-08-04T10:26:19Z</time>
      </trkpt>
      <trkpt lat="44.44877" lon="2.44012">
        <ele>502.5</ele>
        <time>2013-08-04T10:26:20Z</time>
      </trkpt>
      <trkpt lat="44.44874" lon="2.44016">
        <ele>502.9</ele>
        <time>2013-08-04T10:26:21Z</time>
      </trkpt>
      <trkpt lat="44.4487" lon="2.4402">
        <ele>503.2</ele>
        <time>2013-08-04T10:26:22Z</time>
      </trkpt>
      <trkpt lat="44.44866" lon="2.44023">
        <ele>503.4</ele>
        <time>2013-08-04T10:26:23Z</time>
      </trkpt>
      <trkpt lat="44.44862" lon="2.44027">
        <ele>503.5</ele>
        <time>2013-08-04T10:26:24Z</time>
      </trkpt>
      <trkpt lat="44.44858" lon="2.4403">
        <ele>503.6</ele>
        <time>2013-08-04T10:26:25Z</time>
      </trkpt>
      <trkpt lat="44.44854" lon="2.44033">
        <ele>503.7</ele>
        <time>2013-08-04T10:26:26Z</time>
      </trkpt>
      <trkpt lat="44.4485" lon="2.44037">
        <ele>503.8</ele>
        <time>2013-08-04T10:26:27Z</time>
      </trkpt>
      <trkpt lat="44.44842" lon="2.44043">
        <ele>503.7</ele>
        <time>2013-08-04T10:26:29Z</time>
      </trkpt>
      <trkpt lat="44.44838" lon="2.44047">
        <ele>503.7</ele>
        <time>2013-08-04T10:26:30Z</time>
      </trkpt>
      <trkpt lat="44.44834" lon="2.44049">
        <ele>503.5</ele>
        <time>2013-08-04T10:26:31Z</time>
      </trkpt>
      <trkpt lat="44.4483" lon="2.44052">
        <ele>503.3</ele>
        <time>2013-08-04T10:26:32Z</time>
      </trkpt>
      <trkpt lat="44.44825" lon="2.44055">
        <ele>503.2</ele>
        <time>2013-08-04T10:26:33Z</time>
      </trkpt>
      <trkpt lat="44.44821" lon="2.44058">
        <ele>503</ele>
        <time>2013-08-04T10:26:34Z</time>
      </trkpt>
      <trkpt lat="44.44816" lon="2.44061">
        <ele>502.8</ele>
        <time>2013-08-04T10:26:35Z</time>
      </trkpt>
      <trkpt lat="44.44811" lon="2.44064">
        <ele>502.6</ele>
        <time>2013-08-04T10:26:36Z</time>
      </trkpt>
      <trkpt lat="44.44806" lon="2.44067">
        <ele>502.7</ele>
        <time>2013-08-04T10:26:37Z</time>
      </trkpt>
      <trkpt lat="44.44801" lon="2.4407">
        <ele>502.7</ele>
        <time>2013-08-04T10:26:38Z</time>
      </trkpt>
      <trkpt lat="44.44795" lon="2.44072">
        <ele>502.7</ele>
        <time>2013-08-04T10:26:39Z</time>
      </trkpt>
      <trkpt lat="44.4479" lon="2.44075">
        <ele>502.7</ele>
        <time>2013-08-04T10:26:40Z</time>
      </trkpt>
      <trkpt lat="44.44785" lon="2.44078">
        <ele>502.7</ele>
        <time>2013-08-04T10:26:41Z</time>
      </trkpt>
      <trkpt lat="44.4478" lon="2.44081">
        <ele>502.6</ele>
        <time>2013-08-04T10:26:42Z</time>
      </trkpt>
      <trkpt lat="44.44775" lon="2.44083">
        <ele>502.6</ele>
        <time>2013-08-04T10:26:43Z</time>
      </trkpt>
      <trkpt lat="44.4477" lon="2.44086">
        <ele>502.4</ele>
        <time>2013-08-04T10:26:44Z</time>
      </trkpt>
      <trkpt lat="44.44765" lon="2.44088">
        <ele>502.3</ele>
        <time>2013-08-04T10:26:45Z</time>
      </trkpt>
      <trkpt lat="44.4476" lon="2.44091">
        <ele>502.2</ele>
        <time>2013-08-04T10:26:46Z</time>
      </trkpt>
      <trkpt lat="44.44755" lon="2.44093">
        <ele>502.2</ele>
        <time>2013-08-04T10:26:47Z</time>
      </trkpt>
      <trkpt lat="44.44751" lon="2.44096">
        <ele>502.2</ele>
        <time>2013-08-04T10:26:48Z</time>
      </trkpt>
      <trkpt lat="44.44746" lon="2.44098">
        <ele>502.2</ele>
        <time>2013-08-04T10:26:49Z</time>
      </trkpt>
      <trkpt lat="44.44742" lon="2.44101">
        <ele>502.2</ele>
        <time>2013-08-04T10:26:50Z</time>
      </trkpt>
      <trkpt lat="44.44738" lon="2.44103">
        <ele>502.3</ele>
        <time>2013-08-04T10:26:51Z</time>
      </trkpt>
      <trkpt lat="44.44733" lon="2.44106">
        <ele>502.3</ele>
        <time>2013-08-04T10:26:52Z</time>
      </trkpt>
      <trkpt lat="44.44729" lon="2.44108">
        <ele>502.3</ele>
        <time>2013-08-04T10:26:53Z</time>
      </trkpt>
      <trkpt lat="44.44721" lon="2.44113">
        <ele>502.4</ele>
        <time>2013-08-04T10:26:55Z</time>
      </trkpt>
      <trkpt lat="44.44716" lon="2.44116">
        <ele>502.3</ele>
        <time>2013-08-04T10:26:56Z</time>
      </trkpt>
      <trkpt lat="44.44712" lon="2.44118">
        <ele>502.2</ele>
        <time>2013-08-04T10:26:57Z</time>
      </trkpt>
      <trkpt lat="44.44708" lon="2.44121">
        <ele>502.1</ele>
        <time>2013-08-04T10:26:58Z</time>
      </trkpt>
      <trkpt lat="44.44704" lon="2.44124">
        <ele>502.1</ele>
        <time>2013-08-04T10:26:59Z</time>
      </trkpt>
      <trkpt lat="44.447" lon="2.44127">
        <ele>502</ele>
        <time>2013-08-04T10:27:00Z</time>
      </trkpt>
      <trkpt lat="44.44692" lon="2.44132">
        <ele>501.9</ele>
        <time>2013-08-04T10:27:02Z</time>
      </trkpt>
      <trkpt lat="44.44688" lon="2.44135">
        <ele>501.8</ele>
        <time>2013-08-04T10:27:03Z</time>
      </trkpt>
      <trkpt lat="44.44684" lon="2.44138">
        <ele>501.6</ele>
        <time>2013-08-04T10:27:04Z</time>
      </trkpt>
      <trkpt lat="44.44675" lon="2.44143">
        <ele>501.6</ele>
        <time>2013-08-04T10:27:06Z</time>
      </trkpt>
      <trkpt lat="44.44668" lon="2.44147">
        <ele>501.7</ele>
        <time>2013-08-04T10:27:08Z</time>
      </trkpt>
      <trkpt lat="44.44663" lon="2.44151">
        <ele>501.8</ele>
        <time>2013-08-04T10:27:10Z</time>
      </trkpt>
      <trkpt lat="44.44658" lon="2.44153">
        <ele>501.8</ele>
        <time>2013-08-04T10:27:11Z</time>
      </trkpt>
      <trkpt lat="44.44654" lon="2.44155">
        <ele>501.9</ele>
        <time>2013-08-04T10:27:12Z</time>
      </trkpt>
      <trkpt lat="44.44649" lon="2.44156">
        <ele>502</ele>
        <time>2013-08-04T10:27:13Z</time>
      </trkpt>
      <trkpt lat="44.44643" lon="2.44158">
        <ele>502.1</ele>
        <time>2013-08-04T10:27:14Z</time>
      </trkpt>
      <trkpt lat="44.44638" lon="2.44159">
        <ele>502</ele>
        <time>2013-08-04T10:27:15Z</time>
      </trkpt>
      <trkpt lat="44.44633" lon="2.44161">
        <ele>502</ele>
        <time>2013-08-04T10:27:16Z</time>
      </trkpt>
      <trkpt lat="44.44627" lon="2.44163">
        <ele>502</ele>
        <time>2013-08-04T10:27:17Z</time>
      </trkpt>
      <trkpt lat="44.44622" lon="2.44165">
        <ele>501.9</ele>
        <time>2013-08-04T10:27:18Z</time>
      </trkpt>
      <trkpt lat="44.44617" lon="2.44166">
        <ele>501.8</ele>
        <time>2013-08-04T10:27:19Z</time>
      </trkpt>
      <trkpt lat="44.44612" lon="2.44167">
        <ele>501.7</ele>
        <time>2013-08-04T10:27:20Z</time>
      </trkpt>
      <trkpt lat="44.44606" lon="2.44168">
        <ele>501.7</ele>
        <time>2013-08-04T10:27:21Z</time>
      </trkpt>
      <trkpt lat="44.446" lon="2.44168">
        <ele>501.3</ele>
        <time>2013-08-04T10:27:22Z</time>
      </trkpt>
      <trkpt lat="44.44595" lon="2.4417">
        <ele>501</ele>
        <time>2013-08-04T10:27:23Z</time>
      </trkpt>
      <trkpt lat="44.4459" lon="2.44171">
        <ele>500.7</ele>
        <time>2013-08-04T10:27:24Z</time>
      </trkpt>
      <trkpt lat="44.44584" lon="2.44172">
        <ele>500.5</ele>
        <time>2013-08-04T10:27:25Z</time>
      </trkpt>
      <trkpt lat="44.44578" lon="2.44173">
        <ele>500.4</ele>
        <time>2013-08-04T10:27:26Z</time>
      </trkpt>
      <trkpt lat="44.44572" lon="2.44175">
        <ele>500.2</ele>
        <time>2013-08-04T10:27:27Z</time>
      </trkpt>
      <trkpt lat="44.44567" lon="2.44177">
        <ele>499.9</ele>
        <time>2013-08-04T10:27:28Z</time>
      </trkpt>
      <trkpt lat="44.44562" lon="2.44179">
        <ele>499.7</ele>
        <time>2013-08-04T10:27:29Z</time>
      </trkpt>
      <trkpt lat="44.44556" lon="2.44182">
        <ele>499.5</ele>
        <time>2013-08-04T10:27:30Z</time>
      </trkpt>
      <trkpt lat="44.4455" lon="2.44184">
        <ele>499.1</ele>
        <time>2013-08-04T10:27:31Z</time>
      </trkpt>
      <trkpt lat="44.44545" lon="2.44187">
        <ele>498.8</ele>
        <time>2013-08-04T10:27:32Z</time>
      </trkpt>
      <trkpt lat="44.44539" lon="2.4419">
        <ele>498.5</ele>
        <time>2013-08-04T10:27:33Z</time>
      </trkpt>
      <trkpt lat="44.44532" lon="2.44192">
        <ele>498.3</ele>
        <time>2013-08-04T10:27:34Z</time>
      </trkpt>
      <trkpt lat="44.44525" lon="2.44194">
        <ele>498.3</ele>
        <time>2013-08-04T10:27:35Z</time>
      </trkpt>
      <trkpt lat="44.44518" lon="2.44197">
        <ele>498.3</ele>
        <time>2013-08-04T10:27:36Z</time>
      </trkpt>
      <trkpt lat="44.4451" lon="2.44199">
        <ele>498.2</ele>
        <time>2013-08-04T10:27:37Z</time>
      </trkpt>
      <trkpt lat="44.44503" lon="2.44202">
        <ele>497.3</ele>
        <time>2013-08-04T10:27:38Z</time>
      </trkpt>
      <trkpt lat="44.44495" lon="2.44206">
        <ele>496.7</ele>
        <time>2013-08-04T10:27:39Z</time>
      </trkpt>
      <trkpt lat="44.44487" lon="2.44209">
        <ele>496.2</ele>
        <time>2013-08-04T10:27:40Z</time>
      </trkpt>
      <trkpt lat="44.44478" lon="2.4421">
        <ele>496</ele>
        <time>2013-08-04T10:27:41Z</time>
      </trkpt>
      <trkpt lat="44.4447" lon="2.44212">
        <ele>495.9</ele>
        <time>2013-08-04T10:27:42Z</time>
      </trkpt>
      <trkpt lat="44.44463" lon="2.44213">
        <ele>495.8</ele>
        <time>2013-08-04T10:27:43Z</time>
      </trkpt>
      <trkpt lat="44.44455" lon="2.44214">
        <ele>495.4</ele>
        <time>2013-08-04T10:27:44Z</time>
      </trkpt>
      <trkpt lat="44.44448" lon="2.44216">
        <ele>495</ele>
        <time>2013-08-04T10:27:45Z</time>
      </trkpt>
      <trkpt lat="44.4444" lon="2.44218">
        <ele>494.8</ele>
        <time>2013-08-04T10:27:46Z</time>
      </trkpt>
      <trkpt lat="44.44434" lon="2.44219">
        <ele>494.7</ele>
        <time>2013-08-04T10:27:47Z</time>
      </trkpt>
      <trkpt lat="44.44427" lon="2.4422">
        <ele>494.6</ele>
        <time>2013-08-04T10:27:48Z</time>
      </trkpt>
      <trkpt lat="44.4442" lon="2.44222">
        <ele>494.5</ele>
        <time>2013-08-04T10:27:49Z</time>
      </trkpt>
      <trkpt lat="44.44414" lon="2.44222">
        <ele>494.5</ele>
        <time>2013-08-04T10:27:50Z</time>
      </trkpt>
      <trkpt lat="44.44408" lon="2.44221">
        <ele>494.1</ele>
        <time>2013-08-04T10:27:51Z</time>
      </trkpt>
      <trkpt lat="44.44402" lon="2.4422">
        <ele>493.9</ele>
        <time>2013-08-04T10:27:52Z</time>
      </trkpt>
      <trkpt lat="44.44396" lon="2.44217">
        <ele>493.7</ele>
        <time>2013-08-04T10:27:53Z</time>
      </trkpt>
      <trkpt lat="44.44391" lon="2.44215">
        <ele>494.3</ele>
        <time>2013-08-04T10:27:54Z</time>
      </trkpt>
      <trkpt lat="44.44386" lon="2.44212">
        <ele>494.7</ele>
        <time>2013-08-04T10:27:55Z</time>
      </trkpt>
      <trkpt lat="44.4438" lon="2.44209">
        <ele>495</ele>
        <time>2013-08-04T10:27:56Z</time>
      </trkpt>
      <trkpt lat="44.44375" lon="2.44206">
        <ele>495.2</ele>
        <time>2013-08-04T10:27:57Z</time>
      </trkpt>
      <trkpt lat="44.4437" lon="2.44204">
        <ele>495.3</ele>
        <time>2013-08-04T10:27:58Z</time>
      </trkpt>
      <trkpt lat="44.44365" lon="2.44202">
        <ele>495.4</ele>
        <time>2013-08-04T10:27:59Z</time>
      </trkpt>
      <trkpt lat="44.44359" lon="2.44201">
        <ele>495.4</ele>
        <time>2013-08-04T10:28:00Z</time>
      </trkpt>
      <trkpt lat="44.44352" lon="2.44208">
        <ele>495.3</ele>
        <time>2013-08-04T10:28:02Z</time>
      </trkpt>
      <trkpt lat="44.44348" lon="2.44218">
        <ele>495</ele>
        <time>2013-08-04T10:28:04Z</time>
      </trkpt>
      <trkpt lat="44.44346" lon="2.44228">
        <ele>494.9</ele>
        <time>2013-08-04T10:28:06Z</time>
      </trkpt>
      <trkpt lat="44.44343" lon="2.44236">
        <ele>495.3</ele>
        <time>2013-08-04T10:28:08Z</time>
      </trkpt>
      <trkpt lat="44.4434" lon="2.44244">
        <ele>495.7</ele>
        <time>2013-08-04T10:28:10Z</time>
      </trkpt>
      <trkpt lat="44.44335" lon="2.44251">
        <ele>496</ele>
        <time>2013-08-04T10:28:12Z</time>
      </trkpt>
      <trkpt lat="44.44329" lon="2.44258">
        <ele>496.4</ele>
        <time>2013-08-04T10:28:14Z</time>
      </trkpt>
      <trkpt lat="44.44324" lon="2.44265">
        <ele>496.6</ele>
        <time>2013-08-04T10:28:16Z</time>
      </trkpt>
      <trkpt lat="44.44323" lon="2.44269">
        <ele>496.8</ele>
        <time>2013-08-04T10:28:17Z</time>
      </trkpt>
      <trkpt lat="44.44318" lon="2.44282">
        <ele>497.2</ele>
        <time>2013-08-04T10:28:20Z</time>
      </trkpt>
      <trkpt lat="44.44317" lon="2.44291">
        <ele>497.6</ele>
        <time>2013-08-04T10:28:22Z</time>
      </trkpt>
      <trkpt lat="44.44315" lon="2.44299">
        <ele>498</ele>
        <time>2013-08-04T10:28:24Z</time>
      </trkpt>
      <trkpt lat="44.44314" lon="2.44308">
        <ele>498.4</ele>
        <time>2013-08-04T10:28:26Z</time>
      </trkpt>
      <trkpt lat="44.44312" lon="2.44318">
        <ele>498.5</ele>
        <time>2013-08-04T10:28:29Z</time>
      </trkpt>
      <trkpt lat="44.44312" lon="2.4433">
        <ele>498.5</ele>
        <time>2013-08-04T10:28:33Z</time>
      </trkpt>
      <trkpt lat="44.44312" lon="2.44342">
        <ele>498.6</ele>
        <time>2013-08-04T10:28:37Z</time>
      </trkpt>
      <trkpt lat="44.4431" lon="2.44353">
        <ele>498.7</ele>
        <time>2013-08-04T10:28:40Z</time>
      </trkpt>
      <trkpt lat="44.4431" lon="2.44342">
        <ele>498.8</ele>
        <time>2013-08-04T10:28:54Z</time>
      </trkpt>
      <trkpt lat="44.44307" lon="2.4433">
        <ele>498.7</ele>
        <time>2013-08-04T10:28:58Z</time>
      </trkpt>
      <trkpt lat="44.443" lon="2.44329">
        <ele>499.2</ele>
        <time>2013-08-04T10:29:05Z</time>
      </trkpt>
      <trkpt lat="44.44293" lon="2.4433">
        <ele>499.1</ele>
        <time>2013-08-04T10:29:08Z</time>
      </trkpt>
      <trkpt lat="44.44285" lon="2.44332">
        <ele>498.5</ele>
        <time>2013-08-04T10:29:12Z</time>
      </trkpt>
      <trkpt lat="44.44279" lon="2.44332">
        <ele>498.5</ele>
        <time>2013-08-04T10:29:14Z</time>
      </trkpt>
      <trkpt lat="44.44271" lon="2.44336">
        <ele>498.5</ele>
        <time>2013-08-04T10:29:17Z</time>
      </trkpt>
      <trkpt lat="44.44269" lon="2.44337">
        <ele>498.5</ele>
        <time>2013-08-04T10:29:18Z</time>
      </trkpt>
      <trkpt lat="44.44257" lon="2.44342">
        <ele>499.5</ele>
        <time>2013-08-04T10:29:23Z</time>
      </trkpt>
      <trkpt lat="44.4425" lon="2.44345">
        <ele>499.7</ele>
        <time>2013-08-04T10:29:25Z</time>
      </trkpt>
      <trkpt lat="44.44243" lon="2.44348">
        <ele>499.4</ele>
        <time>2013-08-04T10:29:27Z</time>
      </trkpt>
      <trkpt lat="44.44236" lon="2.4435">
        <ele>499.2</ele>
        <time>2013-08-04T10:29:29Z</time>
      </trkpt>
      <trkpt lat="44.44229" lon="2.44352">
        <ele>498.9</ele>
        <time>2013-08-04T10:29:31Z</time>
      </trkpt>
      <trkpt lat="44.44221" lon="2.44353">
        <ele>498.9</ele>
        <time>2013-08-04T10:29:33Z</time>
      </trkpt>
      <trkpt lat="44.44213" lon="2.44355">
        <ele>499.1</ele>
        <time>2013-08-04T10:29:35Z</time>
      </trkpt>
      <trkpt lat="44.44206" lon="2.44353">
        <ele>499.5</ele>
        <time>2013-08-04T10:29:37Z</time>
      </trkpt>
      <trkpt lat="44.44199" lon="2.44351">
        <ele>499.6</ele>
        <time>2013-08-04T10:29:39Z</time>
      </trkpt>
      <trkpt lat="44.4419" lon="2.44349">
        <ele>499.7</ele>
        <time>2013-08-04T10:29:42Z</time>
      </trkpt>
      <trkpt lat="44.44182" lon="2.44349">
        <ele>499.5</ele>
        <time>2013-08-04T10:29:47Z</time>
      </trkpt>
      <trkpt lat="44.44174" lon="2.44347">
        <ele>499.2</ele>
        <time>2013-08-04T10:29:53Z</time>
      </trkpt>
      <trkpt lat="44.44166" lon="2.44346">
        <ele>498.8</ele>
        <time>2013-08-04T10:29:59Z</time>
      </trkpt>
      <trkpt lat="44.44158" lon="2.44349">
        <ele>498.6</ele>
        <time>2013-08-04T10:30:06Z</time>
      </trkpt>
      <trkpt lat="44.4415" lon="2.44348">
        <ele>499.5</ele>
        <time>2013-08-04T10:30:12Z</time>
      </trkpt>
      <trkpt lat="44.4415" lon="2.44335">
        <ele>498.7</ele>
        <time>2013-08-04T10:30:18Z</time>
      </trkpt>
      <trkpt lat="44.44151" lon="2.44335">
        <ele>498.6</ele>
        <time>2013-08-04T10:30:19Z</time>
      </trkpt>
      <trkpt lat="44.44152" lon="2.44345">
        <ele>500.1</ele>
        <time>2013-08-04T10:30:33Z</time>
      </trkpt>
      <trkpt lat="44.44144" lon="2.44344">
        <ele>500.2</ele>
        <time>2013-08-04T10:30:35Z</time>
      </trkpt>
      <trkpt lat="44.44136" lon="2.44345">
        <ele>500.2</ele>
        <time>2013-08-04T10:30:36Z</time>
      </trkpt>
      <trkpt lat="44.44128" lon="2.44346">
        <ele>500.3</ele>
        <time>2013-08-04T10:30:38Z</time>
      </trkpt>
      <trkpt lat="44.44119" lon="2.44346">
        <ele>499.3</ele>
        <time>2013-08-04T10:30:58Z</time>
      </trkpt>
      <trkpt lat="44.44112" lon="2.44348">
        <ele>498.6</ele>
        <time>2013-08-04T10:31:02Z</time>
      </trkpt>
      <trkpt lat="44.44104" lon="2.44347">
        <ele>498.6</ele>
        <time>2013-08-04T10:31:05Z</time>
      </trkpt>
      <trkpt lat="44.44096" lon="2.44346">
        <ele>498.3</ele>
        <time>2013-08-04T10:31:08Z</time>
      </trkpt>
      <trkpt lat="44.44087" lon="2.44343">
        <ele>497.6</ele>
        <time>2013-08-04T10:31:10Z</time>
      </trkpt>
      <trkpt lat="44.44083" lon="2.44342">
        <ele>497.4</ele>
        <time>2013-08-04T10:31:11Z</time>
      </trkpt>
      <trkpt lat="44.44078" lon="2.44341">
        <ele>497.4</ele>
        <time>2013-08-04T10:31:12Z</time>
      </trkpt>
      <trkpt lat="44.44074" lon="2.4434">
        <ele>497.4</ele>
        <time>2013-08-04T10:31:13Z</time>
      </trkpt>
      <trkpt lat="44.44069" lon="2.44339">
        <ele>497.5</ele>
        <time>2013-08-04T10:31:14Z</time>
      </trkpt>
      <trkpt lat="44.44063" lon="2.44337">
        <ele>497.2</ele>
        <time>2013-08-04T10:31:15Z</time>
      </trkpt>
      <trkpt lat="44.44057" lon="2.44334">
        <ele>496.9</ele>
        <time>2013-08-04T10:31:16Z</time>
      </trkpt>
      <trkpt lat="44.44052" lon="2.44332">
        <ele>496.8</ele>
        <time>2013-08-04T10:31:17Z</time>
      </trkpt>
      <trkpt lat="44.44048" lon="2.4433">
        <ele>496.4</ele>
        <time>2013-08-04T10:31:18Z</time>
      </trkpt>
      <trkpt lat="44.44043" lon="2.44328">
        <ele>496.1</ele>
        <time>2013-08-04T10:31:19Z</time>
      </trkpt>
      <trkpt lat="44.44038" lon="2.44326">
        <ele>495.9</ele>
        <time>2013-08-04T10:31:20Z</time>
      </trkpt>
      <trkpt lat="44.44033" lon="2.44324">
        <ele>495.9</ele>
        <time>2013-08-04T10:31:21Z</time>
      </trkpt>
      <trkpt lat="44.44028" lon="2.44323">
        <ele>495.9</ele>
        <time>2013-08-04T10:31:22Z</time>
      </trkpt>
      <trkpt lat="44.44022" lon="2.44322">
        <ele>495.9</ele>
        <time>2013-08-04T10:31:23Z</time>
      </trkpt>
      <trkpt lat="44.44015" lon="2.44322">
        <ele>495.6</ele>
        <time>2013-08-04T10:31:24Z</time>
      </trkpt>
      <trkpt lat="44.44009" lon="2.44322">
        <ele>495.4</ele>
        <time>2013-08-04T10:31:25Z</time>
      </trkpt>
      <trkpt lat="44.44002" lon="2.44323">
        <ele>495.2</ele>
        <time>2013-08-04T10:31:26Z</time>
      </trkpt>
      <trkpt lat="44.43994" lon="2.44324">
        <ele>495.1</ele>
        <time>2013-08-04T10:31:27Z</time>
      </trkpt>
      <trkpt lat="44.43987" lon="2.44327">
        <ele>494.5</ele>
        <time>2013-08-04T10:31:28Z</time>
      </trkpt>
      <trkpt lat="44.43979" lon="2.4433">
        <ele>494.2</ele>
        <time>2013-08-04T10:31:29Z</time>
      </trkpt>
      <trkpt lat="44.43972" lon="2.44335">
        <ele>493.9</ele>
        <time>2013-08-04T10:31:30Z</time>
      </trkpt>
      <trkpt lat="44.43964" lon="2.44339">
        <ele>493.6</ele>
        <time>2013-08-04T10:31:31Z</time>
      </trkpt>
      <trkpt lat="44.43956" lon="2.44343">
        <ele>493.4</ele>
        <time>2013-08-04T10:31:32Z</time>
      </trkpt>
      <trkpt lat="44.43948" lon="2.44347">
        <ele>493.3</ele>
        <time>2013-08-04T10:31:33Z</time>
      </trkpt>
      <trkpt lat="44.43938" lon="2.44347">
        <ele>491.9</ele>
        <time>2013-08-04T10:31:34Z</time>
      </trkpt>
      <trkpt lat="44.43928" lon="2.44343">
        <ele>490.9</ele>
        <time>2013-08-04T10:31:35Z</time>
      </trkpt>
      <trkpt lat="44.43919" lon="2.44339">
        <ele>490.1</ele>
        <time>2013-08-04T10:31:36Z</time>
      </trkpt>
      <trkpt lat="44.4391" lon="2.44338">
        <ele>489.4</ele>
        <time>2013-08-04T10:31:37Z</time>
      </trkpt>
      <trkpt lat="44.43901" lon="2.4434">
        <ele>488.8</ele>
        <time>2013-08-04T10:31:38Z</time>
      </trkpt>
      <trkpt lat="44.43893" lon="2.44345">
        <ele>488.3</ele>
        <time>2013-08-04T10:31:39Z</time>
      </trkpt>
      <trkpt lat="44.43885" lon="2.4435">
        <ele>487.9</ele>
        <time>2013-08-04T10:31:40Z</time>
      </trkpt>
      <trkpt lat="44.43878" lon="2.44355">
        <ele>487.5</ele>
        <time>2013-08-04T10:31:41Z</time>
      </trkpt>
      <trkpt lat="44.43872" lon="2.4436">
        <ele>487.3</ele>
        <time>2013-08-04T10:31:42Z</time>
      </trkpt>
      <trkpt lat="44.43866" lon="2.44365">
        <ele>487.1</ele>
        <time>2013-08-04T10:31:43Z</time>
      </trkpt>
      <trkpt lat="44.4386" lon="2.44369">
        <ele>486.7</ele>
        <time>2013-08-04T10:31:44Z</time>
      </trkpt>
      <trkpt lat="44.43855" lon="2.44373">
        <ele>486.4</ele>
        <time>2013-08-04T10:31:45Z</time>
      </trkpt>
      <trkpt lat="44.43849" lon="2.44378">
        <ele>486.2</ele>
        <time>2013-08-04T10:31:46Z</time>
      </trkpt>
      <trkpt lat="44.43843" lon="2.44382">
        <ele>486.4</ele>
        <time>2013-08-04T10:31:47Z</time>
      </trkpt>
      <trkpt lat="44.43838" lon="2.44386">
        <ele>486.6</ele>
        <time>2013-08-04T10:31:48Z</time>
      </trkpt>
      <trkpt lat="44.43832" lon="2.4439">
        <ele>486.7</ele>
        <time>2013-08-04T10:31:49Z</time>
      </trkpt>
      <trkpt lat="44.43827" lon="2.44394">
        <ele>486.9</ele>
        <time>2013-08-04T10:31:50Z</time>
      </trkpt>
      <trkpt lat="44.43822" lon="2.44398">
        <ele>487.1</ele>
        <time>2013-08-04T10:31:51Z</time>
      </trkpt>
      <trkpt lat="44.43817" lon="2.444">
        <ele>487.2</ele>
        <time>2013-08-04T10:31:52Z</time>
      </trkpt>
      <trkpt lat="44.43811" lon="2.44402">
        <ele>487.4</ele>
        <time>2013-08-04T10:31:53Z</time>
      </trkpt>
      <trkpt lat="44.43805" lon="2.44404">
        <ele>487.5</ele>
        <time>2013-08-04T10:31:54Z</time>
      </trkpt>
      <trkpt lat="44.43798" lon="2.44406">
        <ele>487.6</ele>
        <time>2013-08-04T10:31:55Z</time>
      </trkpt>
      <trkpt lat="44.43792" lon="2.44408">
        <ele>487.5</ele>
        <time>2013-08-04T10:31:56Z</time>
      </trkpt>
      <trkpt lat="44.43786" lon="2.44411">
        <ele>487.5</ele>
        <time>2013-08-04T10:31:57Z</time>
      </trkpt>
      <trkpt lat="44.43781" lon="2.44416">
        <ele>487.4</ele>
        <time>2013-08-04T10:31:58Z</time>
      </trkpt>
      <trkpt lat="44.43776" lon="2.4442">
        <ele>487.4</ele>
        <time>2013-08-04T10:31:59Z</time>
      </trkpt>
      <trkpt lat="44.43771" lon="2.44425">
        <ele>487.4</ele>
        <time>2013-08-04T10:32:00Z</time>
      </trkpt>
      <trkpt lat="44.43766" lon="2.44431">
        <ele>487.4</ele>
        <time>2013-08-04T10:32:01Z</time>
      </trkpt>
      <trkpt lat="44.43763" lon="2.44437">
        <ele>487.4</ele>
        <time>2013-08-04T10:32:02Z</time>
      </trkpt>
      <trkpt lat="44.4376" lon="2.44443">
        <ele>487.2</ele>
        <time>2013-08-04T10:32:03Z</time>
      </trkpt>
      <trkpt lat="44.43757" lon="2.44449">
        <ele>487</ele>
        <time>2013-08-04T10:32:04Z</time>
      </trkpt>
      <trkpt lat="44.43754" lon="2.44456">
        <ele>486.8</ele>
        <time>2013-08-04T10:32:05Z</time>
      </trkpt>
      <trkpt lat="44.43751" lon="2.44463">
        <ele>486.7</ele>
        <time>2013-08-04T10:32:06Z</time>
      </trkpt>
      <trkpt lat="44.43746" lon="2.44469">
        <ele>486.6</ele>
        <time>2013-08-04T10:32:07Z</time>
      </trkpt>
      <trkpt lat="44.43741" lon="2.44475">
        <ele>486.5</ele>
        <time>2013-08-04T10:32:08Z</time>
      </trkpt>
      <trkpt lat="44.43736" lon="2.4448">
        <ele>486.4</ele>
        <time>2013-08-04T10:32:09Z</time>
      </trkpt>
      <trkpt lat="44.43731" lon="2.44485">
        <ele>486.4</ele>
        <time>2013-08-04T10:32:10Z</time>
      </trkpt>
      <trkpt lat="44.43726" lon="2.4449">
        <ele>486.3</ele>
        <time>2013-08-04T10:32:11Z</time>
      </trkpt>
      <trkpt lat="44.43721" lon="2.44495">
        <ele>486.8</ele>
        <time>2013-08-04T10:32:12Z</time>
      </trkpt>
      <trkpt lat="44.43715" lon="2.44499">
        <ele>487.1</ele>
        <time>2013-08-04T10:32:13Z</time>
      </trkpt>
      <trkpt lat="44.4371" lon="2.44503">
        <ele>487.4</ele>
        <time>2013-08-04T10:32:14Z</time>
      </trkpt>
      <trkpt lat="44.43705" lon="2.44508">
        <ele>487.6</ele>
        <time>2013-08-04T10:32:15Z</time>
      </trkpt>
      <trkpt lat="44.437" lon="2.44512">
        <ele>487.5</ele>
        <time>2013-08-04T10:32:16Z</time>
      </trkpt>
      <trkpt lat="44.43695" lon="2.44517">
        <ele>487.5</ele>
        <time>2013-08-04T10:32:17Z</time>
      </trkpt>
      <trkpt lat="44.4369" lon="2.4452">
        <ele>487.5</ele>
        <time>2013-08-04T10:32:18Z</time>
      </trkpt>
      <trkpt lat="44.43685" lon="2.44524">
        <ele>487.9</ele>
        <time>2013-08-04T10:32:19Z</time>
      </trkpt>
      <trkpt lat="44.4368" lon="2.44528">
        <ele>488.2</ele>
        <time>2013-08-04T10:32:20Z</time>
      </trkpt>
      <trkpt lat="44.43675" lon="2.44531">
        <ele>488.4</ele>
        <time>2013-08-04T10:32:21Z</time>
      </trkpt>
      <trkpt lat="44.4367" lon="2.44534">
        <ele>488.2</ele>
        <time>2013-08-04T10:32:22Z</time>
      </trkpt>
      <trkpt lat="44.43665" lon="2.44536">
        <ele>488</ele>
        <time>2013-08-04T10:32:23Z</time>
      </trkpt>
      <trkpt lat="44.4366" lon="2.44538">
        <ele>487.9</ele>
        <time>2013-08-04T10:32:24Z</time>
      </trkpt>
      <trkpt lat="44.43655" lon="2.4454">
        <ele>487.7</ele>
        <time>2013-08-04T10:32:25Z</time>
      </trkpt>
      <trkpt lat="44.4365" lon="2.44543">
        <ele>487.6</ele>
        <time>2013-08-04T10:32:26Z</time>
      </trkpt>
      <trkpt lat="44.43645" lon="2.44544">
        <ele>487.6</ele>
        <time>2013-08-04T10:32:27Z</time>
      </trkpt>
      <trkpt lat="44.43641" lon="2.44546">
        <ele>488</ele>
        <time>2013-08-04T10:32:28Z</time>
      </trkpt>
      <trkpt lat="44.43636" lon="2.44548">
        <ele>488.2</ele>
        <time>2013-08-04T10:32:29Z</time>
      </trkpt>
      <trkpt lat="44.43631" lon="2.44549">
        <ele>488.5</ele>
        <time>2013-08-04T10:32:30Z</time>
      </trkpt>
      <trkpt lat="44.43627" lon="2.44551">
        <ele>488.6</ele>
        <time>2013-08-04T10:32:31Z</time>
      </trkpt>
      <trkpt lat="44.43622" lon="2.44554">
        <ele>488.7</ele>
        <time>2013-08-04T10:32:32Z</time>
      </trkpt>
      <trkpt lat="44.43617" lon="2.44556">
        <ele>488.7</ele>
        <time>2013-08-04T10:32:33Z</time>
      </trkpt>
      <trkpt lat="44.43613" lon="2.44558">
        <ele>488.8</ele>
        <time>2013-08-04T10:32:34Z</time>
      </trkpt>
      <trkpt lat="44.43609" lon="2.44561">
        <ele>488.9</ele>
        <time>2013-08-04T10:32:35Z</time>
      </trkpt>
      <trkpt lat="44.43604" lon="2.44564">
        <ele>489.1</ele>
        <time>2013-08-04T10:32:36Z</time>
      </trkpt>
      <trkpt lat="44.43599" lon="2.44567">
        <ele>489.1</ele>
        <time>2013-08-04T10:32:37Z</time>
      </trkpt>
      <trkpt lat="44.43593" lon="2.44569">
        <ele>489.2</ele>
        <time>2013-08-04T10:32:38Z</time>
      </trkpt>
      <trkpt lat="44.43588" lon="2.44572">
        <ele>489.2</ele>
        <time>2013-08-04T10:32:39Z</time>
      </trkpt>
      <trkpt lat="44.43582" lon="2.44575">
        <ele>489.2</ele>
        <time>2013-08-04T10:32:40Z</time>
      </trkpt>
      <trkpt lat="44.43576" lon="2.44579">
        <ele>489.2</ele>
        <time>2013-08-04T10:32:41Z</time>
      </trkpt>
      <trkpt lat="44.43571" lon="2.44583">
        <ele>489.1</ele>
        <time>2013-08-04T10:32:42Z</time>
      </trkpt>
      <trkpt lat="44.43565" lon="2.44586">
        <ele>489.1</ele>
        <time>2013-08-04T10:32:43Z</time>
      </trkpt>
      <trkpt lat="44.43559" lon="2.4459">
        <ele>488.8</ele>
        <time>2013-08-04T10:32:44Z</time>
      </trkpt>
      <trkpt lat="44.43554" lon="2.44592">
        <ele>488.5</ele>
        <time>2013-08-04T10:32:45Z</time>
      </trkpt>
      <trkpt lat="44.43548" lon="2.44596">
        <ele>488.3</ele>
        <time>2013-08-04T10:32:46Z</time>
      </trkpt>
      <trkpt lat="44.43542" lon="2.446">
        <ele>488</ele>
        <time>2013-08-04T10:32:47Z</time>
      </trkpt>
      <trkpt lat="44.43536" lon="2.44604">
        <ele>487.8</ele>
        <time>2013-08-04T10:32:48Z</time>
      </trkpt>
      <trkpt lat="44.43531" lon="2.44609">
        <ele>487.7</ele>
        <time>2013-08-04T10:32:49Z</time>
      </trkpt>
      <trkpt lat="44.43525" lon="2.44614">
        <ele>487.6</ele>
        <time>2013-08-04T10:32:50Z</time>
      </trkpt>
      <trkpt lat="44.43519" lon="2.44621">
        <ele>487.5</ele>
        <time>2013-08-04T10:32:51Z</time>
      </trkpt>
      <trkpt lat="44.43513" lon="2.44628">
        <ele>487.5</ele>
        <time>2013-08-04T10:32:52Z</time>
      </trkpt>
      <trkpt lat="44.43508" lon="2.44636">
        <ele>487.5</ele>
        <time>2013-08-04T10:32:53Z</time>
      </trkpt>
      <trkpt lat="44.43502" lon="2.44644">
        <ele>486.7</ele>
        <time>2013-08-04T10:32:54Z</time>
      </trkpt>
      <trkpt lat="44.43496" lon="2.44652">
        <ele>486.1</ele>
        <time>2013-08-04T10:32:55Z</time>
      </trkpt>
      <trkpt lat="44.43494" lon="2.44662">
        <ele>485.7</ele>
        <time>2013-08-04T10:32:56Z</time>
      </trkpt>
      <trkpt lat="44.43497" lon="2.44669">
        <ele>485.2</ele>
        <time>2013-08-04T10:32:57Z</time>
      </trkpt>
      <trkpt lat="44.43501" lon="2.44672">
        <ele>484.9</ele>
        <time>2013-08-04T10:32:58Z</time>
      </trkpt>
      <trkpt lat="44.43506" lon="2.44671">
        <ele>484.6</ele>
        <time>2013-08-04T10:32:59Z</time>
      </trkpt>
      <trkpt lat="44.43515" lon="2.44667">
        <ele>483.8</ele>
        <time>2013-08-04T10:33:01Z</time>
      </trkpt>
      <trkpt lat="44.43521" lon="2.44665">
        <ele>483.7</ele>
        <time>2013-08-04T10:33:03Z</time>
      </trkpt>
      <trkpt lat="44.43528" lon="2.44661">
        <ele>483.8</ele>
        <time>2013-08-04T10:33:05Z</time>
      </trkpt>
      <trkpt lat="44.43533" lon="2.44658">
        <ele>484.2</ele>
        <time>2013-08-04T10:33:07Z</time>
      </trkpt>
      <trkpt lat="44.43541" lon="2.44653">
        <ele>485</ele>
        <time>2013-08-04T10:33:10Z</time>
      </trkpt>
      <trkpt lat="44.43548" lon="2.4465">
        <ele>485.9</ele>
        <time>2013-08-04T10:33:13Z</time>
      </trkpt>
      <trkpt lat="44.43557" lon="2.44649">
        <ele>487.1</ele>
        <time>2013-08-04T10:33:17Z</time>
      </trkpt>
      <trkpt lat="44.43565" lon="2.44647">
        <ele>487.2</ele>
        <time>2013-08-04T10:33:21Z</time>
      </trkpt>
      <trkpt lat="44.43567" lon="2.44647">
        <ele>487.2</ele>
        <time>2013-08-04T10:33:22Z</time>
      </trkpt>
      <trkpt lat="44.43578" lon="2.44646">
        <ele>488.9</ele>
        <time>2013-08-04T10:33:27Z</time>
      </trkpt>
      <trkpt lat="44.43586" lon="2.44647">
        <ele>489.3</ele>
        <time>2013-08-04T10:33:30Z</time>
      </trkpt>
      <trkpt lat="44.43593" lon="2.44649">
        <ele>490.2</ele>
        <time>2013-08-04T10:33:33Z</time>
      </trkpt>
      <trkpt lat="44.43601" lon="2.44651">
        <ele>491.8</ele>
        <time>2013-08-04T10:33:36Z</time>
      </trkpt>
      <trkpt lat="44.43607" lon="2.44654">
        <ele>492.4</ele>
        <time>2013-08-04T10:33:39Z</time>
      </trkpt>
      <trkpt lat="44.43615" lon="2.44657">
        <ele>492.2</ele>
        <time>2013-08-04T10:33:42Z</time>
      </trkpt>
      <trkpt lat="44.43622" lon="2.44661">
        <ele>492.8</ele>
        <time>2013-08-04T10:33:45Z</time>
      </trkpt>
      <trkpt lat="44.43628" lon="2.44664">
        <ele>493.8</ele>
        <time>2013-08-04T10:33:48Z</time>
      </trkpt>
      <trkpt lat="44.43635" lon="2.44667">
        <ele>494.7</ele>
        <time>2013-08-04T10:33:51Z</time>
      </trkpt>
      <trkpt lat="44.43643" lon="2.44669">
        <ele>495.1</ele>
        <time>2013-08-04T10:33:55Z</time>
      </trkpt>
      <trkpt lat="44.43652" lon="2.44673">
        <ele>495.5</ele>
        <time>2013-08-04T10:33:59Z</time>
      </trkpt>
      <trkpt lat="44.43659" lon="2.44675">
        <ele>496.7</ele>
        <time>2013-08-04T10:34:02Z</time>
      </trkpt>
      <trkpt lat="44.43665" lon="2.44676">
        <ele>497.7</ele>
        <time>2013-08-04T10:34:05Z</time>
      </trkpt>
      <trkpt lat="44.43672" lon="2.44677">
        <ele>497.9</ele>
        <time>2013-08-04T10:34:08Z</time>
      </trkpt>
      <trkpt lat="44.43679" lon="2.44678">
        <ele>498.2</ele>
        <time>2013-08-04T10:34:11Z</time>
      </trkpt>
      <trkpt lat="44.43688" lon="2.4468">
        <ele>498.9</ele>
        <time>2013-08-04T10:34:15Z</time>
      </trkpt>
      <trkpt lat="44.43696" lon="2.44682">
        <ele>498.5</ele>
        <time>2013-08-04T10:34:19Z</time>
      </trkpt>
      <trkpt lat="44.43705" lon="2.44685">
        <ele>499.7</ele>
        <time>2013-08-04T10:34:23Z</time>
      </trkpt>
      <trkpt lat="44.43707" lon="2.44685">
        <ele>499.8</ele>
        <time>2013-08-04T10:34:24Z</time>
      </trkpt>
      <trkpt lat="44.43721" lon="2.44691">
        <ele>501</ele>
        <time>2013-08-04T10:34:31Z</time>
      </trkpt>
      <trkpt lat="44.43729" lon="2.44694">
        <ele>502.9</ele>
        <time>2013-08-04T10:34:35Z</time>
      </trkpt>
      <trkpt lat="44.43736" lon="2.44697">
        <ele>502</ele>
        <time>2013-08-04T10:34:38Z</time>
      </trkpt>
      <trkpt lat="44.43744" lon="2.447">
        <ele>502.7</ele>
        <time>2013-08-04T10:34:41Z</time>
      </trkpt>
      <trkpt lat="44.43752" lon="2.44705">
        <ele>503.3</ele>
        <time>2013-08-04T10:34:44Z</time>
      </trkpt>
      <trkpt lat="44.4376" lon="2.44708">
        <ele>503.7</ele>
        <time>2013-08-04T10:34:47Z</time>
      </trkpt>
      <trkpt lat="44.43768" lon="2.44712">
        <ele>504.6</ele>
        <time>2013-08-04T10:34:50Z</time>
      </trkpt>
      <trkpt lat="44.43776" lon="2.44716">
        <ele>505</ele>
        <time>2013-08-04T10:34:53Z</time>
      </trkpt>
      <trkpt lat="44.43782" lon="2.44719">
        <ele>505.2</ele>
        <time>2013-08-04T10:34:55Z</time>
      </trkpt>
      <trkpt lat="44.43788" lon="2.44721">
        <ele>505.5</ele>
        <time>2013-08-04T10:34:57Z</time>
      </trkpt>
      <trkpt lat="44.43795" lon="2.44724">
        <ele>505.1</ele>
        <time>2013-08-04T10:34:59Z</time>
      </trkpt>
      <trkpt lat="44.43802" lon="2.44727">
        <ele>504.9</ele>
        <time>2013-08-04T10:35:01Z</time>
      </trkpt>
      <trkpt lat="44.43809" lon="2.44731">
        <ele>505.6</ele>
        <time>2013-08-04T10:35:03Z</time>
      </trkpt>
      <trkpt lat="44.43816" lon="2.44734">
        <ele>506</ele>
        <time>2013-08-04T10:35:05Z</time>
      </trkpt>
      <trkpt lat="44.43822" lon="2.44738">
        <ele>506.1</ele>
        <time>2013-08-04T10:35:07Z</time>
      </trkpt>
      <trkpt lat="44.43829" lon="2.44743">
        <ele>506.7</ele>
        <time>2013-08-04T10:35:09Z</time>
      </trkpt>
      <trkpt lat="44.43836" lon="2.44749">
        <ele>506.9</ele>
        <time>2013-08-04T10:35:11Z</time>
      </trkpt>
      <trkpt lat="44.43842" lon="2.44756">
        <ele>506.9</ele>
        <time>2013-08-04T10:35:13Z</time>
      </trkpt>
      <trkpt lat="44.43849" lon="2.44762">
        <ele>506.5</ele>
        <time>2013-08-04T10:35:15Z</time>
      </trkpt>
      <trkpt lat="44.43856" lon="2.4477">
        <ele>506.7</ele>
        <time>2013-08-04T10:35:17Z</time>
      </trkpt>
      <trkpt lat="44.43863" lon="2.44776">
        <ele>507.2</ele>
        <time>2013-08-04T10:35:19Z</time>
      </trkpt>
      <trkpt lat="44.43867" lon="2.44779">
        <ele>507.3</ele>
        <time>2013-08-04T10:35:20Z</time>
      </trkpt>
      <trkpt lat="44.43871" lon="2.44782">
        <ele>507.2</ele>
        <time>2013-08-04T10:35:21Z</time>
      </trkpt>
      <trkpt lat="44.43879" lon="2.44789">
        <ele>507</ele>
        <time>2013-08-04T10:35:23Z</time>
      </trkpt>
      <trkpt lat="44.43886" lon="2.44796">
        <ele>506.7</ele>
        <time>2013-08-04T10:35:25Z</time>
      </trkpt>
      <trkpt lat="44.4389" lon="2.448">
        <ele>506.6</ele>
        <time>2013-08-04T10:35:26Z</time>
      </trkpt>
      <trkpt lat="44.43894" lon="2.44806">
        <ele>506.5</ele>
        <time>2013-08-04T10:35:27Z</time>
      </trkpt>
      <trkpt lat="44.43897" lon="2.44811">
        <ele>506.4</ele>
        <time>2013-08-04T10:35:28Z</time>
      </trkpt>
      <trkpt lat="44.43901" lon="2.44817">
        <ele>506.3</ele>
        <time>2013-08-04T10:35:29Z</time>
      </trkpt>
      <trkpt lat="44.43905" lon="2.44823">
        <ele>506.2</ele>
        <time>2013-08-04T10:35:30Z</time>
      </trkpt>
      <trkpt lat="44.43908" lon="2.44828">
        <ele>506.2</ele>
        <time>2013-08-04T10:35:31Z</time>
      </trkpt>
      <trkpt lat="44.43912" lon="2.44834">
        <ele>506.1</ele>
        <time>2013-08-04T10:35:32Z</time>
      </trkpt>
      <trkpt lat="44.43915" lon="2.4484">
        <ele>506.1</ele>
        <time>2013-08-04T10:35:33Z</time>
      </trkpt>
      <trkpt lat="44.43918" lon="2.44845">
        <ele>506.2</ele>
        <time>2013-08-04T10:35:34Z</time>
      </trkpt>
      <trkpt lat="44.43922" lon="2.44851">
        <ele>506.2</ele>
        <time>2013-08-04T10:35:35Z</time>
      </trkpt>
      <trkpt lat="44.43926" lon="2.44857">
        <ele>506.2</ele>
        <time>2013-08-04T10:35:36Z</time>
      </trkpt>
      <trkpt lat="44.43929" lon="2.44862">
        <ele>506</ele>
        <time>2013-08-04T10:35:37Z</time>
      </trkpt>
      <trkpt lat="44.43934" lon="2.44867">
        <ele>505.9</ele>
        <time>2013-08-04T10:35:38Z</time>
      </trkpt>
      <trkpt lat="44.43937" lon="2.44872">
        <ele>505.8</ele>
        <time>2013-08-04T10:35:39Z</time>
      </trkpt>
      <trkpt lat="44.43941" lon="2.44877">
        <ele>505.7</ele>
        <time>2013-08-04T10:35:40Z</time>
      </trkpt>
      <trkpt lat="44.43945" lon="2.44881">
        <ele>505.5</ele>
        <time>2013-08-04T10:35:41Z</time>
      </trkpt>
      <trkpt lat="44.43949" lon="2.44886">
        <ele>505.5</ele>
        <time>2013-08-04T10:35:42Z</time>
      </trkpt>
      <trkpt lat="44.43952" lon="2.4489">
        <ele>505.7</ele>
        <time>2013-08-04T10:35:43Z</time>
      </trkpt>
      <trkpt lat="44.43956" lon="2.44895">
        <ele>505.9</ele>
        <time>2013-08-04T10:35:44Z</time>
      </trkpt>
      <trkpt lat="44.43961" lon="2.44899">
        <ele>506</ele>
        <time>2013-08-04T10:35:45Z</time>
      </trkpt>
      <trkpt lat="44.43965" lon="2.44902">
        <ele>506.1</ele>
        <time>2013-08-04T10:35:46Z</time>
      </trkpt>
      <trkpt lat="44.43969" lon="2.44906">
        <ele>506.1</ele>
        <time>2013-08-04T10:35:47Z</time>
      </trkpt>
      <trkpt lat="44.43973" lon="2.4491">
        <ele>506.1</ele>
        <time>2013-08-04T10:35:48Z</time>
      </trkpt>
      <trkpt lat="44.43978" lon="2.44913">
        <ele>505.7</ele>
        <time>2013-08-04T10:35:49Z</time>
      </trkpt>
      <trkpt lat="44.43983" lon="2.44916">
        <ele>505.3</ele>
        <time>2013-08-04T10:35:50Z</time>
      </trkpt>
      <trkpt lat="44.43988" lon="2.44921">
        <ele>505.1</ele>
        <time>2013-08-04T10:35:51Z</time>
      </trkpt>
      <trkpt lat="44.43993" lon="2.44925">
        <ele>504.9</ele>
        <time>2013-08-04T10:35:52Z</time>
      </trkpt>
      <trkpt lat="44.43999" lon="2.44929">
        <ele>505.1</ele>
        <time>2013-08-04T10:35:53Z</time>
      </trkpt>
      <trkpt lat="44.44005" lon="2.44933">
        <ele>505.2</ele>
        <time>2013-08-04T10:35:54Z</time>
      </trkpt>
      <trkpt lat="44.44011" lon="2.44939">
        <ele>505.2</ele>
        <time>2013-08-04T10:35:55Z</time>
      </trkpt>
      <trkpt lat="44.44018" lon="2.44946">
        <ele>504.6</ele>
        <time>2013-08-04T10:35:56Z</time>
      </trkpt>
      <trkpt lat="44.44025" lon="2.44954">
        <ele>504.2</ele>
        <time>2013-08-04T10:35:57Z</time>
      </trkpt>
      <trkpt lat="44.44032" lon="2.44961">
        <ele>503.8</ele>
        <time>2013-08-04T10:35:58Z</time>
      </trkpt>
      <trkpt lat="44.44038" lon="2.4497">
        <ele>503.2</ele>
        <time>2013-08-04T10:35:59Z</time>
      </trkpt>
      <trkpt lat="44.44044" lon="2.44981">
        <ele>502.7</ele>
        <time>2013-08-04T10:36:00Z</time>
      </trkpt>
      <trkpt lat="44.44048" lon="2.44994">
        <ele>502.3</ele>
        <time>2013-08-04T10:36:01Z</time>
      </trkpt>
      <trkpt lat="44.44052" lon="2.45008">
        <ele>501.3</ele>
        <time>2013-08-04T10:36:02Z</time>
      </trkpt>
      <trkpt lat="44.44055" lon="2.45023">
        <ele>500.5</ele>
        <time>2013-08-04T10:36:03Z</time>
      </trkpt>
      <trkpt lat="44.44059" lon="2.45037">
        <ele>500</ele>
        <time>2013-08-04T10:36:04Z</time>
      </trkpt>
      <trkpt lat="44.44062" lon="2.45051">
        <ele>498.7</ele>
        <time>2013-08-04T10:36:05Z</time>
      </trkpt>
      <trkpt lat="44.44065" lon="2.45066">
        <ele>497.8</ele>
        <time>2013-08-04T10:36:06Z</time>
      </trkpt>
      <trkpt lat="44.44069" lon="2.45079">
        <ele>497.1</ele>
        <time>2013-08-04T10:36:07Z</time>
      </trkpt>
      <trkpt lat="44.44074" lon="2.45092">
        <ele>496.6</ele>
        <time>2013-08-04T10:36:08Z</time>
      </trkpt>
      <trkpt lat="44.4408" lon="2.45103">
        <ele>495.6</ele>
        <time>2013-08-04T10:36:09Z</time>
      </trkpt>
      <trkpt lat="44.44087" lon="2.45114">
        <ele>495</ele>
        <time>2013-08-04T10:36:10Z</time>
      </trkpt>
      <trkpt lat="44.44094" lon="2.45125">
        <ele>494.5</ele>
        <time>2013-08-04T10:36:11Z</time>
      </trkpt>
      <trkpt lat="44.44101" lon="2.45136">
        <ele>493.6</ele>
        <time>2013-08-04T10:36:12Z</time>
      </trkpt>
      <trkpt lat="44.44109" lon="2.45147">
        <ele>493</ele>
        <time>2013-08-04T10:36:13Z</time>
      </trkpt>
      <trkpt lat="44.44116" lon="2.45158">
        <ele>492.5</ele>
        <time>2013-08-04T10:36:14Z</time>
      </trkpt>
      <trkpt lat="44.44124" lon="2.45169">
        <ele>491.6</ele>
        <time>2013-08-04T10:36:15Z</time>
      </trkpt>
      <trkpt lat="44.44132" lon="2.45181">
        <ele>490.8</ele>
        <time>2013-08-04T10:36:16Z</time>
      </trkpt>
      <trkpt lat="44.44139" lon="2.45192">
        <ele>490.3</ele>
        <time>2013-08-04T10:36:17Z</time>
      </trkpt>
      <trkpt lat="44.44147" lon="2.45203">
        <ele>489.5</ele>
        <time>2013-08-04T10:36:18Z</time>
      </trkpt>
      <trkpt lat="44.44155" lon="2.45214">
        <ele>488.8</ele>
        <time>2013-08-04T10:36:19Z</time>
      </trkpt>
      <trkpt lat="44.44163" lon="2.45225">
        <ele>488.4</ele>
        <time>2013-08-04T10:36:20Z</time>
      </trkpt>
      <trkpt lat="44.44171" lon="2.45234">
        <ele>488.1</ele>
        <time>2013-08-04T10:36:21Z</time>
      </trkpt>
      <trkpt lat="44.44179" lon="2.45244">
        <ele>487.9</ele>
        <time>2013-08-04T10:36:22Z</time>
      </trkpt>
      <trkpt lat="44.44186" lon="2.45253">
        <ele>487.8</ele>
        <time>2013-08-04T10:36:23Z</time>
      </trkpt>
      <trkpt lat="44.44191" lon="2.45263">
        <ele>487.6</ele>
        <time>2013-08-04T10:36:24Z</time>
      </trkpt>
      <trkpt lat="44.44193" lon="2.45272">
        <ele>487</ele>
        <time>2013-08-04T10:36:25Z</time>
      </trkpt>
      <trkpt lat="44.44195" lon="2.4528">
        <ele>486.5</ele>
        <time>2013-08-04T10:36:26Z</time>
      </trkpt>
      <trkpt lat="44.44199" lon="2.45285">
        <ele>486.1</ele>
        <time>2013-08-04T10:36:27Z</time>
      </trkpt>
      <trkpt lat="44.44203" lon="2.45289">
        <ele>485.6</ele>
        <time>2013-08-04T10:36:28Z</time>
      </trkpt>
      <trkpt lat="44.44209" lon="2.45296">
        <ele>484.8</ele>
        <time>2013-08-04T10:36:30Z</time>
      </trkpt>
      <trkpt lat="44.44217" lon="2.45303">
        <ele>484.7</ele>
        <time>2013-08-04T10:36:34Z</time>
      </trkpt>
      <trkpt lat="44.44209" lon="2.45298">
        <ele>483.5</ele>
        <time>2013-08-04T10:36:40Z</time>
      </trkpt>
      <trkpt lat="44.44202" lon="2.45296">
        <ele>483.2</ele>
        <time>2013-08-04T10:36:43Z</time>
      </trkpt>
      <trkpt lat="44.44196" lon="2.45302">
        <ele>482.5</ele>
        <time>2013-08-04T10:36:46Z</time>
      </trkpt>
      <trkpt lat="44.44193" lon="2.4531">
        <ele>483.1</ele>
        <time>2013-08-04T10:36:48Z</time>
      </trkpt>
      <trkpt lat="44.44192" lon="2.45319">
        <ele>483.1</ele>
        <time>2013-08-04T10:36:50Z</time>
      </trkpt>
      <trkpt lat="44.44189" lon="2.45327">
        <ele>482.9</ele>
        <time>2013-08-04T10:36:52Z</time>
      </trkpt>
      <trkpt lat="44.44186" lon="2.45336">
        <ele>483.1</ele>
        <time>2013-08-04T10:36:54Z</time>
      </trkpt>
      <trkpt lat="44.44185" lon="2.45345">
        <ele>482.7</ele>
        <time>2013-08-04T10:36:56Z</time>
      </trkpt>
      <trkpt lat="44.44182" lon="2.45355">
        <ele>482.2</ele>
        <time>2013-08-04T10:36:58Z</time>
      </trkpt>
      <trkpt lat="44.4418" lon="2.45361">
        <ele>482</ele>
        <time>2013-08-04T10:36:59Z</time>
      </trkpt>
      <trkpt lat="44.44178" lon="2.45367">
        <ele>482.1</ele>
        <time>2013-08-04T10:37:00Z</time>
      </trkpt>
      <trkpt lat="44.44177" lon="2.45374">
        <ele>482.1</ele>
        <time>2013-08-04T10:37:01Z</time>
      </trkpt>
      <trkpt lat="44.44175" lon="2.45381">
        <ele>482.1</ele>
        <time>2013-08-04T10:37:02Z</time>
      </trkpt>
      <trkpt lat="44.44173" lon="2.45387">
        <ele>481.6</ele>
        <time>2013-08-04T10:37:03Z</time>
      </trkpt>
      <trkpt lat="44.4417" lon="2.45395">
        <ele>481.2</ele>
        <time>2013-08-04T10:37:04Z</time>
      </trkpt>
      <trkpt lat="44.44168" lon="2.45402">
        <ele>480.9</ele>
        <time>2013-08-04T10:37:05Z</time>
      </trkpt>
      <trkpt lat="44.44166" lon="2.4541">
        <ele>480.4</ele>
        <time>2013-08-04T10:37:06Z</time>
      </trkpt>
      <trkpt lat="44.44164" lon="2.45419">
        <ele>480.1</ele>
        <time>2013-08-04T10:37:07Z</time>
      </trkpt>
      <trkpt lat="44.44161" lon="2.45428">
        <ele>479.8</ele>
        <time>2013-08-04T10:37:08Z</time>
      </trkpt>
      <trkpt lat="44.44158" lon="2.45436">
        <ele>479.9</ele>
        <time>2013-08-04T10:37:09Z</time>
      </trkpt>
      <trkpt lat="44.44155" lon="2.45445">
        <ele>479.9</ele>
        <time>2013-08-04T10:37:10Z</time>
      </trkpt>
      <trkpt lat="44.44152" lon="2.45453">
        <ele>480</ele>
        <time>2013-08-04T10:37:11Z</time>
      </trkpt>
      <trkpt lat="44.44148" lon="2.45462">
        <ele>479.8</ele>
        <time>2013-08-04T10:37:12Z</time>
      </trkpt>
      <trkpt lat="44.44144" lon="2.4547">
        <ele>479.7</ele>
        <time>2013-08-04T10:37:13Z</time>
      </trkpt>
      <trkpt lat="44.4414" lon="2.45478">
        <ele>479.7</ele>
        <time>2013-08-04T10:37:14Z</time>
      </trkpt>
      <trkpt lat="44.44135" lon="2.45486">
        <ele>479.6</ele>
        <time>2013-08-04T10:37:15Z</time>
      </trkpt>
      <trkpt lat="44.44131" lon="2.45494">
        <ele>479.3</ele>
        <time>2013-08-04T10:37:16Z</time>
      </trkpt>
      <trkpt lat="44.44127" lon="2.45502">
        <ele>479.1</ele>
        <time>2013-08-04T10:37:17Z</time>
      </trkpt>
      <trkpt lat="44.44123" lon="2.4551">
        <ele>479</ele>
        <time>2013-08-04T10:37:18Z</time>
      </trkpt>
      <trkpt lat="44.44118" lon="2.45518">
        <ele>478.7</ele>
        <time>2013-08-04T10:37:19Z</time>
      </trkpt>
      <trkpt lat="44.44113" lon="2.45525">
        <ele>478.5</ele>
        <time>2013-08-04T10:37:20Z</time>
      </trkpt>
      <trkpt lat="44.44108" lon="2.45532">
        <ele>478.4</ele>
        <time>2013-08-04T10:37:21Z</time>
      </trkpt>
      <trkpt lat="44.44103" lon="2.45539">
        <ele>478</ele>
        <time>2013-08-04T10:37:22Z</time>
      </trkpt>
      <trkpt lat="44.44099" lon="2.45546">
        <ele>477.7</ele>
        <time>2013-08-04T10:37:23Z</time>
      </trkpt>
      <trkpt lat="44.44093" lon="2.45553">
        <ele>477.5</ele>
        <time>2013-08-04T10:37:24Z</time>
      </trkpt>
      <trkpt lat="44.44088" lon="2.45561">
        <ele>477</ele>
        <time>2013-08-04T10:37:25Z</time>
      </trkpt>
      <trkpt lat="44.44083" lon="2.45568">
        <ele>476.7</ele>
        <time>2013-08-04T10:37:26Z</time>
      </trkpt>
      <trkpt lat="44.44078" lon="2.45575">
        <ele>476.5</ele>
        <time>2013-08-04T10:37:27Z</time>
      </trkpt>
      <trkpt lat="44.44072" lon="2.45582">
        <ele>476</ele>
        <time>2013-08-04T10:37:28Z</time>
      </trkpt>
      <trkpt lat="44.44067" lon="2.45589">
        <ele>475.7</ele>
        <time>2013-08-04T10:37:29Z</time>
      </trkpt>
      <trkpt lat="44.44062" lon="2.45595">
        <ele>475.5</ele>
        <time>2013-08-04T10:37:30Z</time>
      </trkpt>
      <trkpt lat="44.44057" lon="2.45601">
        <ele>475.3</ele>
        <time>2013-08-04T10:37:31Z</time>
      </trkpt>
      <trkpt lat="44.44053" lon="2.45608">
        <ele>475.1</ele>
        <time>2013-08-04T10:37:32Z</time>
      </trkpt>
      <trkpt lat="44.44049" lon="2.45614">
        <ele>475</ele>
        <time>2013-08-04T10:37:33Z</time>
      </trkpt>
      <trkpt lat="44.44047" lon="2.45621">
        <ele>474.9</ele>
        <time>2013-08-04T10:37:34Z</time>
      </trkpt>
      <trkpt lat="44.44045" lon="2.45627">
        <ele>474.5</ele>
        <time>2013-08-04T10:37:35Z</time>
      </trkpt>
      <trkpt lat="44.44044" lon="2.45633">
        <ele>474.3</ele>
        <time>2013-08-04T10:37:36Z</time>
      </trkpt>
      <trkpt lat="44.44042" lon="2.45639">
        <ele>474.1</ele>
        <time>2013-08-04T10:37:37Z</time>
      </trkpt>
      <trkpt lat="44.44041" lon="2.45645">
        <ele>474.2</ele>
        <time>2013-08-04T10:37:38Z</time>
      </trkpt>
      <trkpt lat="44.44039" lon="2.45651">
        <ele>474.2</ele>
        <time>2013-08-04T10:37:39Z</time>
      </trkpt>
      <trkpt lat="44.44037" lon="2.45657">
        <ele>474.3</ele>
        <time>2013-08-04T10:37:40Z</time>
      </trkpt>
      <trkpt lat="44.44034" lon="2.45663">
        <ele>474.3</ele>
        <time>2013-08-04T10:37:41Z</time>
      </trkpt>
      <trkpt lat="44.44028" lon="2.45672">
        <ele>474.3</ele>
        <time>2013-08-04T10:37:43Z</time>
      </trkpt>
      <trkpt lat="44.44022" lon="2.45679">
        <ele>474.6</ele>
        <time>2013-08-04T10:37:45Z</time>
      </trkpt>
      <trkpt lat="44.44018" lon="2.45687">
        <ele>474.8</ele>
        <time>2013-08-04T10:37:47Z</time>
      </trkpt>
      <trkpt lat="44.44013" lon="2.45697">
        <ele>475.1</ele>
        <time>2013-08-04T10:37:50Z</time>
      </trkpt>
      <trkpt lat="44.44008" lon="2.45707">
        <ele>475.3</ele>
        <time>2013-08-04T10:37:53Z</time>
      </trkpt>
      <trkpt lat="44.44004" lon="2.45715">
        <ele>476.2</ele>
        <time>2013-08-04T10:37:56Z</time>
      </trkpt>
    </trkseg>
  </trk>
</gpx>